<?xml version='1.0' encoding='UTF-8'?><gpx version="1.1" creator="JPX - https://github.com/jenetics/jpx" xmlns="http://www.topografix.com/GPX/1/1"><trk><trkseg><trkpt lat="44.7460106" lon="8.0624633"><ele>153.6</ele><time>2026-04-25T13:02:52.86Z</time></trkpt><trkpt lat="44.7459509" lon="8.0623775"><ele>154.20000000000002</ele><time>2026-04-25T13:02:54.86Z</time></trkpt><trkpt lat="44.7458726" lon="8.0623162"><ele>154.8</ele><time>2026-04-25T13:02:56.86Z</time></trkpt><trkpt lat="44.7457767" lon="8.0622942"><ele>155.4</ele><time>2026-04-25T13:02:58.861Z</time></trkpt><trkpt lat="44.7456864" lon="8.0622824"><ele>156.0</ele><time>2026-04-25T13:03:00.86Z</time></trkpt><trkpt lat="44.7455832" lon="8.0622785"><ele>156.0</ele><time>2026-04-25T13:03:02.86Z</time></trkpt><trkpt lat="44.74547" lon="8.0622624"><ele>156.0</ele><time>2026-04-25T13:03:04.86Z</time></trkpt><trkpt lat="44.7453817" lon="8.0622259"><ele>156.0</ele><time>2026-04-25T13:03:06.86Z</time></trkpt><trkpt lat="44.7453064" lon="8.0621639"><ele>156.0</ele><time>2026-04-25T13:03:09.86Z</time></trkpt><trkpt lat="44.7452553" lon="8.0620748"><ele>156.0</ele><time>2026-04-25T13:03:13.86Z</time></trkpt><trkpt lat="44.7452729" lon="8.0619021"><ele>156.0</ele><time>2026-04-25T13:03:15.861Z</time></trkpt><trkpt lat="44.7452902" lon="8.0617929"><ele>156.0</ele><time>2026-04-25T13:03:16.86Z</time></trkpt><trkpt lat="44.7453091" lon="8.0616777"><ele>156.0</ele><time>2026-04-25T13:03:17.86Z</time></trkpt><trkpt lat="44.7453274" lon="8.0615525"><ele>156.0</ele><time>2026-04-25T13:03:18.86Z</time></trkpt><trkpt lat="44.7453463" lon="8.0614166"><ele>156.0</ele><time>2026-04-25T13:03:19.86Z</time></trkpt><trkpt lat="44.7453648" lon="8.0612701"><ele>155.8</ele><time>2026-04-25T13:03:20.861Z</time></trkpt><trkpt lat="44.7453838" lon="8.0611233"><ele>155.6</ele><time>2026-04-25T13:03:21.86Z</time></trkpt><trkpt lat="44.7453994" lon="8.0609873"><ele>155.4</ele><time>2026-04-25T13:03:22.86Z</time></trkpt><trkpt lat="44.7454161" lon="8.060866"><ele>155.2</ele><time>2026-04-25T13:03:23.86Z</time></trkpt><trkpt lat="44.7454447" lon="8.0607564"><ele>155.0</ele><time>2026-04-25T13:03:24.86Z</time></trkpt><trkpt lat="44.7454899" lon="8.0606655"><ele>154.85714285714286</ele><time>2026-04-25T13:03:25.861Z</time></trkpt><trkpt lat="44.7455525" lon="8.0605928"><ele>154.71428571428572</ele><time>2026-04-25T13:03:26.86Z</time></trkpt><trkpt lat="44.7455992" lon="8.0605178"><ele>154.57142857142856</ele><time>2026-04-25T13:03:27.86Z</time></trkpt><trkpt lat="44.7456322" lon="8.0604341"><ele>154.42857142857144</ele><time>2026-04-25T13:03:28.86Z</time></trkpt><trkpt lat="44.7456402" lon="8.060338"><ele>154.28571428571428</ele><time>2026-04-25T13:03:29.86Z</time></trkpt><trkpt lat="44.7456237" lon="8.060239"><ele>154.14285714285714</ele><time>2026-04-25T13:03:30.86Z</time></trkpt><trkpt lat="44.7455755" lon="8.0601653"><ele>154.0</ele><time>2026-04-25T13:03:31.86Z</time></trkpt><trkpt lat="44.7455126" lon="8.0601174"><ele>154.0</ele><time>2026-04-25T13:03:32.86Z</time></trkpt><trkpt lat="44.7454314" lon="8.0601001"><ele>154.0</ele><time>2026-04-25T13:03:33.86Z</time></trkpt><trkpt lat="44.7453427" lon="8.060069"><ele>154.0</ele><time>2026-04-25T13:03:34.86Z</time></trkpt><trkpt lat="44.7452454" lon="8.060008"><ele>154.0</ele><time>2026-04-25T13:03:35.86Z</time></trkpt><trkpt lat="44.7451456" lon="8.0599305"><ele>154.0</ele><time>2026-04-25T13:03:36.86Z</time></trkpt><trkpt lat="44.7450459" lon="8.059836"><ele>154.25</ele><time>2026-04-25T13:03:37.86Z</time></trkpt><trkpt lat="44.744948" lon="8.0597472"><ele>154.5</ele><time>2026-04-25T13:03:38.86Z</time></trkpt><trkpt lat="44.7448453" lon="8.0596495"><ele>154.75</ele><time>2026-04-25T13:03:39.86Z</time></trkpt><trkpt lat="44.7447398" lon="8.0595494"><ele>155.0</ele><time>2026-04-25T13:03:40.86Z</time></trkpt><trkpt lat="44.7446299" lon="8.0594528"><ele>155.0</ele><time>2026-04-25T13:03:41.861Z</time></trkpt><trkpt lat="44.744518" lon="8.0593524"><ele>155.0</ele><time>2026-04-25T13:03:42.86Z</time></trkpt><trkpt lat="44.7444061" lon="8.059252"><ele>155.0</ele><time>2026-04-25T13:03:43.86Z</time></trkpt><trkpt lat="44.7442959" lon="8.0591469"><ele>155.0</ele><time>2026-04-25T13:03:44.86Z</time></trkpt><trkpt lat="44.7441825" lon="8.0590429"><ele>154.75</ele><time>2026-04-25T13:03:45.86Z</time></trkpt><trkpt lat="44.7440674" lon="8.0589345"><ele>154.5</ele><time>2026-04-25T13:03:46.86Z</time></trkpt><trkpt lat="44.74395" lon="8.0588234"><ele>154.25</ele><time>2026-04-25T13:03:47.86Z</time></trkpt><trkpt lat="44.7438308" lon="8.0587133"><ele>154.0</ele><time>2026-04-25T13:03:48.861Z</time></trkpt><trkpt lat="44.7437111" lon="8.0586039"><ele>154.0</ele><time>2026-04-25T13:03:49.86Z</time></trkpt><trkpt lat="44.7435958" lon="8.0584942"><ele>154.0</ele><time>2026-04-25T13:03:50.86Z</time></trkpt><trkpt lat="44.743477" lon="8.0583895"><ele>154.0</ele><time>2026-04-25T13:03:51.86Z</time></trkpt><trkpt lat="44.7433587" lon="8.058278"><ele>154.0</ele><time>2026-04-25T13:03:52.861Z</time></trkpt><trkpt lat="44.7432392" lon="8.0581702"><ele>153.25</ele><time>2026-04-25T13:03:53.86Z</time></trkpt><trkpt lat="44.743123" lon="8.0580598"><ele>152.5</ele><time>2026-04-25T13:03:54.86Z</time></trkpt><trkpt lat="44.7430065" lon="8.0579498"><ele>151.75</ele><time>2026-04-25T13:03:55.86Z</time></trkpt><trkpt lat="44.742887" lon="8.0578406"><ele>151.0</ele><time>2026-04-25T13:03:56.86Z</time></trkpt><trkpt lat="44.7427669" lon="8.0577308"><ele>151.25</ele><time>2026-04-25T13:03:57.861Z</time></trkpt><trkpt lat="44.7426461" lon="8.0576182"><ele>151.5</ele><time>2026-04-25T13:03:58.86Z</time></trkpt><trkpt lat="44.7425255" lon="8.0575035"><ele>151.75</ele><time>2026-04-25T13:03:59.86Z</time></trkpt><trkpt lat="44.7424061" lon="8.0573899"><ele>152.0</ele><time>2026-04-25T13:04:00.86Z</time></trkpt><trkpt lat="44.7422842" lon="8.0572766"><ele>152.0</ele><time>2026-04-25T13:04:01.86Z</time></trkpt><trkpt lat="44.7421612" lon="8.0571617"><ele>152.0</ele><time>2026-04-25T13:04:02.86Z</time></trkpt><trkpt lat="44.7420399" lon="8.0570468"><ele>152.0</ele><time>2026-04-25T13:04:03.86Z</time></trkpt><trkpt lat="44.7419175" lon="8.0569322"><ele>152.0</ele><time>2026-04-25T13:04:04.86Z</time></trkpt><trkpt lat="44.7417922" lon="8.0568142"><ele>152.25</ele><time>2026-04-25T13:04:05.86Z</time></trkpt><trkpt lat="44.7416674" lon="8.056699"><ele>152.5</ele><time>2026-04-25T13:04:06.86Z</time></trkpt><trkpt lat="44.7415443" lon="8.0565831"><ele>152.75</ele><time>2026-04-25T13:04:07.86Z</time></trkpt><trkpt lat="44.7414194" lon="8.0564655"><ele>153.0</ele><time>2026-04-25T13:04:08.86Z</time></trkpt><trkpt lat="44.7412931" lon="8.0563497"><ele>153.33333333333334</ele><time>2026-04-25T13:04:09.86Z</time></trkpt><trkpt lat="44.7411631" lon="8.0562342"><ele>153.66666666666669</ele><time>2026-04-25T13:04:10.86Z</time></trkpt><trkpt lat="44.7410353" lon="8.0561173"><ele>154.0</ele><time>2026-04-25T13:04:11.86Z</time></trkpt><trkpt lat="44.7409075" lon="8.0559967"><ele>154.33333333333334</ele><time>2026-04-25T13:04:12.86Z</time></trkpt><trkpt lat="44.7407788" lon="8.0558782"><ele>154.66666666666666</ele><time>2026-04-25T13:04:13.86Z</time></trkpt><trkpt lat="44.7406506" lon="8.0557561"><ele>155.0</ele><time>2026-04-25T13:04:14.86Z</time></trkpt><trkpt lat="44.7405219" lon="8.0556329"><ele>155.0</ele><time>2026-04-25T13:04:15.86Z</time></trkpt><trkpt lat="44.740389" lon="8.0555103"><ele>155.0</ele><time>2026-04-25T13:04:16.86Z</time></trkpt><trkpt lat="44.7402564" lon="8.0553874"><ele>155.0</ele><time>2026-04-25T13:04:17.86Z</time></trkpt><trkpt lat="44.7401228" lon="8.0552643"><ele>155.0</ele><time>2026-04-25T13:04:18.86Z</time></trkpt><trkpt lat="44.7399889" lon="8.055138"><ele>155.0</ele><time>2026-04-25T13:04:19.86Z</time></trkpt><trkpt lat="44.7398502" lon="8.0550157"><ele>155.0</ele><time>2026-04-25T13:04:20.86Z</time></trkpt><trkpt lat="44.7397132" lon="8.0548879"><ele>154.33333333333331</ele><time>2026-04-25T13:04:21.86Z</time></trkpt><trkpt lat="44.7395752" lon="8.0547625"><ele>153.66666666666666</ele><time>2026-04-25T13:04:22.86Z</time></trkpt><trkpt lat="44.7394385" lon="8.0546363"><ele>153.0</ele><time>2026-04-25T13:04:23.86Z</time></trkpt><trkpt lat="44.7393009" lon="8.0545101"><ele>152.66666666666666</ele><time>2026-04-25T13:04:24.86Z</time></trkpt><trkpt lat="44.7391608" lon="8.054384"><ele>152.33333333333331</ele><time>2026-04-25T13:04:25.86Z</time></trkpt><trkpt lat="44.7390201" lon="8.0542584"><ele>152.0</ele><time>2026-04-25T13:04:26.86Z</time></trkpt><trkpt lat="44.7388821" lon="8.0541292"><ele>152.66666666666666</ele><time>2026-04-25T13:04:27.86Z</time></trkpt><trkpt lat="44.7387447" lon="8.0539985"><ele>153.33333333333334</ele><time>2026-04-25T13:04:28.86Z</time></trkpt><trkpt lat="44.7386056" lon="8.0538702"><ele>154.0</ele><time>2026-04-25T13:04:29.859Z</time></trkpt><trkpt lat="44.7384644" lon="8.0537407"><ele>154.0</ele><time>2026-04-25T13:04:30.86Z</time></trkpt><trkpt lat="44.7383236" lon="8.0536111"><ele>154.0</ele><time>2026-04-25T13:04:31.86Z</time></trkpt><trkpt lat="44.7381814" lon="8.0534811"><ele>154.0</ele><time>2026-04-25T13:04:32.861Z</time></trkpt><trkpt lat="44.7380386" lon="8.0533484"><ele>153.66666666666669</ele><time>2026-04-25T13:04:33.86Z</time></trkpt><trkpt lat="44.7378958" lon="8.053216"><ele>153.33333333333334</ele><time>2026-04-25T13:04:34.86Z</time></trkpt><trkpt lat="44.7377521" lon="8.0530897"><ele>153.0</ele><time>2026-04-25T13:04:35.86Z</time></trkpt><trkpt lat="44.7376087" lon="8.0529574"><ele>152.66666666666666</ele><time>2026-04-25T13:04:36.861Z</time></trkpt><trkpt lat="44.7374681" lon="8.0528258"><ele>152.33333333333331</ele><time>2026-04-25T13:04:37.86Z</time></trkpt><trkpt lat="44.7373256" lon="8.0526925"><ele>152.0</ele><time>2026-04-25T13:04:38.86Z</time></trkpt><trkpt lat="44.7371866" lon="8.0525565"><ele>152.0</ele><time>2026-04-25T13:04:39.86Z</time></trkpt><trkpt lat="44.737046" lon="8.0524211"><ele>152.0</ele><time>2026-04-25T13:04:40.86Z</time></trkpt><trkpt lat="44.7369067" lon="8.0522822"><ele>152.0</ele><time>2026-04-25T13:04:41.86Z</time></trkpt><trkpt lat="44.7367647" lon="8.0521486"><ele>152.0</ele><time>2026-04-25T13:04:42.86Z</time></trkpt><trkpt lat="44.7366187" lon="8.0520138"><ele>152.0</ele><time>2026-04-25T13:04:43.86Z</time></trkpt><trkpt lat="44.7364722" lon="8.0518782"><ele>152.0</ele><time>2026-04-25T13:04:44.86Z</time></trkpt><trkpt lat="44.7363245" lon="8.0517463"><ele>152.33333333333331</ele><time>2026-04-25T13:04:45.861Z</time></trkpt><trkpt lat="44.7361747" lon="8.0516121"><ele>152.66666666666666</ele><time>2026-04-25T13:04:46.86Z</time></trkpt><trkpt lat="44.7360297" lon="8.0514755"><ele>153.0</ele><time>2026-04-25T13:04:47.86Z</time></trkpt><trkpt lat="44.7358857" lon="8.0513417"><ele>153.66666666666666</ele><time>2026-04-25T13:04:48.86Z</time></trkpt><trkpt lat="44.73574" lon="8.0512065"><ele>154.33333333333331</ele><time>2026-04-25T13:04:49.86Z</time></trkpt><trkpt lat="44.7355986" lon="8.0510713"><ele>155.0</ele><time>2026-04-25T13:04:50.86Z</time></trkpt><trkpt lat="44.7354525" lon="8.0509375"><ele>155.0</ele><time>2026-04-25T13:04:51.86Z</time></trkpt><trkpt lat="44.7353061" lon="8.0508056"><ele>155.0</ele><time>2026-04-25T13:04:52.86Z</time></trkpt><trkpt lat="44.7351644" lon="8.0506734"><ele>155.0</ele><time>2026-04-25T13:04:53.86Z</time></trkpt><trkpt lat="44.7350226" lon="8.0505419"><ele>155.33333333333331</ele><time>2026-04-25T13:04:54.86Z</time></trkpt><trkpt lat="44.7348807" lon="8.0504071"><ele>155.66666666666666</ele><time>2026-04-25T13:04:55.86Z</time></trkpt><trkpt lat="44.7347387" lon="8.050272"><ele>156.0</ele><time>2026-04-25T13:04:56.861Z</time></trkpt><trkpt lat="44.7345973" lon="8.0501434"><ele>156.0</ele><time>2026-04-25T13:04:57.861Z</time></trkpt><trkpt lat="44.7344629" lon="8.0500243"><ele>156.0</ele><time>2026-04-25T13:04:58.86Z</time></trkpt><trkpt lat="44.7343361" lon="8.049911"><ele>156.0</ele><time>2026-04-25T13:04:59.86Z</time></trkpt><trkpt lat="44.7342175" lon="8.0497974"><ele>156.5</ele><time>2026-04-25T13:05:00.861Z</time></trkpt><trkpt lat="44.7340996" lon="8.0496938"><ele>157.0</ele><time>2026-04-25T13:05:01.86Z</time></trkpt><trkpt lat="44.7339899" lon="8.0496056"><ele>157.5</ele><time>2026-04-25T13:05:02.86Z</time></trkpt><trkpt lat="44.7338866" lon="8.0495321"><ele>158.0</ele><time>2026-04-25T13:05:03.86Z</time></trkpt><trkpt lat="44.7337957" lon="8.0494656"><ele>158.0</ele><time>2026-04-25T13:05:04.86Z</time></trkpt><trkpt lat="44.7337181" lon="8.0494006"><ele>158.0</ele><time>2026-04-25T13:05:05.86Z</time></trkpt><trkpt lat="44.7336575" lon="8.0493272"><ele>158.0</ele><time>2026-04-25T13:05:06.86Z</time></trkpt><trkpt lat="44.7336" lon="8.0492404"><ele>158.0</ele><time>2026-04-25T13:05:07.86Z</time></trkpt><trkpt lat="44.7335204" lon="8.049171"><ele>158.0</ele><time>2026-04-25T13:05:08.86Z</time></trkpt><trkpt lat="44.733431" lon="8.0490969"><ele>158.0</ele><time>2026-04-25T13:05:09.86Z</time></trkpt><trkpt lat="44.7333377" lon="8.0490014"><ele>158.0</ele><time>2026-04-25T13:05:10.86Z</time></trkpt><trkpt lat="44.733237" lon="8.0488913"><ele>158.0</ele><time>2026-04-25T13:05:11.86Z</time></trkpt><trkpt lat="44.7331354" lon="8.0487865"><ele>158.0</ele><time>2026-04-25T13:05:12.86Z</time></trkpt><trkpt lat="44.7330297" lon="8.0486709"><ele>158.0</ele><time>2026-04-25T13:05:13.86Z</time></trkpt><trkpt lat="44.7329181" lon="8.0485542"><ele>158.0</ele><time>2026-04-25T13:05:14.86Z</time></trkpt><trkpt lat="44.7327977" lon="8.0484602"><ele>158.0</ele><time>2026-04-25T13:05:15.86Z</time></trkpt><trkpt lat="44.7326745" lon="8.0483452"><ele>158.0</ele><time>2026-04-25T13:05:16.86Z</time></trkpt><trkpt lat="44.7325517" lon="8.048225"><ele>157.66666666666666</ele><time>2026-04-25T13:05:17.86Z</time></trkpt><trkpt lat="44.7324263" lon="8.0481047"><ele>157.33333333333334</ele><time>2026-04-25T13:05:18.86Z</time></trkpt><trkpt lat="44.7322951" lon="8.0479873"><ele>157.0</ele><time>2026-04-25T13:05:19.861Z</time></trkpt><trkpt lat="44.7321662" lon="8.0478625"><ele>157.0</ele><time>2026-04-25T13:05:20.86Z</time></trkpt><trkpt lat="44.7320334" lon="8.04774"><ele>157.0</ele><time>2026-04-25T13:05:21.86Z</time></trkpt><trkpt lat="44.731896" lon="8.0476102"><ele>157.0</ele><time>2026-04-25T13:05:22.861Z</time></trkpt><trkpt lat="44.7317565" lon="8.0474814"><ele>156.66666666666669</ele><time>2026-04-25T13:05:23.861Z</time></trkpt><trkpt lat="44.7316094" lon="8.0473493"><ele>156.33333333333334</ele><time>2026-04-25T13:05:24.86Z</time></trkpt><trkpt lat="44.7314644" lon="8.0472141"><ele>156.0</ele><time>2026-04-25T13:05:25.86Z</time></trkpt><trkpt lat="44.7313212" lon="8.0470835"><ele>156.0</ele><time>2026-04-25T13:05:26.86Z</time></trkpt><trkpt lat="44.7311813" lon="8.0469541"><ele>156.0</ele><time>2026-04-25T13:05:27.86Z</time></trkpt><trkpt lat="44.7310394" lon="8.0468234"><ele>156.0</ele><time>2026-04-25T13:05:28.861Z</time></trkpt><trkpt lat="44.7308942" lon="8.0466939"><ele>156.33333333333334</ele><time>2026-04-25T13:05:29.86Z</time></trkpt><trkpt lat="44.7307545" lon="8.0465586"><ele>156.66666666666669</ele><time>2026-04-25T13:05:30.86Z</time></trkpt><trkpt lat="44.7306066" lon="8.0464256"><ele>157.0</ele><time>2026-04-25T13:05:31.86Z</time></trkpt><trkpt lat="44.7304627" lon="8.0462878"><ele>157.0</ele><time>2026-04-25T13:05:32.86Z</time></trkpt><trkpt lat="44.730317" lon="8.0461545"><ele>157.0</ele><time>2026-04-25T13:05:33.86Z</time></trkpt><trkpt lat="44.7301737" lon="8.0460201"><ele>157.0</ele><time>2026-04-25T13:05:34.86Z</time></trkpt><trkpt lat="44.7300284" lon="8.0458873"><ele>157.66666666666669</ele><time>2026-04-25T13:05:35.861Z</time></trkpt><trkpt lat="44.7298876" lon="8.0457494"><ele>158.33333333333334</ele><time>2026-04-25T13:05:36.86Z</time></trkpt><trkpt lat="44.7297484" lon="8.0456198"><ele>159.0</ele><time>2026-04-25T13:05:37.86Z</time></trkpt><trkpt lat="44.7296135" lon="8.0454955"><ele>159.0</ele><time>2026-04-25T13:05:38.86Z</time></trkpt><trkpt lat="44.7294858" lon="8.0453752"><ele>159.0</ele><time>2026-04-25T13:05:39.86Z</time></trkpt><trkpt lat="44.7293649" lon="8.0452572"><ele>159.0</ele><time>2026-04-25T13:05:40.86Z</time></trkpt><trkpt lat="44.7292499" lon="8.0451458"><ele>159.0</ele><time>2026-04-25T13:05:41.86Z</time></trkpt><trkpt lat="44.7291468" lon="8.0450408"><ele>158.8</ele><time>2026-04-25T13:05:42.86Z</time></trkpt><trkpt lat="44.7290522" lon="8.0449415"><ele>158.60000000000002</ele><time>2026-04-25T13:05:43.86Z</time></trkpt><trkpt lat="44.7289682" lon="8.0448459"><ele>158.4</ele><time>2026-04-25T13:05:44.861Z</time></trkpt><trkpt lat="44.7288863" lon="8.0447583"><ele>158.20000000000002</ele><time>2026-04-25T13:05:45.86Z</time></trkpt><trkpt lat="44.7288003" lon="8.0446917"><ele>158.0</ele><time>2026-04-25T13:05:46.86Z</time></trkpt><trkpt lat="44.7287214" lon="8.0446353"><ele>158.0</ele><time>2026-04-25T13:05:47.86Z</time></trkpt><trkpt lat="44.7286506" lon="8.044579"><ele>158.0</ele><time>2026-04-25T13:05:48.86Z</time></trkpt><trkpt lat="44.7285805" lon="8.0445198"><ele>158.0</ele><time>2026-04-25T13:05:49.86Z</time></trkpt><trkpt lat="44.7285032" lon="8.0444522"><ele>158.0</ele><time>2026-04-25T13:05:50.861Z</time></trkpt><trkpt lat="44.7284178" lon="8.0443788"><ele>158.0</ele><time>2026-04-25T13:05:51.86Z</time></trkpt><trkpt lat="44.7283233" lon="8.0442963"><ele>158.25</ele><time>2026-04-25T13:05:52.861Z</time></trkpt><trkpt lat="44.7282192" lon="8.0442043"><ele>158.5</ele><time>2026-04-25T13:05:53.86Z</time></trkpt><trkpt lat="44.728116" lon="8.0441079"><ele>158.75</ele><time>2026-04-25T13:05:54.86Z</time></trkpt><trkpt lat="44.7280113" lon="8.04401"><ele>159.0</ele><time>2026-04-25T13:05:55.86Z</time></trkpt><trkpt lat="44.7279099" lon="8.0439147"><ele>159.0</ele><time>2026-04-25T13:05:56.86Z</time></trkpt><trkpt lat="44.7278163" lon="8.0438269"><ele>159.0</ele><time>2026-04-25T13:05:57.86Z</time></trkpt><trkpt lat="44.7277275" lon="8.0437468"><ele>159.0</ele><time>2026-04-25T13:05:58.86Z</time></trkpt><trkpt lat="44.7276389" lon="8.0436786"><ele>159.0</ele><time>2026-04-25T13:05:59.86Z</time></trkpt><trkpt lat="44.7275495" lon="8.0436008"><ele>159.0</ele><time>2026-04-25T13:06:00.86Z</time></trkpt><trkpt lat="44.727459" lon="8.0435034"><ele>159.25</ele><time>2026-04-25T13:06:01.861Z</time></trkpt><trkpt lat="44.7273561" lon="8.0433998"><ele>159.5</ele><time>2026-04-25T13:06:02.86Z</time></trkpt><trkpt lat="44.7272431" lon="8.0432956"><ele>159.75</ele><time>2026-04-25T13:06:03.86Z</time></trkpt><trkpt lat="44.7271179" lon="8.0431783"><ele>160.0</ele><time>2026-04-25T13:06:04.86Z</time></trkpt><trkpt lat="44.7269849" lon="8.043051"><ele>160.0</ele><time>2026-04-25T13:06:05.861Z</time></trkpt><trkpt lat="44.7268419" lon="8.0429187"><ele>160.0</ele><time>2026-04-25T13:06:06.86Z</time></trkpt><trkpt lat="44.7266929" lon="8.0427732"><ele>160.0</ele><time>2026-04-25T13:06:07.86Z</time></trkpt><trkpt lat="44.7265352" lon="8.0426212"><ele>160.0</ele><time>2026-04-25T13:06:08.86Z</time></trkpt><trkpt lat="44.726376" lon="8.0424747"><ele>160.0</ele><time>2026-04-25T13:06:09.86Z</time></trkpt><trkpt lat="44.7262137" lon="8.0423315"><ele>160.0</ele><time>2026-04-25T13:06:10.86Z</time></trkpt><trkpt lat="44.7260528" lon="8.0421796"><ele>159.33333333333334</ele><time>2026-04-25T13:06:11.86Z</time></trkpt><trkpt lat="44.7258919" lon="8.0420251"><ele>158.66666666666666</ele><time>2026-04-25T13:06:12.86Z</time></trkpt><trkpt lat="44.7257282" lon="8.0418718"><ele>158.0</ele><time>2026-04-25T13:06:13.86Z</time></trkpt><trkpt lat="44.7255657" lon="8.0417148"><ele>158.0</ele><time>2026-04-25T13:06:14.86Z</time></trkpt><trkpt lat="44.7254029" lon="8.0415588"><ele>158.0</ele><time>2026-04-25T13:06:15.86Z</time></trkpt><trkpt lat="44.7252383" lon="8.0414041"><ele>158.0</ele><time>2026-04-25T13:06:16.86Z</time></trkpt><trkpt lat="44.7250688" lon="8.0412511"><ele>158.33333333333331</ele><time>2026-04-25T13:06:17.861Z</time></trkpt><trkpt lat="44.7249014" lon="8.0410995"><ele>158.66666666666666</ele><time>2026-04-25T13:06:18.86Z</time></trkpt><trkpt lat="44.7247323" lon="8.040946"><ele>159.0</ele><time>2026-04-25T13:06:19.86Z</time></trkpt><trkpt lat="44.7245653" lon="8.0407889"><ele>159.0</ele><time>2026-04-25T13:06:20.86Z</time></trkpt><trkpt lat="44.7243972" lon="8.04063"><ele>159.0</ele><time>2026-04-25T13:06:21.861Z</time></trkpt><trkpt lat="44.7242288" lon="8.04047"><ele>159.0</ele><time>2026-04-25T13:06:22.861Z</time></trkpt><trkpt lat="44.7240645" lon="8.0403127"><ele>159.33333333333334</ele><time>2026-04-25T13:06:23.86Z</time></trkpt><trkpt lat="44.7238952" lon="8.0401555"><ele>159.66666666666669</ele><time>2026-04-25T13:06:24.86Z</time></trkpt><trkpt lat="44.7237262" lon="8.0399993"><ele>160.0</ele><time>2026-04-25T13:06:25.86Z</time></trkpt><trkpt lat="44.7235575" lon="8.0398428"><ele>160.0</ele><time>2026-04-25T13:06:26.86Z</time></trkpt><trkpt lat="44.7233903" lon="8.0396862"><ele>160.0</ele><time>2026-04-25T13:06:27.86Z</time></trkpt><trkpt lat="44.7232211" lon="8.0395268"><ele>160.0</ele><time>2026-04-25T13:06:28.86Z</time></trkpt><trkpt lat="44.723054" lon="8.0393667"><ele>160.0</ele><time>2026-04-25T13:06:29.86Z</time></trkpt><trkpt lat="44.7228872" lon="8.039215"><ele>160.0</ele><time>2026-04-25T13:06:30.86Z</time></trkpt><trkpt lat="44.7227248" lon="8.0390586"><ele>160.0</ele><time>2026-04-25T13:06:31.86Z</time></trkpt><trkpt lat="44.7225613" lon="8.038907"><ele>160.0</ele><time>2026-04-25T13:06:32.86Z</time></trkpt><trkpt lat="44.7224045" lon="8.0387629"><ele>160.0</ele><time>2026-04-25T13:06:33.86Z</time></trkpt><trkpt lat="44.7222604" lon="8.0386279"><ele>160.0</ele><time>2026-04-25T13:06:34.86Z</time></trkpt><trkpt lat="44.7221289" lon="8.0385101"><ele>160.0</ele><time>2026-04-25T13:06:35.86Z</time></trkpt><trkpt lat="44.7220081" lon="8.0384022"><ele>160.0</ele><time>2026-04-25T13:06:36.86Z</time></trkpt><trkpt lat="44.7219034" lon="8.0383076"><ele>160.0</ele><time>2026-04-25T13:06:37.86Z</time></trkpt><trkpt lat="44.7218125" lon="8.0382235"><ele>160.0</ele><time>2026-04-25T13:06:38.86Z</time></trkpt><trkpt lat="44.7217361" lon="8.0381482"><ele>159.83333333333334</ele><time>2026-04-25T13:06:39.86Z</time></trkpt><trkpt lat="44.721673" lon="8.038077"><ele>159.66666666666669</ele><time>2026-04-25T13:06:40.86Z</time></trkpt><trkpt lat="44.7216271" lon="8.0379978"><ele>159.5</ele><time>2026-04-25T13:06:41.86Z</time></trkpt><trkpt lat="44.7215985" lon="8.0379098"><ele>159.33333333333334</ele><time>2026-04-25T13:06:42.86Z</time></trkpt><trkpt lat="44.7215882" lon="8.0378171"><ele>159.16666666666666</ele><time>2026-04-25T13:06:43.86Z</time></trkpt><trkpt lat="44.721637" lon="8.0376845"><ele>159.0</ele><time>2026-04-25T13:06:45.86Z</time></trkpt><trkpt lat="44.721755" lon="8.0376448"><ele>159.0</ele><time>2026-04-25T13:06:47.86Z</time></trkpt><trkpt lat="44.721827" lon="8.0376567"><ele>159.0</ele><time>2026-04-25T13:06:48.86Z</time></trkpt><trkpt lat="44.7218944" lon="8.037652"><ele>159.0</ele><time>2026-04-25T13:06:49.86Z</time></trkpt><trkpt lat="44.72201" lon="8.0375943"><ele>159.0</ele><time>2026-04-25T13:06:51.86Z</time></trkpt><trkpt lat="44.7220531" lon="8.0375246"><ele>159.0</ele><time>2026-04-25T13:06:52.86Z</time></trkpt><trkpt lat="44.7220774" lon="8.037437"><ele>159.0</ele><time>2026-04-25T13:06:53.86Z</time></trkpt><trkpt lat="44.7220876" lon="8.0373413"><ele>159.0</ele><time>2026-04-25T13:06:54.86Z</time></trkpt><trkpt lat="44.722091" lon="8.037236"><ele>159.0</ele><time>2026-04-25T13:06:55.86Z</time></trkpt><trkpt lat="44.7220912" lon="8.0371352"><ele>159.0</ele><time>2026-04-25T13:06:56.86Z</time></trkpt><trkpt lat="44.7220874" lon="8.0370456"><ele>159.0</ele><time>2026-04-25T13:06:57.86Z</time></trkpt><trkpt lat="44.722043" lon="8.0369231"><ele>159.0</ele><time>2026-04-25T13:06:59.86Z</time></trkpt><trkpt lat="44.7219645" lon="8.0369016"><ele>159.0</ele><time>2026-04-25T13:07:01.86Z</time></trkpt><trkpt lat="44.7218928" lon="8.0369268"><ele>159.0</ele><time>2026-04-25T13:07:03.86Z</time></trkpt><trkpt lat="44.7218371" lon="8.0370095"><ele>159.0</ele><time>2026-04-25T13:07:05.86Z</time></trkpt><trkpt lat="44.7217956" lon="8.0371143"><ele>159.0</ele><time>2026-04-25T13:07:07.86Z</time></trkpt><trkpt lat="44.7217746" lon="8.0372055"><ele>159.0</ele><time>2026-04-25T13:07:11.86Z</time></trkpt><trkpt lat="44.7218086" lon="8.0372861"><ele>159.0</ele><time>2026-04-25T13:09:45.86Z</time></trkpt><trkpt lat="44.721875" lon="8.0373134"><ele>159.0</ele><time>2026-04-25T13:09:49.86Z</time></trkpt><trkpt lat="44.7218904" lon="8.0374195"><ele>159.0</ele><time>2026-04-25T13:11:40.849Z</time></trkpt><trkpt lat="44.721851" lon="8.0375231"><ele>159.0</ele><time>2026-04-25T13:12:14.849Z</time></trkpt><trkpt lat="44.7217704" lon="8.0375355"><ele>159.0</ele><time>2026-04-25T13:12:17.849Z</time></trkpt><trkpt lat="44.7217034" lon="8.037572"><ele>159.0</ele><time>2026-04-25T13:14:19.86Z</time></trkpt><trkpt lat="44.7216402" lon="8.03759"><ele>159.0</ele><time>2026-04-25T13:14:28.851Z</time></trkpt><trkpt lat="44.7215633" lon="8.0375756"><ele>159.0</ele><time>2026-04-25T13:14:33.855Z</time></trkpt><trkpt lat="44.7214706" lon="8.0375387"><ele>159.0</ele><time>2026-04-25T13:14:35.857Z</time></trkpt><trkpt lat="44.7213364" lon="8.0375138"><ele>159.0</ele><time>2026-04-25T13:14:37.857Z</time></trkpt><trkpt lat="44.7212609" lon="8.0374911"><ele>159.0</ele><time>2026-04-25T13:14:38.85Z</time></trkpt><trkpt lat="44.7211897" lon="8.0374636"><ele>159.0</ele><time>2026-04-25T13:14:39.855Z</time></trkpt><trkpt lat="44.7211112" lon="8.0374305"><ele>159.0</ele><time>2026-04-25T13:14:40.859Z</time></trkpt><trkpt lat="44.7210326" lon="8.0373847"><ele>159.0</ele><time>2026-04-25T13:14:41.85Z</time></trkpt><trkpt lat="44.7209532" lon="8.0373334"><ele>159.0</ele><time>2026-04-25T13:14:42.858Z</time></trkpt><trkpt lat="44.7208692" lon="8.0372773"><ele>160.0</ele><time>2026-04-25T13:14:43.849Z</time></trkpt><trkpt lat="44.7207829" lon="8.0372144"><ele>161.0</ele><time>2026-04-25T13:14:44.859Z</time></trkpt><trkpt lat="44.7206907" lon="8.0371526"><ele>162.0</ele><time>2026-04-25T13:14:45.845Z</time></trkpt><trkpt lat="44.720594" lon="8.0370852"><ele>163.0</ele><time>2026-04-25T13:14:46.847Z</time></trkpt><trkpt lat="44.7204988" lon="8.0370122"><ele>164.0</ele><time>2026-04-25T13:14:47.852Z</time></trkpt><trkpt lat="44.7204037" lon="8.0369305"><ele>164.0</ele><time>2026-04-25T13:14:48.857Z</time></trkpt><trkpt lat="44.7203072" lon="8.036845"><ele>164.0</ele><time>2026-04-25T13:14:49.853Z</time></trkpt><trkpt lat="44.7202086" lon="8.0367599"><ele>164.0</ele><time>2026-04-25T13:14:50.853Z</time></trkpt><trkpt lat="44.7201178" lon="8.0366741"><ele>164.0</ele><time>2026-04-25T13:14:51.845Z</time></trkpt><trkpt lat="44.7200259" lon="8.0365867"><ele>162.75</ele><time>2026-04-25T13:14:52.848Z</time></trkpt><trkpt lat="44.7199315" lon="8.0365026"><ele>161.5</ele><time>2026-04-25T13:14:53.844Z</time></trkpt><trkpt lat="44.7198343" lon="8.0364104"><ele>160.25</ele><time>2026-04-25T13:14:54.849Z</time></trkpt><trkpt lat="44.7197346" lon="8.0363219"><ele>159.0</ele><time>2026-04-25T13:14:55.835Z</time></trkpt><trkpt lat="44.7196327" lon="8.0362258"><ele>159.0</ele><time>2026-04-25T13:14:56.838Z</time></trkpt><trkpt lat="44.7195248" lon="8.0361249"><ele>159.0</ele><time>2026-04-25T13:14:57.837Z</time></trkpt><trkpt lat="44.7194157" lon="8.0360227"><ele>159.0</ele><time>2026-04-25T13:14:58.837Z</time></trkpt><trkpt lat="44.7193023" lon="8.0359161"><ele>159.0</ele><time>2026-04-25T13:14:59.838Z</time></trkpt><trkpt lat="44.7191911" lon="8.0358122"><ele>159.25</ele><time>2026-04-25T13:15:00.839Z</time></trkpt><trkpt lat="44.7190843" lon="8.0357156"><ele>159.5</ele><time>2026-04-25T13:15:01.837Z</time></trkpt><trkpt lat="44.7189861" lon="8.0356262"><ele>159.75</ele><time>2026-04-25T13:15:02.838Z</time></trkpt><trkpt lat="44.7188947" lon="8.0355432"><ele>160.0</ele><time>2026-04-25T13:15:03.838Z</time></trkpt><trkpt lat="44.7188102" lon="8.0354692"><ele>160.0</ele><time>2026-04-25T13:15:04.835Z</time></trkpt><trkpt lat="44.7187336" lon="8.0353984"><ele>160.0</ele><time>2026-04-25T13:15:05.838Z</time></trkpt><trkpt lat="44.7186605" lon="8.0353346"><ele>160.0</ele><time>2026-04-25T13:15:06.837Z</time></trkpt><trkpt lat="44.7185927" lon="8.035271"><ele>160.0</ele><time>2026-04-25T13:15:07.839Z</time></trkpt><trkpt lat="44.7185352" lon="8.0352089"><ele>160.0</ele><time>2026-04-25T13:15:08.837Z</time></trkpt><trkpt lat="44.7184909" lon="8.0351277"><ele>160.0</ele><time>2026-04-25T13:15:09.838Z</time></trkpt><trkpt lat="44.7184558" lon="8.0350309"><ele>160.71428571428572</ele><time>2026-04-25T13:15:10.836Z</time></trkpt><trkpt lat="44.7184191" lon="8.0349452"><ele>161.42857142857144</ele><time>2026-04-25T13:15:11.838Z</time></trkpt><trkpt lat="44.7183674" lon="8.0348785"><ele>162.14285714285717</ele><time>2026-04-25T13:15:12.836Z</time></trkpt><trkpt lat="44.7183029" lon="8.0348423"><ele>162.85714285714286</ele><time>2026-04-25T13:15:13.84Z</time></trkpt><trkpt lat="44.718238" lon="8.034835"><ele>163.57142857142858</ele><time>2026-04-25T13:15:14.842Z</time></trkpt><trkpt lat="44.7181691" lon="8.0348175"><ele>164.2857142857143</ele><time>2026-04-25T13:15:15.838Z</time></trkpt><trkpt lat="44.7180929" lon="8.0347775"><ele>165.0</ele><time>2026-04-25T13:15:16.836Z</time></trkpt><trkpt lat="44.7180127" lon="8.0347178"><ele>165.0</ele><time>2026-04-25T13:15:17.838Z</time></trkpt><trkpt lat="44.7179352" lon="8.0346448"><ele>165.0</ele><time>2026-04-25T13:15:18.838Z</time></trkpt><trkpt lat="44.7178581" lon="8.0345697"><ele>165.0</ele><time>2026-04-25T13:15:19.838Z</time></trkpt><trkpt lat="44.7177778" lon="8.0344924"><ele>165.0</ele><time>2026-04-25T13:15:20.838Z</time></trkpt><trkpt lat="44.7176926" lon="8.0344119"><ele>165.0</ele><time>2026-04-25T13:15:21.838Z</time></trkpt><trkpt lat="44.7175985" lon="8.0343224"><ele>165.0</ele><time>2026-04-25T13:15:22.84Z</time></trkpt><trkpt lat="44.7174975" lon="8.034228"><ele>165.0</ele><time>2026-04-25T13:15:23.839Z</time></trkpt><trkpt lat="44.7173866" lon="8.0341255"><ele>165.0</ele><time>2026-04-25T13:15:24.842Z</time></trkpt><trkpt lat="44.7172684" lon="8.0340199"><ele>165.0</ele><time>2026-04-25T13:15:25.843Z</time></trkpt><trkpt lat="44.7171502" lon="8.0339125"><ele>165.0</ele><time>2026-04-25T13:15:26.838Z</time></trkpt><trkpt lat="44.7170311" lon="8.0338073"><ele>165.0</ele><time>2026-04-25T13:15:27.837Z</time></trkpt><trkpt lat="44.7169144" lon="8.0336962"><ele>165.0</ele><time>2026-04-25T13:15:28.854Z</time></trkpt><trkpt lat="44.7167988" lon="8.0335793"><ele>165.0</ele><time>2026-04-25T13:15:29.858Z</time></trkpt><trkpt lat="44.7166766" lon="8.0334707"><ele>165.0</ele><time>2026-04-25T13:15:30.857Z</time></trkpt><trkpt lat="44.7165536" lon="8.0333531"><ele>165.0</ele><time>2026-04-25T13:15:31.856Z</time></trkpt><trkpt lat="44.7164251" lon="8.0332336"><ele>165.0</ele><time>2026-04-25T13:15:32.855Z</time></trkpt><trkpt lat="44.7162975" lon="8.0331156"><ele>165.33333333333334</ele><time>2026-04-25T13:15:33.857Z</time></trkpt><trkpt lat="44.7161687" lon="8.0329954"><ele>165.66666666666669</ele><time>2026-04-25T13:15:34.856Z</time></trkpt><trkpt lat="44.716035" lon="8.0328755"><ele>166.0</ele><time>2026-04-25T13:15:35.85Z</time></trkpt><trkpt lat="44.7159024" lon="8.0327536"><ele>165.66666666666669</ele><time>2026-04-25T13:15:36.855Z</time></trkpt><trkpt lat="44.7157696" lon="8.0326309"><ele>165.33333333333334</ele><time>2026-04-25T13:15:37.854Z</time></trkpt><trkpt lat="44.7156359" lon="8.0325075"><ele>165.0</ele><time>2026-04-25T13:15:38.854Z</time></trkpt><trkpt lat="44.7155002" lon="8.032382"><ele>165.0</ele><time>2026-04-25T13:15:39.859Z</time></trkpt><trkpt lat="44.7153649" lon="8.032255"><ele>165.0</ele><time>2026-04-25T13:15:40.851Z</time></trkpt><trkpt lat="44.715237" lon="8.0321343"><ele>165.0</ele><time>2026-04-25T13:15:41.859Z</time></trkpt><trkpt lat="44.7151088" lon="8.0320136"><ele>165.5</ele><time>2026-04-25T13:15:42.854Z</time></trkpt><trkpt lat="44.7149813" lon="8.0318998"><ele>166.0</ele><time>2026-04-25T13:15:43.855Z</time></trkpt><trkpt lat="44.7148553" lon="8.0317825"><ele>166.5</ele><time>2026-04-25T13:15:44.863Z</time></trkpt><trkpt lat="44.7147334" lon="8.0316662"><ele>167.0</ele><time>2026-04-25T13:15:45.859Z</time></trkpt><trkpt lat="44.7146141" lon="8.031551"><ele>167.25</ele><time>2026-04-25T13:15:46.855Z</time></trkpt><trkpt lat="44.7144958" lon="8.0314414"><ele>167.5</ele><time>2026-04-25T13:15:47.86Z</time></trkpt><trkpt lat="44.7143819" lon="8.031335"><ele>167.75</ele><time>2026-04-25T13:15:48.854Z</time></trkpt><trkpt lat="44.7142685" lon="8.0312304"><ele>168.0</ele><time>2026-04-25T13:15:49.853Z</time></trkpt><trkpt lat="44.7141547" lon="8.0311272"><ele>167.75</ele><time>2026-04-25T13:15:50.849Z</time></trkpt><trkpt lat="44.7140363" lon="8.0310205"><ele>167.5</ele><time>2026-04-25T13:15:51.857Z</time></trkpt><trkpt lat="44.7139223" lon="8.0309146"><ele>167.25</ele><time>2026-04-25T13:15:52.866Z</time></trkpt><trkpt lat="44.7138079" lon="8.0308052"><ele>167.0</ele><time>2026-04-25T13:15:53.849Z</time></trkpt><trkpt lat="44.7136861" lon="8.0306942"><ele>166.0</ele><time>2026-04-25T13:15:54.847Z</time></trkpt><trkpt lat="44.7135646" lon="8.0305826"><ele>165.0</ele><time>2026-04-25T13:15:55.859Z</time></trkpt><trkpt lat="44.7134333" lon="8.0304731"><ele>164.0</ele><time>2026-04-25T13:15:56.853Z</time></trkpt><trkpt lat="44.7133069" lon="8.030355"><ele>163.0</ele><time>2026-04-25T13:15:57.838Z</time></trkpt><trkpt lat="44.7131848" lon="8.0302425"><ele>163.0</ele><time>2026-04-25T13:15:58.854Z</time></trkpt><trkpt lat="44.7130635" lon="8.0301323"><ele>163.0</ele><time>2026-04-25T13:15:59.859Z</time></trkpt><trkpt lat="44.7129472" lon="8.0300235"><ele>163.0</ele><time>2026-04-25T13:16:00.857Z</time></trkpt><trkpt lat="44.7128314" lon="8.0299212"><ele>163.0</ele><time>2026-04-25T13:16:01.839Z</time></trkpt><trkpt lat="44.7127178" lon="8.0298196"><ele>163.0</ele><time>2026-04-25T13:16:02.839Z</time></trkpt><trkpt lat="44.7126083" lon="8.0297123"><ele>163.0</ele><time>2026-04-25T13:16:03.84Z</time></trkpt><trkpt lat="44.7125026" lon="8.0296083"><ele>163.0</ele><time>2026-04-25T13:16:04.841Z</time></trkpt><trkpt lat="44.7124028" lon="8.0295045"><ele>163.0</ele><time>2026-04-25T13:16:05.842Z</time></trkpt><trkpt lat="44.7123071" lon="8.0294085"><ele>163.0</ele><time>2026-04-25T13:16:06.838Z</time></trkpt><trkpt lat="44.7122156" lon="8.029326"><ele>163.0</ele><time>2026-04-25T13:16:07.836Z</time></trkpt><trkpt lat="44.7121298" lon="8.0292473"><ele>163.0</ele><time>2026-04-25T13:16:08.852Z</time></trkpt><trkpt lat="44.7120492" lon="8.0291761"><ele>163.0</ele><time>2026-04-25T13:16:09.85Z</time></trkpt><trkpt lat="44.7119774" lon="8.0291094"><ele>163.0</ele><time>2026-04-25T13:16:10.849Z</time></trkpt><trkpt lat="44.7119101" lon="8.0290469"><ele>163.2</ele><time>2026-04-25T13:16:11.843Z</time></trkpt><trkpt lat="44.7118531" lon="8.0289945"><ele>163.4</ele><time>2026-04-25T13:16:12.846Z</time></trkpt><trkpt lat="44.711757" lon="8.0289135"><ele>163.6</ele><time>2026-04-25T13:16:14.842Z</time></trkpt><trkpt lat="44.7116909" lon="8.0287991"><ele>163.79999999999998</ele><time>2026-04-25T13:16:16.839Z</time></trkpt><trkpt lat="44.7116424" lon="8.0286568"><ele>164.0</ele><time>2026-04-25T13:16:18.838Z</time></trkpt><trkpt lat="44.711546" lon="8.0285452"><ele>164.0</ele><time>2026-04-25T13:16:20.837Z</time></trkpt><trkpt lat="44.7114794" lon="8.0285189"><ele>164.0</ele><time>2026-04-25T13:16:21.839Z</time></trkpt><trkpt lat="44.7114072" lon="8.0285035"><ele>164.0</ele><time>2026-04-25T13:16:22.841Z</time></trkpt><trkpt lat="44.7113287" lon="8.0284702"><ele>164.0</ele><time>2026-04-25T13:16:23.84Z</time></trkpt><trkpt lat="44.7112492" lon="8.0284148"><ele>164.0</ele><time>2026-04-25T13:16:24.842Z</time></trkpt><trkpt lat="44.7111735" lon="8.0283479"><ele>164.0</ele><time>2026-04-25T13:16:25.839Z</time></trkpt><trkpt lat="44.7110939" lon="8.0282696"><ele>163.79999999999998</ele><time>2026-04-25T13:16:26.839Z</time></trkpt><trkpt lat="44.7110108" lon="8.0281898"><ele>163.6</ele><time>2026-04-25T13:16:27.838Z</time></trkpt><trkpt lat="44.7109246" lon="8.0281069"><ele>163.4</ele><time>2026-04-25T13:16:28.837Z</time></trkpt><trkpt lat="44.7108296" lon="8.0280221"><ele>163.2</ele><time>2026-04-25T13:16:29.837Z</time></trkpt><trkpt lat="44.7107362" lon="8.0279374"><ele>163.0</ele><time>2026-04-25T13:16:30.838Z</time></trkpt><trkpt lat="44.710642" lon="8.0278514"><ele>163.0</ele><time>2026-04-25T13:16:31.851Z</time></trkpt><trkpt lat="44.7105447" lon="8.0277678"><ele>163.0</ele><time>2026-04-25T13:16:32.855Z</time></trkpt><trkpt lat="44.7104524" lon="8.0276851"><ele>163.0</ele><time>2026-04-25T13:16:33.856Z</time></trkpt><trkpt lat="44.7103686" lon="8.0276083"><ele>163.0</ele><time>2026-04-25T13:16:34.855Z</time></trkpt><trkpt lat="44.7102897" lon="8.0275367"><ele>163.0</ele><time>2026-04-25T13:16:35.864Z</time></trkpt><trkpt lat="44.7102128" lon="8.0274665"><ele>164.0</ele><time>2026-04-25T13:16:36.855Z</time></trkpt><trkpt lat="44.710132" lon="8.0274011"><ele>165.0</ele><time>2026-04-25T13:16:37.853Z</time></trkpt><trkpt lat="44.7100576" lon="8.027332"><ele>166.0</ele><time>2026-04-25T13:16:38.853Z</time></trkpt><trkpt lat="44.7099833" lon="8.0272613"><ele>167.0</ele><time>2026-04-25T13:16:39.856Z</time></trkpt><trkpt lat="44.7099136" lon="8.0271972"><ele>168.0</ele><time>2026-04-25T13:16:40.852Z</time></trkpt><trkpt lat="44.7098491" lon="8.027138"><ele>169.0</ele><time>2026-04-25T13:16:41.852Z</time></trkpt><trkpt lat="44.7097895" lon="8.0270853"><ele>169.0</ele><time>2026-04-25T13:16:42.853Z</time></trkpt><trkpt lat="44.7097367" lon="8.0270274"><ele>169.0</ele><time>2026-04-25T13:16:43.856Z</time></trkpt><trkpt lat="44.7096565" lon="8.0269414"><ele>169.0</ele><time>2026-04-25T13:16:45.849Z</time></trkpt><trkpt lat="44.7096079" lon="8.0268374"><ele>169.0</ele><time>2026-04-25T13:16:47.836Z</time></trkpt><trkpt lat="44.7095945" lon="8.0267171"><ele>169.0</ele><time>2026-04-25T13:16:49.845Z</time></trkpt><trkpt lat="44.7096317" lon="8.026566"><ele>168.85714285714286</ele><time>2026-04-25T13:16:51.835Z</time></trkpt><trkpt lat="44.7096357" lon="8.0264749"><ele>168.71428571428572</ele><time>2026-04-25T13:16:52.838Z</time></trkpt><trkpt lat="44.7096251" lon="8.0263692"><ele>168.57142857142856</ele><time>2026-04-25T13:16:53.84Z</time></trkpt><trkpt lat="44.7095935" lon="8.0262867"><ele>168.42857142857144</ele><time>2026-04-25T13:16:54.841Z</time></trkpt><trkpt lat="44.7095279" lon="8.0262184"><ele>168.28571428571428</ele><time>2026-04-25T13:16:55.842Z</time></trkpt><trkpt lat="44.7094518" lon="8.0262025"><ele>168.14285714285714</ele><time>2026-04-25T13:16:56.837Z</time></trkpt><trkpt lat="44.7093771" lon="8.026224"><ele>168.0</ele><time>2026-04-25T13:16:57.839Z</time></trkpt><trkpt lat="44.7092883" lon="8.0262856"><ele>167.75</ele><time>2026-04-25T13:16:58.837Z</time></trkpt><trkpt lat="44.7091847" lon="8.02633"><ele>167.5</ele><time>2026-04-25T13:16:59.837Z</time></trkpt><trkpt lat="44.7090742" lon="8.0263477"><ele>167.25</ele><time>2026-04-25T13:17:00.835Z</time></trkpt><trkpt lat="44.7089617" lon="8.0263719"><ele>167.0</ele><time>2026-04-25T13:17:01.841Z</time></trkpt><trkpt lat="44.7088428" lon="8.026405"><ele>167.0</ele><time>2026-04-25T13:17:02.834Z</time></trkpt><trkpt lat="44.708714" lon="8.0264444"><ele>167.0</ele><time>2026-04-25T13:17:03.837Z</time></trkpt><trkpt lat="44.708578" lon="8.0264906"><ele>167.0</ele><time>2026-04-25T13:17:04.838Z</time></trkpt><trkpt lat="44.7084336" lon="8.0265413"><ele>167.0</ele><time>2026-04-25T13:17:05.844Z</time></trkpt><trkpt lat="44.7082797" lon="8.0265902"><ele>166.33333333333331</ele><time>2026-04-25T13:17:06.854Z</time></trkpt><trkpt lat="44.7081232" lon="8.0266395"><ele>165.66666666666666</ele><time>2026-04-25T13:17:07.846Z</time></trkpt><trkpt lat="44.7079669" lon="8.0266842"><ele>165.0</ele><time>2026-04-25T13:17:08.836Z</time></trkpt><trkpt lat="44.7078067" lon="8.0267298"><ele>165.0</ele><time>2026-04-25T13:17:09.841Z</time></trkpt><trkpt lat="44.7076381" lon="8.0267781"><ele>165.0</ele><time>2026-04-25T13:17:10.838Z</time></trkpt><trkpt lat="44.7074811" lon="8.0268149"><ele>165.0</ele><time>2026-04-25T13:17:11.84Z</time></trkpt><trkpt lat="44.7073168" lon="8.0268602"><ele>165.0</ele><time>2026-04-25T13:17:12.835Z</time></trkpt><trkpt lat="44.7071528" lon="8.0269099"><ele>165.0</ele><time>2026-04-25T13:17:13.838Z</time></trkpt><trkpt lat="44.7069926" lon="8.0269529"><ele>165.0</ele><time>2026-04-25T13:17:14.837Z</time></trkpt><trkpt lat="44.7068356" lon="8.0269876"><ele>165.0</ele><time>2026-04-25T13:17:15.837Z</time></trkpt><trkpt lat="44.7066793" lon="8.02703"><ele>165.0</ele><time>2026-04-25T13:17:16.834Z</time></trkpt><trkpt lat="44.7065251" lon="8.0270657"><ele>165.0</ele><time>2026-04-25T13:17:17.839Z</time></trkpt><trkpt lat="44.7063775" lon="8.0271047"><ele>165.0</ele><time>2026-04-25T13:17:18.837Z</time></trkpt><trkpt lat="44.70624" lon="8.0271414"><ele>165.0</ele><time>2026-04-25T13:17:19.837Z</time></trkpt><trkpt lat="44.706106" lon="8.0271813"><ele>165.0</ele><time>2026-04-25T13:17:20.841Z</time></trkpt><trkpt lat="44.7059822" lon="8.0272114"><ele>165.0</ele><time>2026-04-25T13:17:21.841Z</time></trkpt><trkpt lat="44.7058592" lon="8.0272445"><ele>164.0</ele><time>2026-04-25T13:17:22.835Z</time></trkpt><trkpt lat="44.7057418" lon="8.0272763"><ele>163.0</ele><time>2026-04-25T13:17:23.838Z</time></trkpt><trkpt lat="44.7056314" lon="8.0273052"><ele>162.0</ele><time>2026-04-25T13:17:24.837Z</time></trkpt><trkpt lat="44.7055246" lon="8.0273374"><ele>161.0</ele><time>2026-04-25T13:17:25.836Z</time></trkpt><trkpt lat="44.7054248" lon="8.0273582"><ele>160.0</ele><time>2026-04-25T13:17:26.839Z</time></trkpt><trkpt lat="44.7053286" lon="8.027382"><ele>159.66666666666669</ele><time>2026-04-25T13:17:27.833Z</time></trkpt><trkpt lat="44.7052398" lon="8.027399"><ele>159.33333333333334</ele><time>2026-04-25T13:17:28.846Z</time></trkpt><trkpt lat="44.7051566" lon="8.0274239"><ele>159.0</ele><time>2026-04-25T13:17:29.834Z</time></trkpt><trkpt lat="44.7050849" lon="8.0274454"><ele>158.66666666666666</ele><time>2026-04-25T13:17:30.84Z</time></trkpt><trkpt lat="44.7049781" lon="8.0274831"><ele>158.33333333333331</ele><time>2026-04-25T13:17:32.836Z</time></trkpt><trkpt lat="44.7049112" lon="8.0275087"><ele>158.0</ele><time>2026-04-25T13:17:34.838Z</time></trkpt><trkpt lat="44.704813" lon="8.0275456"><ele>159.0</ele><time>2026-04-25T13:17:37.842Z</time></trkpt><trkpt lat="44.7047428" lon="8.0275728"><ele>160.0</ele><time>2026-04-25T13:17:39.842Z</time></trkpt><trkpt lat="44.7046521" lon="8.0276001"><ele>161.0</ele><time>2026-04-25T13:17:41.84Z</time></trkpt><trkpt lat="44.7045615" lon="8.0276311"><ele>162.0</ele><time>2026-04-25T13:17:43.839Z</time></trkpt><trkpt lat="44.7044606" lon="8.0276752"><ele>163.0</ele><time>2026-04-25T13:17:45.839Z</time></trkpt><trkpt lat="44.7043622" lon="8.0277237"><ele>163.33333333333334</ele><time>2026-04-25T13:17:47.839Z</time></trkpt><trkpt lat="44.704289" lon="8.0277581"><ele>163.66666666666669</ele><time>2026-04-25T13:17:49.84Z</time></trkpt><trkpt lat="44.704212" lon="8.0277917"><ele>164.0</ele><time>2026-04-25T13:17:51.837Z</time></trkpt><trkpt lat="44.704149" lon="8.0278136"><ele>164.33333333333334</ele><time>2026-04-25T13:17:52.836Z</time></trkpt><trkpt lat="44.7040679" lon="8.0278381"><ele>164.66666666666666</ele><time>2026-04-25T13:17:53.837Z</time></trkpt><trkpt lat="44.7039715" lon="8.0278707"><ele>165.0</ele><time>2026-04-25T13:17:54.835Z</time></trkpt><trkpt lat="44.7038614" lon="8.027907"><ele>165.0</ele><time>2026-04-25T13:17:55.84Z</time></trkpt><trkpt lat="44.703746" lon="8.0279508"><ele>165.0</ele><time>2026-04-25T13:17:56.834Z</time></trkpt><trkpt lat="44.7036261" lon="8.0279932"><ele>165.0</ele><time>2026-04-25T13:17:57.836Z</time></trkpt><trkpt lat="44.7034982" lon="8.0280377"><ele>165.0</ele><time>2026-04-25T13:17:58.835Z</time></trkpt><trkpt lat="44.7033641" lon="8.0280863"><ele>165.25</ele><time>2026-04-25T13:17:59.835Z</time></trkpt><trkpt lat="44.7032268" lon="8.0281371"><ele>165.5</ele><time>2026-04-25T13:18:00.841Z</time></trkpt><trkpt lat="44.7030888" lon="8.0281845"><ele>165.75</ele><time>2026-04-25T13:18:01.838Z</time></trkpt><trkpt lat="44.7029483" lon="8.0282342"><ele>166.0</ele><time>2026-04-25T13:18:02.833Z</time></trkpt><trkpt lat="44.702805" lon="8.028283"><ele>165.66666666666669</ele><time>2026-04-25T13:18:03.834Z</time></trkpt><trkpt lat="44.7026548" lon="8.0283342"><ele>165.33333333333334</ele><time>2026-04-25T13:18:04.837Z</time></trkpt><trkpt lat="44.7025034" lon="8.028385"><ele>165.0</ele><time>2026-04-25T13:18:05.834Z</time></trkpt><trkpt lat="44.7023554" lon="8.0284366"><ele>165.0</ele><time>2026-04-25T13:18:06.837Z</time></trkpt><trkpt lat="44.7022128" lon="8.0284892"><ele>165.0</ele><time>2026-04-25T13:18:07.837Z</time></trkpt><trkpt lat="44.7020767" lon="8.0285433"><ele>165.0</ele><time>2026-04-25T13:18:08.836Z</time></trkpt><trkpt lat="44.7019446" lon="8.0285947"><ele>165.0</ele><time>2026-04-25T13:18:09.838Z</time></trkpt><trkpt lat="44.7018145" lon="8.028642"><ele>164.75</ele><time>2026-04-25T13:18:10.838Z</time></trkpt><trkpt lat="44.7016909" lon="8.0286922"><ele>164.5</ele><time>2026-04-25T13:18:11.834Z</time></trkpt><trkpt lat="44.7015719" lon="8.0287332"><ele>164.25</ele><time>2026-04-25T13:18:12.866Z</time></trkpt><trkpt lat="44.7014565" lon="8.0287801"><ele>164.0</ele><time>2026-04-25T13:18:13.836Z</time></trkpt><trkpt lat="44.7013462" lon="8.0288261"><ele>164.0</ele><time>2026-04-25T13:18:14.841Z</time></trkpt><trkpt lat="44.7012433" lon="8.0288605"><ele>164.0</ele><time>2026-04-25T13:18:15.834Z</time></trkpt><trkpt lat="44.7011393" lon="8.0288712"><ele>164.0</ele><time>2026-04-25T13:18:16.838Z</time></trkpt><trkpt lat="44.7010392" lon="8.0288497"><ele>164.0</ele><time>2026-04-25T13:18:17.841Z</time></trkpt><trkpt lat="44.7009559" lon="8.0287816"><ele>164.0</ele><time>2026-04-25T13:18:18.841Z</time></trkpt><trkpt lat="44.7008804" lon="8.0286879"><ele>164.2</ele><time>2026-04-25T13:18:19.838Z</time></trkpt><trkpt lat="44.7008092" lon="8.0285748"><ele>164.39999999999998</ele><time>2026-04-25T13:18:20.84Z</time></trkpt><trkpt lat="44.7007418" lon="8.0284638"><ele>164.6</ele><time>2026-04-25T13:18:21.841Z</time></trkpt><trkpt lat="44.7006646" lon="8.0283605"><ele>164.8</ele><time>2026-04-25T13:18:22.841Z</time></trkpt><trkpt lat="44.7005734" lon="8.0282743"><ele>165.0</ele><time>2026-04-25T13:18:23.849Z</time></trkpt><trkpt lat="44.7004732" lon="8.0282091"><ele>165.25</ele><time>2026-04-25T13:18:24.857Z</time></trkpt><trkpt lat="44.7003648" lon="8.0281797"><ele>165.5</ele><time>2026-04-25T13:18:25.854Z</time></trkpt><trkpt lat="44.7002518" lon="8.0281811"><ele>165.75</ele><time>2026-04-25T13:18:26.853Z</time></trkpt><trkpt lat="44.7001354" lon="8.0282012"><ele>166.0</ele><time>2026-04-25T13:18:27.857Z</time></trkpt><trkpt lat="44.7000213" lon="8.0282299"><ele>166.0</ele><time>2026-04-25T13:18:28.857Z</time></trkpt><trkpt lat="44.6998968" lon="8.028254"><ele>166.0</ele><time>2026-04-25T13:18:29.852Z</time></trkpt><trkpt lat="44.6997692" lon="8.0282758"><ele>166.0</ele><time>2026-04-25T13:18:30.852Z</time></trkpt><trkpt lat="44.6996414" lon="8.0283099"><ele>166.0</ele><time>2026-04-25T13:18:31.855Z</time></trkpt><trkpt lat="44.6995106" lon="8.0283275"><ele>166.25</ele><time>2026-04-25T13:18:32.853Z</time></trkpt><trkpt lat="44.6993774" lon="8.0283429"><ele>166.5</ele><time>2026-04-25T13:18:33.854Z</time></trkpt><trkpt lat="44.6992483" lon="8.0283517"><ele>166.75</ele><time>2026-04-25T13:18:34.855Z</time></trkpt><trkpt lat="44.6991201" lon="8.0283516"><ele>167.0</ele><time>2026-04-25T13:18:35.855Z</time></trkpt><trkpt lat="44.6989952" lon="8.0283444"><ele>167.0</ele><time>2026-04-25T13:18:36.852Z</time></trkpt><trkpt lat="44.698881" lon="8.0283402"><ele>167.0</ele><time>2026-04-25T13:18:37.851Z</time></trkpt><trkpt lat="44.6987764" lon="8.0283405"><ele>167.0</ele><time>2026-04-25T13:18:38.851Z</time></trkpt><trkpt lat="44.6986774" lon="8.0283339"><ele>167.0</ele><time>2026-04-25T13:18:39.854Z</time></trkpt><trkpt lat="44.6985889" lon="8.0283117"><ele>167.0</ele><time>2026-04-25T13:18:40.853Z</time></trkpt><trkpt lat="44.6985082" lon="8.0282839"><ele>167.0</ele><time>2026-04-25T13:18:41.852Z</time></trkpt><trkpt lat="44.6984363" lon="8.0282458"><ele>167.0</ele><time>2026-04-25T13:18:42.853Z</time></trkpt><trkpt lat="44.6983392" lon="8.028192"><ele>167.0</ele><time>2026-04-25T13:18:44.857Z</time></trkpt><trkpt lat="44.6982774" lon="8.0281728"><ele>167.0</ele><time>2026-04-25T13:18:51.854Z</time></trkpt><trkpt lat="44.6982041" lon="8.0280978"><ele>167.0</ele><time>2026-04-25T13:18:54.856Z</time></trkpt><trkpt lat="44.6981297" lon="8.0280541"><ele>167.0</ele><time>2026-04-25T13:18:56.856Z</time></trkpt><trkpt lat="44.6980456" lon="8.0280153"><ele>167.0</ele><time>2026-04-25T13:18:58.855Z</time></trkpt><trkpt lat="44.6979487" lon="8.0279333"><ele>167.0</ele><time>2026-04-25T13:19:00.851Z</time></trkpt><trkpt lat="44.6978923" lon="8.0278788"><ele>167.0</ele><time>2026-04-25T13:19:01.853Z</time></trkpt><trkpt lat="44.6977779" lon="8.0278708"><ele>167.0</ele><time>2026-04-25T13:19:03.856Z</time></trkpt><trkpt lat="44.6977327" lon="8.0279939"><ele>167.0</ele><time>2026-04-25T13:19:05.844Z</time></trkpt><trkpt lat="44.6977736" lon="8.0281705"><ele>167.0</ele><time>2026-04-25T13:19:07.855Z</time></trkpt><trkpt lat="44.6978024" lon="8.0282583"><ele>167.0</ele><time>2026-04-25T13:19:08.855Z</time></trkpt><trkpt lat="44.6978264" lon="8.0283451"><ele>167.0</ele><time>2026-04-25T13:19:09.854Z</time></trkpt><trkpt lat="44.6978573" lon="8.0284335"><ele>167.0</ele><time>2026-04-25T13:19:10.856Z</time></trkpt><trkpt lat="44.6978859" lon="8.0285241"><ele>167.0</ele><time>2026-04-25T13:19:11.855Z</time></trkpt><trkpt lat="44.6979133" lon="8.0286176"><ele>167.0</ele><time>2026-04-25T13:19:12.854Z</time></trkpt><trkpt lat="44.6979453" lon="8.0287053"><ele>167.0</ele><time>2026-04-25T13:19:13.854Z</time></trkpt><trkpt lat="44.6979728" lon="8.0287873"><ele>167.2</ele><time>2026-04-25T13:19:14.855Z</time></trkpt><trkpt lat="44.6980021" lon="8.0288725"><ele>167.39999999999998</ele><time>2026-04-25T13:19:15.849Z</time></trkpt><trkpt lat="44.698046" lon="8.0290169"><ele>167.60000000000002</ele><time>2026-04-25T13:19:17.853Z</time></trkpt><trkpt lat="44.6980904" lon="8.0291469"><ele>167.8</ele><time>2026-04-25T13:19:19.851Z</time></trkpt><trkpt lat="44.6981318" lon="8.0292811"><ele>168.0</ele><time>2026-04-25T13:19:21.853Z</time></trkpt><trkpt lat="44.6981698" lon="8.0293961"><ele>168.2</ele><time>2026-04-25T13:19:23.845Z</time></trkpt><trkpt lat="44.6981972" lon="8.0295223"><ele>168.4</ele><time>2026-04-25T13:19:25.853Z</time></trkpt><trkpt lat="44.6981737" lon="8.029642"><ele>168.6</ele><time>2026-04-25T13:19:27.851Z</time></trkpt><trkpt lat="44.6981006" lon="8.0297269"><ele>168.79999999999998</ele><time>2026-04-25T13:19:29.855Z</time></trkpt><trkpt lat="44.6979865" lon="8.0297942"><ele>169.0</ele><time>2026-04-25T13:19:31.853Z</time></trkpt><trkpt lat="44.6979234" lon="8.0298396"><ele>169.0</ele><time>2026-04-25T13:19:32.854Z</time></trkpt><trkpt lat="44.6978625" lon="8.0299019"><ele>169.0</ele><time>2026-04-25T13:19:33.854Z</time></trkpt><trkpt lat="44.697805" lon="8.0299701"><ele>169.0</ele><time>2026-04-25T13:19:34.851Z</time></trkpt><trkpt lat="44.6977465" lon="8.0300378"><ele>169.0</ele><time>2026-04-25T13:19:35.85Z</time></trkpt><trkpt lat="44.6976883" lon="8.0300993"><ele>169.0</ele><time>2026-04-25T13:19:36.853Z</time></trkpt><trkpt lat="44.6976297" lon="8.0301573"><ele>169.0</ele><time>2026-04-25T13:19:37.855Z</time></trkpt><trkpt lat="44.6975745" lon="8.0302227"><ele>169.0</ele><time>2026-04-25T13:19:38.854Z</time></trkpt><trkpt lat="44.6975226" lon="8.0302875"><ele>169.0</ele><time>2026-04-25T13:19:39.851Z</time></trkpt><trkpt lat="44.6974671" lon="8.030353"><ele>169.0</ele><time>2026-04-25T13:19:40.85Z</time></trkpt><trkpt lat="44.6974113" lon="8.030419"><ele>169.0</ele><time>2026-04-25T13:19:41.849Z</time></trkpt><trkpt lat="44.6973516" lon="8.0304813"><ele>169.0</ele><time>2026-04-25T13:19:42.955Z</time></trkpt><trkpt lat="44.697239" lon="8.0306121"><ele>169.0</ele><time>2026-04-25T13:19:44.852Z</time></trkpt><trkpt lat="44.6971803" lon="8.0306806"><ele>169.0</ele><time>2026-04-25T13:19:45.854Z</time></trkpt><trkpt lat="44.6971187" lon="8.0307502"><ele>169.16666666666669</ele><time>2026-04-25T13:19:46.851Z</time></trkpt><trkpt lat="44.6970544" lon="8.030824"><ele>169.33333333333334</ele><time>2026-04-25T13:19:47.852Z</time></trkpt><trkpt lat="44.6969863" lon="8.0308975"><ele>169.5</ele><time>2026-04-25T13:19:48.856Z</time></trkpt><trkpt lat="44.6969232" lon="8.0309746"><ele>169.66666666666666</ele><time>2026-04-25T13:19:49.855Z</time></trkpt><trkpt lat="44.6968623" lon="8.0310473"><ele>169.83333333333331</ele><time>2026-04-25T13:19:50.85Z</time></trkpt><trkpt lat="44.6968073" lon="8.0311097"><ele>170.0</ele><time>2026-04-25T13:19:51.848Z</time></trkpt><trkpt lat="44.6967586" lon="8.0311687"><ele>170.16666666666666</ele><time>2026-04-25T13:19:52.854Z</time></trkpt><trkpt lat="44.696678" lon="8.0312688"><ele>170.33333333333331</ele><time>2026-04-25T13:19:54.853Z</time></trkpt><trkpt lat="44.696611" lon="8.0313524"><ele>170.5</ele><time>2026-04-25T13:19:56.855Z</time></trkpt><trkpt lat="44.6965469" lon="8.0313918"><ele>170.66666666666666</ele><time>2026-04-25T13:20:07.85Z</time></trkpt><trkpt lat="44.6964749" lon="8.0314188"><ele>170.83333333333334</ele><time>2026-04-25T13:20:10.854Z</time></trkpt><trkpt lat="44.6964105" lon="8.0314238"><ele>171.0</ele><time>2026-04-25T13:20:13.852Z</time></trkpt><trkpt lat="44.6963258" lon="8.0314192"><ele>171.0</ele><time>2026-04-25T13:20:18.853Z</time></trkpt><trkpt lat="44.6962112" lon="8.0313758"><ele>171.0</ele><time>2026-04-25T13:20:20.854Z</time></trkpt><trkpt lat="44.6961386" lon="8.0313755"><ele>171.0</ele><time>2026-04-25T13:20:21.854Z</time></trkpt><trkpt lat="44.6960673" lon="8.0314142"><ele>171.0</ele><time>2026-04-25T13:20:22.847Z</time></trkpt><trkpt lat="44.6960042" lon="8.0314721"><ele>171.0</ele><time>2026-04-25T13:20:23.852Z</time></trkpt><trkpt lat="44.6959381" lon="8.0315215"><ele>171.0</ele><time>2026-04-25T13:20:24.855Z</time></trkpt><trkpt lat="44.6958652" lon="8.0315701"><ele>170.99999999999997</ele><time>2026-04-25T13:20:25.853Z</time></trkpt><trkpt lat="44.6957949" lon="8.0316102"><ele>171.0</ele><time>2026-04-25T13:20:26.851Z</time></trkpt><trkpt lat="44.6957298" lon="8.0316365"><ele>171.0</ele><time>2026-04-25T13:20:27.854Z</time></trkpt><trkpt lat="44.6956675" lon="8.0316175"><ele>171.0</ele><time>2026-04-25T13:20:28.85Z</time></trkpt><trkpt lat="44.6956142" lon="8.031566"><ele>171.0</ele><time>2026-04-25T13:20:29.852Z</time></trkpt><trkpt lat="44.6955703" lon="8.0314812"><ele>170.99999999999997</ele><time>2026-04-25T13:20:30.854Z</time></trkpt><trkpt lat="44.6955175" lon="8.0313775"><ele>171.0</ele><time>2026-04-25T13:20:31.849Z</time></trkpt><trkpt lat="44.6954627" lon="8.0312675"><ele>171.0</ele><time>2026-04-25T13:20:32.849Z</time></trkpt><trkpt lat="44.6954123" lon="8.031176"><ele>171.0</ele><time>2026-04-25T13:20:33.852Z</time></trkpt><trkpt lat="44.6953669" lon="8.0310954"><ele>171.0</ele><time>2026-04-25T13:20:34.854Z</time></trkpt><trkpt lat="44.6952839" lon="8.0310451"><ele>171.0</ele><time>2026-04-25T13:20:36.852Z</time></trkpt><trkpt lat="44.6952212" lon="8.0310927"><ele>171.0</ele><time>2026-04-25T13:20:38.846Z</time></trkpt><trkpt lat="44.6951786" lon="8.0312039"><ele>171.0</ele><time>2026-04-25T13:20:40.854Z</time></trkpt><trkpt lat="44.6951482" lon="8.031294"><ele>171.20000000000002</ele><time>2026-04-25T13:20:41.849Z</time></trkpt><trkpt lat="44.6951093" lon="8.0313881"><ele>171.4</ele><time>2026-04-25T13:20:42.858Z</time></trkpt><trkpt lat="44.6950684" lon="8.0315039"><ele>171.6</ele><time>2026-04-25T13:20:43.851Z</time></trkpt><trkpt lat="44.6950247" lon="8.0316336"><ele>171.8</ele><time>2026-04-25T13:20:44.85Z</time></trkpt><trkpt lat="44.694965" lon="8.0317832"><ele>172.0</ele><time>2026-04-25T13:20:45.854Z</time></trkpt><trkpt lat="44.6949096" lon="8.0319305"><ele>172.25</ele><time>2026-04-25T13:20:46.843Z</time></trkpt><trkpt lat="44.6948473" lon="8.0320862"><ele>172.5</ele><time>2026-04-25T13:20:47.855Z</time></trkpt><trkpt lat="44.6947836" lon="8.0322478"><ele>172.75</ele><time>2026-04-25T13:20:48.857Z</time></trkpt><trkpt lat="44.6947164" lon="8.0324139"><ele>173.0</ele><time>2026-04-25T13:20:49.848Z</time></trkpt><trkpt lat="44.6946535" lon="8.032582"><ele>173.0</ele><time>2026-04-25T13:20:50.858Z</time></trkpt><trkpt lat="44.6945919" lon="8.032751"><ele>173.0</ele><time>2026-04-25T13:20:51.843Z</time></trkpt><trkpt lat="44.6945307" lon="8.0329187"><ele>173.0</ele><time>2026-04-25T13:20:52.849Z</time></trkpt><trkpt lat="44.6944679" lon="8.0330839"><ele>173.0</ele><time>2026-04-25T13:20:53.851Z</time></trkpt><trkpt lat="44.6944105" lon="8.0332415"><ele>173.33333333333331</ele><time>2026-04-25T13:20:54.856Z</time></trkpt><trkpt lat="44.6943564" lon="8.0333871"><ele>173.66666666666666</ele><time>2026-04-25T13:20:55.851Z</time></trkpt><trkpt lat="44.6943084" lon="8.0335103"><ele>174.0</ele><time>2026-04-25T13:20:56.852Z</time></trkpt><trkpt lat="44.6942703" lon="8.0336068"><ele>174.33333333333334</ele><time>2026-04-25T13:20:57.853Z</time></trkpt><trkpt lat="44.6942401" lon="8.0336848"><ele>174.66666666666669</ele><time>2026-04-25T13:20:58.853Z</time></trkpt><trkpt lat="44.6941967" lon="8.0337771"><ele>175.0</ele><time>2026-04-25T13:21:00.855Z</time></trkpt><trkpt lat="44.6941633" lon="8.0338689"><ele>175.0</ele><time>2026-04-25T13:21:03.849Z</time></trkpt><trkpt lat="44.6941325" lon="8.0339583"><ele>175.0</ele><time>2026-04-25T13:21:05.847Z</time></trkpt><trkpt lat="44.6940286" lon="8.0340676"><ele>175.0</ele><time>2026-04-25T13:21:07.854Z</time></trkpt><trkpt lat="44.6939531" lon="8.0340882"><ele>175.0</ele><time>2026-04-25T13:21:08.857Z</time></trkpt><trkpt lat="44.6938741" lon="8.0340801"><ele>175.0</ele><time>2026-04-25T13:21:09.859Z</time></trkpt><trkpt lat="44.6937891" lon="8.0340666"><ele>175.0</ele><time>2026-04-25T13:21:10.855Z</time></trkpt><trkpt lat="44.6937009" lon="8.0340594"><ele>175.0</ele><time>2026-04-25T13:21:11.855Z</time></trkpt><trkpt lat="44.6936099" lon="8.0340734"><ele>175.0</ele><time>2026-04-25T13:21:12.858Z</time></trkpt><trkpt lat="44.6935039" lon="8.0340947"><ele>175.0</ele><time>2026-04-25T13:21:13.855Z</time></trkpt><trkpt lat="44.6933803" lon="8.0341019"><ele>175.0</ele><time>2026-04-25T13:21:14.856Z</time></trkpt><trkpt lat="44.6932442" lon="8.0341041"><ele>175.75</ele><time>2026-04-25T13:21:15.851Z</time></trkpt><trkpt lat="44.6931074" lon="8.034112"><ele>176.5</ele><time>2026-04-25T13:21:16.856Z</time></trkpt><trkpt lat="44.6929726" lon="8.0341131"><ele>177.25</ele><time>2026-04-25T13:21:17.854Z</time></trkpt><trkpt lat="44.6928493" lon="8.0341172"><ele>178.0</ele><time>2026-04-25T13:21:18.85Z</time></trkpt><trkpt lat="44.6927174" lon="8.0341135"><ele>178.75</ele><time>2026-04-25T13:21:19.853Z</time></trkpt><trkpt lat="44.6925846" lon="8.0341158"><ele>179.5</ele><time>2026-04-25T13:21:20.857Z</time></trkpt><trkpt lat="44.6924523" lon="8.0341105"><ele>180.25</ele><time>2026-04-25T13:21:21.856Z</time></trkpt><trkpt lat="44.6923223" lon="8.034114"><ele>181.0</ele><time>2026-04-25T13:21:22.857Z</time></trkpt><trkpt lat="44.6921935" lon="8.0341203"><ele>181.0</ele><time>2026-04-25T13:21:23.851Z</time></trkpt><trkpt lat="44.6920581" lon="8.0341268"><ele>181.0</ele><time>2026-04-25T13:21:24.856Z</time></trkpt><trkpt lat="44.6919244" lon="8.0341329"><ele>181.0</ele><time>2026-04-25T13:21:25.848Z</time></trkpt><trkpt lat="44.6917976" lon="8.0341387"><ele>181.0</ele><time>2026-04-25T13:21:26.853Z</time></trkpt><trkpt lat="44.6916798" lon="8.0341376"><ele>181.20000000000002</ele><time>2026-04-25T13:21:27.857Z</time></trkpt><trkpt lat="44.6915679" lon="8.0341346"><ele>181.4</ele><time>2026-04-25T13:21:28.852Z</time></trkpt><trkpt lat="44.6914654" lon="8.0341355"><ele>181.6</ele><time>2026-04-25T13:21:29.856Z</time></trkpt><trkpt lat="44.6913618" lon="8.0341336"><ele>181.8</ele><time>2026-04-25T13:21:30.855Z</time></trkpt><trkpt lat="44.6912588" lon="8.034132"><ele>182.0</ele><time>2026-04-25T13:21:31.853Z</time></trkpt><trkpt lat="44.6911522" lon="8.0341323"><ele>181.25</ele><time>2026-04-25T13:21:32.853Z</time></trkpt><trkpt lat="44.6910416" lon="8.034139"><ele>180.5</ele><time>2026-04-25T13:21:33.856Z</time></trkpt><trkpt lat="44.6909264" lon="8.0341512"><ele>179.75</ele><time>2026-04-25T13:21:34.852Z</time></trkpt><trkpt lat="44.6908131" lon="8.0341532"><ele>179.0</ele><time>2026-04-25T13:21:35.857Z</time></trkpt><trkpt lat="44.6906979" lon="8.0341499"><ele>179.0</ele><time>2026-04-25T13:21:36.852Z</time></trkpt><trkpt lat="44.6905831" lon="8.0341437"><ele>179.0</ele><time>2026-04-25T13:21:37.854Z</time></trkpt><trkpt lat="44.69047" lon="8.0341448"><ele>179.0</ele><time>2026-04-25T13:21:38.857Z</time></trkpt><trkpt lat="44.6903534" lon="8.0341464"><ele>179.0</ele><time>2026-04-25T13:21:39.857Z</time></trkpt><trkpt lat="44.6902355" lon="8.0341479"><ele>179.39999999999998</ele><time>2026-04-25T13:21:40.853Z</time></trkpt><trkpt lat="44.6901254" lon="8.0341488"><ele>179.8</ele><time>2026-04-25T13:21:41.856Z</time></trkpt><trkpt lat="44.6900172" lon="8.0341528"><ele>180.2</ele><time>2026-04-25T13:21:42.937Z</time></trkpt><trkpt lat="44.6899129" lon="8.0341522"><ele>180.60000000000002</ele><time>2026-04-25T13:21:43.856Z</time></trkpt><trkpt lat="44.6898079" lon="8.0341533"><ele>181.0</ele><time>2026-04-25T13:21:44.849Z</time></trkpt><trkpt lat="44.689698" lon="8.0341564"><ele>181.0</ele><time>2026-04-25T13:21:45.851Z</time></trkpt><trkpt lat="44.689594" lon="8.0341541"><ele>181.0</ele><time>2026-04-25T13:21:46.855Z</time></trkpt><trkpt lat="44.6894964" lon="8.0341522"><ele>181.0</ele><time>2026-04-25T13:21:47.843Z</time></trkpt><trkpt lat="44.6894013" lon="8.0341575"><ele>181.0</ele><time>2026-04-25T13:21:48.853Z</time></trkpt><trkpt lat="44.689321" lon="8.034159"><ele>181.0</ele><time>2026-04-25T13:21:49.854Z</time></trkpt><trkpt lat="44.6892549" lon="8.0341614"><ele>181.0</ele><time>2026-04-25T13:21:50.852Z</time></trkpt><trkpt lat="44.6891479" lon="8.0341695"><ele>181.20000000000002</ele><time>2026-04-25T13:21:52.853Z</time></trkpt><trkpt lat="44.6890803" lon="8.0341689"><ele>181.4</ele><time>2026-04-25T13:21:56.852Z</time></trkpt><trkpt lat="44.6889939" lon="8.0341551"><ele>181.6</ele><time>2026-04-25T13:21:59.858Z</time></trkpt><trkpt lat="44.6889075" lon="8.0341144"><ele>181.8</ele><time>2026-04-25T13:22:01.851Z</time></trkpt><trkpt lat="44.6888086" lon="8.0341271"><ele>182.0</ele><time>2026-04-25T13:22:03.855Z</time></trkpt><trkpt lat="44.688701" lon="8.0341572"><ele>182.0</ele><time>2026-04-25T13:22:05.851Z</time></trkpt><trkpt lat="44.6885646" lon="8.0341648"><ele>182.0</ele><time>2026-04-25T13:22:07.852Z</time></trkpt><trkpt lat="44.6884735" lon="8.0341599"><ele>182.0</ele><time>2026-04-25T13:22:08.851Z</time></trkpt><trkpt lat="44.6883834" lon="8.0341579"><ele>182.0</ele><time>2026-04-25T13:22:09.843Z</time></trkpt><trkpt lat="44.6882963" lon="8.0341555"><ele>182.0</ele><time>2026-04-25T13:22:10.849Z</time></trkpt><trkpt lat="44.6882041" lon="8.0341552"><ele>182.0</ele><time>2026-04-25T13:22:11.85Z</time></trkpt><trkpt lat="44.6881091" lon="8.0341555"><ele>182.0</ele><time>2026-04-25T13:22:12.855Z</time></trkpt><trkpt lat="44.6880033" lon="8.0341526"><ele>182.0</ele><time>2026-04-25T13:22:13.856Z</time></trkpt><trkpt lat="44.6878939" lon="8.0341523"><ele>182.0</ele><time>2026-04-25T13:22:14.845Z</time></trkpt><trkpt lat="44.687786" lon="8.0341551"><ele>182.0</ele><time>2026-04-25T13:22:15.85Z</time></trkpt><trkpt lat="44.6876802" lon="8.0341562"><ele>182.0</ele><time>2026-04-25T13:22:16.85Z</time></trkpt><trkpt lat="44.6875765" lon="8.0341619"><ele>182.0</ele><time>2026-04-25T13:22:17.854Z</time></trkpt><trkpt lat="44.6874734" lon="8.0341645"><ele>182.0</ele><time>2026-04-25T13:22:18.852Z</time></trkpt><trkpt lat="44.6873729" lon="8.0341632"><ele>182.0</ele><time>2026-04-25T13:22:19.852Z</time></trkpt><trkpt lat="44.687272" lon="8.0341625"><ele>182.0</ele><time>2026-04-25T13:22:20.848Z</time></trkpt><trkpt lat="44.6871687" lon="8.0341666"><ele>182.0</ele><time>2026-04-25T13:22:21.844Z</time></trkpt><trkpt lat="44.6870643" lon="8.0341674"><ele>182.0</ele><time>2026-04-25T13:22:22.852Z</time></trkpt><trkpt lat="44.6869589" lon="8.0341649"><ele>182.0</ele><time>2026-04-25T13:22:23.845Z</time></trkpt><trkpt lat="44.6868532" lon="8.0341667"><ele>182.0</ele><time>2026-04-25T13:22:24.854Z</time></trkpt><trkpt lat="44.6867481" lon="8.0341693"><ele>182.0</ele><time>2026-04-25T13:22:25.855Z</time></trkpt><trkpt lat="44.6866552" lon="8.0341677"><ele>182.0</ele><time>2026-04-25T13:22:26.852Z</time></trkpt><trkpt lat="44.6865732" lon="8.0341748"><ele>182.0</ele><time>2026-04-25T13:22:27.843Z</time></trkpt><trkpt lat="44.6864981" lon="8.034171"><ele>182.0</ele><time>2026-04-25T13:22:28.853Z</time></trkpt><trkpt lat="44.6864299" lon="8.0341614"><ele>182.0</ele><time>2026-04-25T13:22:29.856Z</time></trkpt><trkpt lat="44.6863638" lon="8.034155"><ele>182.0</ele><time>2026-04-25T13:22:30.854Z</time></trkpt><trkpt lat="44.6862972" lon="8.0341452"><ele>182.0</ele><time>2026-04-25T13:22:31.845Z</time></trkpt><trkpt lat="44.6862317" lon="8.034166"><ele>182.0</ele><time>2026-04-25T13:22:32.849Z</time></trkpt><trkpt lat="44.6861713" lon="8.034199"><ele>182.6</ele><time>2026-04-25T13:22:33.858Z</time></trkpt><trkpt lat="44.6860553" lon="8.0342635"><ele>183.2</ele><time>2026-04-25T13:22:35.856Z</time></trkpt><trkpt lat="44.6859833" lon="8.0343061"><ele>183.8</ele><time>2026-04-25T13:22:36.85Z</time></trkpt><trkpt lat="44.6858907" lon="8.0343522"><ele>184.4</ele><time>2026-04-25T13:22:37.846Z</time></trkpt><trkpt lat="44.685769" lon="8.0344135"><ele>185.0</ele><time>2026-04-25T13:22:38.847Z</time></trkpt><trkpt lat="44.6856378" lon="8.0344821"><ele>185.0</ele><time>2026-04-25T13:22:39.85Z</time></trkpt><trkpt lat="44.6854932" lon="8.0345539"><ele>185.0</ele><time>2026-04-25T13:22:40.85Z</time></trkpt><trkpt lat="44.6853468" lon="8.0346213"><ele>185.0</ele><time>2026-04-25T13:22:41.846Z</time></trkpt><trkpt lat="44.6852082" lon="8.0346747"><ele>186.0</ele><time>2026-04-25T13:22:42.847Z</time></trkpt><trkpt lat="44.6850829" lon="8.0347258"><ele>187.0</ele><time>2026-04-25T13:22:43.845Z</time></trkpt><trkpt lat="44.6849727" lon="8.0347713"><ele>188.0</ele><time>2026-04-25T13:22:44.844Z</time></trkpt><trkpt lat="44.6848706" lon="8.034817"><ele>189.0</ele><time>2026-04-25T13:22:45.856Z</time></trkpt><trkpt lat="44.6847723" lon="8.0348609"><ele>189.0</ele><time>2026-04-25T13:22:46.852Z</time></trkpt><trkpt lat="44.6846679" lon="8.0349012"><ele>189.0</ele><time>2026-04-25T13:22:47.844Z</time></trkpt><trkpt lat="44.6845638" lon="8.0349448"><ele>189.0</ele><time>2026-04-25T13:22:48.857Z</time></trkpt><trkpt lat="44.6844613" lon="8.0349877"><ele>189.0</ele><time>2026-04-25T13:22:49.85Z</time></trkpt><trkpt lat="44.6843655" lon="8.0350317"><ele>189.0</ele><time>2026-04-25T13:22:50.856Z</time></trkpt><trkpt lat="44.684267" lon="8.0350787"><ele>189.0</ele><time>2026-04-25T13:22:51.847Z</time></trkpt><trkpt lat="44.6841516" lon="8.035122"><ele>189.0</ele><time>2026-04-25T13:22:52.845Z</time></trkpt><trkpt lat="44.6840246" lon="8.035178"><ele>189.0</ele><time>2026-04-25T13:22:53.851Z</time></trkpt><trkpt lat="44.6838915" lon="8.0352374"><ele>189.0</ele><time>2026-04-25T13:22:54.853Z</time></trkpt><trkpt lat="44.6837487" lon="8.0353032"><ele>189.0</ele><time>2026-04-25T13:22:55.846Z</time></trkpt><trkpt lat="44.6835996" lon="8.0353682"><ele>189.0</ele><time>2026-04-25T13:22:56.857Z</time></trkpt><trkpt lat="44.6834467" lon="8.0354345"><ele>189.0</ele><time>2026-04-25T13:22:57.849Z</time></trkpt><trkpt lat="44.6833005" lon="8.0355009"><ele>190.0</ele><time>2026-04-25T13:22:58.847Z</time></trkpt><trkpt lat="44.6831593" lon="8.0355682"><ele>191.0</ele><time>2026-04-25T13:22:59.846Z</time></trkpt><trkpt lat="44.6830184" lon="8.0356341"><ele>192.0</ele><time>2026-04-25T13:23:00.856Z</time></trkpt><trkpt lat="44.6828787" lon="8.0356991"><ele>193.0</ele><time>2026-04-25T13:23:01.851Z</time></trkpt><trkpt lat="44.6827427" lon="8.0357663"><ele>192.0</ele><time>2026-04-25T13:23:02.848Z</time></trkpt><trkpt lat="44.6826029" lon="8.0358301"><ele>191.0</ele><time>2026-04-25T13:23:03.849Z</time></trkpt><trkpt lat="44.6824526" lon="8.0358955"><ele>190.0</ele><time>2026-04-25T13:23:04.857Z</time></trkpt><trkpt lat="44.6823018" lon="8.035959"><ele>190.0</ele><time>2026-04-25T13:23:05.845Z</time></trkpt><trkpt lat="44.6821522" lon="8.0360223"><ele>190.0</ele><time>2026-04-25T13:23:06.853Z</time></trkpt><trkpt lat="44.6820026" lon="8.0360909"><ele>190.0</ele><time>2026-04-25T13:23:07.849Z</time></trkpt><trkpt lat="44.6818528" lon="8.0361611"><ele>191.33333333333334</ele><time>2026-04-25T13:23:08.856Z</time></trkpt><trkpt lat="44.6817039" lon="8.0362337"><ele>192.66666666666669</ele><time>2026-04-25T13:23:09.845Z</time></trkpt><trkpt lat="44.6815524" lon="8.0363036"><ele>194.0</ele><time>2026-04-25T13:23:10.846Z</time></trkpt><trkpt lat="44.6813929" lon="8.0363743"><ele>194.0</ele><time>2026-04-25T13:23:11.851Z</time></trkpt><trkpt lat="44.6812262" lon="8.0364627"><ele>194.0</ele><time>2026-04-25T13:23:12.947Z</time></trkpt><trkpt lat="44.6810425" lon="8.0365473"><ele>194.0</ele><time>2026-04-25T13:23:13.854Z</time></trkpt><trkpt lat="44.6808553" lon="8.0366225"><ele>192.66666666666669</ele><time>2026-04-25T13:23:14.851Z</time></trkpt><trkpt lat="44.6806773" lon="8.0366951"><ele>191.33333333333334</ele><time>2026-04-25T13:23:15.854Z</time></trkpt><trkpt lat="44.6805031" lon="8.0367683"><ele>190.0</ele><time>2026-04-25T13:23:16.845Z</time></trkpt><trkpt lat="44.6803259" lon="8.0368455"><ele>191.0</ele><time>2026-04-25T13:23:17.854Z</time></trkpt><trkpt lat="44.6801567" lon="8.0369188"><ele>192.0</ele><time>2026-04-25T13:23:18.854Z</time></trkpt><trkpt lat="44.6799853" lon="8.0369984"><ele>193.0</ele><time>2026-04-25T13:23:19.855Z</time></trkpt><trkpt lat="44.6798133" lon="8.0370778"><ele>193.0</ele><time>2026-04-25T13:23:20.849Z</time></trkpt><trkpt lat="44.6796428" lon="8.0371558"><ele>193.0</ele><time>2026-04-25T13:23:21.851Z</time></trkpt><trkpt lat="44.6794749" lon="8.0372271"><ele>193.0</ele><time>2026-04-25T13:23:22.851Z</time></trkpt><trkpt lat="44.6793199" lon="8.0372976"><ele>193.5</ele><time>2026-04-25T13:23:23.85Z</time></trkpt><trkpt lat="44.6791764" lon="8.0373626"><ele>194.0</ele><time>2026-04-25T13:23:24.844Z</time></trkpt><trkpt lat="44.6790462" lon="8.0374157"><ele>194.5</ele><time>2026-04-25T13:23:25.851Z</time></trkpt><trkpt lat="44.6789295" lon="8.0374689"><ele>195.0</ele><time>2026-04-25T13:23:26.847Z</time></trkpt><trkpt lat="44.6788259" lon="8.0375131"><ele>194.4</ele><time>2026-04-25T13:23:27.854Z</time></trkpt><trkpt lat="44.6787389" lon="8.0375437"><ele>193.8</ele><time>2026-04-25T13:23:28.852Z</time></trkpt><trkpt lat="44.6786528" lon="8.0375712"><ele>193.2</ele><time>2026-04-25T13:23:29.85Z</time></trkpt><trkpt lat="44.6785658" lon="8.0375993"><ele>192.6</ele><time>2026-04-25T13:23:30.847Z</time></trkpt><trkpt lat="44.6784762" lon="8.0376526"><ele>192.0</ele><time>2026-04-25T13:23:31.852Z</time></trkpt><trkpt lat="44.6783806" lon="8.0377211"><ele>192.0</ele><time>2026-04-25T13:23:32.841Z</time></trkpt><trkpt lat="44.6782634" lon="8.0377878"><ele>192.0</ele><time>2026-04-25T13:23:33.85Z</time></trkpt><trkpt lat="44.6781383" lon="8.0378415"><ele>192.0</ele><time>2026-04-25T13:23:34.849Z</time></trkpt><trkpt lat="44.6780095" lon="8.0378975"><ele>192.0</ele><time>2026-04-25T13:23:35.853Z</time></trkpt><trkpt lat="44.6778764" lon="8.0379534"><ele>192.0</ele><time>2026-04-25T13:23:36.846Z</time></trkpt><trkpt lat="44.6777485" lon="8.0380126"><ele>192.0</ele><time>2026-04-25T13:23:37.853Z</time></trkpt><trkpt lat="44.6776243" lon="8.038067"><ele>192.0</ele><time>2026-04-25T13:23:38.845Z</time></trkpt><trkpt lat="44.6775051" lon="8.0381153"><ele>192.0</ele><time>2026-04-25T13:23:39.842Z</time></trkpt><trkpt lat="44.6773772" lon="8.0381717"><ele>192.0</ele><time>2026-04-25T13:23:40.852Z</time></trkpt><trkpt lat="44.677232" lon="8.0382476"><ele>192.0</ele><time>2026-04-25T13:23:41.849Z</time></trkpt><trkpt lat="44.6770679" lon="8.0383366"><ele>192.0</ele><time>2026-04-25T13:23:42.851Z</time></trkpt><trkpt lat="44.6768811" lon="8.0384172"><ele>191.0</ele><time>2026-04-25T13:23:43.843Z</time></trkpt><trkpt lat="44.676686" lon="8.0384973"><ele>190.0</ele><time>2026-04-25T13:23:44.853Z</time></trkpt><trkpt lat="44.6764793" lon="8.0385918"><ele>189.0</ele><time>2026-04-25T13:23:45.849Z</time></trkpt><trkpt lat="44.6762749" lon="8.0386783"><ele>190.0</ele><time>2026-04-25T13:23:46.844Z</time></trkpt><trkpt lat="44.6760709" lon="8.0387701"><ele>191.0</ele><time>2026-04-25T13:23:47.851Z</time></trkpt><trkpt lat="44.6758646" lon="8.0388726"><ele>192.0</ele><time>2026-04-25T13:23:48.846Z</time></trkpt><trkpt lat="44.675649" lon="8.0389815"><ele>192.0</ele><time>2026-04-25T13:23:49.843Z</time></trkpt><trkpt lat="44.6754249" lon="8.0390895"><ele>192.0</ele><time>2026-04-25T13:23:50.85Z</time></trkpt><trkpt lat="44.6751949" lon="8.0391813"><ele>191.5</ele><time>2026-04-25T13:23:51.847Z</time></trkpt><trkpt lat="44.6749655" lon="8.03927"><ele>191.0</ele><time>2026-04-25T13:23:52.845Z</time></trkpt><trkpt lat="44.6747372" lon="8.0393617"><ele>191.0</ele><time>2026-04-25T13:23:53.851Z</time></trkpt><trkpt lat="44.6745122" lon="8.0394589"><ele>191.0</ele><time>2026-04-25T13:23:54.847Z</time></trkpt><trkpt lat="44.6742955" lon="8.0395599"><ele>191.33333333333331</ele><time>2026-04-25T13:23:55.847Z</time></trkpt><trkpt lat="44.674094" lon="8.0396496"><ele>191.66666666666666</ele><time>2026-04-25T13:23:56.847Z</time></trkpt><trkpt lat="44.6738997" lon="8.0397349"><ele>192.0</ele><time>2026-04-25T13:23:57.857Z</time></trkpt><trkpt lat="44.6737206" lon="8.0398166"><ele>192.0</ele><time>2026-04-25T13:23:58.843Z</time></trkpt><trkpt lat="44.6735446" lon="8.0398927"><ele>192.0</ele><time>2026-04-25T13:23:59.851Z</time></trkpt><trkpt lat="44.6733763" lon="8.039969"><ele>192.0</ele><time>2026-04-25T13:24:00.846Z</time></trkpt><trkpt lat="44.673208" lon="8.0400618"><ele>192.0</ele><time>2026-04-25T13:24:01.847Z</time></trkpt><trkpt lat="44.6730325" lon="8.0401592"><ele>192.0</ele><time>2026-04-25T13:24:02.846Z</time></trkpt><trkpt lat="44.6728425" lon="8.0402419"><ele>192.0</ele><time>2026-04-25T13:24:03.843Z</time></trkpt><trkpt lat="44.6726498" lon="8.0403113"><ele>192.66666666666669</ele><time>2026-04-25T13:24:04.836Z</time></trkpt><trkpt lat="44.6724527" lon="8.0403877"><ele>193.33333333333334</ele><time>2026-04-25T13:24:05.841Z</time></trkpt><trkpt lat="44.6722538" lon="8.0404705"><ele>194.0</ele><time>2026-04-25T13:24:06.848Z</time></trkpt><trkpt lat="44.6720526" lon="8.040563"><ele>194.0</ele><time>2026-04-25T13:24:07.852Z</time></trkpt><trkpt lat="44.6718552" lon="8.0406561"><ele>194.0</ele><time>2026-04-25T13:24:08.849Z</time></trkpt><trkpt lat="44.6716555" lon="8.0407478"><ele>194.0</ele><time>2026-04-25T13:24:09.857Z</time></trkpt><trkpt lat="44.6714598" lon="8.0408378"><ele>194.0</ele><time>2026-04-25T13:24:10.852Z</time></trkpt><trkpt lat="44.6712664" lon="8.0409239"><ele>194.0</ele><time>2026-04-25T13:24:11.853Z</time></trkpt><trkpt lat="44.6710748" lon="8.0410094"><ele>194.0</ele><time>2026-04-25T13:24:12.856Z</time></trkpt><trkpt lat="44.6708844" lon="8.0410945"><ele>196.0</ele><time>2026-04-25T13:24:13.857Z</time></trkpt><trkpt lat="44.6706944" lon="8.0411759"><ele>198.0</ele><time>2026-04-25T13:24:14.856Z</time></trkpt><trkpt lat="44.6705046" lon="8.0412585"><ele>200.0</ele><time>2026-04-25T13:24:15.854Z</time></trkpt><trkpt lat="44.6703169" lon="8.0413425"><ele>200.66666666666669</ele><time>2026-04-25T13:24:16.841Z</time></trkpt><trkpt lat="44.6701393" lon="8.0414225"><ele>201.33333333333331</ele><time>2026-04-25T13:24:17.85Z</time></trkpt><trkpt lat="44.6699732" lon="8.041501"><ele>202.0</ele><time>2026-04-25T13:24:18.857Z</time></trkpt><trkpt lat="44.6698055" lon="8.0415757"><ele>201.0</ele><time>2026-04-25T13:24:19.848Z</time></trkpt><trkpt lat="44.6696371" lon="8.0416534"><ele>200.0</ele><time>2026-04-25T13:24:20.85Z</time></trkpt><trkpt lat="44.6694688" lon="8.0417301"><ele>199.0</ele><time>2026-04-25T13:24:21.849Z</time></trkpt><trkpt lat="44.6693013" lon="8.041798"><ele>198.66666666666666</ele><time>2026-04-25T13:24:22.848Z</time></trkpt><trkpt lat="44.6691385" lon="8.0418661"><ele>198.33333333333331</ele><time>2026-04-25T13:24:23.849Z</time></trkpt><trkpt lat="44.6689766" lon="8.0419384"><ele>198.0</ele><time>2026-04-25T13:24:24.848Z</time></trkpt><trkpt lat="44.6688159" lon="8.0420087"><ele>198.0</ele><time>2026-04-25T13:24:25.846Z</time></trkpt><trkpt lat="44.6686615" lon="8.0420791"><ele>198.0</ele><time>2026-04-25T13:24:26.845Z</time></trkpt><trkpt lat="44.6685053" lon="8.0421491"><ele>198.0</ele><time>2026-04-25T13:24:27.849Z</time></trkpt><trkpt lat="44.6683486" lon="8.0422199"><ele>198.66666666666669</ele><time>2026-04-25T13:24:28.846Z</time></trkpt><trkpt lat="44.6681935" lon="8.0422912"><ele>199.33333333333334</ele><time>2026-04-25T13:24:29.845Z</time></trkpt><trkpt lat="44.6680356" lon="8.0423602"><ele>200.0</ele><time>2026-04-25T13:24:30.843Z</time></trkpt><trkpt lat="44.6678833" lon="8.0424279"><ele>200.66666666666669</ele><time>2026-04-25T13:24:31.844Z</time></trkpt><trkpt lat="44.6677339" lon="8.0424974"><ele>201.33333333333331</ele><time>2026-04-25T13:24:32.843Z</time></trkpt><trkpt lat="44.6675852" lon="8.0425621"><ele>202.0</ele><time>2026-04-25T13:24:33.851Z</time></trkpt><trkpt lat="44.6674378" lon="8.0426264"><ele>202.0</ele><time>2026-04-25T13:24:34.847Z</time></trkpt><trkpt lat="44.6672886" lon="8.0426891"><ele>202.0</ele><time>2026-04-25T13:24:35.855Z</time></trkpt><trkpt lat="44.6671361" lon="8.0427561"><ele>202.0</ele><time>2026-04-25T13:24:36.85Z</time></trkpt><trkpt lat="44.6669732" lon="8.0428305"><ele>202.33333333333331</ele><time>2026-04-25T13:24:37.853Z</time></trkpt><trkpt lat="44.6667978" lon="8.0429264"><ele>202.66666666666669</ele><time>2026-04-25T13:24:38.847Z</time></trkpt><trkpt lat="44.6666069" lon="8.0430242"><ele>203.0</ele><time>2026-04-25T13:24:39.845Z</time></trkpt><trkpt lat="44.6664009" lon="8.0431138"><ele>203.0</ele><time>2026-04-25T13:24:40.849Z</time></trkpt><trkpt lat="44.6661793" lon="8.0432105"><ele>203.0</ele><time>2026-04-25T13:24:41.841Z</time></trkpt><trkpt lat="44.6659463" lon="8.0433179"><ele>205.5</ele><time>2026-04-25T13:24:42.854Z</time></trkpt><trkpt lat="44.6656991" lon="8.0434307"><ele>208.0</ele><time>2026-04-25T13:24:43.842Z</time></trkpt><trkpt lat="44.6654454" lon="8.04354"><ele>208.0</ele><time>2026-04-25T13:24:44.844Z</time></trkpt><trkpt lat="44.6651906" lon="8.0436385"><ele>208.0</ele><time>2026-04-25T13:24:45.845Z</time></trkpt><trkpt lat="44.6649461" lon="8.0437396"><ele>208.0</ele><time>2026-04-25T13:24:46.863Z</time></trkpt><trkpt lat="44.6647195" lon="8.0438412"><ele>208.0</ele><time>2026-04-25T13:24:47.845Z</time></trkpt><trkpt lat="44.6645072" lon="8.0439394"><ele>208.0</ele><time>2026-04-25T13:24:48.84Z</time></trkpt><trkpt lat="44.6643083" lon="8.0440249"><ele>208.0</ele><time>2026-04-25T13:24:49.854Z</time></trkpt><trkpt lat="44.6641275" lon="8.0441022"><ele>208.0</ele><time>2026-04-25T13:24:50.929Z</time></trkpt><trkpt lat="44.6639566" lon="8.0441735"><ele>208.33333333333331</ele><time>2026-04-25T13:24:51.859Z</time></trkpt><trkpt lat="44.6637912" lon="8.0442409"><ele>208.66666666666669</ele><time>2026-04-25T13:24:52.853Z</time></trkpt><trkpt lat="44.6636318" lon="8.0443104"><ele>209.0</ele><time>2026-04-25T13:24:53.847Z</time></trkpt><trkpt lat="44.663475" lon="8.0443788"><ele>209.66666666666669</ele><time>2026-04-25T13:24:54.84Z</time></trkpt><trkpt lat="44.6633246" lon="8.0444429"><ele>210.33333333333331</ele><time>2026-04-25T13:24:55.845Z</time></trkpt><trkpt lat="44.6631816" lon="8.0445078"><ele>211.0</ele><time>2026-04-25T13:24:56.847Z</time></trkpt><trkpt lat="44.6630361" lon="8.0445721"><ele>211.0</ele><time>2026-04-25T13:24:57.857Z</time></trkpt><trkpt lat="44.6628784" lon="8.0446404"><ele>211.0</ele><time>2026-04-25T13:24:58.853Z</time></trkpt><trkpt lat="44.6627068" lon="8.0447203"><ele>211.0</ele><time>2026-04-25T13:24:59.857Z</time></trkpt><trkpt lat="44.6625278" lon="8.0448083"><ele>212.0</ele><time>2026-04-25T13:25:00.854Z</time></trkpt><trkpt lat="44.6623357" lon="8.0449022"><ele>213.0</ele><time>2026-04-25T13:25:01.853Z</time></trkpt><trkpt lat="44.6621406" lon="8.0449995"><ele>214.0</ele><time>2026-04-25T13:25:02.843Z</time></trkpt><trkpt lat="44.6619436" lon="8.0450954"><ele>215.0</ele><time>2026-04-25T13:25:03.852Z</time></trkpt><trkpt lat="44.6617474" lon="8.0451866"><ele>216.0</ele><time>2026-04-25T13:25:04.856Z</time></trkpt><trkpt lat="44.6615542" lon="8.045278"><ele>217.0</ele><time>2026-04-25T13:25:05.852Z</time></trkpt><trkpt lat="44.6613648" lon="8.0453628"><ele>217.0</ele><time>2026-04-25T13:25:06.851Z</time></trkpt><trkpt lat="44.6611826" lon="8.0454444"><ele>217.0</ele><time>2026-04-25T13:25:07.86Z</time></trkpt><trkpt lat="44.6610097" lon="8.0455205"><ele>217.0</ele><time>2026-04-25T13:25:08.863Z</time></trkpt><trkpt lat="44.660839" lon="8.0455968"><ele>216.66666666666666</ele><time>2026-04-25T13:25:09.858Z</time></trkpt><trkpt lat="44.6606723" lon="8.0456726"><ele>216.33333333333331</ele><time>2026-04-25T13:25:10.847Z</time></trkpt><trkpt lat="44.6605101" lon="8.0457471"><ele>216.0</ele><time>2026-04-25T13:25:11.857Z</time></trkpt><trkpt lat="44.6603565" lon="8.0458151"><ele>217.25</ele><time>2026-04-25T13:25:12.849Z</time></trkpt><trkpt lat="44.6602114" lon="8.0458815"><ele>218.5</ele><time>2026-04-25T13:25:13.856Z</time></trkpt><trkpt lat="44.6600771" lon="8.0459379"><ele>219.75</ele><time>2026-04-25T13:25:14.845Z</time></trkpt><trkpt lat="44.6599536" lon="8.0459917"><ele>221.0</ele><time>2026-04-25T13:25:15.85Z</time></trkpt><trkpt lat="44.6598376" lon="8.046044"><ele>221.0</ele><time>2026-04-25T13:25:16.85Z</time></trkpt><trkpt lat="44.6597283" lon="8.0460919"><ele>221.0</ele><time>2026-04-25T13:25:17.848Z</time></trkpt><trkpt lat="44.6596216" lon="8.0461419"><ele>221.0</ele><time>2026-04-25T13:25:18.842Z</time></trkpt><trkpt lat="44.6595031" lon="8.0461949"><ele>221.0</ele><time>2026-04-25T13:25:19.848Z</time></trkpt><trkpt lat="44.6593739" lon="8.046256"><ele>221.0</ele><time>2026-04-25T13:25:20.855Z</time></trkpt><trkpt lat="44.6592293" lon="8.0463322"><ele>221.0</ele><time>2026-04-25T13:25:21.858Z</time></trkpt><trkpt lat="44.6590718" lon="8.0464144"><ele>221.0</ele><time>2026-04-25T13:25:22.842Z</time></trkpt><trkpt lat="44.6588929" lon="8.0464822"><ele>221.0</ele><time>2026-04-25T13:25:23.854Z</time></trkpt><trkpt lat="44.658699" lon="8.0465521"><ele>221.0</ele><time>2026-04-25T13:25:24.857Z</time></trkpt><trkpt lat="44.6584984" lon="8.0466407"><ele>221.0</ele><time>2026-04-25T13:25:25.858Z</time></trkpt><trkpt lat="44.6582881" lon="8.0467339"><ele>222.33333333333334</ele><time>2026-04-25T13:25:26.847Z</time></trkpt><trkpt lat="44.6580765" lon="8.0468264"><ele>223.66666666666669</ele><time>2026-04-25T13:25:27.857Z</time></trkpt><trkpt lat="44.6578643" lon="8.0469246"><ele>225.0</ele><time>2026-04-25T13:25:28.854Z</time></trkpt><trkpt lat="44.6576521" lon="8.0470171"><ele>225.0</ele><time>2026-04-25T13:25:29.856Z</time></trkpt><trkpt lat="44.657439" lon="8.0471089"><ele>225.0</ele><time>2026-04-25T13:25:30.852Z</time></trkpt><trkpt lat="44.6572286" lon="8.0472032"><ele>225.0</ele><time>2026-04-25T13:25:31.854Z</time></trkpt><trkpt lat="44.6570223" lon="8.047297"><ele>224.33333333333331</ele><time>2026-04-25T13:25:32.856Z</time></trkpt><trkpt lat="44.6568184" lon="8.0473943"><ele>223.66666666666666</ele><time>2026-04-25T13:25:33.861Z</time></trkpt><trkpt lat="44.656615" lon="8.0474876"><ele>223.0</ele><time>2026-04-25T13:25:34.846Z</time></trkpt><trkpt lat="44.6564138" lon="8.0475737"><ele>224.33333333333331</ele><time>2026-04-25T13:25:35.847Z</time></trkpt><trkpt lat="44.656215" lon="8.0476645"><ele>225.66666666666669</ele><time>2026-04-25T13:25:36.843Z</time></trkpt><trkpt lat="44.6560177" lon="8.0477529"><ele>227.0</ele><time>2026-04-25T13:25:37.858Z</time></trkpt><trkpt lat="44.6558211" lon="8.0478396"><ele>227.0</ele><time>2026-04-25T13:25:38.849Z</time></trkpt><trkpt lat="44.6556271" lon="8.0479282"><ele>227.0</ele><time>2026-04-25T13:25:39.854Z</time></trkpt><trkpt lat="44.6554394" lon="8.0480131"><ele>227.0</ele><time>2026-04-25T13:25:40.85Z</time></trkpt><trkpt lat="44.6552507" lon="8.0480932"><ele>227.0</ele><time>2026-04-25T13:25:41.853Z</time></trkpt><trkpt lat="44.6550647" lon="8.0481687"><ele>227.0</ele><time>2026-04-25T13:25:42.849Z</time></trkpt><trkpt lat="44.6548844" lon="8.0482551"><ele>227.0</ele><time>2026-04-25T13:25:43.856Z</time></trkpt><trkpt lat="44.6547039" lon="8.0483443"><ele>228.0</ele><time>2026-04-25T13:25:44.852Z</time></trkpt><trkpt lat="44.6545333" lon="8.0484438"><ele>229.0</ele><time>2026-04-25T13:25:45.856Z</time></trkpt><trkpt lat="44.6543694" lon="8.0485674"><ele>230.0</ele><time>2026-04-25T13:25:46.852Z</time></trkpt><trkpt lat="44.6542116" lon="8.0487084"><ele>230.33333333333334</ele><time>2026-04-25T13:25:47.856Z</time></trkpt><trkpt lat="44.6540617" lon="8.04886"><ele>230.66666666666669</ele><time>2026-04-25T13:25:48.854Z</time></trkpt><trkpt lat="44.6539199" lon="8.0490363"><ele>231.0</ele><time>2026-04-25T13:25:49.859Z</time></trkpt><trkpt lat="44.6537897" lon="8.0492228"><ele>231.66666666666669</ele><time>2026-04-25T13:25:50.859Z</time></trkpt><trkpt lat="44.6536649" lon="8.0494064"><ele>232.33333333333334</ele><time>2026-04-25T13:25:51.855Z</time></trkpt><trkpt lat="44.6535474" lon="8.0495787"><ele>233.0</ele><time>2026-04-25T13:25:52.854Z</time></trkpt><trkpt lat="44.6534406" lon="8.049733"><ele>233.0</ele><time>2026-04-25T13:25:53.844Z</time></trkpt><trkpt lat="44.6533425" lon="8.0498755"><ele>233.0</ele><time>2026-04-25T13:25:54.854Z</time></trkpt><trkpt lat="44.6532581" lon="8.0500067"><ele>233.0</ele><time>2026-04-25T13:25:55.858Z</time></trkpt><trkpt lat="44.6531825" lon="8.0501153"><ele>233.0</ele><time>2026-04-25T13:25:56.852Z</time></trkpt><trkpt lat="44.6531034" lon="8.0502048"><ele>233.60000000000002</ele><time>2026-04-25T13:25:57.848Z</time></trkpt><trkpt lat="44.6530259" lon="8.0502821"><ele>234.20000000000002</ele><time>2026-04-25T13:25:58.847Z</time></trkpt><trkpt lat="44.6529555" lon="8.050384"><ele>234.8</ele><time>2026-04-25T13:25:59.857Z</time></trkpt><trkpt lat="44.6528959" lon="8.0505144"><ele>235.4</ele><time>2026-04-25T13:26:00.854Z</time></trkpt><trkpt lat="44.6528189" lon="8.0506509"><ele>236.0</ele><time>2026-04-25T13:26:01.852Z</time></trkpt><trkpt lat="44.6527226" lon="8.0507967"><ele>236.33333333333334</ele><time>2026-04-25T13:26:02.856Z</time></trkpt><trkpt lat="44.6526176" lon="8.0509474"><ele>236.66666666666669</ele><time>2026-04-25T13:26:03.861Z</time></trkpt><trkpt lat="44.6525064" lon="8.0511143"><ele>237.0</ele><time>2026-04-25T13:26:04.857Z</time></trkpt><trkpt lat="44.6523912" lon="8.0512885"><ele>237.0</ele><time>2026-04-25T13:26:05.849Z</time></trkpt><trkpt lat="44.6522697" lon="8.0514618"><ele>237.0</ele><time>2026-04-25T13:26:06.848Z</time></trkpt><trkpt lat="44.6521496" lon="8.0516408"><ele>237.0</ele><time>2026-04-25T13:26:07.858Z</time></trkpt><trkpt lat="44.6520239" lon="8.0518263"><ele>238.33333333333331</ele><time>2026-04-25T13:26:08.845Z</time></trkpt><trkpt lat="44.6518973" lon="8.0520098"><ele>239.66666666666666</ele><time>2026-04-25T13:26:09.853Z</time></trkpt><trkpt lat="44.6517805" lon="8.0521981"><ele>241.0</ele><time>2026-04-25T13:26:10.871Z</time></trkpt><trkpt lat="44.6516637" lon="8.052377"><ele>241.33333333333331</ele><time>2026-04-25T13:26:11.855Z</time></trkpt><trkpt lat="44.6515477" lon="8.0525525"><ele>241.66666666666669</ele><time>2026-04-25T13:26:12.852Z</time></trkpt><trkpt lat="44.6514271" lon="8.0527294"><ele>242.0</ele><time>2026-04-25T13:26:13.851Z</time></trkpt><trkpt lat="44.651308" lon="8.0529046"><ele>242.0</ele><time>2026-04-25T13:26:14.858Z</time></trkpt><trkpt lat="44.6511851" lon="8.0530895"><ele>242.0</ele><time>2026-04-25T13:26:15.849Z</time></trkpt><trkpt lat="44.6510765" lon="8.0532453"><ele>242.0</ele><time>2026-04-25T13:26:16.845Z</time></trkpt><trkpt lat="44.6509721" lon="8.0534108"><ele>242.75</ele><time>2026-04-25T13:26:17.845Z</time></trkpt><trkpt lat="44.6508737" lon="8.0535563"><ele>243.5</ele><time>2026-04-25T13:26:18.847Z</time></trkpt><trkpt lat="44.6507845" lon="8.0536988"><ele>244.25</ele><time>2026-04-25T13:26:19.861Z</time></trkpt><trkpt lat="44.6507096" lon="8.0538214"><ele>245.0</ele><time>2026-04-25T13:26:20.854Z</time></trkpt><trkpt lat="44.6506388" lon="8.0539214"><ele>245.0</ele><time>2026-04-25T13:26:21.842Z</time></trkpt><trkpt lat="44.6505651" lon="8.0539948"><ele>245.0</ele><time>2026-04-25T13:26:22.847Z</time></trkpt><trkpt lat="44.6504851" lon="8.0540375"><ele>245.0</ele><time>2026-04-25T13:26:23.85Z</time></trkpt><trkpt lat="44.6503892" lon="8.0540311"><ele>245.0</ele><time>2026-04-25T13:26:24.845Z</time></trkpt><trkpt lat="44.6502808" lon="8.0539974"><ele>245.0</ele><time>2026-04-25T13:26:25.856Z</time></trkpt><trkpt lat="44.6501533" lon="8.0539721"><ele>245.0</ele><time>2026-04-25T13:26:26.849Z</time></trkpt><trkpt lat="44.650018" lon="8.053938"><ele>245.0</ele><time>2026-04-25T13:26:27.849Z</time></trkpt><trkpt lat="44.6498757" lon="8.0538998"><ele>245.0</ele><time>2026-04-25T13:26:28.844Z</time></trkpt><trkpt lat="44.649734" lon="8.0538585"><ele>245.0</ele><time>2026-04-25T13:26:29.846Z</time></trkpt><trkpt lat="44.649598" lon="8.0538226"><ele>245.0</ele><time>2026-04-25T13:26:30.859Z</time></trkpt><trkpt lat="44.649473" lon="8.0537809"><ele>245.0</ele><time>2026-04-25T13:26:31.852Z</time></trkpt><trkpt lat="44.6493638" lon="8.0537357"><ele>245.0</ele><time>2026-04-25T13:26:32.848Z</time></trkpt><trkpt lat="44.6492815" lon="8.0536528"><ele>245.0</ele><time>2026-04-25T13:26:33.849Z</time></trkpt><trkpt lat="44.6492251" lon="8.0535348"><ele>245.0</ele><time>2026-04-25T13:26:34.85Z</time></trkpt><trkpt lat="44.6492036" lon="8.0533963"><ele>250.75</ele><time>2026-04-25T13:26:35.848Z</time></trkpt><trkpt lat="44.6492235" lon="8.0532439"><ele>256.5</ele><time>2026-04-25T13:26:36.841Z</time></trkpt><trkpt lat="44.6492654" lon="8.0530918"><ele>262.25</ele><time>2026-04-25T13:26:37.847Z</time></trkpt><trkpt lat="44.6493208" lon="8.0529118"><ele>268.0</ele><time>2026-04-25T13:26:38.843Z</time></trkpt><trkpt lat="44.649381" lon="8.0527262"><ele>268.0</ele><time>2026-04-25T13:26:39.853Z</time></trkpt><trkpt lat="44.6494471" lon="8.0525273"><ele>268.0</ele><time>2026-04-25T13:26:40.846Z</time></trkpt><trkpt lat="44.6495179" lon="8.0523211"><ele>268.0</ele><time>2026-04-25T13:26:41.839Z</time></trkpt><trkpt lat="44.6495849" lon="8.0521029"><ele>267.0</ele><time>2026-04-25T13:26:42.901Z</time></trkpt><trkpt lat="44.6496525" lon="8.0518743"><ele>266.0</ele><time>2026-04-25T13:26:43.845Z</time></trkpt><trkpt lat="44.6497205" lon="8.0516334"><ele>265.0</ele><time>2026-04-25T13:26:44.847Z</time></trkpt><trkpt lat="44.6497845" lon="8.0513902"><ele>265.0</ele><time>2026-04-25T13:26:45.842Z</time></trkpt><trkpt lat="44.6498455" lon="8.0511468"><ele>265.0</ele><time>2026-04-25T13:26:46.842Z</time></trkpt><trkpt lat="44.6499008" lon="8.0509184"><ele>265.0</ele><time>2026-04-25T13:26:47.848Z</time></trkpt><trkpt lat="44.6499542" lon="8.0507162"><ele>266.25</ele><time>2026-04-25T13:26:48.847Z</time></trkpt><trkpt lat="44.6500028" lon="8.0505269"><ele>267.5</ele><time>2026-04-25T13:26:49.855Z</time></trkpt><trkpt lat="44.6500443" lon="8.0503537"><ele>268.75</ele><time>2026-04-25T13:26:50.842Z</time></trkpt><trkpt lat="44.6500632" lon="8.0501957"><ele>270.0</ele><time>2026-04-25T13:26:51.852Z</time></trkpt><trkpt lat="44.6500452" lon="8.050048"><ele>269.0</ele><time>2026-04-25T13:26:52.849Z</time></trkpt><trkpt lat="44.6499904" lon="8.0499167"><ele>268.0</ele><time>2026-04-25T13:26:53.839Z</time></trkpt><trkpt lat="44.6499035" lon="8.0498016"><ele>267.0</ele><time>2026-04-25T13:26:54.85Z</time></trkpt><trkpt lat="44.6497895" lon="8.0497148"><ele>266.0</ele><time>2026-04-25T13:26:55.85Z</time></trkpt><trkpt lat="44.6496518" lon="8.049643"><ele>266.0</ele><time>2026-04-25T13:26:56.85Z</time></trkpt><trkpt lat="44.6495009" lon="8.0495821"><ele>266.0</ele><time>2026-04-25T13:26:57.845Z</time></trkpt><trkpt lat="44.6493445" lon="8.0495068"><ele>266.0</ele><time>2026-04-25T13:26:58.851Z</time></trkpt><trkpt lat="44.6491765" lon="8.0494285"><ele>268.6666666666667</ele><time>2026-04-25T13:26:59.851Z</time></trkpt><trkpt lat="44.6489994" lon="8.0493452"><ele>271.3333333333333</ele><time>2026-04-25T13:27:00.85Z</time></trkpt><trkpt lat="44.6488136" lon="8.0492726"><ele>274.0</ele><time>2026-04-25T13:27:01.847Z</time></trkpt><trkpt lat="44.6486162" lon="8.0492173"><ele>276.0</ele><time>2026-04-25T13:27:02.846Z</time></trkpt><trkpt lat="44.6484072" lon="8.0491821"><ele>278.0</ele><time>2026-04-25T13:27:03.85Z</time></trkpt><trkpt lat="44.6481795" lon="8.0491727"><ele>280.0</ele><time>2026-04-25T13:27:04.854Z</time></trkpt><trkpt lat="44.6479462" lon="8.0491961"><ele>280.66666666666663</ele><time>2026-04-25T13:27:05.843Z</time></trkpt><trkpt lat="44.6477199" lon="8.0492346"><ele>281.3333333333333</ele><time>2026-04-25T13:27:06.845Z</time></trkpt><trkpt lat="44.6475054" lon="8.0492812"><ele>282.0</ele><time>2026-04-25T13:27:07.848Z</time></trkpt><trkpt lat="44.6473092" lon="8.0493143"><ele>282.0</ele><time>2026-04-25T13:27:08.853Z</time></trkpt><trkpt lat="44.6471307" lon="8.049345"><ele>282.0</ele><time>2026-04-25T13:27:09.841Z</time></trkpt><trkpt lat="44.6469756" lon="8.0493646"><ele>282.0</ele><time>2026-04-25T13:27:10.85Z</time></trkpt><trkpt lat="44.6468326" lon="8.0493618"><ele>283.5</ele><time>2026-04-25T13:27:11.85Z</time></trkpt><trkpt lat="44.6466926" lon="8.0493106"><ele>285.0</ele><time>2026-04-25T13:27:12.852Z</time></trkpt><trkpt lat="44.6465654" lon="8.0492176"><ele>286.5</ele><time>2026-04-25T13:27:13.856Z</time></trkpt><trkpt lat="44.6464553" lon="8.0490755"><ele>288.0</ele><time>2026-04-25T13:27:14.845Z</time></trkpt><trkpt lat="44.6463563" lon="8.0489083"><ele>288.0</ele><time>2026-04-25T13:27:15.855Z</time></trkpt><trkpt lat="44.6462644" lon="8.0487336"><ele>288.0</ele><time>2026-04-25T13:27:16.849Z</time></trkpt><trkpt lat="44.6461763" lon="8.0485849"><ele>288.0</ele><time>2026-04-25T13:27:17.841Z</time></trkpt><trkpt lat="44.6460874" lon="8.0484576"><ele>288.0</ele><time>2026-04-25T13:27:18.845Z</time></trkpt><trkpt lat="44.64598" lon="8.0483595"><ele>288.75</ele><time>2026-04-25T13:27:19.855Z</time></trkpt><trkpt lat="44.6458678" lon="8.0482823"><ele>289.5</ele><time>2026-04-25T13:27:20.855Z</time></trkpt><trkpt lat="44.6457431" lon="8.0482688"><ele>290.25</ele><time>2026-04-25T13:27:21.843Z</time></trkpt><trkpt lat="44.6456162" lon="8.0483111"><ele>291.0</ele><time>2026-04-25T13:27:22.845Z</time></trkpt><trkpt lat="44.6455026" lon="8.0484085"><ele>293.25</ele><time>2026-04-25T13:27:23.854Z</time></trkpt><trkpt lat="44.6454201" lon="8.0485348"><ele>295.5</ele><time>2026-04-25T13:27:24.844Z</time></trkpt><trkpt lat="44.6453635" lon="8.0487242"><ele>297.75</ele><time>2026-04-25T13:27:25.847Z</time></trkpt><trkpt lat="44.6453084" lon="8.04893"><ele>300.0</ele><time>2026-04-25T13:27:26.841Z</time></trkpt><trkpt lat="44.6452858" lon="8.0491511"><ele>302.3333333333333</ele><time>2026-04-25T13:27:27.849Z</time></trkpt><trkpt lat="44.6452843" lon="8.0493924"><ele>304.66666666666663</ele><time>2026-04-25T13:27:28.843Z</time></trkpt><trkpt lat="44.6453146" lon="8.0496381"><ele>307.0</ele><time>2026-04-25T13:27:29.851Z</time></trkpt><trkpt lat="44.6453646" lon="8.0498782"><ele>308.3333333333333</ele><time>2026-04-25T13:27:30.845Z</time></trkpt><trkpt lat="44.6454239" lon="8.0501224"><ele>309.6666666666667</ele><time>2026-04-25T13:27:31.854Z</time></trkpt><trkpt lat="44.6454836" lon="8.050364"><ele>311.0</ele><time>2026-04-25T13:27:32.85Z</time></trkpt><trkpt lat="44.6455476" lon="8.0505956"><ele>313.0</ele><time>2026-04-25T13:27:33.853Z</time></trkpt><trkpt lat="44.6456381" lon="8.0508161"><ele>315.0</ele><time>2026-04-25T13:27:34.847Z</time></trkpt><trkpt lat="44.6457502" lon="8.0510172"><ele>317.0</ele><time>2026-04-25T13:27:35.846Z</time></trkpt><trkpt lat="44.6458795" lon="8.0511999"><ele>317.0</ele><time>2026-04-25T13:27:36.853Z</time></trkpt><trkpt lat="44.6460307" lon="8.0513639"><ele>317.0</ele><time>2026-04-25T13:27:37.853Z</time></trkpt><trkpt lat="44.646198" lon="8.0514904"><ele>317.0</ele><time>2026-04-25T13:27:38.858Z</time></trkpt><trkpt lat="44.6463826" lon="8.0515821"><ele>319.0</ele><time>2026-04-25T13:27:39.858Z</time></trkpt><trkpt lat="44.6465705" lon="8.0516388"><ele>321.0</ele><time>2026-04-25T13:27:40.851Z</time></trkpt><trkpt lat="44.6467617" lon="8.0516779"><ele>323.0</ele><time>2026-04-25T13:27:41.849Z</time></trkpt><trkpt lat="44.6469334" lon="8.0517107"><ele>323.25</ele><time>2026-04-25T13:27:42.851Z</time></trkpt><trkpt lat="44.6470917" lon="8.0517335"><ele>323.5</ele><time>2026-04-25T13:27:43.85Z</time></trkpt><trkpt lat="44.6472341" lon="8.0517538"><ele>323.75</ele><time>2026-04-25T13:27:44.852Z</time></trkpt><trkpt lat="44.6473533" lon="8.0517734"><ele>324.0</ele><time>2026-04-25T13:27:45.856Z</time></trkpt><trkpt lat="44.6474596" lon="8.0517962"><ele>324.0</ele><time>2026-04-25T13:27:46.847Z</time></trkpt><trkpt lat="44.6475521" lon="8.0518362"><ele>324.0</ele><time>2026-04-25T13:27:47.856Z</time></trkpt><trkpt lat="44.6476256" lon="8.0519212"><ele>324.0</ele><time>2026-04-25T13:27:48.85Z</time></trkpt><trkpt lat="44.6476639" lon="8.0520471"><ele>324.0</ele><time>2026-04-25T13:27:49.84Z</time></trkpt><trkpt lat="44.647665" lon="8.0521864"><ele>324.0</ele><time>2026-04-25T13:27:50.847Z</time></trkpt><trkpt lat="44.6476201" lon="8.0523179"><ele>324.0</ele><time>2026-04-25T13:27:51.848Z</time></trkpt><trkpt lat="44.6475429" lon="8.0524364"><ele>324.0</ele><time>2026-04-25T13:27:52.849Z</time></trkpt><trkpt lat="44.6474512" lon="8.0525579"><ele>324.0</ele><time>2026-04-25T13:27:53.85Z</time></trkpt><trkpt lat="44.6473589" lon="8.0526971"><ele>324.0</ele><time>2026-04-25T13:27:54.857Z</time></trkpt><trkpt lat="44.6472475" lon="8.0528359"><ele>325.0</ele><time>2026-04-25T13:27:55.843Z</time></trkpt><trkpt lat="44.6471203" lon="8.0529791"><ele>326.0</ele><time>2026-04-25T13:27:56.847Z</time></trkpt><trkpt lat="44.6469786" lon="8.0531139"><ele>327.0</ele><time>2026-04-25T13:27:57.847Z</time></trkpt><trkpt lat="44.6468194" lon="8.053235"><ele>330.6666666666667</ele><time>2026-04-25T13:27:58.846Z</time></trkpt><trkpt lat="44.6466486" lon="8.0533415"><ele>334.33333333333337</ele><time>2026-04-25T13:27:59.847Z</time></trkpt><trkpt lat="44.646462" lon="8.0534211"><ele>338.0</ele><time>2026-04-25T13:28:00.857Z</time></trkpt><trkpt lat="44.6462634" lon="8.0534653"><ele>340.0</ele><time>2026-04-25T13:28:01.849Z</time></trkpt><trkpt lat="44.6460585" lon="8.0534473"><ele>342.0</ele><time>2026-04-25T13:28:02.854Z</time></trkpt><trkpt lat="44.6458542" lon="8.0533936"><ele>344.0</ele><time>2026-04-25T13:28:03.851Z</time></trkpt><trkpt lat="44.6456532" lon="8.053307"><ele>343.6666666666667</ele><time>2026-04-25T13:28:04.851Z</time></trkpt><trkpt lat="44.6454536" lon="8.0531902"><ele>343.3333333333333</ele><time>2026-04-25T13:28:05.847Z</time></trkpt><trkpt lat="44.6452431" lon="8.053062"><ele>343.0</ele><time>2026-04-25T13:28:06.846Z</time></trkpt><trkpt lat="44.6450347" lon="8.052939"><ele>343.0</ele><time>2026-04-25T13:28:07.85Z</time></trkpt><trkpt lat="44.6448218" lon="8.0528119"><ele>343.0</ele><time>2026-04-25T13:28:08.856Z</time></trkpt><trkpt lat="44.6446126" lon="8.0526842"><ele>342.5</ele><time>2026-04-25T13:28:09.846Z</time></trkpt><trkpt lat="44.644401" lon="8.0525563"><ele>342.0</ele><time>2026-04-25T13:28:10.858Z</time></trkpt><trkpt lat="44.644191" lon="8.0524214"><ele>342.0</ele><time>2026-04-25T13:28:11.847Z</time></trkpt><trkpt lat="44.643985" lon="8.0522855"><ele>342.0</ele><time>2026-04-25T13:28:12.85Z</time></trkpt><trkpt lat="44.6437848" lon="8.0521455"><ele>345.0</ele><time>2026-04-25T13:28:13.841Z</time></trkpt><trkpt lat="44.6435842" lon="8.0520139"><ele>348.0</ele><time>2026-04-25T13:28:14.846Z</time></trkpt><trkpt lat="44.6433874" lon="8.0518802"><ele>351.0</ele><time>2026-04-25T13:28:15.857Z</time></trkpt><trkpt lat="44.6431984" lon="8.0517396"><ele>352.3333333333333</ele><time>2026-04-25T13:28:16.859Z</time></trkpt><trkpt lat="44.6430066" lon="8.0516022"><ele>353.66666666666663</ele><time>2026-04-25T13:28:17.856Z</time></trkpt><trkpt lat="44.642815" lon="8.0514657"><ele>355.0</ele><time>2026-04-25T13:28:18.853Z</time></trkpt><trkpt lat="44.6426241" lon="8.0513323"><ele>355.0</ele><time>2026-04-25T13:28:19.857Z</time></trkpt><trkpt lat="44.642432" lon="8.0511968"><ele>355.0</ele><time>2026-04-25T13:28:20.856Z</time></trkpt><trkpt lat="44.6422414" lon="8.0510632"><ele>355.0</ele><time>2026-04-25T13:28:21.841Z</time></trkpt><trkpt lat="44.6420534" lon="8.0509252"><ele>357.0</ele><time>2026-04-25T13:28:22.847Z</time></trkpt><trkpt lat="44.6418742" lon="8.0507748"><ele>359.0</ele><time>2026-04-25T13:28:23.853Z</time></trkpt><trkpt lat="44.6417053" lon="8.0506182"><ele>361.0</ele><time>2026-04-25T13:28:24.854Z</time></trkpt><trkpt lat="44.6415457" lon="8.0504628"><ele>361.0</ele><time>2026-04-25T13:28:25.859Z</time></trkpt><trkpt lat="44.6413857" lon="8.0503162"><ele>361.0</ele><time>2026-04-25T13:28:26.855Z</time></trkpt><trkpt lat="44.6412213" lon="8.0501912"><ele>361.0</ele><time>2026-04-25T13:28:27.857Z</time></trkpt><trkpt lat="44.6410422" lon="8.0500949"><ele>361.3333333333333</ele><time>2026-04-25T13:28:28.857Z</time></trkpt><trkpt lat="44.6408512" lon="8.0500213"><ele>361.6666666666667</ele><time>2026-04-25T13:28:29.849Z</time></trkpt><trkpt lat="44.6406565" lon="8.0499733"><ele>362.0</ele><time>2026-04-25T13:28:30.847Z</time></trkpt><trkpt lat="44.6404663" lon="8.0499326"><ele>363.0</ele><time>2026-04-25T13:28:31.842Z</time></trkpt><trkpt lat="44.6402736" lon="8.0499109"><ele>364.0</ele><time>2026-04-25T13:28:32.856Z</time></trkpt><trkpt lat="44.6400789" lon="8.049932"><ele>365.0</ele><time>2026-04-25T13:28:33.849Z</time></trkpt><trkpt lat="44.6398807" lon="8.0499827"><ele>369.0</ele><time>2026-04-25T13:28:34.849Z</time></trkpt><trkpt lat="44.6396917" lon="8.0500465"><ele>373.0</ele><time>2026-04-25T13:28:35.844Z</time></trkpt><trkpt lat="44.6395012" lon="8.0501209"><ele>377.0</ele><time>2026-04-25T13:28:36.847Z</time></trkpt><trkpt lat="44.639316" lon="8.0502108"><ele>377.0</ele><time>2026-04-25T13:28:37.846Z</time></trkpt><trkpt lat="44.6391449" lon="8.0503262"><ele>377.0</ele><time>2026-04-25T13:28:38.845Z</time></trkpt><trkpt lat="44.6390099" lon="8.0505041"><ele>377.0</ele><time>2026-04-25T13:28:39.841Z</time></trkpt><trkpt lat="44.6388741" lon="8.0507002"><ele>379.6666666666667</ele><time>2026-04-25T13:28:40.859Z</time></trkpt><trkpt lat="44.6387316" lon="8.0508783"><ele>382.33333333333337</ele><time>2026-04-25T13:28:41.846Z</time></trkpt><trkpt lat="44.6385693" lon="8.0510225"><ele>385.0</ele><time>2026-04-25T13:28:42.859Z</time></trkpt><trkpt lat="44.6383955" lon="8.051131"><ele>385.0</ele><time>2026-04-25T13:28:43.848Z</time></trkpt><trkpt lat="44.6382129" lon="8.0512105"><ele>385.0</ele><time>2026-04-25T13:28:44.858Z</time></trkpt><trkpt lat="44.6380314" lon="8.0512859"><ele>385.0</ele><time>2026-04-25T13:28:45.846Z</time></trkpt><trkpt lat="44.6378574" lon="8.0513684"><ele>384.0</ele><time>2026-04-25T13:28:46.849Z</time></trkpt><trkpt lat="44.6376965" lon="8.0514786"><ele>383.0</ele><time>2026-04-25T13:28:47.85Z</time></trkpt><trkpt lat="44.63755" lon="8.0516199"><ele>382.0</ele><time>2026-04-25T13:28:48.855Z</time></trkpt><trkpt lat="44.6373954" lon="8.0517811"><ele>387.3333333333333</ele><time>2026-04-25T13:28:49.852Z</time></trkpt><trkpt lat="44.6372285" lon="8.0519024"><ele>392.66666666666663</ele><time>2026-04-25T13:28:50.858Z</time></trkpt><trkpt lat="44.6370516" lon="8.0520054"><ele>398.0</ele><time>2026-04-25T13:28:51.858Z</time></trkpt><trkpt lat="44.6368864" lon="8.0521197"><ele>398.0</ele><time>2026-04-25T13:28:52.853Z</time></trkpt><trkpt lat="44.6367506" lon="8.0522747"><ele>398.0</ele><time>2026-04-25T13:28:53.842Z</time></trkpt><trkpt lat="44.6366304" lon="8.0524597"><ele>398.0</ele><time>2026-04-25T13:28:54.847Z</time></trkpt><trkpt lat="44.6365181" lon="8.0526733"><ele>402.3333333333333</ele><time>2026-04-25T13:28:55.842Z</time></trkpt><trkpt lat="44.6363995" lon="8.0528817"><ele>406.66666666666663</ele><time>2026-04-25T13:28:56.851Z</time></trkpt><trkpt lat="44.6362798" lon="8.0530996"><ele>411.0</ele><time>2026-04-25T13:28:57.853Z</time></trkpt><trkpt lat="44.6361518" lon="8.0533163"><ele>411.66666666666663</ele><time>2026-04-25T13:28:58.854Z</time></trkpt><trkpt lat="44.6360048" lon="8.0535141"><ele>412.3333333333333</ele><time>2026-04-25T13:28:59.855Z</time></trkpt><trkpt lat="44.6358446" lon="8.0536961"><ele>413.0</ele><time>2026-04-25T13:29:00.852Z</time></trkpt><trkpt lat="44.6356698" lon="8.0538608"><ele>413.0</ele><time>2026-04-25T13:29:01.841Z</time></trkpt><trkpt lat="44.6354832" lon="8.0540085"><ele>413.0</ele><time>2026-04-25T13:29:02.852Z</time></trkpt><trkpt lat="44.6352964" lon="8.0541549"><ele>413.0</ele><time>2026-04-25T13:29:03.851Z</time></trkpt><trkpt lat="44.6351193" lon="8.0542892"><ele>416.3333333333333</ele><time>2026-04-25T13:29:04.852Z</time></trkpt><trkpt lat="44.6349488" lon="8.0544008"><ele>419.66666666666663</ele><time>2026-04-25T13:29:05.856Z</time></trkpt><trkpt lat="44.6347722" lon="8.0544658"><ele>423.0</ele><time>2026-04-25T13:29:06.849Z</time></trkpt><trkpt lat="44.634597" lon="8.0544667"><ele>423.66666666666663</ele><time>2026-04-25T13:29:07.856Z</time></trkpt><trkpt lat="44.6344285" lon="8.0544157"><ele>424.3333333333333</ele><time>2026-04-25T13:29:08.854Z</time></trkpt><trkpt lat="44.6342745" lon="8.0543346"><ele>425.0</ele><time>2026-04-25T13:29:09.841Z</time></trkpt><trkpt lat="44.634137" lon="8.0542545"><ele>425.0</ele><time>2026-04-25T13:29:10.842Z</time></trkpt><trkpt lat="44.6340143" lon="8.0541867"><ele>425.0</ele><time>2026-04-25T13:29:11.858Z</time></trkpt><trkpt lat="44.633903" lon="8.0541453"><ele>425.0</ele><time>2026-04-25T13:29:12.855Z</time></trkpt><trkpt lat="44.6337959" lon="8.0541472"><ele>425.0</ele><time>2026-04-25T13:29:13.843Z</time></trkpt><trkpt lat="44.6337017" lon="8.0542023"><ele>425.0</ele><time>2026-04-25T13:29:14.848Z</time></trkpt><trkpt lat="44.6336274" lon="8.0543127"><ele>425.0</ele><time>2026-04-25T13:29:15.854Z</time></trkpt><trkpt lat="44.6335935" lon="8.0544509"><ele>425.0</ele><time>2026-04-25T13:29:16.856Z</time></trkpt><trkpt lat="44.6335802" lon="8.0545985"><ele>425.0</ele><time>2026-04-25T13:29:17.85Z</time></trkpt><trkpt lat="44.6336027" lon="8.0547529"><ele>425.0</ele><time>2026-04-25T13:29:18.843Z</time></trkpt><trkpt lat="44.6336671" lon="8.0548684"><ele>425.0</ele><time>2026-04-25T13:29:19.84Z</time></trkpt><trkpt lat="44.633861" lon="8.054902"><ele>425.0</ele><time>2026-04-25T13:29:20.86Z</time></trkpt><trkpt lat="44.6340213" lon="8.0549601"><ele>425.0</ele><time>2026-04-25T13:29:21.845Z</time></trkpt><trkpt lat="44.6341943" lon="8.0550259"><ele>428.0</ele><time>2026-04-25T13:29:22.855Z</time></trkpt><trkpt lat="44.6343621" lon="8.0550837"><ele>431.0</ele><time>2026-04-25T13:29:23.841Z</time></trkpt><trkpt lat="44.6345325" lon="8.0551271"><ele>434.0</ele><time>2026-04-25T13:29:24.844Z</time></trkpt><trkpt lat="44.6347091" lon="8.0551275"><ele>434.0</ele><time>2026-04-25T13:29:25.845Z</time></trkpt><trkpt lat="44.6348851" lon="8.0550915"><ele>434.0</ele><time>2026-04-25T13:29:26.843Z</time></trkpt><trkpt lat="44.6350596" lon="8.0550498"><ele>434.0</ele><time>2026-04-25T13:29:27.849Z</time></trkpt><trkpt lat="44.6352283" lon="8.0550118"><ele>436.0</ele><time>2026-04-25T13:29:28.844Z</time></trkpt><trkpt lat="44.6353767" lon="8.0549725"><ele>438.0</ele><time>2026-04-25T13:29:29.846Z</time></trkpt><trkpt lat="44.6355027" lon="8.0549385"><ele>440.0</ele><time>2026-04-25T13:29:30.854Z</time></trkpt><trkpt lat="44.635602" lon="8.0549395"><ele>442.0</ele><time>2026-04-25T13:29:31.854Z</time></trkpt><trkpt lat="44.635681" lon="8.0549862"><ele>442.0</ele><time>2026-04-25T13:29:32.853Z</time></trkpt><trkpt lat="44.6357208" lon="8.0550699"><ele>442.00000000000006</ele><time>2026-04-25T13:29:33.841Z</time></trkpt><trkpt lat="44.6357242" lon="8.0551742"><ele>442.00000000000006</ele><time>2026-04-25T13:29:34.842Z</time></trkpt><trkpt lat="44.6356823" lon="8.0552816"><ele>442.0</ele><time>2026-04-25T13:29:35.845Z</time></trkpt><trkpt lat="44.6356091" lon="8.0553718"><ele>442.0</ele><time>2026-04-25T13:29:36.857Z</time></trkpt><trkpt lat="44.6355006" lon="8.0554464"><ele>442.0</ele><time>2026-04-25T13:29:37.843Z</time></trkpt><trkpt lat="44.6353766" lon="8.0555263"><ele>442.0</ele><time>2026-04-25T13:29:38.838Z</time></trkpt><trkpt lat="44.6352416" lon="8.0556198"><ele>442.0</ele><time>2026-04-25T13:29:39.849Z</time></trkpt><trkpt lat="44.6350924" lon="8.0557082"><ele>442.0</ele><time>2026-04-25T13:29:40.856Z</time></trkpt><trkpt lat="44.6349308" lon="8.0557815"><ele>443.33333333333337</ele><time>2026-04-25T13:29:41.853Z</time></trkpt><trkpt lat="44.6347577" lon="8.0558625"><ele>444.66666666666663</ele><time>2026-04-25T13:29:42.849Z</time></trkpt><trkpt lat="44.6345771" lon="8.0559399"><ele>446.0</ele><time>2026-04-25T13:29:43.843Z</time></trkpt><trkpt lat="44.6343993" lon="8.0560255"><ele>446.0</ele><time>2026-04-25T13:29:44.844Z</time></trkpt><trkpt lat="44.6342223" lon="8.0561214"><ele>446.0</ele><time>2026-04-25T13:29:45.857Z</time></trkpt><trkpt lat="44.6340458" lon="8.0562293"><ele>446.0</ele><time>2026-04-25T13:29:46.846Z</time></trkpt><trkpt lat="44.6338749" lon="8.056352"><ele>446.0</ele><time>2026-04-25T13:29:47.849Z</time></trkpt><trkpt lat="44.6337047" lon="8.0564941"><ele>446.0</ele><time>2026-04-25T13:29:48.854Z</time></trkpt><trkpt lat="44.6335481" lon="8.0566551"><ele>446.0</ele><time>2026-04-25T13:29:49.854Z</time></trkpt><trkpt lat="44.6333926" lon="8.0568097"><ele>449.3333333333333</ele><time>2026-04-25T13:29:50.856Z</time></trkpt><trkpt lat="44.6332299" lon="8.0569534"><ele>452.66666666666663</ele><time>2026-04-25T13:29:51.843Z</time></trkpt><trkpt lat="44.6330512" lon="8.0570519"><ele>456.0</ele><time>2026-04-25T13:29:52.845Z</time></trkpt><trkpt lat="44.6328683" lon="8.0571233"><ele>456.66666666666663</ele><time>2026-04-25T13:29:53.848Z</time></trkpt><trkpt lat="44.6326786" lon="8.0571663"><ele>457.3333333333333</ele><time>2026-04-25T13:29:54.846Z</time></trkpt><trkpt lat="44.6324853" lon="8.0571833"><ele>458.0</ele><time>2026-04-25T13:29:55.844Z</time></trkpt><trkpt lat="44.6322924" lon="8.0571494"><ele>458.0</ele><time>2026-04-25T13:29:56.845Z</time></trkpt><trkpt lat="44.6321012" lon="8.0570798"><ele>458.0</ele><time>2026-04-25T13:29:57.849Z</time></trkpt><trkpt lat="44.6319124" lon="8.0569969"><ele>458.0</ele><time>2026-04-25T13:29:58.84Z</time></trkpt><trkpt lat="44.631718" lon="8.0569268"><ele>462.3333333333333</ele><time>2026-04-25T13:29:59.851Z</time></trkpt><trkpt lat="44.6315182" lon="8.0568749"><ele>466.66666666666663</ele><time>2026-04-25T13:30:00.856Z</time></trkpt><trkpt lat="44.6313232" lon="8.0568258"><ele>471.0</ele><time>2026-04-25T13:30:01.856Z</time></trkpt><trkpt lat="44.631134" lon="8.0567716"><ele>474.66666666666663</ele><time>2026-04-25T13:30:02.851Z</time></trkpt><trkpt lat="44.6309513" lon="8.0567227"><ele>478.3333333333333</ele><time>2026-04-25T13:30:03.848Z</time></trkpt><trkpt lat="44.6307726" lon="8.0566778"><ele>482.0</ele><time>2026-04-25T13:30:04.845Z</time></trkpt><trkpt lat="44.6306214" lon="8.0566478"><ele>481.3333333333333</ele><time>2026-04-25T13:30:05.851Z</time></trkpt><trkpt lat="44.630467" lon="8.0566048"><ele>480.66666666666663</ele><time>2026-04-25T13:30:06.845Z</time></trkpt><trkpt lat="44.6303147" lon="8.0565572"><ele>480.0</ele><time>2026-04-25T13:30:07.845Z</time></trkpt><trkpt lat="44.6301623" lon="8.0565039"><ele>480.0</ele><time>2026-04-25T13:30:08.86Z</time></trkpt><trkpt lat="44.6300166" lon="8.0564485"><ele>480.0</ele><time>2026-04-25T13:30:09.853Z</time></trkpt><trkpt lat="44.6298785" lon="8.0563684"><ele>480.0</ele><time>2026-04-25T13:30:10.856Z</time></trkpt><trkpt lat="44.6297551" lon="8.0562789"><ele>480.0</ele><time>2026-04-25T13:30:11.848Z</time></trkpt><trkpt lat="44.6296371" lon="8.0561907"><ele>480.0</ele><time>2026-04-25T13:30:12.849Z</time></trkpt><trkpt lat="44.6295283" lon="8.0561063"><ele>480.0</ele><time>2026-04-25T13:30:13.845Z</time></trkpt><trkpt lat="44.6294251" lon="8.0560319"><ele>480.0</ele><time>2026-04-25T13:30:14.852Z</time></trkpt><trkpt lat="44.6293255" lon="8.0559615"><ele>480.0</ele><time>2026-04-25T13:30:15.846Z</time></trkpt><trkpt lat="44.6292249" lon="8.0558896"><ele>478.75</ele><time>2026-04-25T13:30:16.855Z</time></trkpt><trkpt lat="44.6291211" lon="8.0558224"><ele>477.5</ele><time>2026-04-25T13:30:17.845Z</time></trkpt><trkpt lat="44.6290194" lon="8.0557618"><ele>476.25</ele><time>2026-04-25T13:30:18.849Z</time></trkpt><trkpt lat="44.6289094" lon="8.0556961"><ele>475.0</ele><time>2026-04-25T13:30:19.847Z</time></trkpt><trkpt lat="44.6287985" lon="8.0556379"><ele>475.0</ele><time>2026-04-25T13:30:20.85Z</time></trkpt><trkpt lat="44.6286795" lon="8.0555805"><ele>475.0</ele><time>2026-04-25T13:30:21.848Z</time></trkpt><trkpt lat="44.6285542" lon="8.0555264"><ele>475.0</ele><time>2026-04-25T13:30:22.853Z</time></trkpt><trkpt lat="44.6284395" lon="8.0554693"><ele>475.0</ele><time>2026-04-25T13:30:23.847Z</time></trkpt><trkpt lat="44.6283298" lon="8.0554129"><ele>477.8</ele><time>2026-04-25T13:30:24.845Z</time></trkpt><trkpt lat="44.6282214" lon="8.0553572"><ele>480.6</ele><time>2026-04-25T13:30:25.854Z</time></trkpt><trkpt lat="44.6281179" lon="8.0553036"><ele>483.4</ele><time>2026-04-25T13:30:26.851Z</time></trkpt><trkpt lat="44.6280189" lon="8.055244"><ele>486.2</ele><time>2026-04-25T13:30:27.851Z</time></trkpt><trkpt lat="44.6279246" lon="8.0551829"><ele>489.0</ele><time>2026-04-25T13:30:28.849Z</time></trkpt><trkpt lat="44.6278385" lon="8.0551174"><ele>488.6666666666667</ele><time>2026-04-25T13:30:29.85Z</time></trkpt><trkpt lat="44.6277561" lon="8.0550526"><ele>488.33333333333337</ele><time>2026-04-25T13:30:30.854Z</time></trkpt><trkpt lat="44.6276743" lon="8.0549874"><ele>488.0</ele><time>2026-04-25T13:30:31.845Z</time></trkpt><trkpt lat="44.6275995" lon="8.0549364"><ele>487.6666666666667</ele><time>2026-04-25T13:30:32.849Z</time></trkpt><trkpt lat="44.6275354" lon="8.054895"><ele>487.33333333333337</ele><time>2026-04-25T13:30:33.85Z</time></trkpt><trkpt lat="44.6274655" lon="8.0548669"><ele>487.0</ele><time>2026-04-25T13:30:34.859Z</time></trkpt><trkpt lat="44.6273938" lon="8.0548519"><ele>487.00000000000006</ele><time>2026-04-25T13:30:35.849Z</time></trkpt><trkpt lat="44.6273176" lon="8.0548542"><ele>487.0</ele><time>2026-04-25T13:30:36.841Z</time></trkpt><trkpt lat="44.6272475" lon="8.054873"><ele>487.0</ele><time>2026-04-25T13:30:37.856Z</time></trkpt><trkpt lat="44.6271779" lon="8.0549031"><ele>487.0</ele><time>2026-04-25T13:30:38.854Z</time></trkpt><trkpt lat="44.6271046" lon="8.0549443"><ele>487.00000000000006</ele><time>2026-04-25T13:30:39.844Z</time></trkpt><trkpt lat="44.6270262" lon="8.0549921"><ele>487.0</ele><time>2026-04-25T13:30:40.848Z</time></trkpt><trkpt lat="44.6269428" lon="8.0550353"><ele>491.6</ele><time>2026-04-25T13:30:41.858Z</time></trkpt><trkpt lat="44.6268551" lon="8.0550729"><ele>496.20000000000005</ele><time>2026-04-25T13:30:42.855Z</time></trkpt><trkpt lat="44.6267592" lon="8.0551023"><ele>500.8</ele><time>2026-04-25T13:30:43.847Z</time></trkpt><trkpt lat="44.6266515" lon="8.0551502"><ele>505.4</ele><time>2026-04-25T13:30:44.861Z</time></trkpt><trkpt lat="44.6265255" lon="8.0552156"><ele>510.0</ele><time>2026-04-25T13:30:45.846Z</time></trkpt><trkpt lat="44.62638" lon="8.05527"><ele>510.0</ele><time>2026-04-25T13:30:46.853Z</time></trkpt><trkpt lat="44.6262231" lon="8.0553183"><ele>510.0</ele><time>2026-04-25T13:30:47.85Z</time></trkpt><trkpt lat="44.6260574" lon="8.0553702"><ele>510.0</ele><time>2026-04-25T13:30:48.844Z</time></trkpt><trkpt lat="44.625894" lon="8.0554254"><ele>508.33333333333337</ele><time>2026-04-25T13:30:49.84Z</time></trkpt><trkpt lat="44.6257313" lon="8.0554869"><ele>506.6666666666667</ele><time>2026-04-25T13:30:50.853Z</time></trkpt><trkpt lat="44.6255688" lon="8.0555483"><ele>505.0</ele><time>2026-04-25T13:30:51.852Z</time></trkpt><trkpt lat="44.6254077" lon="8.055609"><ele>503.33333333333337</ele><time>2026-04-25T13:30:52.856Z</time></trkpt><trkpt lat="44.6252431" lon="8.0556682"><ele>501.66666666666663</ele><time>2026-04-25T13:30:53.839Z</time></trkpt><trkpt lat="44.6250773" lon="8.0557261"><ele>500.0</ele><time>2026-04-25T13:30:54.848Z</time></trkpt><trkpt lat="44.6249117" lon="8.055776"><ele>506.3333333333333</ele><time>2026-04-25T13:30:55.846Z</time></trkpt><trkpt lat="44.6247455" lon="8.0558248"><ele>512.6666666666666</ele><time>2026-04-25T13:30:56.857Z</time></trkpt><trkpt lat="44.6245785" lon="8.0558665"><ele>519.0</ele><time>2026-04-25T13:30:57.859Z</time></trkpt><trkpt lat="44.6244048" lon="8.0559013"><ele>520.0</ele><time>2026-04-25T13:30:58.858Z</time></trkpt><trkpt lat="44.6242299" lon="8.0559388"><ele>521.0</ele><time>2026-04-25T13:30:59.86Z</time></trkpt><trkpt lat="44.6240523" lon="8.0559849"><ele>522.0</ele><time>2026-04-25T13:31:00.856Z</time></trkpt><trkpt lat="44.623871" lon="8.0560414"><ele>522.0</ele><time>2026-04-25T13:31:01.839Z</time></trkpt><trkpt lat="44.6236918" lon="8.0561153"><ele>522.0</ele><time>2026-04-25T13:31:02.85Z</time></trkpt><trkpt lat="44.6235147" lon="8.0562175"><ele>522.0</ele><time>2026-04-25T13:31:03.857Z</time></trkpt><trkpt lat="44.6233411" lon="8.0563309"><ele>523.0</ele><time>2026-04-25T13:31:04.844Z</time></trkpt><trkpt lat="44.6231649" lon="8.0564342"><ele>524.0</ele><time>2026-04-25T13:31:05.84Z</time></trkpt><trkpt lat="44.6229814" lon="8.0565179"><ele>525.0</ele><time>2026-04-25T13:31:06.849Z</time></trkpt><trkpt lat="44.6227924" lon="8.056582"><ele>525.6666666666666</ele><time>2026-04-25T13:31:07.858Z</time></trkpt><trkpt lat="44.6225971" lon="8.0566259"><ele>526.3333333333333</ele><time>2026-04-25T13:31:08.857Z</time></trkpt><trkpt lat="44.6223977" lon="8.0566663"><ele>527.0</ele><time>2026-04-25T13:31:09.838Z</time></trkpt><trkpt lat="44.6221963" lon="8.0567084"><ele>527.0</ele><time>2026-04-25T13:31:10.848Z</time></trkpt><trkpt lat="44.6219925" lon="8.0567571"><ele>527.0</ele><time>2026-04-25T13:31:11.844Z</time></trkpt><trkpt lat="44.6217908" lon="8.0568028"><ele>527.0</ele><time>2026-04-25T13:31:12.858Z</time></trkpt><trkpt lat="44.6215908" lon="8.0568447"><ele>527.0</ele><time>2026-04-25T13:31:13.84Z</time></trkpt><trkpt lat="44.621399" lon="8.0568784"><ele>527.0</ele><time>2026-04-25T13:31:14.859Z</time></trkpt><trkpt lat="44.6212155" lon="8.0568939"><ele>527.0</ele><time>2026-04-25T13:31:15.856Z</time></trkpt><trkpt lat="44.6210302" lon="8.0568837"><ele>526.6666666666666</ele><time>2026-04-25T13:31:16.855Z</time></trkpt><trkpt lat="44.6208461" lon="8.0568337"><ele>526.3333333333334</ele><time>2026-04-25T13:31:17.841Z</time></trkpt><trkpt lat="44.6206627" lon="8.0567389"><ele>526.0</ele><time>2026-04-25T13:31:18.849Z</time></trkpt><trkpt lat="44.6204878" lon="8.0566173"><ele>528.3333333333334</ele><time>2026-04-25T13:31:19.855Z</time></trkpt><trkpt lat="44.620316" lon="8.0565001"><ele>530.6666666666666</ele><time>2026-04-25T13:31:20.855Z</time></trkpt><trkpt lat="44.6201577" lon="8.0563922"><ele>533.0</ele><time>2026-04-25T13:31:21.85Z</time></trkpt><trkpt lat="44.6200158" lon="8.0562958"><ele>533.0</ele><time>2026-04-25T13:31:22.849Z</time></trkpt><trkpt lat="44.6198894" lon="8.0562147"><ele>533.0</ele><time>2026-04-25T13:31:23.853Z</time></trkpt><trkpt lat="44.6197871" lon="8.0561484"><ele>533.0</ele><time>2026-04-25T13:31:24.853Z</time></trkpt><trkpt lat="44.6196967" lon="8.0561014"><ele>533.0</ele><time>2026-04-25T13:31:25.854Z</time></trkpt><trkpt lat="44.619613" lon="8.0560959"><ele>533.0</ele><time>2026-04-25T13:31:26.843Z</time></trkpt><trkpt lat="44.6195383" lon="8.0561465"><ele>533.0</ele><time>2026-04-25T13:31:27.855Z</time></trkpt><trkpt lat="44.6194846" lon="8.0562083"><ele>533.0</ele><time>2026-04-25T13:31:28.855Z</time></trkpt><trkpt lat="44.619481" lon="8.0563647"><ele>533.0</ele><time>2026-04-25T13:31:29.845Z</time></trkpt><trkpt lat="44.6194902" lon="8.0565335"><ele>533.0</ele><time>2026-04-25T13:31:30.857Z</time></trkpt><trkpt lat="44.6195049" lon="8.0567188"><ele>533.0</ele><time>2026-04-25T13:31:31.846Z</time></trkpt><trkpt lat="44.6195352" lon="8.0569149"><ele>534.25</ele><time>2026-04-25T13:31:32.845Z</time></trkpt><trkpt lat="44.6195588" lon="8.0570913"><ele>535.5</ele><time>2026-04-25T13:31:33.844Z</time></trkpt><trkpt lat="44.6195628" lon="8.0572661"><ele>536.75</ele><time>2026-04-25T13:31:34.85Z</time></trkpt><trkpt lat="44.6195188" lon="8.0574079"><ele>538.0</ele><time>2026-04-25T13:31:35.853Z</time></trkpt><trkpt lat="44.6194533" lon="8.0575365"><ele>542.0</ele><time>2026-04-25T13:31:36.846Z</time></trkpt><trkpt lat="44.6193557" lon="8.0576434"><ele>546.0</ele><time>2026-04-25T13:31:37.857Z</time></trkpt><trkpt lat="44.6192439" lon="8.0577479"><ele>550.0</ele><time>2026-04-25T13:31:38.856Z</time></trkpt><trkpt lat="44.6191252" lon="8.057859"><ele>554.0</ele><time>2026-04-25T13:31:39.852Z</time></trkpt><trkpt lat="44.6190002" lon="8.0579975"><ele>554.0</ele><time>2026-04-25T13:31:40.854Z</time></trkpt><trkpt lat="44.6188772" lon="8.0581656"><ele>554.0</ele><time>2026-04-25T13:31:41.852Z</time></trkpt><trkpt lat="44.6187657" lon="8.0583512"><ele>554.0</ele><time>2026-04-25T13:31:42.855Z</time></trkpt><trkpt lat="44.6186562" lon="8.0585554"><ele>557.0</ele><time>2026-04-25T13:31:43.848Z</time></trkpt><trkpt lat="44.6185473" lon="8.0587806"><ele>560.0</ele><time>2026-04-25T13:31:44.864Z</time></trkpt><trkpt lat="44.6184296" lon="8.0589861"><ele>563.0</ele><time>2026-04-25T13:31:45.855Z</time></trkpt><trkpt lat="44.6183131" lon="8.0591691"><ele>563.0</ele><time>2026-04-25T13:31:46.843Z</time></trkpt><trkpt lat="44.6182082" lon="8.0593382"><ele>563.0</ele><time>2026-04-25T13:31:47.857Z</time></trkpt><trkpt lat="44.618119" lon="8.059486"><ele>563.0</ele><time>2026-04-25T13:31:48.847Z</time></trkpt><trkpt lat="44.6180399" lon="8.059619"><ele>563.0</ele><time>2026-04-25T13:31:49.844Z</time></trkpt><trkpt lat="44.6179756" lon="8.0597323"><ele>563.0</ele><time>2026-04-25T13:31:50.846Z</time></trkpt><trkpt lat="44.6179172" lon="8.0598449"><ele>563.0</ele><time>2026-04-25T13:31:51.842Z</time></trkpt><trkpt lat="44.6178698" lon="8.0599268"><ele>563.0</ele><time>2026-04-25T13:31:52.847Z</time></trkpt><trkpt lat="44.6178247" lon="8.0599902"><ele>563.0</ele><time>2026-04-25T13:31:53.848Z</time></trkpt><trkpt lat="44.6177079" lon="8.0600012"><ele>563.0</ele><time>2026-04-25T13:31:55.849Z</time></trkpt><trkpt lat="44.6176548" lon="8.059846"><ele>564.4</ele><time>2026-04-25T13:31:57.85Z</time></trkpt><trkpt lat="44.6176734" lon="8.0597265"><ele>565.8</ele><time>2026-04-25T13:31:58.84Z</time></trkpt><trkpt lat="44.6177125" lon="8.0595993"><ele>567.2</ele><time>2026-04-25T13:31:59.853Z</time></trkpt><trkpt lat="44.6177566" lon="8.0594489"><ele>568.6</ele><time>2026-04-25T13:32:00.849Z</time></trkpt><trkpt lat="44.6178035" lon="8.059284"><ele>570.0</ele><time>2026-04-25T13:32:01.846Z</time></trkpt><trkpt lat="44.6178517" lon="8.0591012"><ele>570.0</ele><time>2026-04-25T13:32:02.854Z</time></trkpt><trkpt lat="44.6179024" lon="8.0589241"><ele>570.0</ele><time>2026-04-25T13:32:03.857Z</time></trkpt><trkpt lat="44.6179467" lon="8.0587567"><ele>570.0</ele><time>2026-04-25T13:32:04.852Z</time></trkpt><trkpt lat="44.6179801" lon="8.0586018"><ele>570.0</ele><time>2026-04-25T13:32:05.844Z</time></trkpt><trkpt lat="44.6180086" lon="8.0584614"><ele>570.0</ele><time>2026-04-25T13:32:06.849Z</time></trkpt><trkpt lat="44.6180305" lon="8.0583334"><ele>570.0</ele><time>2026-04-25T13:32:07.844Z</time></trkpt><trkpt lat="44.6180367" lon="8.0582167"><ele>570.0</ele><time>2026-04-25T13:32:08.843Z</time></trkpt><trkpt lat="44.6180169" lon="8.0581028"><ele>570.0</ele><time>2026-04-25T13:32:09.852Z</time></trkpt><trkpt lat="44.6179781" lon="8.0579893"><ele>570.0</ele><time>2026-04-25T13:32:10.857Z</time></trkpt><trkpt lat="44.617912" lon="8.0578913"><ele>570.0</ele><time>2026-04-25T13:32:11.855Z</time></trkpt><trkpt lat="44.6178449" lon="8.0578056"><ele>571.75</ele><time>2026-04-25T13:32:12.856Z</time></trkpt><trkpt lat="44.6177605" lon="8.0577115"><ele>573.5</ele><time>2026-04-25T13:32:13.857Z</time></trkpt><trkpt lat="44.6176686" lon="8.0575793"><ele>575.25</ele><time>2026-04-25T13:32:14.856Z</time></trkpt><trkpt lat="44.6175709" lon="8.057417"><ele>577.0</ele><time>2026-04-25T13:32:15.849Z</time></trkpt><trkpt lat="44.6174717" lon="8.0572299"><ele>577.0</ele><time>2026-04-25T13:32:16.857Z</time></trkpt><trkpt lat="44.6173628" lon="8.0570528"><ele>577.0</ele><time>2026-04-25T13:32:17.852Z</time></trkpt><trkpt lat="44.6172577" lon="8.0568811"><ele>577.0</ele><time>2026-04-25T13:32:18.858Z</time></trkpt><trkpt lat="44.6171511" lon="8.0567104"><ele>578.75</ele><time>2026-04-25T13:32:19.858Z</time></trkpt><trkpt lat="44.6170437" lon="8.0565408"><ele>580.5</ele><time>2026-04-25T13:32:20.848Z</time></trkpt><trkpt lat="44.6169407" lon="8.0563823"><ele>582.25</ele><time>2026-04-25T13:32:21.849Z</time></trkpt><trkpt lat="44.6168581" lon="8.0562411"><ele>584.0</ele><time>2026-04-25T13:32:22.848Z</time></trkpt><trkpt lat="44.6167917" lon="8.0561121"><ele>584.0</ele><time>2026-04-25T13:32:23.845Z</time></trkpt><trkpt lat="44.6167414" lon="8.056004"><ele>584.0</ele><time>2026-04-25T13:32:24.847Z</time></trkpt><trkpt lat="44.6166997" lon="8.0559192"><ele>584.0</ele><time>2026-04-25T13:32:25.854Z</time></trkpt><trkpt lat="44.6166383" lon="8.0557913"><ele>584.0</ele><time>2026-04-25T13:32:27.857Z</time></trkpt><trkpt lat="44.6165511" lon="8.0557851"><ele>584.0</ele><time>2026-04-25T13:32:29.849Z</time></trkpt><trkpt lat="44.6165045" lon="8.0558498"><ele>584.0</ele><time>2026-04-25T13:32:30.849Z</time></trkpt><trkpt lat="44.6164606" lon="8.0559389"><ele>584.0</ele><time>2026-04-25T13:32:31.846Z</time></trkpt><trkpt lat="44.616412" lon="8.0560533"><ele>584.0</ele><time>2026-04-25T13:32:32.856Z</time></trkpt><trkpt lat="44.6163545" lon="8.0561813"><ele>584.0</ele><time>2026-04-25T13:32:33.861Z</time></trkpt><trkpt lat="44.6162922" lon="8.0563311"><ele>584.0</ele><time>2026-04-25T13:32:34.856Z</time></trkpt><trkpt lat="44.616226" lon="8.0564765"><ele>584.0</ele><time>2026-04-25T13:32:35.853Z</time></trkpt><trkpt lat="44.6161674" lon="8.0566288"><ele>582.5</ele><time>2026-04-25T13:32:36.851Z</time></trkpt><trkpt lat="44.6161494" lon="8.0568079"><ele>581.0</ele><time>2026-04-25T13:32:37.844Z</time></trkpt><trkpt lat="44.6161756" lon="8.0570012"><ele>579.5</ele><time>2026-04-25T13:32:38.855Z</time></trkpt><trkpt lat="44.6162313" lon="8.0571831"><ele>578.0</ele><time>2026-04-25T13:32:39.849Z</time></trkpt><trkpt lat="44.6162723" lon="8.0573895"><ele>583.6666666666666</ele><time>2026-04-25T13:32:40.856Z</time></trkpt><trkpt lat="44.6162878" lon="8.057605"><ele>589.3333333333334</ele><time>2026-04-25T13:32:41.845Z</time></trkpt><trkpt lat="44.6162734" lon="8.0578283"><ele>595.0</ele><time>2026-04-25T13:32:42.852Z</time></trkpt><trkpt lat="44.6162146" lon="8.0580442"><ele>593.0</ele><time>2026-04-25T13:32:43.854Z</time></trkpt><trkpt lat="44.6161281" lon="8.0582472"><ele>591.0</ele><time>2026-04-25T13:32:44.855Z</time></trkpt><trkpt lat="44.6160318" lon="8.0584416"><ele>589.0</ele><time>2026-04-25T13:32:45.845Z</time></trkpt><trkpt lat="44.6159434" lon="8.0586427"><ele>589.0</ele><time>2026-04-25T13:32:46.843Z</time></trkpt><trkpt lat="44.6158849" lon="8.0588621"><ele>589.0</ele><time>2026-04-25T13:32:47.845Z</time></trkpt><trkpt lat="44.6158482" lon="8.0590942"><ele>589.0</ele><time>2026-04-25T13:32:48.845Z</time></trkpt><trkpt lat="44.6157977" lon="8.0593194"><ele>590.3333333333334</ele><time>2026-04-25T13:32:49.862Z</time></trkpt><trkpt lat="44.6157117" lon="8.0595311"><ele>591.6666666666666</ele><time>2026-04-25T13:32:50.857Z</time></trkpt><trkpt lat="44.6155983" lon="8.0597185"><ele>593.0</ele><time>2026-04-25T13:32:51.843Z</time></trkpt><trkpt lat="44.615468" lon="8.0598934"><ele>590.3333333333333</ele><time>2026-04-25T13:32:52.852Z</time></trkpt><trkpt lat="44.6153338" lon="8.0600774"><ele>587.6666666666666</ele><time>2026-04-25T13:32:53.856Z</time></trkpt><trkpt lat="44.6152125" lon="8.0602766"><ele>585.0</ele><time>2026-04-25T13:32:54.847Z</time></trkpt><trkpt lat="44.6151104" lon="8.0605083"><ele>585.0</ele><time>2026-04-25T13:32:55.845Z</time></trkpt><trkpt lat="44.6150166" lon="8.0607432"><ele>585.0</ele><time>2026-04-25T13:32:56.844Z</time></trkpt><trkpt lat="44.6149067" lon="8.0609697"><ele>585.0</ele><time>2026-04-25T13:32:57.846Z</time></trkpt><trkpt lat="44.6147884" lon="8.061162"><ele>591.0</ele><time>2026-04-25T13:32:58.846Z</time></trkpt><trkpt lat="44.6146788" lon="8.0613391"><ele>597.0</ele><time>2026-04-25T13:32:59.849Z</time></trkpt><trkpt lat="44.6145966" lon="8.0615316"><ele>603.0</ele><time>2026-04-25T13:33:00.845Z</time></trkpt><trkpt lat="44.6145399" lon="8.061771"><ele>598.6666666666666</ele><time>2026-04-25T13:33:01.853Z</time></trkpt><trkpt lat="44.6144689" lon="8.0619804"><ele>594.3333333333333</ele><time>2026-04-25T13:33:02.85Z</time></trkpt><trkpt lat="44.6143676" lon="8.0621813"><ele>590.0</ele><time>2026-04-25T13:33:03.845Z</time></trkpt><trkpt lat="44.6142426" lon="8.062351"><ele>593.75</ele><time>2026-04-25T13:33:04.844Z</time></trkpt><trkpt lat="44.6141278" lon="8.0624981"><ele>597.5</ele><time>2026-04-25T13:33:05.853Z</time></trkpt><trkpt lat="44.6140407" lon="8.062625"><ele>601.25</ele><time>2026-04-25T13:33:06.85Z</time></trkpt><trkpt lat="44.6139797" lon="8.0627627"><ele>605.0</ele><time>2026-04-25T13:33:07.856Z</time></trkpt><trkpt lat="44.6139554" lon="8.0629073"><ele>605.0</ele><time>2026-04-25T13:33:08.85Z</time></trkpt><trkpt lat="44.6139932" lon="8.0630709"><ele>605.0</ele><time>2026-04-25T13:33:09.855Z</time></trkpt><trkpt lat="44.6140512" lon="8.0632342"><ele>605.0</ele><time>2026-04-25T13:33:10.847Z</time></trkpt><trkpt lat="44.6141129" lon="8.063409"><ele>605.0</ele><time>2026-04-25T13:33:11.85Z</time></trkpt><trkpt lat="44.6141496" lon="8.0636178"><ele>608.0</ele><time>2026-04-25T13:33:12.851Z</time></trkpt><trkpt lat="44.6141575" lon="8.0638382"><ele>611.0</ele><time>2026-04-25T13:33:13.851Z</time></trkpt><trkpt lat="44.6141606" lon="8.0640727"><ele>614.0</ele><time>2026-04-25T13:33:14.852Z</time></trkpt><trkpt lat="44.6141621" lon="8.0643105"><ele>614.0</ele><time>2026-04-25T13:33:15.858Z</time></trkpt><trkpt lat="44.6141509" lon="8.0645464"><ele>614.0</ele><time>2026-04-25T13:33:16.854Z</time></trkpt><trkpt lat="44.6141039" lon="8.064781"><ele>614.0</ele><time>2026-04-25T13:33:17.856Z</time></trkpt><trkpt lat="44.614054" lon="8.065011"><ele>615.6666666666666</ele><time>2026-04-25T13:33:18.848Z</time></trkpt><trkpt lat="44.6140333" lon="8.0652569"><ele>617.3333333333334</ele><time>2026-04-25T13:33:19.845Z</time></trkpt><trkpt lat="44.6140337" lon="8.0655017"><ele>619.0</ele><time>2026-04-25T13:33:20.936Z</time></trkpt><trkpt lat="44.6140325" lon="8.06575"><ele>620.0</ele><time>2026-04-25T13:33:21.856Z</time></trkpt><trkpt lat="44.6140034" lon="8.0660053"><ele>621.0</ele><time>2026-04-25T13:33:22.847Z</time></trkpt><trkpt lat="44.6139543" lon="8.0662579"><ele>622.0</ele><time>2026-04-25T13:33:23.852Z</time></trkpt><trkpt lat="44.6139052" lon="8.066518"><ele>623.3333333333334</ele><time>2026-04-25T13:33:24.856Z</time></trkpt><trkpt lat="44.613847" lon="8.0667769"><ele>624.6666666666666</ele><time>2026-04-25T13:33:25.855Z</time></trkpt><trkpt lat="44.613785" lon="8.0670378"><ele>626.0</ele><time>2026-04-25T13:33:26.843Z</time></trkpt><trkpt lat="44.6137284" lon="8.06729"><ele>628.0</ele><time>2026-04-25T13:33:27.859Z</time></trkpt><trkpt lat="44.6136747" lon="8.0675323"><ele>630.0</ele><time>2026-04-25T13:33:28.85Z</time></trkpt><trkpt lat="44.6136216" lon="8.0677682"><ele>632.0</ele><time>2026-04-25T13:33:29.854Z</time></trkpt><trkpt lat="44.6135654" lon="8.0679987"><ele>629.3333333333333</ele><time>2026-04-25T13:33:30.859Z</time></trkpt><trkpt lat="44.6135099" lon="8.0682297"><ele>626.6666666666666</ele><time>2026-04-25T13:33:31.843Z</time></trkpt><trkpt lat="44.6134562" lon="8.0684574"><ele>624.0</ele><time>2026-04-25T13:33:32.855Z</time></trkpt><trkpt lat="44.6134026" lon="8.0686858"><ele>624.0</ele><time>2026-04-25T13:33:33.849Z</time></trkpt><trkpt lat="44.6133518" lon="8.0689145"><ele>624.0</ele><time>2026-04-25T13:33:34.856Z</time></trkpt><trkpt lat="44.6133024" lon="8.0691412"><ele>624.0</ele><time>2026-04-25T13:33:35.851Z</time></trkpt><trkpt lat="44.6132492" lon="8.0693584"><ele>625.3333333333334</ele><time>2026-04-25T13:33:36.852Z</time></trkpt><trkpt lat="44.6131984" lon="8.0695692"><ele>626.6666666666667</ele><time>2026-04-25T13:33:37.852Z</time></trkpt><trkpt lat="44.6131456" lon="8.0697804"><ele>628.0</ele><time>2026-04-25T13:33:38.858Z</time></trkpt><trkpt lat="44.6130837" lon="8.0699781"><ele>628.0</ele><time>2026-04-25T13:33:39.855Z</time></trkpt><trkpt lat="44.6130098" lon="8.0701744"><ele>628.0</ele><time>2026-04-25T13:33:40.851Z</time></trkpt><trkpt lat="44.6129341" lon="8.0703685"><ele>628.0</ele><time>2026-04-25T13:33:41.847Z</time></trkpt><trkpt lat="44.6128585" lon="8.0705628"><ele>626.6666666666667</ele><time>2026-04-25T13:33:42.854Z</time></trkpt><trkpt lat="44.6127874" lon="8.0707546"><ele>625.3333333333334</ele><time>2026-04-25T13:33:43.854Z</time></trkpt><trkpt lat="44.6127101" lon="8.070941"><ele>624.0</ele><time>2026-04-25T13:33:44.851Z</time></trkpt><trkpt lat="44.612633" lon="8.0711292"><ele>624.0</ele><time>2026-04-25T13:33:45.847Z</time></trkpt><trkpt lat="44.6125563" lon="8.0713197"><ele>624.0</ele><time>2026-04-25T13:33:46.854Z</time></trkpt><trkpt lat="44.6124749" lon="8.0715088"><ele>624.0</ele><time>2026-04-25T13:33:47.85Z</time></trkpt><trkpt lat="44.6123908" lon="8.0716998"><ele>626.6666666666666</ele><time>2026-04-25T13:33:48.853Z</time></trkpt><trkpt lat="44.6123053" lon="8.071897"><ele>629.3333333333333</ele><time>2026-04-25T13:33:49.843Z</time></trkpt><trkpt lat="44.6122114" lon="8.0720886"><ele>632.0</ele><time>2026-04-25T13:33:50.849Z</time></trkpt><trkpt lat="44.6121129" lon="8.0722681"><ele>632.25</ele><time>2026-04-25T13:33:51.855Z</time></trkpt><trkpt lat="44.6120197" lon="8.0724473"><ele>632.5</ele><time>2026-04-25T13:33:52.85Z</time></trkpt><trkpt lat="44.6119328" lon="8.0726114"><ele>632.75</ele><time>2026-04-25T13:33:53.848Z</time></trkpt><trkpt lat="44.6118529" lon="8.0727674"><ele>633.0</ele><time>2026-04-25T13:33:54.849Z</time></trkpt><trkpt lat="44.6117749" lon="8.072916"><ele>633.0</ele><time>2026-04-25T13:33:55.849Z</time></trkpt><trkpt lat="44.6117024" lon="8.0730644"><ele>633.0</ele><time>2026-04-25T13:33:56.854Z</time></trkpt><trkpt lat="44.6116277" lon="8.0732026"><ele>633.0</ele><time>2026-04-25T13:33:57.841Z</time></trkpt><trkpt lat="44.6115515" lon="8.0733301"><ele>633.0</ele><time>2026-04-25T13:33:58.848Z</time></trkpt><trkpt lat="44.6114626" lon="8.0734656"><ele>632.25</ele><time>2026-04-25T13:33:59.852Z</time></trkpt><trkpt lat="44.6113652" lon="8.0736012"><ele>631.5</ele><time>2026-04-25T13:34:00.845Z</time></trkpt><trkpt lat="44.6112568" lon="8.0737318"><ele>630.75</ele><time>2026-04-25T13:34:01.843Z</time></trkpt><trkpt lat="44.6111324" lon="8.0738612"><ele>630.0</ele><time>2026-04-25T13:34:02.851Z</time></trkpt><trkpt lat="44.6110065" lon="8.0739964"><ele>635.3333333333334</ele><time>2026-04-25T13:34:03.856Z</time></trkpt><trkpt lat="44.6108752" lon="8.0741344"><ele>640.6666666666667</ele><time>2026-04-25T13:34:04.854Z</time></trkpt><trkpt lat="44.6107403" lon="8.0742764"><ele>646.0</ele><time>2026-04-25T13:34:05.848Z</time></trkpt><trkpt lat="44.610606" lon="8.0744255"><ele>646.0</ele><time>2026-04-25T13:34:06.847Z</time></trkpt><trkpt lat="44.6104663" lon="8.0745804"><ele>646.0</ele><time>2026-04-25T13:34:07.853Z</time></trkpt><trkpt lat="44.6103306" lon="8.0747602"><ele>646.0</ele><time>2026-04-25T13:34:08.851Z</time></trkpt><trkpt lat="44.6102032" lon="8.0749594"><ele>647.6666666666667</ele><time>2026-04-25T13:34:09.854Z</time></trkpt><trkpt lat="44.6100745" lon="8.0751682"><ele>649.3333333333334</ele><time>2026-04-25T13:34:10.858Z</time></trkpt><trkpt lat="44.6099383" lon="8.0753771"><ele>651.0</ele><time>2026-04-25T13:34:11.85Z</time></trkpt><trkpt lat="44.6098044" lon="8.0755808"><ele>654.0</ele><time>2026-04-25T13:34:12.847Z</time></trkpt><trkpt lat="44.6096751" lon="8.0757782"><ele>657.0</ele><time>2026-04-25T13:34:13.854Z</time></trkpt><trkpt lat="44.6095466" lon="8.0759649"><ele>660.0</ele><time>2026-04-25T13:34:14.856Z</time></trkpt><trkpt lat="44.6094181" lon="8.0761336"><ele>660.0</ele><time>2026-04-25T13:34:15.845Z</time></trkpt><trkpt lat="44.6092802" lon="8.0762889"><ele>660.0</ele><time>2026-04-25T13:34:16.858Z</time></trkpt><trkpt lat="44.609129" lon="8.0764102"><ele>660.0</ele><time>2026-04-25T13:34:17.854Z</time></trkpt><trkpt lat="44.6089593" lon="8.0765047"><ele>660.0</ele><time>2026-04-25T13:34:18.849Z</time></trkpt><trkpt lat="44.6087842" lon="8.0765641"><ele>660.0</ele><time>2026-04-25T13:34:19.854Z</time></trkpt><trkpt lat="44.6086026" lon="8.0765894"><ele>660.0</ele><time>2026-04-25T13:34:20.852Z</time></trkpt><trkpt lat="44.6084161" lon="8.0766132"><ele>660.3333333333334</ele><time>2026-04-25T13:34:21.846Z</time></trkpt><trkpt lat="44.6082286" lon="8.0766073"><ele>660.6666666666667</ele><time>2026-04-25T13:34:22.851Z</time></trkpt><trkpt lat="44.6080378" lon="8.0765662"><ele>661.0</ele><time>2026-04-25T13:34:23.849Z</time></trkpt><trkpt lat="44.6078485" lon="8.0765"><ele>663.6666666666667</ele><time>2026-04-25T13:34:24.849Z</time></trkpt><trkpt lat="44.6076634" lon="8.076414"><ele>666.3333333333334</ele><time>2026-04-25T13:34:25.851Z</time></trkpt><trkpt lat="44.607474" lon="8.0763285"><ele>669.0</ele><time>2026-04-25T13:34:26.853Z</time></trkpt><trkpt lat="44.6072854" lon="8.076244"><ele>669.0</ele><time>2026-04-25T13:34:27.857Z</time></trkpt><trkpt lat="44.6071002" lon="8.0761634"><ele>669.0</ele><time>2026-04-25T13:34:28.855Z</time></trkpt><trkpt lat="44.6069236" lon="8.0760877"><ele>669.0</ele><time>2026-04-25T13:34:29.849Z</time></trkpt><trkpt lat="44.6067504" lon="8.0759993"><ele>669.3333333333334</ele><time>2026-04-25T13:34:30.855Z</time></trkpt><trkpt lat="44.6065811" lon="8.0758775"><ele>669.6666666666667</ele><time>2026-04-25T13:34:31.855Z</time></trkpt><trkpt lat="44.6064159" lon="8.0757217"><ele>670.0</ele><time>2026-04-25T13:34:32.849Z</time></trkpt><trkpt lat="44.6062637" lon="8.075533"><ele>672.6666666666667</ele><time>2026-04-25T13:34:33.854Z</time></trkpt><trkpt lat="44.6061298" lon="8.0753273"><ele>675.3333333333334</ele><time>2026-04-25T13:34:34.845Z</time></trkpt><trkpt lat="44.6060148" lon="8.0751088"><ele>678.0</ele><time>2026-04-25T13:34:35.856Z</time></trkpt><trkpt lat="44.6059158" lon="8.0748841"><ele>678.0</ele><time>2026-04-25T13:34:36.845Z</time></trkpt><trkpt lat="44.6058437" lon="8.074666"><ele>678.0</ele><time>2026-04-25T13:34:37.847Z</time></trkpt><trkpt lat="44.6057814" lon="8.0744737"><ele>678.0</ele><time>2026-04-25T13:34:38.854Z</time></trkpt><trkpt lat="44.6057257" lon="8.0743057"><ele>678.0</ele><time>2026-04-25T13:34:39.855Z</time></trkpt><trkpt lat="44.6056775" lon="8.0741667"><ele>678.0</ele><time>2026-04-25T13:34:40.854Z</time></trkpt><trkpt lat="44.6056261" lon="8.0740493"><ele>678.0</ele><time>2026-04-25T13:34:41.855Z</time></trkpt><trkpt lat="44.6055545" lon="8.0739673"><ele>678.0</ele><time>2026-04-25T13:34:42.852Z</time></trkpt><trkpt lat="44.6054696" lon="8.0739319"><ele>678.0</ele><time>2026-04-25T13:34:43.844Z</time></trkpt><trkpt lat="44.6053831" lon="8.0739731"><ele>677.5</ele><time>2026-04-25T13:34:44.845Z</time></trkpt><trkpt lat="44.6053074" lon="8.0740724"><ele>677.0</ele><time>2026-04-25T13:34:45.847Z</time></trkpt><trkpt lat="44.605268" lon="8.0742205"><ele>676.5</ele><time>2026-04-25T13:34:46.853Z</time></trkpt><trkpt lat="44.6052481" lon="8.0744014"><ele>676.0</ele><time>2026-04-25T13:34:47.855Z</time></trkpt><trkpt lat="44.6052162" lon="8.0746173"><ele>676.0</ele><time>2026-04-25T13:34:48.857Z</time></trkpt><trkpt lat="44.6052935" lon="8.0749081"><ele>676.0</ele><time>2026-04-25T13:34:49.854Z</time></trkpt><trkpt lat="44.6053097" lon="8.0751627"><ele>676.0</ele><time>2026-04-25T13:34:50.852Z</time></trkpt><trkpt lat="44.6053366" lon="8.0754354"><ele>679.3333333333334</ele><time>2026-04-25T13:34:51.847Z</time></trkpt><trkpt lat="44.6053643" lon="8.07571"><ele>682.6666666666666</ele><time>2026-04-25T13:34:52.855Z</time></trkpt><trkpt lat="44.6053879" lon="8.0759802"><ele>686.0</ele><time>2026-04-25T13:34:53.852Z</time></trkpt><trkpt lat="44.6054224" lon="8.0762573"><ele>688.6666666666666</ele><time>2026-04-25T13:34:54.846Z</time></trkpt><trkpt lat="44.6054484" lon="8.0765473"><ele>691.3333333333334</ele><time>2026-04-25T13:34:55.847Z</time></trkpt><trkpt lat="44.6054728" lon="8.0768224"><ele>694.0</ele><time>2026-04-25T13:34:56.863Z</time></trkpt><trkpt lat="44.6055016" lon="8.077083"><ele>695.6666666666667</ele><time>2026-04-25T13:34:57.855Z</time></trkpt><trkpt lat="44.605522" lon="8.0773297"><ele>697.3333333333334</ele><time>2026-04-25T13:34:58.849Z</time></trkpt><trkpt lat="44.6055231" lon="8.0775505"><ele>699.0</ele><time>2026-04-25T13:34:59.855Z</time></trkpt><trkpt lat="44.6054924" lon="8.0777595"><ele>701.0</ele><time>2026-04-25T13:35:00.854Z</time></trkpt><trkpt lat="44.6054334" lon="8.0779539"><ele>703.0</ele><time>2026-04-25T13:35:01.848Z</time></trkpt><trkpt lat="44.6053376" lon="8.0781186"><ele>705.0</ele><time>2026-04-25T13:35:02.847Z</time></trkpt><trkpt lat="44.6052127" lon="8.0782607"><ele>702.3333333333334</ele><time>2026-04-25T13:35:03.856Z</time></trkpt><trkpt lat="44.605058" lon="8.0783432"><ele>699.6666666666667</ele><time>2026-04-25T13:35:04.857Z</time></trkpt><trkpt lat="44.6048841" lon="8.0783925"><ele>697.0</ele><time>2026-04-25T13:35:05.856Z</time></trkpt><trkpt lat="44.6047036" lon="8.078442"><ele>697.0</ele><time>2026-04-25T13:35:06.858Z</time></trkpt><trkpt lat="44.6045229" lon="8.0784946"><ele>697.0</ele><time>2026-04-25T13:35:07.852Z</time></trkpt><trkpt lat="44.6043399" lon="8.0785706"><ele>697.0</ele><time>2026-04-25T13:35:08.857Z</time></trkpt><trkpt lat="44.6041626" lon="8.0786856"><ele>694.6666666666667</ele><time>2026-04-25T13:35:09.85Z</time></trkpt><trkpt lat="44.6039915" lon="8.0788286"><ele>692.3333333333334</ele><time>2026-04-25T13:35:10.855Z</time></trkpt><trkpt lat="44.6038344" lon="8.0790029"><ele>690.0</ele><time>2026-04-25T13:35:11.852Z</time></trkpt><trkpt lat="44.6036882" lon="8.079201"><ele>691.6666666666666</ele><time>2026-04-25T13:35:12.858Z</time></trkpt><trkpt lat="44.6035591" lon="8.0794207"><ele>693.3333333333333</ele><time>2026-04-25T13:35:13.86Z</time></trkpt><trkpt lat="44.6034422" lon="8.079629"><ele>695.0</ele><time>2026-04-25T13:35:14.853Z</time></trkpt><trkpt lat="44.6033331" lon="8.0798147"><ele>697.6666666666666</ele><time>2026-04-25T13:35:15.851Z</time></trkpt><trkpt lat="44.6032215" lon="8.0799752"><ele>700.3333333333334</ele><time>2026-04-25T13:35:16.849Z</time></trkpt><trkpt lat="44.6030933" lon="8.0801018"><ele>703.0</ele><time>2026-04-25T13:35:17.846Z</time></trkpt><trkpt lat="44.6029469" lon="8.0801871"><ele>700.3333333333334</ele><time>2026-04-25T13:35:18.853Z</time></trkpt><trkpt lat="44.6027907" lon="8.0802479"><ele>697.6666666666666</ele><time>2026-04-25T13:35:19.853Z</time></trkpt><trkpt lat="44.602637" lon="8.0803316"><ele>695.0</ele><time>2026-04-25T13:35:20.853Z</time></trkpt><trkpt lat="44.6024867" lon="8.0804503"><ele>695.0</ele><time>2026-04-25T13:35:21.853Z</time></trkpt><trkpt lat="44.6023476" lon="8.0806115"><ele>695.0</ele><time>2026-04-25T13:35:22.853Z</time></trkpt><trkpt lat="44.6022206" lon="8.0808094"><ele>695.0</ele><time>2026-04-25T13:35:23.845Z</time></trkpt><trkpt lat="44.6020985" lon="8.0810286"><ele>693.0</ele><time>2026-04-25T13:35:24.847Z</time></trkpt><trkpt lat="44.6019803" lon="8.0812587"><ele>691.0</ele><time>2026-04-25T13:35:25.849Z</time></trkpt><trkpt lat="44.6018581" lon="8.0814855"><ele>689.0</ele><time>2026-04-25T13:35:26.85Z</time></trkpt><trkpt lat="44.6017343" lon="8.0817131"><ele>693.6666666666666</ele><time>2026-04-25T13:35:27.844Z</time></trkpt><trkpt lat="44.6015942" lon="8.081925"><ele>698.3333333333334</ele><time>2026-04-25T13:35:28.853Z</time></trkpt><trkpt lat="44.6014308" lon="8.0821093"><ele>703.0</ele><time>2026-04-25T13:35:29.858Z</time></trkpt><trkpt lat="44.6012565" lon="8.0822771"><ele>704.0</ele><time>2026-04-25T13:35:30.858Z</time></trkpt><trkpt lat="44.6010759" lon="8.0824366"><ele>705.0</ele><time>2026-04-25T13:35:31.851Z</time></trkpt><trkpt lat="44.6008933" lon="8.0825971"><ele>706.0</ele><time>2026-04-25T13:35:32.851Z</time></trkpt><trkpt lat="44.600712" lon="8.0827553"><ele>706.0</ele><time>2026-04-25T13:35:33.852Z</time></trkpt><trkpt lat="44.600529" lon="8.0829087"><ele>706.0</ele><time>2026-04-25T13:35:34.857Z</time></trkpt><trkpt lat="44.6003395" lon="8.0830211"><ele>706.0</ele><time>2026-04-25T13:35:35.846Z</time></trkpt><trkpt lat="44.6001427" lon="8.0830985"><ele>703.0</ele><time>2026-04-25T13:35:36.859Z</time></trkpt><trkpt lat="44.5999534" lon="8.0831507"><ele>700.0</ele><time>2026-04-25T13:35:37.857Z</time></trkpt><trkpt lat="44.5997711" lon="8.0832007"><ele>697.0</ele><time>2026-04-25T13:35:38.852Z</time></trkpt><trkpt lat="44.5995942" lon="8.0832423"><ele>702.3333333333334</ele><time>2026-04-25T13:35:39.848Z</time></trkpt><trkpt lat="44.5994195" lon="8.0832735"><ele>707.6666666666666</ele><time>2026-04-25T13:35:40.857Z</time></trkpt><trkpt lat="44.599248" lon="8.0833084"><ele>713.0</ele><time>2026-04-25T13:35:41.853Z</time></trkpt><trkpt lat="44.5990883" lon="8.08334"><ele>713.0</ele><time>2026-04-25T13:35:42.943Z</time></trkpt><trkpt lat="44.5989386" lon="8.0833752"><ele>713.0</ele><time>2026-04-25T13:35:43.848Z</time></trkpt><trkpt lat="44.5987991" lon="8.0834084"><ele>713.0</ele><time>2026-04-25T13:35:44.849Z</time></trkpt><trkpt lat="44.598668" lon="8.0834342"><ele>713.0</ele><time>2026-04-25T13:35:45.85Z</time></trkpt><trkpt lat="44.5985446" lon="8.0834576"><ele>712.8</ele><time>2026-04-25T13:35:46.846Z</time></trkpt><trkpt lat="44.5984266" lon="8.0834782"><ele>712.5999999999999</ele><time>2026-04-25T13:35:47.854Z</time></trkpt><trkpt lat="44.5983137" lon="8.0834961"><ele>712.4000000000001</ele><time>2026-04-25T13:35:48.848Z</time></trkpt><trkpt lat="44.5982093" lon="8.0835153"><ele>712.2</ele><time>2026-04-25T13:35:49.852Z</time></trkpt><trkpt lat="44.5981183" lon="8.0835359"><ele>712.0</ele><time>2026-04-25T13:35:50.85Z</time></trkpt><trkpt lat="44.598038" lon="8.0835528"><ele>712.0</ele><time>2026-04-25T13:35:51.844Z</time></trkpt><trkpt lat="44.5979658" lon="8.0835748"><ele>712.0</ele><time>2026-04-25T13:35:52.841Z</time></trkpt><trkpt lat="44.5978914" lon="8.0835882"><ele>712.0</ele><time>2026-04-25T13:35:53.845Z</time></trkpt><trkpt lat="44.5978072" lon="8.0835982"><ele>712.0</ele><time>2026-04-25T13:35:54.85Z</time></trkpt><trkpt lat="44.5977144" lon="8.0835901"><ele>712.0</ele><time>2026-04-25T13:35:55.841Z</time></trkpt><trkpt lat="44.5976148" lon="8.0835766"><ele>712.0</ele><time>2026-04-25T13:35:56.853Z</time></trkpt><trkpt lat="44.597509" lon="8.0835488"><ele>712.0</ele><time>2026-04-25T13:35:57.847Z</time></trkpt><trkpt lat="44.5974019" lon="8.0835082"><ele>712.0</ele><time>2026-04-25T13:35:58.848Z</time></trkpt><trkpt lat="44.597295" lon="8.0834634"><ele>712.0</ele><time>2026-04-25T13:35:59.844Z</time></trkpt><trkpt lat="44.59718" lon="8.0834182"><ele>712.0</ele><time>2026-04-25T13:36:00.848Z</time></trkpt><trkpt lat="44.5970607" lon="8.0833681"><ele>712.25</ele><time>2026-04-25T13:36:01.849Z</time></trkpt><trkpt lat="44.596942" lon="8.0833089"><ele>712.5</ele><time>2026-04-25T13:36:02.848Z</time></trkpt><trkpt lat="44.5968262" lon="8.0832503"><ele>712.75</ele><time>2026-04-25T13:36:03.85Z</time></trkpt><trkpt lat="44.5967098" lon="8.0831935"><ele>713.0</ele><time>2026-04-25T13:36:04.852Z</time></trkpt><trkpt lat="44.5965894" lon="8.0831382"><ele>711.75</ele><time>2026-04-25T13:36:05.852Z</time></trkpt><trkpt lat="44.5964729" lon="8.0830767"><ele>710.5</ele><time>2026-04-25T13:36:06.843Z</time></trkpt><trkpt lat="44.5963562" lon="8.0830133"><ele>709.25</ele><time>2026-04-25T13:36:07.841Z</time></trkpt><trkpt lat="44.5962444" lon="8.082963"><ele>708.0</ele><time>2026-04-25T13:36:08.848Z</time></trkpt><trkpt lat="44.5961423" lon="8.0829097"><ele>708.0</ele><time>2026-04-25T13:36:09.852Z</time></trkpt><trkpt lat="44.5960357" lon="8.082854"><ele>708.0</ele><time>2026-04-25T13:36:10.843Z</time></trkpt><trkpt lat="44.5959268" lon="8.0828064"><ele>708.0</ele><time>2026-04-25T13:36:11.856Z</time></trkpt><trkpt lat="44.595825" lon="8.0827607"><ele>708.0</ele><time>2026-04-25T13:36:12.856Z</time></trkpt><trkpt lat="44.5957291" lon="8.0827199"><ele>708.0</ele><time>2026-04-25T13:36:13.846Z</time></trkpt><trkpt lat="44.5956359" lon="8.0826749"><ele>708.0</ele><time>2026-04-25T13:36:14.851Z</time></trkpt><trkpt lat="44.5955466" lon="8.0826286"><ele>708.0</ele><time>2026-04-25T13:36:15.845Z</time></trkpt><trkpt lat="44.5954667" lon="8.0825861"><ele>708.0</ele><time>2026-04-25T13:36:16.845Z</time></trkpt><trkpt lat="44.5953961" lon="8.0825315"><ele>708.0</ele><time>2026-04-25T13:36:17.84Z</time></trkpt><trkpt lat="44.5953296" lon="8.0824732"><ele>708.0</ele><time>2026-04-25T13:36:18.847Z</time></trkpt><trkpt lat="44.5952613" lon="8.0824115"><ele>708.0</ele><time>2026-04-25T13:36:19.846Z</time></trkpt><trkpt lat="44.5951833" lon="8.082348"><ele>706.2</ele><time>2026-04-25T13:36:20.841Z</time></trkpt><trkpt lat="44.5951031" lon="8.0822811"><ele>704.4</ele><time>2026-04-25T13:36:21.851Z</time></trkpt><trkpt lat="44.5950183" lon="8.0822059"><ele>702.6</ele><time>2026-04-25T13:36:22.844Z</time></trkpt><trkpt lat="44.5949267" lon="8.0821291"><ele>700.8000000000001</ele><time>2026-04-25T13:36:23.85Z</time></trkpt><trkpt lat="44.5948347" lon="8.0820477"><ele>699.0</ele><time>2026-04-25T13:36:24.842Z</time></trkpt><trkpt lat="44.5947382" lon="8.081961"><ele>699.0</ele><time>2026-04-25T13:36:25.849Z</time></trkpt><trkpt lat="44.5946399" lon="8.0818669"><ele>699.0</ele><time>2026-04-25T13:36:26.854Z</time></trkpt><trkpt lat="44.5945418" lon="8.0817742"><ele>699.0</ele><time>2026-04-25T13:36:27.851Z</time></trkpt><trkpt lat="44.5944462" lon="8.0816848"><ele>699.0</ele><time>2026-04-25T13:36:28.848Z</time></trkpt><trkpt lat="44.5943532" lon="8.0816002"><ele>699.0</ele><time>2026-04-25T13:36:29.847Z</time></trkpt><trkpt lat="44.5942661" lon="8.0815117"><ele>699.0</ele><time>2026-04-25T13:36:30.845Z</time></trkpt><trkpt lat="44.59418" lon="8.0814296"><ele>699.0</ele><time>2026-04-25T13:36:31.857Z</time></trkpt><trkpt lat="44.5940946" lon="8.0813451"><ele>699.0</ele><time>2026-04-25T13:36:32.848Z</time></trkpt><trkpt lat="44.5940107" lon="8.0812671"><ele>699.0</ele><time>2026-04-25T13:36:33.855Z</time></trkpt><trkpt lat="44.5939266" lon="8.0811903"><ele>699.0</ele><time>2026-04-25T13:36:34.85Z</time></trkpt><trkpt lat="44.5938417" lon="8.0811105"><ele>699.0</ele><time>2026-04-25T13:36:35.854Z</time></trkpt><trkpt lat="44.5937589" lon="8.081027"><ele>699.0</ele><time>2026-04-25T13:36:36.848Z</time></trkpt><trkpt lat="44.593672" lon="8.0809432"><ele>699.0</ele><time>2026-04-25T13:36:37.847Z</time></trkpt><trkpt lat="44.5935847" lon="8.0808569"><ele>699.0</ele><time>2026-04-25T13:36:38.851Z</time></trkpt><trkpt lat="44.5934956" lon="8.0807691"><ele>698.4000000000001</ele><time>2026-04-25T13:36:39.855Z</time></trkpt><trkpt lat="44.5934081" lon="8.0806811"><ele>697.8</ele><time>2026-04-25T13:36:40.855Z</time></trkpt><trkpt lat="44.5933171" lon="8.0805909"><ele>697.2</ele><time>2026-04-25T13:36:41.841Z</time></trkpt><trkpt lat="44.5932266" lon="8.0805028"><ele>696.5999999999999</ele><time>2026-04-25T13:36:42.855Z</time></trkpt><trkpt lat="44.5931349" lon="8.080414"><ele>696.0</ele><time>2026-04-25T13:36:43.854Z</time></trkpt><trkpt lat="44.5930453" lon="8.0803213"><ele>696.0</ele><time>2026-04-25T13:36:44.854Z</time></trkpt><trkpt lat="44.5929416" lon="8.0802279"><ele>696.0</ele><time>2026-04-25T13:36:45.852Z</time></trkpt><trkpt lat="44.5928317" lon="8.0801198"><ele>696.0</ele><time>2026-04-25T13:36:46.851Z</time></trkpt><trkpt lat="44.5927144" lon="8.0800136"><ele>696.0</ele><time>2026-04-25T13:36:47.844Z</time></trkpt><trkpt lat="44.5925891" lon="8.0798971"><ele>692.3333333333334</ele><time>2026-04-25T13:36:48.853Z</time></trkpt><trkpt lat="44.5924623" lon="8.079774"><ele>688.6666666666667</ele><time>2026-04-25T13:36:49.838Z</time></trkpt><trkpt lat="44.5923317" lon="8.0796442"><ele>685.0</ele><time>2026-04-25T13:36:50.847Z</time></trkpt><trkpt lat="44.5921967" lon="8.0795102"><ele>685.0</ele><time>2026-04-25T13:36:51.857Z</time></trkpt><trkpt lat="44.5920667" lon="8.0793828"><ele>685.0</ele><time>2026-04-25T13:36:52.845Z</time></trkpt><trkpt lat="44.5919408" lon="8.0792604"><ele>685.0</ele><time>2026-04-25T13:36:53.847Z</time></trkpt><trkpt lat="44.5918157" lon="8.0791626"><ele>685.25</ele><time>2026-04-25T13:36:54.853Z</time></trkpt><trkpt lat="44.5916806" lon="8.0790865"><ele>685.5</ele><time>2026-04-25T13:36:55.849Z</time></trkpt><trkpt lat="44.5915404" lon="8.0790142"><ele>685.75</ele><time>2026-04-25T13:36:56.842Z</time></trkpt><trkpt lat="44.5914016" lon="8.0789331"><ele>686.0</ele><time>2026-04-25T13:36:57.848Z</time></trkpt><trkpt lat="44.5912678" lon="8.0788516"><ele>687.25</ele><time>2026-04-25T13:36:58.855Z</time></trkpt><trkpt lat="44.5911401" lon="8.0787695"><ele>688.5</ele><time>2026-04-25T13:36:59.848Z</time></trkpt><trkpt lat="44.5910268" lon="8.0786569"><ele>689.75</ele><time>2026-04-25T13:37:00.852Z</time></trkpt><trkpt lat="44.590935" lon="8.078519"><ele>691.0</ele><time>2026-04-25T13:37:01.849Z</time></trkpt><trkpt lat="44.590861" lon="8.0783484"><ele>690.75</ele><time>2026-04-25T13:37:02.847Z</time></trkpt><trkpt lat="44.5908171" lon="8.0781609"><ele>690.5</ele><time>2026-04-25T13:37:03.844Z</time></trkpt><trkpt lat="44.5908055" lon="8.0779634"><ele>690.25</ele><time>2026-04-25T13:37:04.855Z</time></trkpt><trkpt lat="44.5908155" lon="8.0777593"><ele>690.0</ele><time>2026-04-25T13:37:05.841Z</time></trkpt><trkpt lat="44.590822" lon="8.0775534"><ele>689.6666666666666</ele><time>2026-04-25T13:37:06.849Z</time></trkpt><trkpt lat="44.5908117" lon="8.0773482"><ele>689.3333333333333</ele><time>2026-04-25T13:37:07.854Z</time></trkpt><trkpt lat="44.5907719" lon="8.0771333"><ele>689.0</ele><time>2026-04-25T13:37:08.845Z</time></trkpt><trkpt lat="44.5907105" lon="8.0769324"><ele>689.0</ele><time>2026-04-25T13:37:09.855Z</time></trkpt><trkpt lat="44.5906224" lon="8.0767543"><ele>689.0</ele><time>2026-04-25T13:37:10.849Z</time></trkpt><trkpt lat="44.5905064" lon="8.0766051"><ele>689.0</ele><time>2026-04-25T13:37:11.845Z</time></trkpt><trkpt lat="44.5903695" lon="8.0765004"><ele>695.6666666666666</ele><time>2026-04-25T13:37:12.853Z</time></trkpt><trkpt lat="44.590221" lon="8.0764353"><ele>702.3333333333334</ele><time>2026-04-25T13:37:13.855Z</time></trkpt><trkpt lat="44.5900482" lon="8.0764249"><ele>709.0</ele><time>2026-04-25T13:37:14.846Z</time></trkpt><trkpt lat="44.5898776" lon="8.0764328"><ele>709.0</ele><time>2026-04-25T13:37:15.845Z</time></trkpt><trkpt lat="44.5897099" lon="8.0764341"><ele>709.0</ele><time>2026-04-25T13:37:16.853Z</time></trkpt><trkpt lat="44.5895468" lon="8.0764191"><ele>709.0</ele><time>2026-04-25T13:37:17.855Z</time></trkpt><trkpt lat="44.5893956" lon="8.076382"><ele>706.5</ele><time>2026-04-25T13:37:18.846Z</time></trkpt><trkpt lat="44.5892557" lon="8.0763266"><ele>704.0</ele><time>2026-04-25T13:37:19.847Z</time></trkpt><trkpt lat="44.5891279" lon="8.0762407"><ele>701.5</ele><time>2026-04-25T13:37:20.854Z</time></trkpt><trkpt lat="44.5890172" lon="8.0761091"><ele>699.0</ele><time>2026-04-25T13:37:21.854Z</time></trkpt><trkpt lat="44.5889199" lon="8.0759518"><ele>699.0</ele><time>2026-04-25T13:37:22.856Z</time></trkpt><trkpt lat="44.5888373" lon="8.0757718"><ele>699.0</ele><time>2026-04-25T13:37:23.853Z</time></trkpt><trkpt lat="44.5887604" lon="8.0755875"><ele>699.0</ele><time>2026-04-25T13:37:24.854Z</time></trkpt><trkpt lat="44.5886893" lon="8.075405"><ele>696.5</ele><time>2026-04-25T13:37:25.857Z</time></trkpt><trkpt lat="44.5886136" lon="8.0752384"><ele>694.0</ele><time>2026-04-25T13:37:26.843Z</time></trkpt><trkpt lat="44.5885171" lon="8.0751033"><ele>691.5</ele><time>2026-04-25T13:37:27.846Z</time></trkpt><trkpt lat="44.588401" lon="8.0750066"><ele>689.0</ele><time>2026-04-25T13:37:28.851Z</time></trkpt><trkpt lat="44.5882672" lon="8.07496"><ele>689.0</ele><time>2026-04-25T13:37:29.848Z</time></trkpt><trkpt lat="44.5881425" lon="8.0749427"><ele>689.0</ele><time>2026-04-25T13:37:30.853Z</time></trkpt><trkpt lat="44.5880331" lon="8.0749354"><ele>689.0</ele><time>2026-04-25T13:37:31.856Z</time></trkpt><trkpt lat="44.5879391" lon="8.0749291"><ele>689.0</ele><time>2026-04-25T13:37:32.856Z</time></trkpt><trkpt lat="44.5878558" lon="8.0749211"><ele>689.0</ele><time>2026-04-25T13:37:33.855Z</time></trkpt><trkpt lat="44.5877792" lon="8.074899"><ele>688.0</ele><time>2026-04-25T13:37:34.848Z</time></trkpt><trkpt lat="44.5877056" lon="8.0748853"><ele>687.0</ele><time>2026-04-25T13:37:35.852Z</time></trkpt><trkpt lat="44.5876246" lon="8.0749069"><ele>686.0</ele><time>2026-04-25T13:37:36.845Z</time></trkpt><trkpt lat="44.5875371" lon="8.0749417"><ele>685.0</ele><time>2026-04-25T13:37:37.85Z</time></trkpt><trkpt lat="44.5874303" lon="8.0749526"><ele>684.0</ele><time>2026-04-25T13:37:38.858Z</time></trkpt><trkpt lat="44.5873291" lon="8.0749514"><ele>684.0</ele><time>2026-04-25T13:37:39.855Z</time></trkpt><trkpt lat="44.5872196" lon="8.0749509"><ele>684.0</ele><time>2026-04-25T13:37:40.857Z</time></trkpt><trkpt lat="44.5871092" lon="8.0749361"><ele>684.0</ele><time>2026-04-25T13:37:41.855Z</time></trkpt><trkpt lat="44.5869949" lon="8.074913"><ele>684.0</ele><time>2026-04-25T13:37:42.848Z</time></trkpt><trkpt lat="44.5868778" lon="8.0748827"><ele>681.25</ele><time>2026-04-25T13:37:43.85Z</time></trkpt><trkpt lat="44.5867577" lon="8.0748469"><ele>678.5</ele><time>2026-04-25T13:37:44.84Z</time></trkpt><trkpt lat="44.5866334" lon="8.0748095"><ele>675.75</ele><time>2026-04-25T13:37:45.853Z</time></trkpt><trkpt lat="44.586507" lon="8.0747694"><ele>673.0</ele><time>2026-04-25T13:37:46.854Z</time></trkpt><trkpt lat="44.5863796" lon="8.0747308"><ele>673.0</ele><time>2026-04-25T13:37:47.847Z</time></trkpt><trkpt lat="44.5862503" lon="8.0746919"><ele>673.0</ele><time>2026-04-25T13:37:48.855Z</time></trkpt><trkpt lat="44.5861213" lon="8.074653"><ele>673.0</ele><time>2026-04-25T13:37:49.856Z</time></trkpt><trkpt lat="44.5859956" lon="8.0746224"><ele>673.0</ele><time>2026-04-25T13:37:50.855Z</time></trkpt><trkpt lat="44.5858738" lon="8.0745894"><ele>673.0</ele><time>2026-04-25T13:37:51.853Z</time></trkpt><trkpt lat="44.5857587" lon="8.0745596"><ele>673.0</ele><time>2026-04-25T13:37:52.857Z</time></trkpt><trkpt lat="44.5856475" lon="8.0745218"><ele>673.0</ele><time>2026-04-25T13:37:53.853Z</time></trkpt><trkpt lat="44.5855266" lon="8.0745136"><ele>673.0</ele><time>2026-04-25T13:37:54.853Z</time></trkpt><trkpt lat="44.5853969" lon="8.0745283"><ele>673.0</ele><time>2026-04-25T13:37:55.857Z</time></trkpt><trkpt lat="44.585261" lon="8.0745746"><ele>673.0</ele><time>2026-04-25T13:37:56.853Z</time></trkpt><trkpt lat="44.5851322" lon="8.0746349"><ele>673.0</ele><time>2026-04-25T13:37:57.842Z</time></trkpt><trkpt lat="44.5849978" lon="8.0747053"><ele>673.0</ele><time>2026-04-25T13:37:58.854Z</time></trkpt><trkpt lat="44.5848607" lon="8.0747737"><ele>673.0</ele><time>2026-04-25T13:37:59.854Z</time></trkpt><trkpt lat="44.5847219" lon="8.0748442"><ele>673.0</ele><time>2026-04-25T13:38:00.85Z</time></trkpt><trkpt lat="44.5845847" lon="8.0749229"><ele>673.0</ele><time>2026-04-25T13:38:01.857Z</time></trkpt><trkpt lat="44.584448" lon="8.0750002"><ele>673.0</ele><time>2026-04-25T13:38:02.848Z</time></trkpt><trkpt lat="44.5843111" lon="8.0750738"><ele>675.25</ele><time>2026-04-25T13:38:03.853Z</time></trkpt><trkpt lat="44.5841712" lon="8.0751311"><ele>677.5</ele><time>2026-04-25T13:38:04.856Z</time></trkpt><trkpt lat="44.5840288" lon="8.0751608"><ele>679.75</ele><time>2026-04-25T13:38:05.843Z</time></trkpt><trkpt lat="44.5838861" lon="8.0751528"><ele>682.0</ele><time>2026-04-25T13:38:06.851Z</time></trkpt><trkpt lat="44.5837433" lon="8.0751249"><ele>681.3333333333334</ele><time>2026-04-25T13:38:07.854Z</time></trkpt><trkpt lat="44.5836004" lon="8.0750707"><ele>680.6666666666666</ele><time>2026-04-25T13:38:08.852Z</time></trkpt><trkpt lat="44.5834601" lon="8.0749956"><ele>680.0</ele><time>2026-04-25T13:38:09.852Z</time></trkpt><trkpt lat="44.5833187" lon="8.0749144"><ele>680.0</ele><time>2026-04-25T13:38:10.847Z</time></trkpt><trkpt lat="44.5831785" lon="8.0748336"><ele>680.0</ele><time>2026-04-25T13:38:11.856Z</time></trkpt><trkpt lat="44.5830384" lon="8.0747552"><ele>680.0</ele><time>2026-04-25T13:38:12.853Z</time></trkpt><trkpt lat="44.5829" lon="8.0746778"><ele>681.3333333333333</ele><time>2026-04-25T13:38:13.842Z</time></trkpt><trkpt lat="44.5827622" lon="8.0746013"><ele>682.6666666666666</ele><time>2026-04-25T13:38:14.842Z</time></trkpt><trkpt lat="44.5826183" lon="8.0745281"><ele>684.0</ele><time>2026-04-25T13:38:15.849Z</time></trkpt><trkpt lat="44.5824759" lon="8.0744511"><ele>684.0</ele><time>2026-04-25T13:38:16.852Z</time></trkpt><trkpt lat="44.5823202" lon="8.0743826"><ele>684.0</ele><time>2026-04-25T13:38:17.855Z</time></trkpt><trkpt lat="44.582155" lon="8.074336"><ele>684.0</ele><time>2026-04-25T13:38:18.853Z</time></trkpt><trkpt lat="44.5819787" lon="8.074314"><ele>686.0</ele><time>2026-04-25T13:38:19.852Z</time></trkpt><trkpt lat="44.5818029" lon="8.0743255"><ele>688.0</ele><time>2026-04-25T13:38:20.847Z</time></trkpt><trkpt lat="44.581636" lon="8.0743607"><ele>690.0</ele><time>2026-04-25T13:38:21.845Z</time></trkpt><trkpt lat="44.5814786" lon="8.0744192"><ele>690.0</ele><time>2026-04-25T13:38:22.851Z</time></trkpt><trkpt lat="44.5813255" lon="8.0744857"><ele>690.0</ele><time>2026-04-25T13:38:23.837Z</time></trkpt><trkpt lat="44.5811765" lon="8.0745583"><ele>690.0</ele><time>2026-04-25T13:38:24.843Z</time></trkpt><trkpt lat="44.5810306" lon="8.074625"><ele>690.3333333333334</ele><time>2026-04-25T13:38:25.843Z</time></trkpt><trkpt lat="44.5808828" lon="8.0746931"><ele>690.6666666666667</ele><time>2026-04-25T13:38:26.845Z</time></trkpt><trkpt lat="44.5807385" lon="8.0747548"><ele>691.0</ele><time>2026-04-25T13:38:27.852Z</time></trkpt><trkpt lat="44.5806004" lon="8.0748194"><ele>691.0</ele><time>2026-04-25T13:38:28.847Z</time></trkpt><trkpt lat="44.5804639" lon="8.0748774"><ele>691.0</ele><time>2026-04-25T13:38:29.84Z</time></trkpt><trkpt lat="44.5803194" lon="8.0749129"><ele>691.0</ele><time>2026-04-25T13:38:30.84Z</time></trkpt><trkpt lat="44.5801682" lon="8.0749038"><ele>691.0</ele><time>2026-04-25T13:38:31.85Z</time></trkpt><trkpt lat="44.5800145" lon="8.0748617"><ele>693.0</ele><time>2026-04-25T13:38:32.849Z</time></trkpt><trkpt lat="44.579856" lon="8.0747654"><ele>695.0</ele><time>2026-04-25T13:38:33.839Z</time></trkpt><trkpt lat="44.5796908" lon="8.0746339"><ele>697.0</ele><time>2026-04-25T13:38:34.845Z</time></trkpt><trkpt lat="44.5795122" lon="8.0744823"><ele>697.6666666666667</ele><time>2026-04-25T13:38:35.856Z</time></trkpt><trkpt lat="44.5793249" lon="8.0743248"><ele>698.3333333333334</ele><time>2026-04-25T13:38:36.842Z</time></trkpt><trkpt lat="44.5791614" lon="8.0741647"><ele>699.0</ele><time>2026-04-25T13:38:37.841Z</time></trkpt><trkpt lat="44.5790153" lon="8.0740377"><ele>699.0</ele><time>2026-04-25T13:38:38.848Z</time></trkpt><trkpt lat="44.5788761" lon="8.0739265"><ele>699.0</ele><time>2026-04-25T13:38:39.854Z</time></trkpt><trkpt lat="44.5787255" lon="8.0738096"><ele>699.0</ele><time>2026-04-25T13:38:40.849Z</time></trkpt><trkpt lat="44.5785725" lon="8.0736639"><ele>702.0</ele><time>2026-04-25T13:38:41.856Z</time></trkpt><trkpt lat="44.5784171" lon="8.0735056"><ele>705.0</ele><time>2026-04-25T13:38:42.853Z</time></trkpt><trkpt lat="44.5782702" lon="8.0733458"><ele>708.0</ele><time>2026-04-25T13:38:43.85Z</time></trkpt><trkpt lat="44.5781394" lon="8.0731894"><ele>708.0</ele><time>2026-04-25T13:38:44.848Z</time></trkpt><trkpt lat="44.5780181" lon="8.0730264"><ele>708.0</ele><time>2026-04-25T13:38:45.841Z</time></trkpt><trkpt lat="44.5779104" lon="8.0728769"><ele>708.0</ele><time>2026-04-25T13:38:46.846Z</time></trkpt><trkpt lat="44.5778089" lon="8.0727405"><ele>710.5</ele><time>2026-04-25T13:38:47.85Z</time></trkpt><trkpt lat="44.5777159" lon="8.0726182"><ele>713.0</ele><time>2026-04-25T13:38:48.847Z</time></trkpt><trkpt lat="44.5776296" lon="8.0725049"><ele>715.5</ele><time>2026-04-25T13:38:49.843Z</time></trkpt><trkpt lat="44.5775474" lon="8.0724046"><ele>718.0</ele><time>2026-04-25T13:38:50.853Z</time></trkpt><trkpt lat="44.5774621" lon="8.0722992"><ele>718.0</ele><time>2026-04-25T13:38:51.856Z</time></trkpt><trkpt lat="44.5773749" lon="8.0721831"><ele>718.0</ele><time>2026-04-25T13:38:52.849Z</time></trkpt><trkpt lat="44.5772837" lon="8.072069"><ele>718.0</ele><time>2026-04-25T13:38:53.855Z</time></trkpt><trkpt lat="44.5771826" lon="8.0719583"><ele>718.0</ele><time>2026-04-25T13:38:54.843Z</time></trkpt><trkpt lat="44.5770772" lon="8.0718566"><ele>718.75</ele><time>2026-04-25T13:38:55.845Z</time></trkpt><trkpt lat="44.5769651" lon="8.0717585"><ele>719.5</ele><time>2026-04-25T13:38:56.845Z</time></trkpt><trkpt lat="44.5768503" lon="8.0716536"><ele>720.25</ele><time>2026-04-25T13:38:57.849Z</time></trkpt><trkpt lat="44.5767332" lon="8.0715482"><ele>721.0</ele><time>2026-04-25T13:38:58.853Z</time></trkpt><trkpt lat="44.5766129" lon="8.0714404"><ele>721.0</ele><time>2026-04-25T13:38:59.854Z</time></trkpt><trkpt lat="44.5764879" lon="8.0713286"><ele>721.0</ele><time>2026-04-25T13:39:00.851Z</time></trkpt><trkpt lat="44.576353" lon="8.0712085"><ele>721.0</ele><time>2026-04-25T13:39:01.844Z</time></trkpt><trkpt lat="44.5762099" lon="8.071085"><ele>722.3333333333334</ele><time>2026-04-25T13:39:02.855Z</time></trkpt><trkpt lat="44.5760657" lon="8.070948"><ele>723.6666666666666</ele><time>2026-04-25T13:39:03.853Z</time></trkpt><trkpt lat="44.5759168" lon="8.0708108"><ele>725.0</ele><time>2026-04-25T13:39:04.845Z</time></trkpt><trkpt lat="44.5757668" lon="8.0706776"><ele>725.6666666666666</ele><time>2026-04-25T13:39:05.849Z</time></trkpt><trkpt lat="44.575618" lon="8.070553"><ele>726.3333333333334</ele><time>2026-04-25T13:39:06.853Z</time></trkpt><trkpt lat="44.5754811" lon="8.0704376"><ele>727.0</ele><time>2026-04-25T13:39:07.853Z</time></trkpt><trkpt lat="44.5753535" lon="8.0703224"><ele>728.3333333333334</ele><time>2026-04-25T13:39:08.853Z</time></trkpt><trkpt lat="44.5752321" lon="8.0701913"><ele>729.6666666666666</ele><time>2026-04-25T13:39:09.85Z</time></trkpt><trkpt lat="44.5751261" lon="8.0700336"><ele>731.0</ele><time>2026-04-25T13:39:10.858Z</time></trkpt><trkpt lat="44.5750292" lon="8.0698449"><ele>731.0</ele><time>2026-04-25T13:39:11.849Z</time></trkpt><trkpt lat="44.5749438" lon="8.0696317"><ele>731.0</ele><time>2026-04-25T13:39:12.855Z</time></trkpt><trkpt lat="44.5748822" lon="8.0694107"><ele>731.0</ele><time>2026-04-25T13:39:13.853Z</time></trkpt><trkpt lat="44.5748205" lon="8.0692016"><ele>732.0</ele><time>2026-04-25T13:39:14.854Z</time></trkpt><trkpt lat="44.5747448" lon="8.0690209"><ele>733.0</ele><time>2026-04-25T13:39:15.854Z</time></trkpt><trkpt lat="44.5746519" lon="8.0688597"><ele>734.0</ele><time>2026-04-25T13:39:16.85Z</time></trkpt><trkpt lat="44.5745368" lon="8.0687303"><ele>735.0</ele><time>2026-04-25T13:39:17.853Z</time></trkpt><trkpt lat="44.5744084" lon="8.0686122"><ele>735.0</ele><time>2026-04-25T13:39:18.856Z</time></trkpt><trkpt lat="44.5742613" lon="8.0685378"><ele>735.0</ele><time>2026-04-25T13:39:19.84Z</time></trkpt><trkpt lat="44.5741275" lon="8.0684798"><ele>735.0</ele><time>2026-04-25T13:39:20.848Z</time></trkpt><trkpt lat="44.573999" lon="8.0684413"><ele>735.0</ele><time>2026-04-25T13:39:21.853Z</time></trkpt><trkpt lat="44.5738801" lon="8.0684313"><ele>735.0</ele><time>2026-04-25T13:39:22.854Z</time></trkpt><trkpt lat="44.5737695" lon="8.0684295"><ele>735.0</ele><time>2026-04-25T13:39:23.85Z</time></trkpt><trkpt lat="44.5736793" lon="8.0684329"><ele>735.0</ele><time>2026-04-25T13:39:24.854Z</time></trkpt><trkpt lat="44.5736075" lon="8.0684271"><ele>735.0</ele><time>2026-04-25T13:39:25.849Z</time></trkpt><trkpt lat="44.5734928" lon="8.0684032"><ele>735.0</ele><time>2026-04-25T13:39:27.842Z</time></trkpt><trkpt lat="44.5733875" lon="8.0683532"><ele>735.4</ele><time>2026-04-25T13:39:29.856Z</time></trkpt><trkpt lat="44.5732973" lon="8.0682674"><ele>735.8</ele><time>2026-04-25T13:39:31.849Z</time></trkpt><trkpt lat="44.5732276" lon="8.0681392"><ele>736.2</ele><time>2026-04-25T13:39:33.848Z</time></trkpt><trkpt lat="44.5731826" lon="8.067979"><ele>736.6</ele><time>2026-04-25T13:39:35.842Z</time></trkpt><trkpt lat="44.5731629" lon="8.0678752"><ele>737.0</ele><time>2026-04-25T13:39:36.863Z</time></trkpt><trkpt lat="44.573121" lon="8.067741"><ele>737.0</ele><time>2026-04-25T13:39:37.858Z</time></trkpt><trkpt lat="44.5730662" lon="8.0675881"><ele>737.0</ele><time>2026-04-25T13:39:38.869Z</time></trkpt><trkpt lat="44.5729983" lon="8.0674317"><ele>737.0</ele><time>2026-04-25T13:39:39.855Z</time></trkpt><trkpt lat="44.5729211" lon="8.0672802"><ele>737.0</ele><time>2026-04-25T13:39:40.851Z</time></trkpt><trkpt lat="44.5728269" lon="8.0671397"><ele>736.0</ele><time>2026-04-25T13:39:41.856Z</time></trkpt><trkpt lat="44.5727097" lon="8.0670221"><ele>735.0</ele><time>2026-04-25T13:39:42.856Z</time></trkpt><trkpt lat="44.5725684" lon="8.066946"><ele>734.0</ele><time>2026-04-25T13:39:43.849Z</time></trkpt><trkpt lat="44.5724148" lon="8.0668978"><ele>734.0</ele><time>2026-04-25T13:39:44.85Z</time></trkpt><trkpt lat="44.5722587" lon="8.0668624"><ele>734.0</ele><time>2026-04-25T13:39:45.855Z</time></trkpt><trkpt lat="44.5721169" lon="8.0668328"><ele>734.0</ele><time>2026-04-25T13:39:46.855Z</time></trkpt><trkpt lat="44.5719821" lon="8.0668046"><ele>734.0</ele><time>2026-04-25T13:39:47.853Z</time></trkpt><trkpt lat="44.5718592" lon="8.0667753"><ele>733.75</ele><time>2026-04-25T13:39:48.849Z</time></trkpt><trkpt lat="44.5717441" lon="8.0667439"><ele>733.5</ele><time>2026-04-25T13:39:49.848Z</time></trkpt><trkpt lat="44.5716348" lon="8.0666779"><ele>733.25</ele><time>2026-04-25T13:39:50.856Z</time></trkpt><trkpt lat="44.571536" lon="8.0665745"><ele>733.0</ele><time>2026-04-25T13:39:51.853Z</time></trkpt><trkpt lat="44.5714562" lon="8.0664282"><ele>733.0</ele><time>2026-04-25T13:39:52.854Z</time></trkpt><trkpt lat="44.5713939" lon="8.0662526"><ele>733.0</ele><time>2026-04-25T13:39:53.855Z</time></trkpt><trkpt lat="44.5713442" lon="8.0660475"><ele>733.0</ele><time>2026-04-25T13:39:54.853Z</time></trkpt><trkpt lat="44.5712948" lon="8.0658366"><ele>732.0</ele><time>2026-04-25T13:39:55.842Z</time></trkpt><trkpt lat="44.5712378" lon="8.0656275"><ele>731.0</ele><time>2026-04-25T13:39:56.852Z</time></trkpt><trkpt lat="44.5711609" lon="8.065419"><ele>730.0</ele><time>2026-04-25T13:39:57.845Z</time></trkpt><trkpt lat="44.5710644" lon="8.0652208"><ele>726.6666666666667</ele><time>2026-04-25T13:39:58.844Z</time></trkpt><trkpt lat="44.5709512" lon="8.0650359"><ele>723.3333333333334</ele><time>2026-04-25T13:39:59.84Z</time></trkpt><trkpt lat="44.5708389" lon="8.0648334"><ele>720.0</ele><time>2026-04-25T13:40:00.857Z</time></trkpt><trkpt lat="44.5707317" lon="8.064608"><ele>720.0</ele><time>2026-04-25T13:40:01.85Z</time></trkpt><trkpt lat="44.5706162" lon="8.0643772"><ele>720.0</ele><time>2026-04-25T13:40:02.847Z</time></trkpt><trkpt lat="44.5704944" lon="8.0641463"><ele>720.0</ele><time>2026-04-25T13:40:03.856Z</time></trkpt><trkpt lat="44.5703682" lon="8.0639031"><ele>719.0</ele><time>2026-04-25T13:40:04.849Z</time></trkpt><trkpt lat="44.5702403" lon="8.0636574"><ele>718.0</ele><time>2026-04-25T13:40:05.842Z</time></trkpt><trkpt lat="44.5701121" lon="8.0634131"><ele>717.0</ele><time>2026-04-25T13:40:06.838Z</time></trkpt><trkpt lat="44.5699823" lon="8.0631678"><ele>715.6666666666666</ele><time>2026-04-25T13:40:07.842Z</time></trkpt><trkpt lat="44.5698531" lon="8.0629256"><ele>714.3333333333333</ele><time>2026-04-25T13:40:08.855Z</time></trkpt><trkpt lat="44.5697298" lon="8.0626944"><ele>713.0</ele><time>2026-04-25T13:40:09.854Z</time></trkpt><trkpt lat="44.5696174" lon="8.0624736"><ele>711.6666666666666</ele><time>2026-04-25T13:40:10.84Z</time></trkpt><trkpt lat="44.5695058" lon="8.0622767"><ele>710.3333333333334</ele><time>2026-04-25T13:40:11.856Z</time></trkpt><trkpt lat="44.5693854" lon="8.0621089"><ele>709.0</ele><time>2026-04-25T13:40:12.842Z</time></trkpt><trkpt lat="44.5692487" lon="8.0619893"><ele>709.0</ele><time>2026-04-25T13:40:13.844Z</time></trkpt><trkpt lat="44.5691046" lon="8.0619049"><ele>709.0</ele><time>2026-04-25T13:40:14.837Z</time></trkpt><trkpt lat="44.5689335" lon="8.0619065"><ele>709.0</ele><time>2026-04-25T13:40:15.854Z</time></trkpt><trkpt lat="44.5687562" lon="8.0619262"><ele>708.6666666666667</ele><time>2026-04-25T13:40:16.853Z</time></trkpt><trkpt lat="44.5685736" lon="8.0619342"><ele>708.3333333333334</ele><time>2026-04-25T13:40:17.847Z</time></trkpt><trkpt lat="44.5683876" lon="8.0619437"><ele>708.0</ele><time>2026-04-25T13:40:18.841Z</time></trkpt><trkpt lat="44.5682075" lon="8.0619584"><ele>708.0</ele><time>2026-04-25T13:40:19.85Z</time></trkpt><trkpt lat="44.5680327" lon="8.0619954"><ele>708.0</ele><time>2026-04-25T13:40:20.845Z</time></trkpt><trkpt lat="44.5678622" lon="8.0620659"><ele>708.0</ele><time>2026-04-25T13:40:21.847Z</time></trkpt><trkpt lat="44.5676943" lon="8.0621775"><ele>705.3333333333334</ele><time>2026-04-25T13:40:22.846Z</time></trkpt><trkpt lat="44.5675295" lon="8.0623119"><ele>702.6666666666667</ele><time>2026-04-25T13:40:23.838Z</time></trkpt><trkpt lat="44.5673675" lon="8.0624659"><ele>700.0</ele><time>2026-04-25T13:40:24.838Z</time></trkpt><trkpt lat="44.5672003" lon="8.062609"><ele>702.0</ele><time>2026-04-25T13:40:25.845Z</time></trkpt><trkpt lat="44.5670177" lon="8.0627368"><ele>704.0</ele><time>2026-04-25T13:40:26.851Z</time></trkpt><trkpt lat="44.566848" lon="8.062864"><ele>706.0</ele><time>2026-04-25T13:40:27.853Z</time></trkpt><trkpt lat="44.5666803" lon="8.0629831"><ele>706.0</ele><time>2026-04-25T13:40:28.844Z</time></trkpt><trkpt lat="44.5665145" lon="8.0630825"><ele>706.0</ele><time>2026-04-25T13:40:29.849Z</time></trkpt><trkpt lat="44.5663411" lon="8.0631524"><ele>706.0</ele><time>2026-04-25T13:40:30.852Z</time></trkpt><trkpt lat="44.5661591" lon="8.0631825"><ele>707.0</ele><time>2026-04-25T13:40:31.853Z</time></trkpt><trkpt lat="44.565973" lon="8.0631801"><ele>708.0</ele><time>2026-04-25T13:40:32.84Z</time></trkpt><trkpt lat="44.5657845" lon="8.063153"><ele>709.0</ele><time>2026-04-25T13:40:33.847Z</time></trkpt><trkpt lat="44.5656012" lon="8.0630868"><ele>709.0</ele><time>2026-04-25T13:40:34.854Z</time></trkpt><trkpt lat="44.5654283" lon="8.0629758"><ele>709.0</ele><time>2026-04-25T13:40:35.854Z</time></trkpt><trkpt lat="44.5652672" lon="8.062831"><ele>709.0</ele><time>2026-04-25T13:40:36.848Z</time></trkpt><trkpt lat="44.5651129" lon="8.0626783"><ele>708.3333333333334</ele><time>2026-04-25T13:40:37.845Z</time></trkpt><trkpt lat="44.5649653" lon="8.0625363"><ele>707.6666666666666</ele><time>2026-04-25T13:40:38.853Z</time></trkpt><trkpt lat="44.564818" lon="8.0623958"><ele>707.0</ele><time>2026-04-25T13:40:39.841Z</time></trkpt><trkpt lat="44.5646714" lon="8.0622509"><ele>710.3333333333333</ele><time>2026-04-25T13:40:40.848Z</time></trkpt><trkpt lat="44.5645263" lon="8.0621115"><ele>713.6666666666666</ele><time>2026-04-25T13:40:41.846Z</time></trkpt><trkpt lat="44.5643833" lon="8.0619721"><ele>717.0</ele><time>2026-04-25T13:40:42.964Z</time></trkpt><trkpt lat="44.5640955" lon="8.0616979"><ele>714.0</ele><time>2026-04-25T13:40:44.844Z</time></trkpt><trkpt lat="44.5639555" lon="8.06156"><ele>711.0</ele><time>2026-04-25T13:40:45.838Z</time></trkpt><trkpt lat="44.5638242" lon="8.0614302"><ele>708.0</ele><time>2026-04-25T13:40:46.85Z</time></trkpt><trkpt lat="44.5637041" lon="8.0613096"><ele>710.0</ele><time>2026-04-25T13:40:47.853Z</time></trkpt><trkpt lat="44.5635946" lon="8.0612037"><ele>712.0</ele><time>2026-04-25T13:40:48.855Z</time></trkpt><trkpt lat="44.5634898" lon="8.0611013"><ele>714.0</ele><time>2026-04-25T13:40:49.848Z</time></trkpt><trkpt lat="44.5633863" lon="8.061004"><ele>716.0</ele><time>2026-04-25T13:40:50.855Z</time></trkpt><trkpt lat="44.5632823" lon="8.0609027"><ele>716.0</ele><time>2026-04-25T13:40:51.855Z</time></trkpt><trkpt lat="44.5631807" lon="8.0608022"><ele>716.0</ele><time>2026-04-25T13:40:52.847Z</time></trkpt><trkpt lat="44.5630767" lon="8.0606997"><ele>716.0</ele><time>2026-04-25T13:40:53.839Z</time></trkpt><trkpt lat="44.5629719" lon="8.0605965"><ele>716.0</ele><time>2026-04-25T13:40:54.845Z</time></trkpt><trkpt lat="44.5628634" lon="8.0604891"><ele>717.75</ele><time>2026-04-25T13:40:55.845Z</time></trkpt><trkpt lat="44.5627567" lon="8.0603935"><ele>719.5</ele><time>2026-04-25T13:40:56.852Z</time></trkpt><trkpt lat="44.5626466" lon="8.0603105"><ele>721.25</ele><time>2026-04-25T13:40:57.854Z</time></trkpt><trkpt lat="44.562533" lon="8.0602469"><ele>723.0</ele><time>2026-04-25T13:40:58.856Z</time></trkpt><trkpt lat="44.5624169" lon="8.0602028"><ele>723.0</ele><time>2026-04-25T13:40:59.854Z</time></trkpt><trkpt lat="44.5623002" lon="8.0601799"><ele>723.0</ele><time>2026-04-25T13:41:00.846Z</time></trkpt><trkpt lat="44.5621885" lon="8.0601587"><ele>723.0</ele><time>2026-04-25T13:41:01.835Z</time></trkpt><trkpt lat="44.5620823" lon="8.0601343"><ele>723.0</ele><time>2026-04-25T13:41:02.851Z</time></trkpt><trkpt lat="44.5619829" lon="8.0600975"><ele>723.0</ele><time>2026-04-25T13:41:03.854Z</time></trkpt><trkpt lat="44.5618937" lon="8.0600386"><ele>723.0</ele><time>2026-04-25T13:41:04.849Z</time></trkpt><trkpt lat="44.5618161" lon="8.059957"><ele>723.0</ele><time>2026-04-25T13:41:05.837Z</time></trkpt><trkpt lat="44.5617489" lon="8.0598548"><ele>723.0</ele><time>2026-04-25T13:41:06.846Z</time></trkpt><trkpt lat="44.5616923" lon="8.0597367"><ele>723.0</ele><time>2026-04-25T13:41:07.851Z</time></trkpt><trkpt lat="44.5616449" lon="8.0596116"><ele>723.0</ele><time>2026-04-25T13:41:08.847Z</time></trkpt><trkpt lat="44.5615866" lon="8.059494"><ele>725.8</ele><time>2026-04-25T13:41:09.851Z</time></trkpt><trkpt lat="44.5615133" lon="8.059379"><ele>728.5999999999999</ele><time>2026-04-25T13:41:10.847Z</time></trkpt><trkpt lat="44.5614305" lon="8.0592787"><ele>731.4000000000001</ele><time>2026-04-25T13:41:11.845Z</time></trkpt><trkpt lat="44.5613378" lon="8.0591921"><ele>734.2</ele><time>2026-04-25T13:41:12.853Z</time></trkpt><trkpt lat="44.5612425" lon="8.0591129"><ele>737.0</ele><time>2026-04-25T13:41:13.85Z</time></trkpt><trkpt lat="44.5611346" lon="8.0590509"><ele>741.75</ele><time>2026-04-25T13:41:14.849Z</time></trkpt><trkpt lat="44.5610187" lon="8.0590188"><ele>746.5</ele><time>2026-04-25T13:41:15.845Z</time></trkpt><trkpt lat="44.5608899" lon="8.0590163"><ele>751.25</ele><time>2026-04-25T13:41:16.851Z</time></trkpt><trkpt lat="44.5607539" lon="8.0590276"><ele>756.0</ele><time>2026-04-25T13:41:17.842Z</time></trkpt><trkpt lat="44.5606084" lon="8.0590492"><ele>756.0</ele><time>2026-04-25T13:41:18.846Z</time></trkpt><trkpt lat="44.560455" lon="8.0590729"><ele>756.0</ele><time>2026-04-25T13:41:19.852Z</time></trkpt><trkpt lat="44.5603024" lon="8.0590951"><ele>756.0</ele><time>2026-04-25T13:41:20.854Z</time></trkpt><trkpt lat="44.5601476" lon="8.0591222"><ele>750.0</ele><time>2026-04-25T13:41:21.84Z</time></trkpt><trkpt lat="44.5599896" lon="8.0591582"><ele>744.0</ele><time>2026-04-25T13:41:22.85Z</time></trkpt><trkpt lat="44.5598303" lon="8.0592073"><ele>738.0</ele><time>2026-04-25T13:41:23.854Z</time></trkpt><trkpt lat="44.5596778" lon="8.0592678"><ele>739.0</ele><time>2026-04-25T13:41:24.85Z</time></trkpt><trkpt lat="44.5595244" lon="8.0593317"><ele>740.0</ele><time>2026-04-25T13:41:25.845Z</time></trkpt><trkpt lat="44.5593711" lon="8.059394"><ele>741.0</ele><time>2026-04-25T13:41:26.854Z</time></trkpt><trkpt lat="44.559221" lon="8.0594521"><ele>741.0</ele><time>2026-04-25T13:41:27.855Z</time></trkpt><trkpt lat="44.559077" lon="8.0595104"><ele>741.0</ele><time>2026-04-25T13:41:28.849Z</time></trkpt><trkpt lat="44.5589418" lon="8.0595752"><ele>741.0</ele><time>2026-04-25T13:41:29.856Z</time></trkpt><trkpt lat="44.5588111" lon="8.0596297"><ele>741.0</ele><time>2026-04-25T13:41:30.857Z</time></trkpt><trkpt lat="44.5586817" lon="8.0596641"><ele>739.25</ele><time>2026-04-25T13:41:31.855Z</time></trkpt><trkpt lat="44.5585572" lon="8.0596621"><ele>737.5</ele><time>2026-04-25T13:41:32.848Z</time></trkpt><trkpt lat="44.5584373" lon="8.0596464"><ele>735.75</ele><time>2026-04-25T13:41:33.844Z</time></trkpt><trkpt lat="44.5583228" lon="8.0596183"><ele>734.0</ele><time>2026-04-25T13:41:34.859Z</time></trkpt><trkpt lat="44.5582085" lon="8.0595921"><ele>734.0</ele><time>2026-04-25T13:41:35.853Z</time></trkpt><trkpt lat="44.558095" lon="8.0595746"><ele>734.0</ele><time>2026-04-25T13:41:36.841Z</time></trkpt><trkpt lat="44.5579749" lon="8.0595722"><ele>734.0</ele><time>2026-04-25T13:41:37.854Z</time></trkpt><trkpt lat="44.5578585" lon="8.0595906"><ele>734.0</ele><time>2026-04-25T13:41:38.847Z</time></trkpt><trkpt lat="44.557741" lon="8.059636"><ele>731.25</ele><time>2026-04-25T13:41:39.85Z</time></trkpt><trkpt lat="44.5576276" lon="8.0596945"><ele>728.5</ele><time>2026-04-25T13:41:40.849Z</time></trkpt><trkpt lat="44.5575122" lon="8.0597591"><ele>725.75</ele><time>2026-04-25T13:41:41.84Z</time></trkpt><trkpt lat="44.5574026" lon="8.0598238"><ele>723.0</ele><time>2026-04-25T13:41:42.856Z</time></trkpt><trkpt lat="44.557295" lon="8.0598897"><ele>724.4</ele><time>2026-04-25T13:41:43.839Z</time></trkpt><trkpt lat="44.5571941" lon="8.0599523"><ele>725.8</ele><time>2026-04-25T13:41:44.852Z</time></trkpt><trkpt lat="44.5570906" lon="8.0600145"><ele>727.2</ele><time>2026-04-25T13:41:45.842Z</time></trkpt><trkpt lat="44.5569851" lon="8.0600735"><ele>728.6</ele><time>2026-04-25T13:41:46.852Z</time></trkpt><trkpt lat="44.556884" lon="8.0601219"><ele>730.0</ele><time>2026-04-25T13:41:47.854Z</time></trkpt><trkpt lat="44.5567739" lon="8.0601714"><ele>730.0</ele><time>2026-04-25T13:41:48.849Z</time></trkpt><trkpt lat="44.5566644" lon="8.060216"><ele>730.0</ele><time>2026-04-25T13:41:49.856Z</time></trkpt><trkpt lat="44.5565539" lon="8.0602563"><ele>730.0</ele><time>2026-04-25T13:41:50.852Z</time></trkpt><trkpt lat="44.5564416" lon="8.0602908"><ele>730.0</ele><time>2026-04-25T13:41:51.84Z</time></trkpt><trkpt lat="44.556326" lon="8.0603274"><ele>730.0</ele><time>2026-04-25T13:41:52.855Z</time></trkpt><trkpt lat="44.5562099" lon="8.0603806"><ele>730.0</ele><time>2026-04-25T13:41:53.854Z</time></trkpt><trkpt lat="44.5560885" lon="8.0604496"><ele>730.0</ele><time>2026-04-25T13:41:54.848Z</time></trkpt><trkpt lat="44.5559713" lon="8.0605494"><ele>730.0</ele><time>2026-04-25T13:41:55.859Z</time></trkpt><trkpt lat="44.5558617" lon="8.0606914"><ele>732.6666666666667</ele><time>2026-04-25T13:41:56.846Z</time></trkpt><trkpt lat="44.555766" lon="8.0608688"><ele>735.3333333333334</ele><time>2026-04-25T13:41:57.838Z</time></trkpt><trkpt lat="44.5556767" lon="8.0610684"><ele>738.0</ele><time>2026-04-25T13:41:58.85Z</time></trkpt><trkpt lat="44.5555898" lon="8.0612808"><ele>738.0</ele><time>2026-04-25T13:41:59.851Z</time></trkpt><trkpt lat="44.5555028" lon="8.0614919"><ele>738.0</ele><time>2026-04-25T13:42:00.855Z</time></trkpt><trkpt lat="44.5554128" lon="8.0617116"><ele>738.0</ele><time>2026-04-25T13:42:01.847Z</time></trkpt><trkpt lat="44.5553208" lon="8.0619248"><ele>733.6666666666666</ele><time>2026-04-25T13:42:02.849Z</time></trkpt><trkpt lat="44.55522" lon="8.0621183"><ele>729.3333333333333</ele><time>2026-04-25T13:42:03.851Z</time></trkpt><trkpt lat="44.5551055" lon="8.0622792"><ele>725.0</ele><time>2026-04-25T13:42:04.845Z</time></trkpt><trkpt lat="44.5549748" lon="8.0624113"><ele>727.0</ele><time>2026-04-25T13:42:05.847Z</time></trkpt><trkpt lat="44.554834" lon="8.0625014"><ele>729.0</ele><time>2026-04-25T13:42:06.849Z</time></trkpt><trkpt lat="44.5546881" lon="8.0625527"><ele>731.0</ele><time>2026-04-25T13:42:07.848Z</time></trkpt><trkpt lat="44.5545322" lon="8.0625674"><ele>731.0</ele><time>2026-04-25T13:42:08.846Z</time></trkpt><trkpt lat="44.5543708" lon="8.0625441"><ele>731.0</ele><time>2026-04-25T13:42:09.848Z</time></trkpt><trkpt lat="44.5542079" lon="8.0625058"><ele>731.0</ele><time>2026-04-25T13:42:10.85Z</time></trkpt><trkpt lat="44.5540583" lon="8.0624634"><ele>731.0</ele><time>2026-04-25T13:42:11.847Z</time></trkpt><trkpt lat="44.5538946" lon="8.0624867"><ele>731.0</ele><time>2026-04-25T13:42:12.844Z</time></trkpt><trkpt lat="44.5537308" lon="8.0625331"><ele>731.0</ele><time>2026-04-25T13:42:13.846Z</time></trkpt><trkpt lat="44.5535672" lon="8.0626133"><ele>731.3333333333333</ele><time>2026-04-25T13:42:14.838Z</time></trkpt><trkpt lat="44.5534057" lon="8.062705"><ele>731.6666666666666</ele><time>2026-04-25T13:42:15.847Z</time></trkpt><trkpt lat="44.5532437" lon="8.0627962"><ele>732.0</ele><time>2026-04-25T13:42:16.846Z</time></trkpt><trkpt lat="44.5530908" lon="8.0628925"><ele>732.0</ele><time>2026-04-25T13:42:17.85Z</time></trkpt><trkpt lat="44.5529444" lon="8.0629774"><ele>732.0</ele><time>2026-04-25T13:42:18.85Z</time></trkpt><trkpt lat="44.5527945" lon="8.0630365"><ele>732.0</ele><time>2026-04-25T13:42:19.85Z</time></trkpt><trkpt lat="44.5526452" lon="8.0630603"><ele>731.3333333333334</ele><time>2026-04-25T13:42:20.848Z</time></trkpt><trkpt lat="44.5524961" lon="8.063034"><ele>730.6666666666667</ele><time>2026-04-25T13:42:21.845Z</time></trkpt><trkpt lat="44.5523588" lon="8.0629542"><ele>730.0</ele><time>2026-04-25T13:42:22.851Z</time></trkpt><trkpt lat="44.5522232" lon="8.0628291"><ele>730.0</ele><time>2026-04-25T13:42:23.839Z</time></trkpt><trkpt lat="44.5520908" lon="8.0626828"><ele>730.0</ele><time>2026-04-25T13:42:24.846Z</time></trkpt><trkpt lat="44.5519584" lon="8.0625321"><ele>730.0</ele><time>2026-04-25T13:42:25.843Z</time></trkpt><trkpt lat="44.5518235" lon="8.0623835"><ele>728.3333333333334</ele><time>2026-04-25T13:42:26.843Z</time></trkpt><trkpt lat="44.5516897" lon="8.0622345"><ele>726.6666666666666</ele><time>2026-04-25T13:42:27.853Z</time></trkpt><trkpt lat="44.5515569" lon="8.062094"><ele>725.0</ele><time>2026-04-25T13:42:28.845Z</time></trkpt><trkpt lat="44.5514231" lon="8.0619606"><ele>725.0</ele><time>2026-04-25T13:42:29.849Z</time></trkpt><trkpt lat="44.5512691" lon="8.0618539"><ele>725.0</ele><time>2026-04-25T13:42:30.853Z</time></trkpt><trkpt lat="44.5511039" lon="8.061773"><ele>725.0</ele><time>2026-04-25T13:42:31.849Z</time></trkpt><trkpt lat="44.5509279" lon="8.0617283"><ele>726.6666666666666</ele><time>2026-04-25T13:42:32.847Z</time></trkpt><trkpt lat="44.5507459" lon="8.0616903"><ele>728.3333333333334</ele><time>2026-04-25T13:42:33.857Z</time></trkpt><trkpt lat="44.5505688" lon="8.0616568"><ele>730.0</ele><time>2026-04-25T13:42:34.853Z</time></trkpt><trkpt lat="44.5504007" lon="8.0616086"><ele>728.3333333333334</ele><time>2026-04-25T13:42:35.852Z</time></trkpt><trkpt lat="44.550242" lon="8.0615356"><ele>726.6666666666666</ele><time>2026-04-25T13:42:36.844Z</time></trkpt><trkpt lat="44.5500948" lon="8.0614146"><ele>725.0</ele><time>2026-04-25T13:42:37.845Z</time></trkpt><trkpt lat="44.5499708" lon="8.0612506"><ele>725.0</ele><time>2026-04-25T13:42:38.854Z</time></trkpt><trkpt lat="44.5498546" lon="8.0610588"><ele>725.0</ele><time>2026-04-25T13:42:39.854Z</time></trkpt><trkpt lat="44.549743" lon="8.0608724"><ele>725.0</ele><time>2026-04-25T13:42:40.85Z</time></trkpt><trkpt lat="44.5496236" lon="8.0607147"><ele>725.6666666666666</ele><time>2026-04-25T13:42:41.853Z</time></trkpt><trkpt lat="44.5494969" lon="8.0606011"><ele>726.3333333333334</ele><time>2026-04-25T13:42:42.849Z</time></trkpt><trkpt lat="44.5493645" lon="8.0605218"><ele>727.0</ele><time>2026-04-25T13:42:43.85Z</time></trkpt><trkpt lat="44.5492054" lon="8.0605095"><ele>727.0</ele><time>2026-04-25T13:42:44.845Z</time></trkpt><trkpt lat="44.5490549" lon="8.0605126"><ele>727.0</ele><time>2026-04-25T13:42:45.85Z</time></trkpt><trkpt lat="44.548907" lon="8.0605009"><ele>727.0</ele><time>2026-04-25T13:42:46.85Z</time></trkpt><trkpt lat="44.5487557" lon="8.0604608"><ele>728.0</ele><time>2026-04-25T13:42:47.841Z</time></trkpt><trkpt lat="44.5486079" lon="8.0603701"><ele>729.0</ele><time>2026-04-25T13:42:48.852Z</time></trkpt><trkpt lat="44.5484683" lon="8.0602397"><ele>730.0</ele><time>2026-04-25T13:42:49.852Z</time></trkpt><trkpt lat="44.5483315" lon="8.0600844"><ele>730.6666666666667</ele><time>2026-04-25T13:42:50.852Z</time></trkpt><trkpt lat="44.5481907" lon="8.0599245"><ele>731.3333333333334</ele><time>2026-04-25T13:42:51.855Z</time></trkpt><trkpt lat="44.5480464" lon="8.0597676"><ele>732.0</ele><time>2026-04-25T13:42:52.85Z</time></trkpt><trkpt lat="44.5478922" lon="8.0596257"><ele>732.0</ele><time>2026-04-25T13:42:53.844Z</time></trkpt><trkpt lat="44.5477314" lon="8.0594922"><ele>732.0</ele><time>2026-04-25T13:42:54.845Z</time></trkpt><trkpt lat="44.5475598" lon="8.0593857"><ele>732.0</ele><time>2026-04-25T13:42:55.842Z</time></trkpt><trkpt lat="44.5473838" lon="8.059317"><ele>732.0</ele><time>2026-04-25T13:42:56.847Z</time></trkpt><trkpt lat="44.5472019" lon="8.0592881"><ele>732.0</ele><time>2026-04-25T13:42:57.839Z</time></trkpt><trkpt lat="44.5470283" lon="8.0592967"><ele>732.0</ele><time>2026-04-25T13:42:58.854Z</time></trkpt><trkpt lat="44.5468619" lon="8.0592993"><ele>732.3333333333334</ele><time>2026-04-25T13:42:59.852Z</time></trkpt><trkpt lat="44.5466966" lon="8.059262"><ele>732.6666666666667</ele><time>2026-04-25T13:43:00.845Z</time></trkpt><trkpt lat="44.5465387" lon="8.0591823"><ele>733.0</ele><time>2026-04-25T13:43:01.842Z</time></trkpt><trkpt lat="44.5463888" lon="8.0590608"><ele>733.0</ele><time>2026-04-25T13:43:02.848Z</time></trkpt><trkpt lat="44.5462421" lon="8.0589219"><ele>733.0</ele><time>2026-04-25T13:43:03.846Z</time></trkpt><trkpt lat="44.5460975" lon="8.0587705"><ele>733.0</ele><time>2026-04-25T13:43:04.851Z</time></trkpt><trkpt lat="44.545944" lon="8.0586139"><ele>731.0</ele><time>2026-04-25T13:43:05.843Z</time></trkpt><trkpt lat="44.5457904" lon="8.0584606"><ele>729.0</ele><time>2026-04-25T13:43:06.852Z</time></trkpt><trkpt lat="44.545632" lon="8.0583135"><ele>727.0</ele><time>2026-04-25T13:43:07.853Z</time></trkpt><trkpt lat="44.5454622" lon="8.0581738"><ele>725.6666666666667</ele><time>2026-04-25T13:43:08.847Z</time></trkpt><trkpt lat="44.5452797" lon="8.0580636"><ele>724.3333333333334</ele><time>2026-04-25T13:43:09.842Z</time></trkpt><trkpt lat="44.545087" lon="8.0579633"><ele>723.0</ele><time>2026-04-25T13:43:10.852Z</time></trkpt><trkpt lat="44.5448973" lon="8.0578684"><ele>723.0</ele><time>2026-04-25T13:43:11.851Z</time></trkpt><trkpt lat="44.5447187" lon="8.0577386"><ele>723.0</ele><time>2026-04-25T13:43:12.85Z</time></trkpt><trkpt lat="44.5445609" lon="8.0575837"><ele>723.0</ele><time>2026-04-25T13:43:13.842Z</time></trkpt><trkpt lat="44.5444106" lon="8.0574334"><ele>722.3333333333334</ele><time>2026-04-25T13:43:14.851Z</time></trkpt><trkpt lat="44.544253" lon="8.0573173"><ele>721.6666666666667</ele><time>2026-04-25T13:43:15.847Z</time></trkpt><trkpt lat="44.5440853" lon="8.0572448"><ele>721.0</ele><time>2026-04-25T13:43:16.849Z</time></trkpt><trkpt lat="44.5439093" lon="8.057212"><ele>721.0</ele><time>2026-04-25T13:43:17.841Z</time></trkpt><trkpt lat="44.5437298" lon="8.0572226"><ele>721.0</ele><time>2026-04-25T13:43:18.84Z</time></trkpt><trkpt lat="44.5435414" lon="8.0572205"><ele>721.0</ele><time>2026-04-25T13:43:19.848Z</time></trkpt><trkpt lat="44.5433488" lon="8.0572181"><ele>721.0</ele><time>2026-04-25T13:43:20.85Z</time></trkpt><trkpt lat="44.543155" lon="8.0572099"><ele>721.0</ele><time>2026-04-25T13:43:21.845Z</time></trkpt><trkpt lat="44.542959" lon="8.0571684"><ele>721.0</ele><time>2026-04-25T13:43:22.848Z</time></trkpt><trkpt lat="44.5427615" lon="8.0571052"><ele>723.3333333333334</ele><time>2026-04-25T13:43:23.848Z</time></trkpt><trkpt lat="44.5425678" lon="8.0570096"><ele>725.6666666666666</ele><time>2026-04-25T13:43:24.855Z</time></trkpt><trkpt lat="44.542377" lon="8.0568834"><ele>728.0</ele><time>2026-04-25T13:43:25.843Z</time></trkpt><trkpt lat="44.5421925" lon="8.0567321"><ele>727.3333333333333</ele><time>2026-04-25T13:43:26.93Z</time></trkpt><trkpt lat="44.542012" lon="8.0565617"><ele>726.6666666666666</ele><time>2026-04-25T13:43:27.844Z</time></trkpt><trkpt lat="44.5418296" lon="8.0563816"><ele>726.0</ele><time>2026-04-25T13:43:28.856Z</time></trkpt><trkpt lat="44.5416642" lon="8.0561834"><ele>726.0</ele><time>2026-04-25T13:43:29.855Z</time></trkpt><trkpt lat="44.541515" lon="8.0559464"><ele>726.0</ele><time>2026-04-25T13:43:30.841Z</time></trkpt><trkpt lat="44.5413749" lon="8.0556871"><ele>727.0</ele><time>2026-04-25T13:43:31.838Z</time></trkpt><trkpt lat="44.5412408" lon="8.0554185"><ele>728.0</ele><time>2026-04-25T13:43:32.849Z</time></trkpt><trkpt lat="44.5411162" lon="8.0551591"><ele>725.3333333333333</ele><time>2026-04-25T13:43:33.842Z</time></trkpt><trkpt lat="44.5409955" lon="8.0549145"><ele>722.6666666666666</ele><time>2026-04-25T13:43:34.846Z</time></trkpt><trkpt lat="44.5408781" lon="8.0546863"><ele>720.0</ele><time>2026-04-25T13:43:35.853Z</time></trkpt><trkpt lat="44.5407547" lon="8.05447"><ele>720.0</ele><time>2026-04-25T13:43:36.84Z</time></trkpt><trkpt lat="44.5406197" lon="8.0542817"><ele>720.0</ele><time>2026-04-25T13:43:37.846Z</time></trkpt><trkpt lat="44.5404588" lon="8.0541264"><ele>720.0</ele><time>2026-04-25T13:43:38.86Z</time></trkpt><trkpt lat="44.5402948" lon="8.0539788"><ele>721.3333333333334</ele><time>2026-04-25T13:43:39.851Z</time></trkpt><trkpt lat="44.5401398" lon="8.0538348"><ele>722.6666666666667</ele><time>2026-04-25T13:43:40.842Z</time></trkpt><trkpt lat="44.5400027" lon="8.0536714"><ele>724.0</ele><time>2026-04-25T13:43:41.845Z</time></trkpt><trkpt lat="44.5399017" lon="8.0534763"><ele>723.6666666666667</ele><time>2026-04-25T13:43:42.854Z</time></trkpt><trkpt lat="44.5398228" lon="8.053258"><ele>723.3333333333334</ele><time>2026-04-25T13:43:43.838Z</time></trkpt><trkpt lat="44.539774" lon="8.0530155"><ele>723.0</ele><time>2026-04-25T13:43:44.854Z</time></trkpt><trkpt lat="44.5397594" lon="8.0527649"><ele>723.0</ele><time>2026-04-25T13:43:45.852Z</time></trkpt><trkpt lat="44.5397857" lon="8.0525281"><ele>723.0</ele><time>2026-04-25T13:43:46.84Z</time></trkpt><trkpt lat="44.5398526" lon="8.0523026"><ele>723.0</ele><time>2026-04-25T13:43:47.849Z</time></trkpt><trkpt lat="44.5399338" lon="8.0520798"><ele>725.0</ele><time>2026-04-25T13:43:48.845Z</time></trkpt><trkpt lat="44.5400195" lon="8.0518482"><ele>727.0</ele><time>2026-04-25T13:43:49.842Z</time></trkpt><trkpt lat="44.5401053" lon="8.0516092"><ele>729.0</ele><time>2026-04-25T13:43:50.853Z</time></trkpt><trkpt lat="44.5401967" lon="8.051366"><ele>726.3333333333334</ele><time>2026-04-25T13:43:51.841Z</time></trkpt><trkpt lat="44.540293" lon="8.0511153"><ele>723.6666666666667</ele><time>2026-04-25T13:43:52.837Z</time></trkpt><trkpt lat="44.5403855" lon="8.0508559"><ele>721.0</ele><time>2026-04-25T13:43:53.854Z</time></trkpt><trkpt lat="44.5404713" lon="8.0505826"><ele>721.0</ele><time>2026-04-25T13:43:54.841Z</time></trkpt><trkpt lat="44.5405501" lon="8.0503036"><ele>721.0</ele><time>2026-04-25T13:43:55.856Z</time></trkpt><trkpt lat="44.5406134" lon="8.0500171"><ele>721.0</ele><time>2026-04-25T13:43:56.843Z</time></trkpt><trkpt lat="44.5406676" lon="8.0497209"><ele>723.3333333333334</ele><time>2026-04-25T13:43:57.84Z</time></trkpt><trkpt lat="44.5407265" lon="8.0494398"><ele>725.6666666666666</ele><time>2026-04-25T13:43:58.847Z</time></trkpt><trkpt lat="44.5407863" lon="8.0491786"><ele>728.0</ele><time>2026-04-25T13:43:59.843Z</time></trkpt><trkpt lat="44.5408465" lon="8.0489324"><ele>728.0</ele><time>2026-04-25T13:44:00.842Z</time></trkpt><trkpt lat="44.5409059" lon="8.0487043"><ele>728.0</ele><time>2026-04-25T13:44:01.84Z</time></trkpt><trkpt lat="44.540961" lon="8.0484995"><ele>728.0</ele><time>2026-04-25T13:44:02.844Z</time></trkpt><trkpt lat="44.5410064" lon="8.0483136"><ele>725.5</ele><time>2026-04-25T13:44:03.846Z</time></trkpt><trkpt lat="44.5410253" lon="8.0481283"><ele>723.0</ele><time>2026-04-25T13:44:04.84Z</time></trkpt><trkpt lat="44.5410033" lon="8.047957"><ele>720.5</ele><time>2026-04-25T13:44:05.843Z</time></trkpt><trkpt lat="44.5409396" lon="8.0478047"><ele>718.0</ele><time>2026-04-25T13:44:06.842Z</time></trkpt><trkpt lat="44.5408357" lon="8.0476862"><ele>718.0</ele><time>2026-04-25T13:44:07.839Z</time></trkpt><trkpt lat="44.5407138" lon="8.0475996"><ele>718.0</ele><time>2026-04-25T13:44:08.846Z</time></trkpt><trkpt lat="44.5405625" lon="8.0475572"><ele>718.0</ele><time>2026-04-25T13:44:09.842Z</time></trkpt><trkpt lat="44.540409" lon="8.047497"><ele>714.3333333333334</ele><time>2026-04-25T13:44:10.849Z</time></trkpt><trkpt lat="44.5402447" lon="8.0474492"><ele>710.6666666666666</ele><time>2026-04-25T13:44:11.856Z</time></trkpt><trkpt lat="44.5400814" lon="8.0473977"><ele>707.0</ele><time>2026-04-25T13:44:12.853Z</time></trkpt><trkpt lat="44.5399168" lon="8.0473456"><ele>707.0</ele><time>2026-04-25T13:44:13.854Z</time></trkpt><trkpt lat="44.5397527" lon="8.0472914"><ele>707.0</ele><time>2026-04-25T13:44:14.847Z</time></trkpt><trkpt lat="44.5395832" lon="8.047212"><ele>707.0</ele><time>2026-04-25T13:44:15.843Z</time></trkpt><trkpt lat="44.5394201" lon="8.0470974"><ele>710.3333333333333</ele><time>2026-04-25T13:44:16.847Z</time></trkpt><trkpt lat="44.5392607" lon="8.0469561"><ele>713.6666666666666</ele><time>2026-04-25T13:44:17.842Z</time></trkpt><trkpt lat="44.5391046" lon="8.0467995"><ele>717.0</ele><time>2026-04-25T13:44:18.853Z</time></trkpt><trkpt lat="44.5389384" lon="8.0466393"><ele>714.6666666666666</ele><time>2026-04-25T13:44:19.851Z</time></trkpt><trkpt lat="44.5387748" lon="8.046478"><ele>712.3333333333333</ele><time>2026-04-25T13:44:20.841Z</time></trkpt><trkpt lat="44.5386083" lon="8.0463174"><ele>710.0</ele><time>2026-04-25T13:44:21.839Z</time></trkpt><trkpt lat="44.5384456" lon="8.0461592"><ele>710.0</ele><time>2026-04-25T13:44:22.846Z</time></trkpt><trkpt lat="44.5382799" lon="8.0460014"><ele>710.0</ele><time>2026-04-25T13:44:23.842Z</time></trkpt><trkpt lat="44.5381095" lon="8.0458626"><ele>710.0</ele><time>2026-04-25T13:44:24.85Z</time></trkpt><trkpt lat="44.5379358" lon="8.0457332"><ele>709.6666666666666</ele><time>2026-04-25T13:44:25.857Z</time></trkpt><trkpt lat="44.5377589" lon="8.0456085"><ele>709.3333333333334</ele><time>2026-04-25T13:44:26.853Z</time></trkpt><trkpt lat="44.5375833" lon="8.0454912"><ele>709.0</ele><time>2026-04-25T13:44:27.854Z</time></trkpt><trkpt lat="44.5374099" lon="8.0453774"><ele>709.0</ele><time>2026-04-25T13:44:28.842Z</time></trkpt><trkpt lat="44.5372319" lon="8.0452824"><ele>709.0</ele><time>2026-04-25T13:44:29.847Z</time></trkpt><trkpt lat="44.5370527" lon="8.0452111"><ele>709.0</ele><time>2026-04-25T13:44:30.852Z</time></trkpt><trkpt lat="44.5368665" lon="8.0451694"><ele>711.3333333333334</ele><time>2026-04-25T13:44:31.855Z</time></trkpt><trkpt lat="44.5366815" lon="8.0451509"><ele>713.6666666666666</ele><time>2026-04-25T13:44:32.848Z</time></trkpt><trkpt lat="44.5364979" lon="8.0451494"><ele>716.0</ele><time>2026-04-25T13:44:33.856Z</time></trkpt><trkpt lat="44.5363199" lon="8.0451608"><ele>719.3333333333333</ele><time>2026-04-25T13:44:34.855Z</time></trkpt><trkpt lat="44.5361448" lon="8.0451714"><ele>722.6666666666666</ele><time>2026-04-25T13:44:35.85Z</time></trkpt><trkpt lat="44.5359731" lon="8.0451745"><ele>726.0</ele><time>2026-04-25T13:44:36.842Z</time></trkpt><trkpt lat="44.5358098" lon="8.0451763"><ele>726.0</ele><time>2026-04-25T13:44:37.847Z</time></trkpt><trkpt lat="44.5356574" lon="8.045194"><ele>726.0</ele><time>2026-04-25T13:44:38.857Z</time></trkpt><trkpt lat="44.5355168" lon="8.0452328"><ele>726.0</ele><time>2026-04-25T13:44:39.844Z</time></trkpt><trkpt lat="44.5353817" lon="8.045289"><ele>726.0</ele><time>2026-04-25T13:44:40.856Z</time></trkpt><trkpt lat="44.5352464" lon="8.0453512"><ele>728.75</ele><time>2026-04-25T13:44:41.853Z</time></trkpt><trkpt lat="44.5351152" lon="8.0454195"><ele>731.5</ele><time>2026-04-25T13:44:42.851Z</time></trkpt><trkpt lat="44.5349805" lon="8.0454849"><ele>734.25</ele><time>2026-04-25T13:44:43.848Z</time></trkpt><trkpt lat="44.5348541" lon="8.0455394"><ele>737.0</ele><time>2026-04-25T13:44:44.851Z</time></trkpt><trkpt lat="44.5347378" lon="8.0455946"><ele>737.0</ele><time>2026-04-25T13:44:45.846Z</time></trkpt><trkpt lat="44.5346288" lon="8.0456487"><ele>737.0</ele><time>2026-04-25T13:44:46.853Z</time></trkpt><trkpt lat="44.5345228" lon="8.0456993"><ele>737.0</ele><time>2026-04-25T13:44:47.841Z</time></trkpt><trkpt lat="44.5344133" lon="8.0457537"><ele>737.0</ele><time>2026-04-25T13:44:48.856Z</time></trkpt><trkpt lat="44.534302" lon="8.045809"><ele>735.0</ele><time>2026-04-25T13:44:49.856Z</time></trkpt><trkpt lat="44.5341878" lon="8.0458561"><ele>733.0</ele><time>2026-04-25T13:44:50.852Z</time></trkpt><trkpt lat="44.5340742" lon="8.0459103"><ele>731.0</ele><time>2026-04-25T13:44:51.848Z</time></trkpt><trkpt lat="44.5339668" lon="8.0459669"><ele>729.0</ele><time>2026-04-25T13:44:52.851Z</time></trkpt><trkpt lat="44.5338635" lon="8.0460189"><ele>729.0</ele><time>2026-04-25T13:44:53.843Z</time></trkpt><trkpt lat="44.5337681" lon="8.0460637"><ele>729.0</ele><time>2026-04-25T13:44:54.854Z</time></trkpt><trkpt lat="44.5336713" lon="8.046107"><ele>729.0</ele><time>2026-04-25T13:44:55.841Z</time></trkpt><trkpt lat="44.5335805" lon="8.0461455"><ele>729.0</ele><time>2026-04-25T13:44:56.857Z</time></trkpt><trkpt lat="44.5334982" lon="8.0461847"><ele>729.0</ele><time>2026-04-25T13:44:57.855Z</time></trkpt><trkpt lat="44.5334152" lon="8.0462209"><ele>730.3333333333334</ele><time>2026-04-25T13:44:58.857Z</time></trkpt><trkpt lat="44.5333352" lon="8.0462598"><ele>731.6666666666666</ele><time>2026-04-25T13:44:59.857Z</time></trkpt><trkpt lat="44.5332522" lon="8.0463026"><ele>733.0</ele><time>2026-04-25T13:45:00.85Z</time></trkpt><trkpt lat="44.5331692" lon="8.0463472"><ele>734.3333333333333</ele><time>2026-04-25T13:45:01.847Z</time></trkpt><trkpt lat="44.5330889" lon="8.0463846"><ele>735.6666666666666</ele><time>2026-04-25T13:45:02.848Z</time></trkpt><trkpt lat="44.5330075" lon="8.0464179"><ele>737.0</ele><time>2026-04-25T13:45:03.85Z</time></trkpt><trkpt lat="44.5329365" lon="8.0464511"><ele>735.0</ele><time>2026-04-25T13:45:04.854Z</time></trkpt><trkpt lat="44.5328705" lon="8.0464727"><ele>733.0</ele><time>2026-04-25T13:45:05.851Z</time></trkpt><trkpt lat="44.532752" lon="8.0465094"><ele>731.0</ele><time>2026-04-25T13:45:07.857Z</time></trkpt><trkpt lat="44.5326371" lon="8.0464988"><ele>729.0</ele><time>2026-04-25T13:45:09.843Z</time></trkpt><trkpt lat="44.5325357" lon="8.0464642"><ele>727.0</ele><time>2026-04-25T13:45:11.846Z</time></trkpt><trkpt lat="44.5324237" lon="8.0464655"><ele>727.0</ele><time>2026-04-25T13:45:13.853Z</time></trkpt><trkpt lat="44.5323174" lon="8.0465321"><ele>727.0</ele><time>2026-04-25T13:45:15.851Z</time></trkpt><trkpt lat="44.5322062" lon="8.0466227"><ele>727.0</ele><time>2026-04-25T13:45:17.85Z</time></trkpt><trkpt lat="44.5321405" lon="8.0466737"><ele>727.0</ele><time>2026-04-25T13:45:18.85Z</time></trkpt><trkpt lat="44.5320645" lon="8.0467121"><ele>727.0</ele><time>2026-04-25T13:45:19.849Z</time></trkpt><trkpt lat="44.5319824" lon="8.0467427"><ele>726.8</ele><time>2026-04-25T13:45:20.852Z</time></trkpt><trkpt lat="44.5318912" lon="8.0467732"><ele>726.6</ele><time>2026-04-25T13:45:21.848Z</time></trkpt><trkpt lat="44.5317927" lon="8.0468045"><ele>726.4</ele><time>2026-04-25T13:45:22.852Z</time></trkpt><trkpt lat="44.5316929" lon="8.046841"><ele>726.1999999999999</ele><time>2026-04-25T13:45:23.851Z</time></trkpt><trkpt lat="44.5315916" lon="8.0468884"><ele>726.0</ele><time>2026-04-25T13:45:24.84Z</time></trkpt><trkpt lat="44.5314859" lon="8.046936"><ele>726.0</ele><time>2026-04-25T13:45:25.845Z</time></trkpt><trkpt lat="44.5313781" lon="8.0470021"><ele>726.0</ele><time>2026-04-25T13:45:26.986Z</time></trkpt><trkpt lat="44.5311648" lon="8.0471424"><ele>726.0</ele><time>2026-04-25T13:45:28.846Z</time></trkpt><trkpt lat="44.5310559" lon="8.0472254"><ele>727.25</ele><time>2026-04-25T13:45:29.845Z</time></trkpt><trkpt lat="44.5309483" lon="8.0473254"><ele>728.5</ele><time>2026-04-25T13:45:30.852Z</time></trkpt><trkpt lat="44.5308471" lon="8.0474288"><ele>729.75</ele><time>2026-04-25T13:45:31.849Z</time></trkpt><trkpt lat="44.5307491" lon="8.0475391"><ele>731.0</ele><time>2026-04-25T13:45:32.849Z</time></trkpt><trkpt lat="44.5306498" lon="8.0476556"><ele>731.0</ele><time>2026-04-25T13:45:33.843Z</time></trkpt><trkpt lat="44.5305487" lon="8.047782"><ele>731.0</ele><time>2026-04-25T13:45:34.841Z</time></trkpt><trkpt lat="44.5304436" lon="8.0479129"><ele>731.0</ele><time>2026-04-25T13:45:35.848Z</time></trkpt><trkpt lat="44.5303404" lon="8.0480454"><ele>731.0</ele><time>2026-04-25T13:45:36.855Z</time></trkpt><trkpt lat="44.5302382" lon="8.0481779"><ele>731.75</ele><time>2026-04-25T13:45:37.858Z</time></trkpt><trkpt lat="44.5301448" lon="8.0483086"><ele>732.5</ele><time>2026-04-25T13:45:38.851Z</time></trkpt><trkpt lat="44.530051" lon="8.0484308"><ele>733.25</ele><time>2026-04-25T13:45:39.847Z</time></trkpt><trkpt lat="44.5299599" lon="8.0485568"><ele>734.0</ele><time>2026-04-25T13:45:40.846Z</time></trkpt><trkpt lat="44.5298704" lon="8.0486741"><ele>734.0</ele><time>2026-04-25T13:45:41.853Z</time></trkpt><trkpt lat="44.5297808" lon="8.0487934"><ele>734.0</ele><time>2026-04-25T13:45:42.854Z</time></trkpt><trkpt lat="44.5296922" lon="8.0489103"><ele>734.0</ele><time>2026-04-25T13:45:43.845Z</time></trkpt><trkpt lat="44.5296021" lon="8.0490306"><ele>734.0</ele><time>2026-04-25T13:45:44.848Z</time></trkpt><trkpt lat="44.5295069" lon="8.0491462"><ele>735.75</ele><time>2026-04-25T13:45:45.847Z</time></trkpt><trkpt lat="44.5294079" lon="8.0492583"><ele>737.5</ele><time>2026-04-25T13:45:46.852Z</time></trkpt><trkpt lat="44.5293093" lon="8.0493682"><ele>739.25</ele><time>2026-04-25T13:45:47.851Z</time></trkpt><trkpt lat="44.5292071" lon="8.0494768"><ele>741.0</ele><time>2026-04-25T13:45:48.843Z</time></trkpt><trkpt lat="44.5291023" lon="8.0495777"><ele>741.0</ele><time>2026-04-25T13:45:49.848Z</time></trkpt><trkpt lat="44.5289929" lon="8.0496751"><ele>741.0</ele><time>2026-04-25T13:45:50.848Z</time></trkpt><trkpt lat="44.5288778" lon="8.0497681"><ele>741.0</ele><time>2026-04-25T13:45:51.85Z</time></trkpt><trkpt lat="44.5287588" lon="8.0498555"><ele>741.0</ele><time>2026-04-25T13:45:52.84Z</time></trkpt><trkpt lat="44.5286369" lon="8.0499366"><ele>743.0</ele><time>2026-04-25T13:45:53.854Z</time></trkpt><trkpt lat="44.5285097" lon="8.050013"><ele>745.0</ele><time>2026-04-25T13:45:54.855Z</time></trkpt><trkpt lat="44.5283819" lon="8.0500943"><ele>747.0</ele><time>2026-04-25T13:45:55.848Z</time></trkpt><trkpt lat="44.5282486" lon="8.0501634"><ele>749.0</ele><time>2026-04-25T13:45:56.848Z</time></trkpt><trkpt lat="44.5281095" lon="8.0502255"><ele>749.0</ele><time>2026-04-25T13:45:57.842Z</time></trkpt><trkpt lat="44.5279686" lon="8.0502829"><ele>749.0</ele><time>2026-04-25T13:45:58.844Z</time></trkpt><trkpt lat="44.5278271" lon="8.0503299"><ele>749.0</ele><time>2026-04-25T13:45:59.842Z</time></trkpt><trkpt lat="44.5276813" lon="8.0503733"><ele>749.0</ele><time>2026-04-25T13:46:00.842Z</time></trkpt><trkpt lat="44.5275336" lon="8.0504121"><ele>749.0</ele><time>2026-04-25T13:46:01.847Z</time></trkpt><trkpt lat="44.527382" lon="8.0504281"><ele>749.0</ele><time>2026-04-25T13:46:02.838Z</time></trkpt><trkpt lat="44.5272313" lon="8.0504231"><ele>749.0</ele><time>2026-04-25T13:46:03.854Z</time></trkpt><trkpt lat="44.527087" lon="8.0504053"><ele>749.0</ele><time>2026-04-25T13:46:04.847Z</time></trkpt><trkpt lat="44.5269483" lon="8.0503796"><ele>751.75</ele><time>2026-04-25T13:46:05.841Z</time></trkpt><trkpt lat="44.5268113" lon="8.0503537"><ele>754.5</ele><time>2026-04-25T13:46:06.847Z</time></trkpt><trkpt lat="44.5266755" lon="8.0503248"><ele>757.25</ele><time>2026-04-25T13:46:07.842Z</time></trkpt><trkpt lat="44.5265406" lon="8.0502804"><ele>760.0</ele><time>2026-04-25T13:46:08.846Z</time></trkpt><trkpt lat="44.5264078" lon="8.0502251"><ele>760.0</ele><time>2026-04-25T13:46:09.844Z</time></trkpt><trkpt lat="44.5262801" lon="8.0501596"><ele>760.0</ele><time>2026-04-25T13:46:10.839Z</time></trkpt><trkpt lat="44.5261569" lon="8.0500856"><ele>760.0</ele><time>2026-04-25T13:46:11.846Z</time></trkpt><trkpt lat="44.5260343" lon="8.050007"><ele>760.0</ele><time>2026-04-25T13:46:12.848Z</time></trkpt><trkpt lat="44.5259148" lon="8.0499184"><ele>760.25</ele><time>2026-04-25T13:46:13.839Z</time></trkpt><trkpt lat="44.5257957" lon="8.0498262"><ele>760.5</ele><time>2026-04-25T13:46:14.849Z</time></trkpt><trkpt lat="44.5256814" lon="8.0497224"><ele>760.75</ele><time>2026-04-25T13:46:15.856Z</time></trkpt><trkpt lat="44.5255683" lon="8.0496075"><ele>761.0</ele><time>2026-04-25T13:46:16.857Z</time></trkpt><trkpt lat="44.5254543" lon="8.0494895"><ele>761.0</ele><time>2026-04-25T13:46:17.847Z</time></trkpt><trkpt lat="44.5253357" lon="8.0493721"><ele>761.0</ele><time>2026-04-25T13:46:18.849Z</time></trkpt><trkpt lat="44.5252146" lon="8.0492464"><ele>761.0</ele><time>2026-04-25T13:46:19.856Z</time></trkpt><trkpt lat="44.5250936" lon="8.0491266"><ele>761.0</ele><time>2026-04-25T13:46:20.847Z</time></trkpt><trkpt lat="44.5249741" lon="8.0490191"><ele>761.0</ele><time>2026-04-25T13:46:21.847Z</time></trkpt><trkpt lat="44.5248602" lon="8.0489079"><ele>761.0</ele><time>2026-04-25T13:46:22.84Z</time></trkpt><trkpt lat="44.5247449" lon="8.0487943"><ele>761.0</ele><time>2026-04-25T13:46:23.857Z</time></trkpt><trkpt lat="44.5246268" lon="8.0486846"><ele>761.0</ele><time>2026-04-25T13:46:24.85Z</time></trkpt><trkpt lat="44.52449" lon="8.0486006"><ele>763.25</ele><time>2026-04-25T13:46:25.843Z</time></trkpt><trkpt lat="44.5243574" lon="8.0485368"><ele>765.5</ele><time>2026-04-25T13:46:26.853Z</time></trkpt><trkpt lat="44.5242084" lon="8.0484987"><ele>767.75</ele><time>2026-04-25T13:46:27.844Z</time></trkpt><trkpt lat="44.5240706" lon="8.0484666"><ele>770.0</ele><time>2026-04-25T13:46:28.84Z</time></trkpt><trkpt lat="44.5239339" lon="8.0484206"><ele>770.0</ele><time>2026-04-25T13:46:29.851Z</time></trkpt><trkpt lat="44.5237954" lon="8.0483675"><ele>770.0</ele><time>2026-04-25T13:46:30.856Z</time></trkpt><trkpt lat="44.5236599" lon="8.0482895"><ele>770.0</ele><time>2026-04-25T13:46:31.846Z</time></trkpt><trkpt lat="44.5235273" lon="8.0482025"><ele>770.0</ele><time>2026-04-25T13:46:32.848Z</time></trkpt><trkpt lat="44.5233977" lon="8.0481191"><ele>769.25</ele><time>2026-04-25T13:46:33.852Z</time></trkpt><trkpt lat="44.5232698" lon="8.0480376"><ele>768.5</ele><time>2026-04-25T13:46:34.854Z</time></trkpt><trkpt lat="44.523144" lon="8.0479507"><ele>767.75</ele><time>2026-04-25T13:46:35.849Z</time></trkpt><trkpt lat="44.5230156" lon="8.0478658"><ele>767.0</ele><time>2026-04-25T13:46:36.839Z</time></trkpt><trkpt lat="44.5228865" lon="8.0477783"><ele>767.0</ele><time>2026-04-25T13:46:37.859Z</time></trkpt><trkpt lat="44.5227575" lon="8.0476883"><ele>767.0</ele><time>2026-04-25T13:46:38.842Z</time></trkpt><trkpt lat="44.5226219" lon="8.0475969"><ele>767.0</ele><time>2026-04-25T13:46:39.843Z</time></trkpt><trkpt lat="44.5224842" lon="8.0475063"><ele>767.0</ele><time>2026-04-25T13:46:40.845Z</time></trkpt><trkpt lat="44.5223488" lon="8.0474157"><ele>767.0</ele><time>2026-04-25T13:46:41.841Z</time></trkpt><trkpt lat="44.5222137" lon="8.047319"><ele>767.0</ele><time>2026-04-25T13:46:42.839Z</time></trkpt><trkpt lat="44.522083" lon="8.0471925"><ele>767.0</ele><time>2026-04-25T13:46:43.843Z</time></trkpt><trkpt lat="44.5219669" lon="8.0470426"><ele>767.0</ele><time>2026-04-25T13:46:44.847Z</time></trkpt><trkpt lat="44.5218665" lon="8.0468721"><ele>767.0</ele><time>2026-04-25T13:46:45.842Z</time></trkpt><trkpt lat="44.5217691" lon="8.0466974"><ele>767.0</ele><time>2026-04-25T13:46:46.846Z</time></trkpt><trkpt lat="44.5216742" lon="8.046521"><ele>767.0</ele><time>2026-04-25T13:46:47.841Z</time></trkpt><trkpt lat="44.5215745" lon="8.0463474"><ele>767.0</ele><time>2026-04-25T13:46:48.841Z</time></trkpt><trkpt lat="44.5214765" lon="8.0461852"><ele>767.0</ele><time>2026-04-25T13:46:49.842Z</time></trkpt><trkpt lat="44.5213754" lon="8.0460294"><ele>767.0</ele><time>2026-04-25T13:46:50.85Z</time></trkpt><trkpt lat="44.5212613" lon="8.0459015"><ele>767.0</ele><time>2026-04-25T13:46:51.852Z</time></trkpt><trkpt lat="44.5211336" lon="8.0457987"><ele>767.0</ele><time>2026-04-25T13:46:52.846Z</time></trkpt><trkpt lat="44.5209928" lon="8.0457287"><ele>767.0</ele><time>2026-04-25T13:46:53.842Z</time></trkpt><trkpt lat="44.5208436" lon="8.0456885"><ele>767.0</ele><time>2026-04-25T13:46:54.842Z</time></trkpt><trkpt lat="44.5206926" lon="8.045667"><ele>767.0</ele><time>2026-04-25T13:46:55.849Z</time></trkpt><trkpt lat="44.5205421" lon="8.0456489"><ele>767.0</ele><time>2026-04-25T13:46:56.851Z</time></trkpt><trkpt lat="44.5203909" lon="8.0456286"><ele>767.0</ele><time>2026-04-25T13:46:57.851Z</time></trkpt><trkpt lat="44.5202393" lon="8.0456068"><ele>767.0</ele><time>2026-04-25T13:46:58.923Z</time></trkpt><trkpt lat="44.5200874" lon="8.0455909"><ele>767.0</ele><time>2026-04-25T13:46:59.846Z</time></trkpt><trkpt lat="44.5199321" lon="8.0455748"><ele>767.0</ele><time>2026-04-25T13:47:00.854Z</time></trkpt><trkpt lat="44.5197733" lon="8.0455608"><ele>767.0</ele><time>2026-04-25T13:47:01.839Z</time></trkpt><trkpt lat="44.5196154" lon="8.0455391"><ele>767.0</ele><time>2026-04-25T13:47:02.838Z</time></trkpt><trkpt lat="44.5194551" lon="8.0455059"><ele>768.3333333333333</ele><time>2026-04-25T13:47:03.845Z</time></trkpt><trkpt lat="44.5192958" lon="8.0454461"><ele>769.6666666666666</ele><time>2026-04-25T13:47:04.844Z</time></trkpt><trkpt lat="44.5191337" lon="8.0453512"><ele>771.0</ele><time>2026-04-25T13:47:05.84Z</time></trkpt><trkpt lat="44.5189633" lon="8.045228"><ele>771.0</ele><time>2026-04-25T13:47:06.84Z</time></trkpt><trkpt lat="44.5187949" lon="8.045084"><ele>771.0</ele><time>2026-04-25T13:47:07.849Z</time></trkpt><trkpt lat="44.5186346" lon="8.0449569"><ele>771.0</ele><time>2026-04-25T13:47:08.849Z</time></trkpt><trkpt lat="44.5184886" lon="8.0448309"><ele>769.6666666666666</ele><time>2026-04-25T13:47:09.84Z</time></trkpt><trkpt lat="44.5183497" lon="8.0447109"><ele>768.3333333333333</ele><time>2026-04-25T13:47:10.843Z</time></trkpt><trkpt lat="44.5182097" lon="8.0445902"><ele>767.0</ele><time>2026-04-25T13:47:11.842Z</time></trkpt><trkpt lat="44.5180685" lon="8.0444723"><ele>767.0</ele><time>2026-04-25T13:47:12.845Z</time></trkpt><trkpt lat="44.5179327" lon="8.0443515"><ele>767.0</ele><time>2026-04-25T13:47:13.85Z</time></trkpt><trkpt lat="44.5177907" lon="8.0442334"><ele>767.0</ele><time>2026-04-25T13:47:14.849Z</time></trkpt><trkpt lat="44.517646" lon="8.0441192"><ele>765.3333333333333</ele><time>2026-04-25T13:47:15.853Z</time></trkpt><trkpt lat="44.5174969" lon="8.044019"><ele>763.6666666666666</ele><time>2026-04-25T13:47:16.849Z</time></trkpt><trkpt lat="44.5173452" lon="8.0439335"><ele>762.0</ele><time>2026-04-25T13:47:17.844Z</time></trkpt><trkpt lat="44.5171976" lon="8.0438587"><ele>762.6666666666666</ele><time>2026-04-25T13:47:18.84Z</time></trkpt><trkpt lat="44.51704" lon="8.0438106"><ele>763.3333333333333</ele><time>2026-04-25T13:47:19.845Z</time></trkpt><trkpt lat="44.5168811" lon="8.0437997"><ele>764.0</ele><time>2026-04-25T13:47:20.845Z</time></trkpt><trkpt lat="44.5167223" lon="8.0438256"><ele>764.0</ele><time>2026-04-25T13:47:21.841Z</time></trkpt><trkpt lat="44.5165778" lon="8.0438809"><ele>764.0</ele><time>2026-04-25T13:47:22.839Z</time></trkpt><trkpt lat="44.5164389" lon="8.0439482"><ele>764.0</ele><time>2026-04-25T13:47:23.848Z</time></trkpt><trkpt lat="44.5163032" lon="8.0440239"><ele>764.0</ele><time>2026-04-25T13:47:24.851Z</time></trkpt><trkpt lat="44.5161695" lon="8.0440989"><ele>766.6666666666666</ele><time>2026-04-25T13:47:25.839Z</time></trkpt><trkpt lat="44.5160332" lon="8.0441759"><ele>769.3333333333333</ele><time>2026-04-25T13:47:26.85Z</time></trkpt><trkpt lat="44.5158876" lon="8.0442471"><ele>772.0</ele><time>2026-04-25T13:47:27.85Z</time></trkpt><trkpt lat="44.5157275" lon="8.0443062"><ele>772.0</ele><time>2026-04-25T13:47:28.841Z</time></trkpt><trkpt lat="44.515558" lon="8.0443391"><ele>772.0</ele><time>2026-04-25T13:47:29.849Z</time></trkpt><trkpt lat="44.5153812" lon="8.044351"><ele>772.0</ele><time>2026-04-25T13:47:30.855Z</time></trkpt><trkpt lat="44.5152066" lon="8.0443311"><ele>771.3333333333333</ele><time>2026-04-25T13:47:31.852Z</time></trkpt><trkpt lat="44.5150337" lon="8.0442885"><ele>770.6666666666667</ele><time>2026-04-25T13:47:32.839Z</time></trkpt><trkpt lat="44.5148523" lon="8.0442412"><ele>770.0</ele><time>2026-04-25T13:47:33.843Z</time></trkpt><trkpt lat="44.5146676" lon="8.0442097"><ele>770.0</ele><time>2026-04-25T13:47:34.848Z</time></trkpt><trkpt lat="44.5144848" lon="8.044192"><ele>770.0</ele><time>2026-04-25T13:47:35.854Z</time></trkpt><trkpt lat="44.5143044" lon="8.0441813"><ele>770.0</ele><time>2026-04-25T13:47:36.846Z</time></trkpt><trkpt lat="44.5141256" lon="8.0441759"><ele>770.0</ele><time>2026-04-25T13:47:37.839Z</time></trkpt><trkpt lat="44.5139436" lon="8.0441776"><ele>770.0</ele><time>2026-04-25T13:47:38.85Z</time></trkpt><trkpt lat="44.5137623" lon="8.0441771"><ele>770.0</ele><time>2026-04-25T13:47:39.845Z</time></trkpt><trkpt lat="44.5135812" lon="8.0441648"><ele>769.3333333333334</ele><time>2026-04-25T13:47:40.842Z</time></trkpt><trkpt lat="44.5133968" lon="8.0441449"><ele>768.6666666666667</ele><time>2026-04-25T13:47:41.843Z</time></trkpt><trkpt lat="44.5132138" lon="8.0441079"><ele>768.0</ele><time>2026-04-25T13:47:42.843Z</time></trkpt><trkpt lat="44.513024" lon="8.0440481"><ele>762.3333333333334</ele><time>2026-04-25T13:47:43.84Z</time></trkpt><trkpt lat="44.5128518" lon="8.0439814"><ele>756.6666666666667</ele><time>2026-04-25T13:47:44.845Z</time></trkpt><trkpt lat="44.5126734" lon="8.0439213"><ele>751.0</ele><time>2026-04-25T13:47:45.839Z</time></trkpt><trkpt lat="44.5124884" lon="8.0438573"><ele>751.0</ele><time>2026-04-25T13:47:46.849Z</time></trkpt><trkpt lat="44.5123092" lon="8.0437931"><ele>751.0</ele><time>2026-04-25T13:47:47.847Z</time></trkpt><trkpt lat="44.5121353" lon="8.0437289"><ele>751.0</ele><time>2026-04-25T13:47:48.845Z</time></trkpt><trkpt lat="44.5119599" lon="8.0436557"><ele>750.0</ele><time>2026-04-25T13:47:49.841Z</time></trkpt><trkpt lat="44.5117825" lon="8.0435584"><ele>749.0</ele><time>2026-04-25T13:47:50.839Z</time></trkpt><trkpt lat="44.5116107" lon="8.0434279"><ele>748.0</ele><time>2026-04-25T13:47:51.843Z</time></trkpt><trkpt lat="44.5114511" lon="8.043276"><ele>748.0</ele><time>2026-04-25T13:47:52.839Z</time></trkpt><trkpt lat="44.5112837" lon="8.0431041"><ele>748.0</ele><time>2026-04-25T13:47:53.841Z</time></trkpt><trkpt lat="44.5111203" lon="8.0428982"><ele>748.0</ele><time>2026-04-25T13:47:54.844Z</time></trkpt><trkpt lat="44.5109504" lon="8.0426739"><ele>750.5</ele><time>2026-04-25T13:47:55.843Z</time></trkpt><trkpt lat="44.5107772" lon="8.0424344"><ele>753.0</ele><time>2026-04-25T13:47:56.848Z</time></trkpt><trkpt lat="44.5105991" lon="8.0422121"><ele>753.0</ele><time>2026-04-25T13:47:57.847Z</time></trkpt><trkpt lat="44.5104257" lon="8.0419918"><ele>753.0</ele><time>2026-04-25T13:47:58.848Z</time></trkpt><trkpt lat="44.5102676" lon="8.0417645"><ele>755.3333333333334</ele><time>2026-04-25T13:47:59.838Z</time></trkpt><trkpt lat="44.510129" lon="8.0415198"><ele>757.6666666666667</ele><time>2026-04-25T13:48:00.842Z</time></trkpt><trkpt lat="44.5099939" lon="8.0412729"><ele>760.0</ele><time>2026-04-25T13:48:01.845Z</time></trkpt><trkpt lat="44.5098461" lon="8.0410414"><ele>760.0</ele><time>2026-04-25T13:48:02.848Z</time></trkpt><trkpt lat="44.509685" lon="8.0408277"><ele>760.0</ele><time>2026-04-25T13:48:03.846Z</time></trkpt><trkpt lat="44.5095061" lon="8.0406338"><ele>760.0</ele><time>2026-04-25T13:48:04.849Z</time></trkpt><trkpt lat="44.5093243" lon="8.0404529"><ele>763.3333333333334</ele><time>2026-04-25T13:48:05.841Z</time></trkpt><trkpt lat="44.5091523" lon="8.0402732"><ele>766.6666666666667</ele><time>2026-04-25T13:48:06.839Z</time></trkpt><trkpt lat="44.5089893" lon="8.0401095"><ele>770.0</ele><time>2026-04-25T13:48:07.837Z</time></trkpt><trkpt lat="44.5088344" lon="8.0399626"><ele>773.3333333333334</ele><time>2026-04-25T13:48:08.846Z</time></trkpt><trkpt lat="44.5086846" lon="8.0398319"><ele>776.6666666666667</ele><time>2026-04-25T13:48:09.845Z</time></trkpt><trkpt lat="44.5085305" lon="8.0397446"><ele>780.0</ele><time>2026-04-25T13:48:10.849Z</time></trkpt><trkpt lat="44.5083542" lon="8.0397201"><ele>780.0</ele><time>2026-04-25T13:48:11.845Z</time></trkpt><trkpt lat="44.5081815" lon="8.0397312"><ele>780.0</ele><time>2026-04-25T13:48:12.84Z</time></trkpt><trkpt lat="44.508002" lon="8.0397864"><ele>780.0</ele><time>2026-04-25T13:48:13.837Z</time></trkpt><trkpt lat="44.5078185" lon="8.0398437"><ele>781.6666666666667</ele><time>2026-04-25T13:48:14.845Z</time></trkpt><trkpt lat="44.5076352" lon="8.0399118"><ele>783.3333333333334</ele><time>2026-04-25T13:48:15.837Z</time></trkpt><trkpt lat="44.5074422" lon="8.0399636"><ele>785.0</ele><time>2026-04-25T13:48:16.842Z</time></trkpt><trkpt lat="44.5072449" lon="8.0400005"><ele>781.6666666666667</ele><time>2026-04-25T13:48:17.85Z</time></trkpt><trkpt lat="44.5070507" lon="8.040016"><ele>778.3333333333333</ele><time>2026-04-25T13:48:18.852Z</time></trkpt><trkpt lat="44.506859" lon="8.040023"><ele>775.0</ele><time>2026-04-25T13:48:19.847Z</time></trkpt><trkpt lat="44.5066774" lon="8.0400233"><ele>775.0</ele><time>2026-04-25T13:48:20.852Z</time></trkpt><trkpt lat="44.5065024" lon="8.0400225"><ele>775.0</ele><time>2026-04-25T13:48:21.845Z</time></trkpt><trkpt lat="44.5063344" lon="8.0400216"><ele>775.0</ele><time>2026-04-25T13:48:22.847Z</time></trkpt><trkpt lat="44.5061753" lon="8.040037"><ele>777.0</ele><time>2026-04-25T13:48:23.848Z</time></trkpt><trkpt lat="44.5060311" lon="8.0400952"><ele>779.0</ele><time>2026-04-25T13:48:24.846Z</time></trkpt><trkpt lat="44.5059003" lon="8.0402033"><ele>781.0</ele><time>2026-04-25T13:48:25.845Z</time></trkpt><trkpt lat="44.5057955" lon="8.0403359"><ele>783.0</ele><time>2026-04-25T13:48:26.851Z</time></trkpt><trkpt lat="44.5057104" lon="8.0404854"><ele>783.0</ele><time>2026-04-25T13:48:27.851Z</time></trkpt><trkpt lat="44.5056265" lon="8.0406268"><ele>783.0</ele><time>2026-04-25T13:48:28.846Z</time></trkpt><trkpt lat="44.5055484" lon="8.0407491"><ele>783.0</ele><time>2026-04-25T13:48:29.843Z</time></trkpt><trkpt lat="44.5054726" lon="8.0408604"><ele>783.0</ele><time>2026-04-25T13:48:30.842Z</time></trkpt><trkpt lat="44.5053863" lon="8.0409519"><ele>781.5999999999999</ele><time>2026-04-25T13:48:31.843Z</time></trkpt><trkpt lat="44.5052859" lon="8.0410121"><ele>780.1999999999999</ele><time>2026-04-25T13:48:32.839Z</time></trkpt><trkpt lat="44.505175" lon="8.0410177"><ele>778.8</ele><time>2026-04-25T13:48:33.845Z</time></trkpt><trkpt lat="44.5050701" lon="8.040991"><ele>777.4</ele><time>2026-04-25T13:48:34.848Z</time></trkpt><trkpt lat="44.5049738" lon="8.0409336"><ele>776.0</ele><time>2026-04-25T13:48:35.841Z</time></trkpt><trkpt lat="44.5048841" lon="8.0408687"><ele>777.4</ele><time>2026-04-25T13:48:36.844Z</time></trkpt><trkpt lat="44.5048002" lon="8.0407985"><ele>778.8</ele><time>2026-04-25T13:48:37.844Z</time></trkpt><trkpt lat="44.5047136" lon="8.0407296"><ele>780.1999999999999</ele><time>2026-04-25T13:48:38.842Z</time></trkpt><trkpt lat="44.5046225" lon="8.0406581"><ele>781.5999999999999</ele><time>2026-04-25T13:48:39.844Z</time></trkpt><trkpt lat="44.504525" lon="8.0405883"><ele>783.0</ele><time>2026-04-25T13:48:40.853Z</time></trkpt><trkpt lat="44.5044223" lon="8.0405295"><ele>783.0</ele><time>2026-04-25T13:48:41.852Z</time></trkpt><trkpt lat="44.5043113" lon="8.0404966"><ele>783.0</ele><time>2026-04-25T13:48:42.846Z</time></trkpt><trkpt lat="44.5041987" lon="8.0404812"><ele>783.0</ele><time>2026-04-25T13:48:43.843Z</time></trkpt><trkpt lat="44.5040847" lon="8.0404918"><ele>783.0</ele><time>2026-04-25T13:48:44.841Z</time></trkpt><trkpt lat="44.5039731" lon="8.0405295"><ele>783.0</ele><time>2026-04-25T13:48:45.848Z</time></trkpt><trkpt lat="44.503868" lon="8.0405832"><ele>783.0</ele><time>2026-04-25T13:48:46.851Z</time></trkpt><trkpt lat="44.5037699" lon="8.0406606"><ele>783.0</ele><time>2026-04-25T13:48:47.845Z</time></trkpt><trkpt lat="44.5036828" lon="8.040742"><ele>783.0</ele><time>2026-04-25T13:48:48.849Z</time></trkpt><trkpt lat="44.5036004" lon="8.040853"><ele>783.0</ele><time>2026-04-25T13:48:49.848Z</time></trkpt><trkpt lat="44.5035266" lon="8.0409647"><ele>781.8</ele><time>2026-04-25T13:48:50.853Z</time></trkpt><trkpt lat="44.5034573" lon="8.0410787"><ele>780.5999999999999</ele><time>2026-04-25T13:48:51.851Z</time></trkpt><trkpt lat="44.5033967" lon="8.0412049"><ele>779.4000000000001</ele><time>2026-04-25T13:48:52.85Z</time></trkpt><trkpt lat="44.5033409" lon="8.0413301"><ele>778.2</ele><time>2026-04-25T13:48:53.848Z</time></trkpt><trkpt lat="44.5032909" lon="8.0414577"><ele>777.0</ele><time>2026-04-25T13:48:54.841Z</time></trkpt><trkpt lat="44.5032421" lon="8.041589"><ele>774.2</ele><time>2026-04-25T13:48:55.853Z</time></trkpt><trkpt lat="44.5031974" lon="8.0417173"><ele>771.4000000000001</ele><time>2026-04-25T13:48:56.849Z</time></trkpt><trkpt lat="44.5031514" lon="8.0418387"><ele>768.5999999999999</ele><time>2026-04-25T13:48:57.84Z</time></trkpt><trkpt lat="44.5031028" lon="8.0419565"><ele>765.8</ele><time>2026-04-25T13:48:58.846Z</time></trkpt><trkpt lat="44.5030423" lon="8.0420674"><ele>763.0</ele><time>2026-04-25T13:48:59.858Z</time></trkpt><trkpt lat="44.5029564" lon="8.0421431"><ele>763.75</ele><time>2026-04-25T13:49:00.847Z</time></trkpt><trkpt lat="44.5028577" lon="8.0421754"><ele>764.5</ele><time>2026-04-25T13:49:01.842Z</time></trkpt><trkpt lat="44.5027466" lon="8.042166"><ele>765.25</ele><time>2026-04-25T13:49:02.847Z</time></trkpt><trkpt lat="44.5026309" lon="8.042123"><ele>766.0</ele><time>2026-04-25T13:49:03.844Z</time></trkpt><trkpt lat="44.5025196" lon="8.0420554"><ele>766.0</ele><time>2026-04-25T13:49:04.843Z</time></trkpt><trkpt lat="44.502405" lon="8.0419712"><ele>766.0</ele><time>2026-04-25T13:49:05.847Z</time></trkpt><trkpt lat="44.5022622" lon="8.0418896"><ele>766.0</ele><time>2026-04-25T13:49:06.852Z</time></trkpt><trkpt lat="44.5021098" lon="8.0417731"><ele>766.3333333333334</ele><time>2026-04-25T13:49:07.852Z</time></trkpt><trkpt lat="44.501949" lon="8.0416327"><ele>766.6666666666666</ele><time>2026-04-25T13:49:08.849Z</time></trkpt><trkpt lat="44.5017915" lon="8.041504"><ele>767.0</ele><time>2026-04-25T13:49:09.845Z</time></trkpt><trkpt lat="44.5016388" lon="8.0413877"><ele>767.0</ele><time>2026-04-25T13:49:10.849Z</time></trkpt><trkpt lat="44.5014872" lon="8.0412949"><ele>767.0</ele><time>2026-04-25T13:49:11.842Z</time></trkpt><trkpt lat="44.5013316" lon="8.0412482"><ele>767.0</ele><time>2026-04-25T13:49:12.848Z</time></trkpt><trkpt lat="44.5011692" lon="8.0412523"><ele>764.6666666666666</ele><time>2026-04-25T13:49:13.855Z</time></trkpt><trkpt lat="44.5010008" lon="8.0412899"><ele>762.3333333333334</ele><time>2026-04-25T13:49:14.854Z</time></trkpt><trkpt lat="44.5008273" lon="8.0413421"><ele>760.0</ele><time>2026-04-25T13:49:15.85Z</time></trkpt><trkpt lat="44.5006494" lon="8.0413937"><ele>760.0</ele><time>2026-04-25T13:49:16.845Z</time></trkpt><trkpt lat="44.5004631" lon="8.0414449"><ele>760.0</ele><time>2026-04-25T13:49:17.852Z</time></trkpt><trkpt lat="44.5002795" lon="8.0415026"><ele>760.0</ele><time>2026-04-25T13:49:18.849Z</time></trkpt><trkpt lat="44.5000951" lon="8.0415535"><ele>760.0</ele><time>2026-04-25T13:49:19.843Z</time></trkpt><trkpt lat="44.499909" lon="8.0416006"><ele>760.0</ele><time>2026-04-25T13:49:20.849Z</time></trkpt><trkpt lat="44.4997228" lon="8.0416476"><ele>760.0</ele><time>2026-04-25T13:49:21.857Z</time></trkpt><trkpt lat="44.4995373" lon="8.0416945"><ele>755.3333333333334</ele><time>2026-04-25T13:49:22.854Z</time></trkpt><trkpt lat="44.4993572" lon="8.0417495"><ele>750.6666666666666</ele><time>2026-04-25T13:49:23.848Z</time></trkpt><trkpt lat="44.4991927" lon="8.0418108"><ele>746.0</ele><time>2026-04-25T13:49:24.843Z</time></trkpt><trkpt lat="44.4990367" lon="8.0419002"><ele>746.0</ele><time>2026-04-25T13:49:25.845Z</time></trkpt><trkpt lat="44.4988921" lon="8.0420405"><ele>746.0</ele><time>2026-04-25T13:49:26.839Z</time></trkpt><trkpt lat="44.4987724" lon="8.0422003"><ele>746.0</ele><time>2026-04-25T13:49:27.849Z</time></trkpt><trkpt lat="44.498667" lon="8.0423813"><ele>744.0</ele><time>2026-04-25T13:49:28.842Z</time></trkpt><trkpt lat="44.4985663" lon="8.0425467"><ele>742.0</ele><time>2026-04-25T13:49:29.849Z</time></trkpt><trkpt lat="44.4984641" lon="8.042697"><ele>740.0</ele><time>2026-04-25T13:49:30.853Z</time></trkpt><trkpt lat="44.4983502" lon="8.0428318"><ele>740.0</ele><time>2026-04-25T13:49:31.849Z</time></trkpt><trkpt lat="44.4982126" lon="8.042938"><ele>740.0</ele><time>2026-04-25T13:49:32.853Z</time></trkpt><trkpt lat="44.4980556" lon="8.0430191"><ele>740.0</ele><time>2026-04-25T13:49:33.846Z</time></trkpt><trkpt lat="44.4978769" lon="8.0430726"><ele>737.0</ele><time>2026-04-25T13:49:34.855Z</time></trkpt><trkpt lat="44.4976926" lon="8.0431178"><ele>734.0</ele><time>2026-04-25T13:49:35.849Z</time></trkpt><trkpt lat="44.4975035" lon="8.0431608"><ele>731.0</ele><time>2026-04-25T13:49:36.845Z</time></trkpt><trkpt lat="44.4973094" lon="8.0431995"><ele>731.0</ele><time>2026-04-25T13:49:37.844Z</time></trkpt><trkpt lat="44.4971185" lon="8.0432363"><ele>731.0</ele><time>2026-04-25T13:49:38.85Z</time></trkpt><trkpt lat="44.4969286" lon="8.0432717"><ele>731.0</ele><time>2026-04-25T13:49:39.852Z</time></trkpt><trkpt lat="44.4967423" lon="8.0433133"><ele>733.3333333333333</ele><time>2026-04-25T13:49:40.842Z</time></trkpt><trkpt lat="44.4965689" lon="8.0433543"><ele>735.6666666666666</ele><time>2026-04-25T13:49:41.847Z</time></trkpt><trkpt lat="44.4964068" lon="8.0434174"><ele>738.0</ele><time>2026-04-25T13:49:42.849Z</time></trkpt><trkpt lat="44.4962587" lon="8.0435135"><ele>738.0</ele><time>2026-04-25T13:49:43.849Z</time></trkpt><trkpt lat="44.4961279" lon="8.0436494"><ele>738.0</ele><time>2026-04-25T13:49:44.84Z</time></trkpt><trkpt lat="44.4960103" lon="8.0438056"><ele>738.0</ele><time>2026-04-25T13:49:45.856Z</time></trkpt><trkpt lat="44.4959386" lon="8.0440127"><ele>737.0</ele><time>2026-04-25T13:49:46.852Z</time></trkpt><trkpt lat="44.4958741" lon="8.0442196"><ele>736.0</ele><time>2026-04-25T13:49:47.842Z</time></trkpt><trkpt lat="44.4958128" lon="8.0443991"><ele>735.0</ele><time>2026-04-25T13:49:48.838Z</time></trkpt><trkpt lat="44.4957425" lon="8.0445471"><ele>734.0</ele><time>2026-04-25T13:49:49.854Z</time></trkpt><trkpt lat="44.4956506" lon="8.0446722"><ele>734.0</ele><time>2026-04-25T13:49:50.854Z</time></trkpt><trkpt lat="44.4955371" lon="8.0447354"><ele>734.0</ele><time>2026-04-25T13:49:51.846Z</time></trkpt><trkpt lat="44.4954045" lon="8.0447412"><ele>734.0</ele><time>2026-04-25T13:49:52.851Z</time></trkpt><trkpt lat="44.4952593" lon="8.0447349"><ele>734.0</ele><time>2026-04-25T13:49:53.855Z</time></trkpt><trkpt lat="44.4951063" lon="8.0447354"><ele>735.0</ele><time>2026-04-25T13:49:54.849Z</time></trkpt><trkpt lat="44.4949556" lon="8.044753"><ele>736.0</ele><time>2026-04-25T13:49:55.855Z</time></trkpt><trkpt lat="44.4948073" lon="8.0447736"><ele>737.0</ele><time>2026-04-25T13:49:56.841Z</time></trkpt><trkpt lat="44.4946654" lon="8.044749"><ele>738.0</ele><time>2026-04-25T13:49:57.846Z</time></trkpt><trkpt lat="44.4945139" lon="8.0447019"><ele>733.0</ele><time>2026-04-25T13:49:58.842Z</time></trkpt><trkpt lat="44.49437" lon="8.0445967"><ele>728.0</ele><time>2026-04-25T13:49:59.848Z</time></trkpt><trkpt lat="44.4942306" lon="8.0444448"><ele>723.0</ele><time>2026-04-25T13:50:00.855Z</time></trkpt><trkpt lat="44.4940977" lon="8.0442996"><ele>723.0</ele><time>2026-04-25T13:50:01.843Z</time></trkpt><trkpt lat="44.49396" lon="8.0441623"><ele>723.0</ele><time>2026-04-25T13:50:02.848Z</time></trkpt><trkpt lat="44.4938074" lon="8.044054"><ele>723.0</ele><time>2026-04-25T13:50:03.853Z</time></trkpt><trkpt lat="44.4936406" lon="8.0439869"><ele>717.0</ele><time>2026-04-25T13:50:04.842Z</time></trkpt><trkpt lat="44.4934722" lon="8.043956"><ele>711.0</ele><time>2026-04-25T13:50:05.847Z</time></trkpt><trkpt lat="44.4933216" lon="8.0439346"><ele>705.0</ele><time>2026-04-25T13:50:06.84Z</time></trkpt><trkpt lat="44.4931844" lon="8.043929"><ele>705.0</ele><time>2026-04-25T13:50:07.851Z</time></trkpt><trkpt lat="44.4930618" lon="8.0439323"><ele>705.0</ele><time>2026-04-25T13:50:08.845Z</time></trkpt><trkpt lat="44.4929481" lon="8.0439323"><ele>705.0</ele><time>2026-04-25T13:50:09.846Z</time></trkpt><trkpt lat="44.4928391" lon="8.0439197"><ele>705.0</ele><time>2026-04-25T13:50:10.85Z</time></trkpt><trkpt lat="44.4927297" lon="8.043886"><ele>705.75</ele><time>2026-04-25T13:50:11.851Z</time></trkpt><trkpt lat="44.4926071" lon="8.0438689"><ele>706.5</ele><time>2026-04-25T13:50:12.845Z</time></trkpt><trkpt lat="44.4924758" lon="8.0438793"><ele>707.25</ele><time>2026-04-25T13:50:13.85Z</time></trkpt><trkpt lat="44.4923339" lon="8.04392"><ele>708.0</ele><time>2026-04-25T13:50:14.847Z</time></trkpt><trkpt lat="44.4921921" lon="8.043987"><ele>709.6666666666666</ele><time>2026-04-25T13:50:15.851Z</time></trkpt><trkpt lat="44.4920436" lon="8.0440668"><ele>711.3333333333333</ele><time>2026-04-25T13:50:16.854Z</time></trkpt><trkpt lat="44.4918946" lon="8.0441563"><ele>713.0</ele><time>2026-04-25T13:50:17.852Z</time></trkpt><trkpt lat="44.4917424" lon="8.0442424"><ele>715.3333333333333</ele><time>2026-04-25T13:50:18.848Z</time></trkpt><trkpt lat="44.4915892" lon="8.0443322"><ele>717.6666666666666</ele><time>2026-04-25T13:50:19.857Z</time></trkpt><trkpt lat="44.4914349" lon="8.0444197"><ele>720.0</ele><time>2026-04-25T13:50:20.854Z</time></trkpt><trkpt lat="44.4912807" lon="8.044505"><ele>722.5</ele><time>2026-04-25T13:50:21.854Z</time></trkpt><trkpt lat="44.4911354" lon="8.0445806"><ele>725.0</ele><time>2026-04-25T13:50:22.852Z</time></trkpt><trkpt lat="44.491005" lon="8.0446703"><ele>727.5</ele><time>2026-04-25T13:50:23.842Z</time></trkpt><trkpt lat="44.4908885" lon="8.0447872"><ele>730.0</ele><time>2026-04-25T13:50:24.845Z</time></trkpt><trkpt lat="44.4907876" lon="8.0449454"><ele>729.6666666666667</ele><time>2026-04-25T13:50:25.848Z</time></trkpt><trkpt lat="44.4907015" lon="8.0451243"><ele>729.3333333333334</ele><time>2026-04-25T13:50:26.839Z</time></trkpt><trkpt lat="44.4906181" lon="8.0453245"><ele>729.0</ele><time>2026-04-25T13:50:27.837Z</time></trkpt><trkpt lat="44.4905334" lon="8.0455277"><ele>729.0</ele><time>2026-04-25T13:50:28.844Z</time></trkpt><trkpt lat="44.49045" lon="8.0457312"><ele>729.0</ele><time>2026-04-25T13:50:29.849Z</time></trkpt><trkpt lat="44.4903641" lon="8.0459252"><ele>729.0</ele><time>2026-04-25T13:50:30.84Z</time></trkpt><trkpt lat="44.4902615" lon="8.0461067"><ele>736.0</ele><time>2026-04-25T13:50:31.84Z</time></trkpt><trkpt lat="44.4901358" lon="8.0462634"><ele>743.0</ele><time>2026-04-25T13:50:32.85Z</time></trkpt><trkpt lat="44.4900126" lon="8.0463993"><ele>750.0</ele><time>2026-04-25T13:50:33.855Z</time></trkpt><trkpt lat="44.489894" lon="8.0465079"><ele>750.0</ele><time>2026-04-25T13:50:34.853Z</time></trkpt><trkpt lat="44.4897755" lon="8.0465714"><ele>750.0</ele><time>2026-04-25T13:50:35.848Z</time></trkpt><trkpt lat="44.489656" lon="8.0465804"><ele>750.0</ele><time>2026-04-25T13:50:36.846Z</time></trkpt><trkpt lat="44.4895435" lon="8.0465269"><ele>750.0</ele><time>2026-04-25T13:50:37.839Z</time></trkpt><trkpt lat="44.4894327" lon="8.0464431"><ele>748.25</ele><time>2026-04-25T13:50:38.846Z</time></trkpt><trkpt lat="44.4893232" lon="8.0463291"><ele>746.5</ele><time>2026-04-25T13:50:39.852Z</time></trkpt><trkpt lat="44.4892179" lon="8.046187"><ele>744.75</ele><time>2026-04-25T13:50:40.854Z</time></trkpt><trkpt lat="44.4891272" lon="8.0460286"><ele>743.0</ele><time>2026-04-25T13:50:41.84Z</time></trkpt><trkpt lat="44.4890387" lon="8.0458842"><ele>745.75</ele><time>2026-04-25T13:50:42.85Z</time></trkpt><trkpt lat="44.4889268" lon="8.045774"><ele>748.5</ele><time>2026-04-25T13:50:43.855Z</time></trkpt><trkpt lat="44.4888079" lon="8.0457053"><ele>751.25</ele><time>2026-04-25T13:50:44.843Z</time></trkpt><trkpt lat="44.4886586" lon="8.0456924"><ele>754.0</ele><time>2026-04-25T13:50:45.846Z</time></trkpt><trkpt lat="44.4885275" lon="8.0456855"><ele>754.25</ele><time>2026-04-25T13:50:46.846Z</time></trkpt><trkpt lat="44.488395" lon="8.0456649"><ele>754.5</ele><time>2026-04-25T13:50:47.845Z</time></trkpt><trkpt lat="44.4882678" lon="8.0456187"><ele>754.75</ele><time>2026-04-25T13:50:48.849Z</time></trkpt><trkpt lat="44.4881537" lon="8.0455321"><ele>755.0</ele><time>2026-04-25T13:50:49.852Z</time></trkpt><trkpt lat="44.4880594" lon="8.0453966"><ele>755.0</ele><time>2026-04-25T13:50:50.853Z</time></trkpt><trkpt lat="44.4879827" lon="8.0452369"><ele>755.0</ele><time>2026-04-25T13:50:51.857Z</time></trkpt><trkpt lat="44.4879071" lon="8.045087"><ele>755.0</ele><time>2026-04-25T13:50:52.845Z</time></trkpt><trkpt lat="44.487819" lon="8.0449579"><ele>755.0</ele><time>2026-04-25T13:50:53.853Z</time></trkpt><trkpt lat="44.4877132" lon="8.0448579"><ele>758.75</ele><time>2026-04-25T13:50:54.843Z</time></trkpt><trkpt lat="44.4876018" lon="8.0447957"><ele>762.5</ele><time>2026-04-25T13:50:55.848Z</time></trkpt><trkpt lat="44.4874771" lon="8.0447881"><ele>766.25</ele><time>2026-04-25T13:50:56.839Z</time></trkpt><trkpt lat="44.4873625" lon="8.0448157"><ele>770.0</ele><time>2026-04-25T13:50:57.855Z</time></trkpt><trkpt lat="44.4872623" lon="8.0448887"><ele>770.0</ele><time>2026-04-25T13:50:58.857Z</time></trkpt><trkpt lat="44.4871881" lon="8.0449459"><ele>770.0</ele><time>2026-04-25T13:50:59.841Z</time></trkpt><trkpt lat="44.4871321" lon="8.0449894"><ele>770.0</ele><time>2026-04-25T13:51:00.846Z</time></trkpt><trkpt lat="44.4870265" lon="8.0450442"><ele>770.0</ele><time>2026-04-25T13:51:02.843Z</time></trkpt><trkpt lat="44.4868948" lon="8.045059"><ele>770.0</ele><time>2026-04-25T13:51:04.847Z</time></trkpt><trkpt lat="44.4868108" lon="8.0450423"><ele>771.75</ele><time>2026-04-25T13:51:05.846Z</time></trkpt><trkpt lat="44.4867158" lon="8.0450241"><ele>773.5</ele><time>2026-04-25T13:51:06.85Z</time></trkpt><trkpt lat="44.4865852" lon="8.0449953"><ele>775.25</ele><time>2026-04-25T13:51:07.848Z</time></trkpt><trkpt lat="44.4864324" lon="8.0449422"><ele>777.0</ele><time>2026-04-25T13:51:08.856Z</time></trkpt><trkpt lat="44.486274" lon="8.0449022"><ele>776.0</ele><time>2026-04-25T13:51:09.853Z</time></trkpt><trkpt lat="44.4861198" lon="8.0448583"><ele>775.0</ele><time>2026-04-25T13:51:10.849Z</time></trkpt><trkpt lat="44.4859701" lon="8.044795"><ele>774.0</ele><time>2026-04-25T13:51:11.847Z</time></trkpt><trkpt lat="44.485831" lon="8.0447383"><ele>774.0</ele><time>2026-04-25T13:51:12.859Z</time></trkpt><trkpt lat="44.4856744" lon="8.0447604"><ele>774.0</ele><time>2026-04-25T13:51:13.85Z</time></trkpt><trkpt lat="44.4855144" lon="8.0447999"><ele>774.0</ele><time>2026-04-25T13:51:14.854Z</time></trkpt><trkpt lat="44.4853536" lon="8.0448473"><ele>773.25</ele><time>2026-04-25T13:51:15.836Z</time></trkpt><trkpt lat="44.4852075" lon="8.0448901"><ele>772.5</ele><time>2026-04-25T13:51:16.856Z</time></trkpt><trkpt lat="44.485073" lon="8.0449396"><ele>771.75</ele><time>2026-04-25T13:51:17.841Z</time></trkpt><trkpt lat="44.4849615" lon="8.0450146"><ele>771.0</ele><time>2026-04-25T13:51:18.842Z</time></trkpt><trkpt lat="44.4848647" lon="8.0451381"><ele>770.75</ele><time>2026-04-25T13:51:19.841Z</time></trkpt><trkpt lat="44.4847791" lon="8.0452964"><ele>770.5</ele><time>2026-04-25T13:51:20.85Z</time></trkpt><trkpt lat="44.4847108" lon="8.0454501"><ele>770.25</ele><time>2026-04-25T13:51:21.853Z</time></trkpt><trkpt lat="44.4846423" lon="8.0455888"><ele>770.0</ele><time>2026-04-25T13:51:22.85Z</time></trkpt><trkpt lat="44.484565" lon="8.0456961"><ele>770.0</ele><time>2026-04-25T13:51:23.853Z</time></trkpt><trkpt lat="44.4844708" lon="8.0457643"><ele>770.0</ele><time>2026-04-25T13:51:24.852Z</time></trkpt><trkpt lat="44.4843635" lon="8.0457788"><ele>770.0</ele><time>2026-04-25T13:51:25.84Z</time></trkpt><trkpt lat="44.4842497" lon="8.0457393"><ele>770.0</ele><time>2026-04-25T13:51:26.85Z</time></trkpt><trkpt lat="44.4841273" lon="8.0456728"><ele>770.0</ele><time>2026-04-25T13:51:27.844Z</time></trkpt><trkpt lat="44.4839993" lon="8.0455945"><ele>770.0</ele><time>2026-04-25T13:51:28.846Z</time></trkpt><trkpt lat="44.4838658" lon="8.045514"><ele>770.0</ele><time>2026-04-25T13:51:29.855Z</time></trkpt><trkpt lat="44.4837254" lon="8.0454369"><ele>770.0</ele><time>2026-04-25T13:51:30.841Z</time></trkpt><trkpt lat="44.4835821" lon="8.0453901"><ele>767.0</ele><time>2026-04-25T13:51:31.848Z</time></trkpt><trkpt lat="44.4834252" lon="8.0453901"><ele>764.0</ele><time>2026-04-25T13:51:32.856Z</time></trkpt><trkpt lat="44.4832741" lon="8.045445"><ele>761.0</ele><time>2026-04-25T13:51:33.848Z</time></trkpt><trkpt lat="44.4831205" lon="8.045544"><ele>761.0</ele><time>2026-04-25T13:51:34.841Z</time></trkpt><trkpt lat="44.4829674" lon="8.045652"><ele>761.0</ele><time>2026-04-25T13:51:35.837Z</time></trkpt><trkpt lat="44.4828148" lon="8.0457688"><ele>761.0</ele><time>2026-04-25T13:51:36.851Z</time></trkpt><trkpt lat="44.4826591" lon="8.0458863"><ele>759.3333333333333</ele><time>2026-04-25T13:51:37.85Z</time></trkpt><trkpt lat="44.4825018" lon="8.0460076"><ele>757.6666666666666</ele><time>2026-04-25T13:51:38.841Z</time></trkpt><trkpt lat="44.4823476" lon="8.0461273"><ele>756.0</ele><time>2026-04-25T13:51:39.846Z</time></trkpt><trkpt lat="44.4821977" lon="8.0462447"><ele>754.6666666666666</ele><time>2026-04-25T13:51:40.858Z</time></trkpt><trkpt lat="44.4820497" lon="8.0463496"><ele>753.3333333333333</ele><time>2026-04-25T13:51:41.853Z</time></trkpt><trkpt lat="44.4819071" lon="8.0464198"><ele>752.0</ele><time>2026-04-25T13:51:42.837Z</time></trkpt><trkpt lat="44.4817594" lon="8.0464439"><ele>752.0</ele><time>2026-04-25T13:51:43.848Z</time></trkpt><trkpt lat="44.4816064" lon="8.0464172"><ele>752.0</ele><time>2026-04-25T13:51:44.855Z</time></trkpt><trkpt lat="44.481453" lon="8.0463453"><ele>752.0</ele><time>2026-04-25T13:51:45.851Z</time></trkpt><trkpt lat="44.4813012" lon="8.0462511"><ele>752.3333333333333</ele><time>2026-04-25T13:51:46.839Z</time></trkpt><trkpt lat="44.4811472" lon="8.0461501"><ele>752.6666666666666</ele><time>2026-04-25T13:51:47.856Z</time></trkpt><trkpt lat="44.4809844" lon="8.0460612"><ele>753.0</ele><time>2026-04-25T13:51:48.852Z</time></trkpt><trkpt lat="44.4808137" lon="8.0460114"><ele>753.0</ele><time>2026-04-25T13:51:49.843Z</time></trkpt><trkpt lat="44.4806285" lon="8.0460041"><ele>753.0</ele><time>2026-04-25T13:51:50.838Z</time></trkpt><trkpt lat="44.4804475" lon="8.0460068"><ele>753.0</ele><time>2026-04-25T13:51:51.855Z</time></trkpt><trkpt lat="44.480265" lon="8.0460114"><ele>753.0</ele><time>2026-04-25T13:51:52.851Z</time></trkpt><trkpt lat="44.4800821" lon="8.046025"><ele>753.0</ele><time>2026-04-25T13:51:53.842Z</time></trkpt><trkpt lat="44.479908" lon="8.046036"><ele>753.0</ele><time>2026-04-25T13:51:54.844Z</time></trkpt><trkpt lat="44.4797341" lon="8.0460495"><ele>752.6666666666666</ele><time>2026-04-25T13:51:55.853Z</time></trkpt><trkpt lat="44.4795622" lon="8.046062"><ele>752.3333333333333</ele><time>2026-04-25T13:51:56.851Z</time></trkpt><trkpt lat="44.4793876" lon="8.0460762"><ele>752.0</ele><time>2026-04-25T13:51:57.847Z</time></trkpt><trkpt lat="44.4792181" lon="8.0461003"><ele>752.0</ele><time>2026-04-25T13:51:58.836Z</time></trkpt><trkpt lat="44.4790536" lon="8.0461154"><ele>752.0</ele><time>2026-04-25T13:51:59.847Z</time></trkpt><trkpt lat="44.4788954" lon="8.0461271"><ele>752.0</ele><time>2026-04-25T13:52:00.851Z</time></trkpt><trkpt lat="44.478739" lon="8.0461096"><ele>753.3333333333333</ele><time>2026-04-25T13:52:01.849Z</time></trkpt><trkpt lat="44.4785825" lon="8.046053"><ele>754.6666666666666</ele><time>2026-04-25T13:52:02.839Z</time></trkpt><trkpt lat="44.4784151" lon="8.0459726"><ele>756.0</ele><time>2026-04-25T13:52:03.851Z</time></trkpt><trkpt lat="44.4782544" lon="8.0458896"><ele>756.0</ele><time>2026-04-25T13:52:04.855Z</time></trkpt><trkpt lat="44.4781062" lon="8.0458046"><ele>756.0</ele><time>2026-04-25T13:52:05.851Z</time></trkpt><trkpt lat="44.4779674" lon="8.0457223"><ele>756.0</ele><time>2026-04-25T13:52:06.84Z</time></trkpt><trkpt lat="44.4778337" lon="8.0456439"><ele>753.6666666666666</ele><time>2026-04-25T13:52:07.844Z</time></trkpt><trkpt lat="44.4777043" lon="8.0455651"><ele>751.3333333333333</ele><time>2026-04-25T13:52:08.85Z</time></trkpt><trkpt lat="44.4775698" lon="8.0454787"><ele>749.0</ele><time>2026-04-25T13:52:09.853Z</time></trkpt><trkpt lat="44.4774212" lon="8.0453902"><ele>749.0</ele><time>2026-04-25T13:52:10.841Z</time></trkpt><trkpt lat="44.4772689" lon="8.0452965"><ele>749.0</ele><time>2026-04-25T13:52:11.851Z</time></trkpt><trkpt lat="44.4771032" lon="8.0451952"><ele>749.0</ele><time>2026-04-25T13:52:12.85Z</time></trkpt><trkpt lat="44.4769267" lon="8.0450644"><ele>747.3333333333333</ele><time>2026-04-25T13:52:13.854Z</time></trkpt><trkpt lat="44.476748" lon="8.0449019"><ele>745.6666666666666</ele><time>2026-04-25T13:52:14.837Z</time></trkpt><trkpt lat="44.4765672" lon="8.0447164"><ele>744.0</ele><time>2026-04-25T13:52:15.837Z</time></trkpt><trkpt lat="44.4763836" lon="8.0445226"><ele>745.5</ele><time>2026-04-25T13:52:16.852Z</time></trkpt><trkpt lat="44.4761941" lon="8.0443218"><ele>747.0</ele><time>2026-04-25T13:52:17.841Z</time></trkpt><trkpt lat="44.4760065" lon="8.0441001"><ele>747.0</ele><time>2026-04-25T13:52:18.841Z</time></trkpt><trkpt lat="44.4758229" lon="8.0438623"><ele>747.0</ele><time>2026-04-25T13:52:19.847Z</time></trkpt><trkpt lat="44.475647" lon="8.0436095"><ele>747.0</ele><time>2026-04-25T13:52:20.855Z</time></trkpt><trkpt lat="44.4754702" lon="8.0433643"><ele>747.0</ele><time>2026-04-25T13:52:21.847Z</time></trkpt><trkpt lat="44.4752925" lon="8.0431178"><ele>750.5</ele><time>2026-04-25T13:52:22.843Z</time></trkpt><trkpt lat="44.4751185" lon="8.0428831"><ele>754.0</ele><time>2026-04-25T13:52:23.837Z</time></trkpt><trkpt lat="44.474949" lon="8.0426601"><ele>754.0</ele><time>2026-04-25T13:52:24.849Z</time></trkpt><trkpt lat="44.4747906" lon="8.0424488"><ele>754.0</ele><time>2026-04-25T13:52:25.85Z</time></trkpt><trkpt lat="44.4746294" lon="8.0422403"><ele>754.0</ele><time>2026-04-25T13:52:26.841Z</time></trkpt><trkpt lat="44.4744614" lon="8.0420432"><ele>754.0</ele><time>2026-04-25T13:52:27.845Z</time></trkpt><trkpt lat="44.4742744" lon="8.0418612"><ele>754.0</ele><time>2026-04-25T13:52:28.852Z</time></trkpt><trkpt lat="44.4740804" lon="8.0416974"><ele>754.6666666666667</ele><time>2026-04-25T13:52:29.844Z</time></trkpt><trkpt lat="44.4738779" lon="8.0415535"><ele>755.3333333333334</ele><time>2026-04-25T13:52:30.842Z</time></trkpt><trkpt lat="44.4736839" lon="8.0414229"><ele>756.0</ele><time>2026-04-25T13:52:31.837Z</time></trkpt><trkpt lat="44.4735008" lon="8.041302"><ele>756.0</ele><time>2026-04-25T13:52:32.845Z</time></trkpt><trkpt lat="44.4733223" lon="8.0411557"><ele>756.0</ele><time>2026-04-25T13:52:33.849Z</time></trkpt><trkpt lat="44.4731545" lon="8.0409728"><ele>756.0</ele><time>2026-04-25T13:52:34.84Z</time></trkpt><trkpt lat="44.4729977" lon="8.0407601"><ele>757.0</ele><time>2026-04-25T13:52:35.847Z</time></trkpt><trkpt lat="44.472838" lon="8.0405374"><ele>758.0</ele><time>2026-04-25T13:52:36.933Z</time></trkpt><trkpt lat="44.4726769" lon="8.0403065"><ele>758.0</ele><time>2026-04-25T13:52:37.848Z</time></trkpt><trkpt lat="44.4725084" lon="8.0400791"><ele>758.0</ele><time>2026-04-25T13:52:38.844Z</time></trkpt><trkpt lat="44.4723403" lon="8.0398488"><ele>757.0</ele><time>2026-04-25T13:52:39.842Z</time></trkpt><trkpt lat="44.4721735" lon="8.0396189"><ele>756.0</ele><time>2026-04-25T13:52:40.846Z</time></trkpt><trkpt lat="44.4720023" lon="8.0393903"><ele>756.0</ele><time>2026-04-25T13:52:41.857Z</time></trkpt><trkpt lat="44.4718219" lon="8.0391807"><ele>756.0</ele><time>2026-04-25T13:52:42.841Z</time></trkpt><trkpt lat="44.4716239" lon="8.038998"><ele>756.0</ele><time>2026-04-25T13:52:43.847Z</time></trkpt><trkpt lat="44.4714184" lon="8.0388383"><ele>756.0</ele><time>2026-04-25T13:52:44.851Z</time></trkpt><trkpt lat="44.471219" lon="8.0386902"><ele>756.0</ele><time>2026-04-25T13:52:45.844Z</time></trkpt><trkpt lat="44.4710259" lon="8.0385372"><ele>756.0</ele><time>2026-04-25T13:52:46.841Z</time></trkpt><trkpt lat="44.4708432" lon="8.0383593"><ele>756.0</ele><time>2026-04-25T13:52:47.841Z</time></trkpt><trkpt lat="44.4706806" lon="8.0381543"><ele>757.0</ele><time>2026-04-25T13:52:48.854Z</time></trkpt><trkpt lat="44.4705283" lon="8.0379232"><ele>758.0</ele><time>2026-04-25T13:52:49.841Z</time></trkpt><trkpt lat="44.470383" lon="8.0376808"><ele>758.5</ele><time>2026-04-25T13:52:50.846Z</time></trkpt><trkpt lat="44.4702428" lon="8.0374299"><ele>759.0</ele><time>2026-04-25T13:52:51.84Z</time></trkpt><trkpt lat="44.4701064" lon="8.0371723"><ele>759.0</ele><time>2026-04-25T13:52:52.846Z</time></trkpt><trkpt lat="44.4699666" lon="8.0369192"><ele>759.0</ele><time>2026-04-25T13:52:53.835Z</time></trkpt><trkpt lat="44.4698304" lon="8.0366679"><ele>758.6666666666666</ele><time>2026-04-25T13:52:54.846Z</time></trkpt><trkpt lat="44.4697052" lon="8.0364163"><ele>758.3333333333333</ele><time>2026-04-25T13:52:55.844Z</time></trkpt><trkpt lat="44.4695958" lon="8.0361594"><ele>758.0</ele><time>2026-04-25T13:52:56.843Z</time></trkpt><trkpt lat="44.4695122" lon="8.0358851"><ele>760.3333333333333</ele><time>2026-04-25T13:52:57.845Z</time></trkpt><trkpt lat="44.4694604" lon="8.0355986"><ele>762.6666666666666</ele><time>2026-04-25T13:52:58.857Z</time></trkpt><trkpt lat="44.4694226" lon="8.0353155"><ele>765.0</ele><time>2026-04-25T13:52:59.85Z</time></trkpt><trkpt lat="44.4693799" lon="8.0350432"><ele>767.0</ele><time>2026-04-25T13:53:00.846Z</time></trkpt><trkpt lat="44.4693355" lon="8.0348003"><ele>769.0</ele><time>2026-04-25T13:53:01.834Z</time></trkpt><trkpt lat="44.4692736" lon="8.0345876"><ele>771.0</ele><time>2026-04-25T13:53:02.843Z</time></trkpt><trkpt lat="44.4691827" lon="8.0344128"><ele>771.0</ele><time>2026-04-25T13:53:03.84Z</time></trkpt><trkpt lat="44.4690592" lon="8.034265"><ele>771.0</ele><time>2026-04-25T13:53:04.838Z</time></trkpt><trkpt lat="44.46893" lon="8.0341432"><ele>771.0</ele><time>2026-04-25T13:53:05.837Z</time></trkpt><trkpt lat="44.4688158" lon="8.0340173"><ele>769.75</ele><time>2026-04-25T13:53:06.851Z</time></trkpt><trkpt lat="44.4687407" lon="8.0338746"><ele>768.5</ele><time>2026-04-25T13:53:07.849Z</time></trkpt><trkpt lat="44.4686985" lon="8.0337078"><ele>767.25</ele><time>2026-04-25T13:53:08.849Z</time></trkpt><trkpt lat="44.4686882" lon="8.0335203"><ele>766.0</ele><time>2026-04-25T13:53:09.833Z</time></trkpt><trkpt lat="44.4686824" lon="8.0333197"><ele>768.5</ele><time>2026-04-25T13:53:10.851Z</time></trkpt><trkpt lat="44.468669" lon="8.0331302"><ele>771.0</ele><time>2026-04-25T13:53:11.851Z</time></trkpt><trkpt lat="44.4686415" lon="8.0329575"><ele>773.5</ele><time>2026-04-25T13:53:12.855Z</time></trkpt><trkpt lat="44.4685843" lon="8.0328026"><ele>776.0</ele><time>2026-04-25T13:53:13.851Z</time></trkpt><trkpt lat="44.4684956" lon="8.0326694"><ele>776.0</ele><time>2026-04-25T13:53:14.848Z</time></trkpt><trkpt lat="44.4683882" lon="8.0325623"><ele>776.0</ele><time>2026-04-25T13:53:15.846Z</time></trkpt><trkpt lat="44.4682671" lon="8.0324846"><ele>776.0</ele><time>2026-04-25T13:53:16.859Z</time></trkpt><trkpt lat="44.4680995" lon="8.0325508"><ele>776.0</ele><time>2026-04-25T13:53:17.846Z</time></trkpt><trkpt lat="44.4679505" lon="8.0326007"><ele>777.6666666666667</ele><time>2026-04-25T13:53:18.838Z</time></trkpt><trkpt lat="44.4677892" lon="8.0326809"><ele>779.3333333333333</ele><time>2026-04-25T13:53:19.843Z</time></trkpt><trkpt lat="44.4676153" lon="8.0327878"><ele>781.0</ele><time>2026-04-25T13:53:20.856Z</time></trkpt><trkpt lat="44.4674297" lon="8.0328992"><ele>781.0</ele><time>2026-04-25T13:53:21.85Z</time></trkpt><trkpt lat="44.4672398" lon="8.033011"><ele>781.0</ele><time>2026-04-25T13:53:22.849Z</time></trkpt><trkpt lat="44.4670517" lon="8.0331093"><ele>781.0</ele><time>2026-04-25T13:53:23.846Z</time></trkpt><trkpt lat="44.4668571" lon="8.0331986"><ele>777.6666666666666</ele><time>2026-04-25T13:53:24.85Z</time></trkpt><trkpt lat="44.4666612" lon="8.0332752"><ele>774.3333333333333</ele><time>2026-04-25T13:53:25.842Z</time></trkpt><trkpt lat="44.4664725" lon="8.0333415"><ele>771.0</ele><time>2026-04-25T13:53:26.853Z</time></trkpt><trkpt lat="44.4662932" lon="8.0334071"><ele>768.3333333333334</ele><time>2026-04-25T13:53:27.842Z</time></trkpt><trkpt lat="44.4661246" lon="8.0335045"><ele>765.6666666666667</ele><time>2026-04-25T13:53:28.847Z</time></trkpt><trkpt lat="44.4659675" lon="8.0336473"><ele>763.0</ele><time>2026-04-25T13:53:29.842Z</time></trkpt><trkpt lat="44.465818" lon="8.0338124"><ele>763.0</ele><time>2026-04-25T13:53:30.85Z</time></trkpt><trkpt lat="44.4656667" lon="8.0339802"><ele>763.0</ele><time>2026-04-25T13:53:31.846Z</time></trkpt><trkpt lat="44.4655134" lon="8.0341511"><ele>763.0</ele><time>2026-04-25T13:53:32.854Z</time></trkpt><trkpt lat="44.4653594" lon="8.0343189"><ele>762.6666666666667</ele><time>2026-04-25T13:53:33.841Z</time></trkpt><trkpt lat="44.4652037" lon="8.0344811"><ele>762.3333333333334</ele><time>2026-04-25T13:53:34.852Z</time></trkpt><trkpt lat="44.4650365" lon="8.034629"><ele>762.0</ele><time>2026-04-25T13:53:35.851Z</time></trkpt><trkpt lat="44.4648737" lon="8.0347503"><ele>762.0</ele><time>2026-04-25T13:53:36.846Z</time></trkpt><trkpt lat="44.4647198" lon="8.0348509"><ele>762.0</ele><time>2026-04-25T13:53:37.852Z</time></trkpt><trkpt lat="44.4645821" lon="8.0349391"><ele>762.0</ele><time>2026-04-25T13:53:38.856Z</time></trkpt><trkpt lat="44.4644621" lon="8.0350205"><ele>763.75</ele><time>2026-04-25T13:53:39.857Z</time></trkpt><trkpt lat="44.4643446" lon="8.0351006"><ele>765.5</ele><time>2026-04-25T13:53:40.847Z</time></trkpt><trkpt lat="44.4642364" lon="8.0351746"><ele>767.25</ele><time>2026-04-25T13:53:41.849Z</time></trkpt><trkpt lat="44.4641303" lon="8.0352423"><ele>769.0</ele><time>2026-04-25T13:53:42.85Z</time></trkpt><trkpt lat="44.4640173" lon="8.0353157"><ele>769.0</ele><time>2026-04-25T13:53:43.84Z</time></trkpt><trkpt lat="44.4639003" lon="8.0353894"><ele>769.0</ele><time>2026-04-25T13:53:44.846Z</time></trkpt><trkpt lat="44.4637802" lon="8.0354616"><ele>769.0</ele><time>2026-04-25T13:53:45.841Z</time></trkpt><trkpt lat="44.4636526" lon="8.0355434"><ele>769.0</ele><time>2026-04-25T13:53:46.849Z</time></trkpt><trkpt lat="44.463515" lon="8.0356278"><ele>766.6666666666666</ele><time>2026-04-25T13:53:47.85Z</time></trkpt><trkpt lat="44.4633657" lon="8.035696"><ele>764.3333333333333</ele><time>2026-04-25T13:53:48.85Z</time></trkpt><trkpt lat="44.4632058" lon="8.0357289"><ele>762.0</ele><time>2026-04-25T13:53:49.838Z</time></trkpt><trkpt lat="44.4630371" lon="8.035745"><ele>762.0</ele><time>2026-04-25T13:53:50.849Z</time></trkpt><trkpt lat="44.4628599" lon="8.0357646"><ele>762.0</ele><time>2026-04-25T13:53:51.847Z</time></trkpt><trkpt lat="44.4626732" lon="8.0358234"><ele>762.0</ele><time>2026-04-25T13:53:52.851Z</time></trkpt><trkpt lat="44.4624879" lon="8.0359154"><ele>768.6666666666667</ele><time>2026-04-25T13:53:53.839Z</time></trkpt><trkpt lat="44.4622948" lon="8.0360143"><ele>775.3333333333334</ele><time>2026-04-25T13:53:54.848Z</time></trkpt><trkpt lat="44.4621017" lon="8.0361081"><ele>782.0</ele><time>2026-04-25T13:53:55.851Z</time></trkpt><trkpt lat="44.4619268" lon="8.0361952"><ele>782.0</ele><time>2026-04-25T13:53:56.845Z</time></trkpt><trkpt lat="44.461761" lon="8.0362687"><ele>782.0</ele><time>2026-04-25T13:53:57.84Z</time></trkpt><trkpt lat="44.4616017" lon="8.0363321"><ele>782.0</ele><time>2026-04-25T13:53:58.852Z</time></trkpt><trkpt lat="44.4614521" lon="8.0363881"><ele>782.0</ele><time>2026-04-25T13:53:59.848Z</time></trkpt><trkpt lat="44.4613149" lon="8.0364293"><ele>782.0</ele><time>2026-04-25T13:54:00.84Z</time></trkpt><trkpt lat="44.4611874" lon="8.0364772"><ele>782.0</ele><time>2026-04-25T13:54:01.856Z</time></trkpt><trkpt lat="44.4610751" lon="8.0365278"><ele>782.0</ele><time>2026-04-25T13:54:02.843Z</time></trkpt><trkpt lat="44.4609783" lon="8.0365833"><ele>785.25</ele><time>2026-04-25T13:54:03.851Z</time></trkpt><trkpt lat="44.4608895" lon="8.0366592"><ele>788.5</ele><time>2026-04-25T13:54:04.85Z</time></trkpt><trkpt lat="44.4608136" lon="8.0367682"><ele>791.75</ele><time>2026-04-25T13:54:05.841Z</time></trkpt><trkpt lat="44.4607484" lon="8.0369008"><ele>795.0</ele><time>2026-04-25T13:54:06.844Z</time></trkpt><trkpt lat="44.4606874" lon="8.0370531"><ele>795.0</ele><time>2026-04-25T13:54:07.854Z</time></trkpt><trkpt lat="44.4606193" lon="8.0372068"><ele>795.0</ele><time>2026-04-25T13:54:08.846Z</time></trkpt><trkpt lat="44.4605385" lon="8.0373438"><ele>795.0</ele><time>2026-04-25T13:54:09.842Z</time></trkpt><trkpt lat="44.4604432" lon="8.037474"><ele>795.0</ele><time>2026-04-25T13:54:10.852Z</time></trkpt><trkpt lat="44.4603403" lon="8.0376004"><ele>793.5</ele><time>2026-04-25T13:54:11.849Z</time></trkpt><trkpt lat="44.4602268" lon="8.0377253"><ele>792.0</ele><time>2026-04-25T13:54:12.848Z</time></trkpt><trkpt lat="44.4601041" lon="8.0378414"><ele>790.5</ele><time>2026-04-25T13:54:13.849Z</time></trkpt><trkpt lat="44.4599744" lon="8.0379412"><ele>789.0</ele><time>2026-04-25T13:54:14.857Z</time></trkpt><trkpt lat="44.4598282" lon="8.0380122"><ele>789.0</ele><time>2026-04-25T13:54:15.843Z</time></trkpt><trkpt lat="44.4596795" lon="8.0380631"><ele>789.0</ele><time>2026-04-25T13:54:16.853Z</time></trkpt><trkpt lat="44.4595328" lon="8.0380978"><ele>789.0</ele><time>2026-04-25T13:54:17.846Z</time></trkpt><trkpt lat="44.4593927" lon="8.0381163"><ele>789.0</ele><time>2026-04-25T13:54:18.855Z</time></trkpt><trkpt lat="44.4592575" lon="8.0381339"><ele>786.75</ele><time>2026-04-25T13:54:19.854Z</time></trkpt><trkpt lat="44.4591192" lon="8.0381299"><ele>784.5</ele><time>2026-04-25T13:54:20.848Z</time></trkpt><trkpt lat="44.458981" lon="8.0381007"><ele>782.25</ele><time>2026-04-25T13:54:21.837Z</time></trkpt><trkpt lat="44.4588465" lon="8.0380677"><ele>780.0</ele><time>2026-04-25T13:54:22.851Z</time></trkpt><trkpt lat="44.4587223" lon="8.0380371"><ele>779.6</ele><time>2026-04-25T13:54:23.85Z</time></trkpt><trkpt lat="44.4586081" lon="8.0380184"><ele>779.2</ele><time>2026-04-25T13:54:24.845Z</time></trkpt><trkpt lat="44.4585027" lon="8.0380144"><ele>778.8</ele><time>2026-04-25T13:54:25.846Z</time></trkpt><trkpt lat="44.4584003" lon="8.0380432"><ele>778.4</ele><time>2026-04-25T13:54:26.854Z</time></trkpt><trkpt lat="44.4583037" lon="8.0380877"><ele>778.0</ele><time>2026-04-25T13:54:27.851Z</time></trkpt><trkpt lat="44.4582132" lon="8.0381575"><ele>778.0</ele><time>2026-04-25T13:54:28.847Z</time></trkpt><trkpt lat="44.4581361" lon="8.0382671"><ele>778.0</ele><time>2026-04-25T13:54:29.844Z</time></trkpt><trkpt lat="44.4580876" lon="8.0384098"><ele>778.0</ele><time>2026-04-25T13:54:30.838Z</time></trkpt><trkpt lat="44.4580675" lon="8.0385735"><ele>778.0</ele><time>2026-04-25T13:54:31.835Z</time></trkpt><trkpt lat="44.4580716" lon="8.0387502"><ele>780.75</ele><time>2026-04-25T13:54:32.846Z</time></trkpt><trkpt lat="44.4581083" lon="8.038907"><ele>783.5</ele><time>2026-04-25T13:54:33.855Z</time></trkpt><trkpt lat="44.4581546" lon="8.039063"><ele>786.25</ele><time>2026-04-25T13:54:34.851Z</time></trkpt><trkpt lat="44.4582058" lon="8.0392169"><ele>789.0</ele><time>2026-04-25T13:54:35.849Z</time></trkpt><trkpt lat="44.4582564" lon="8.0393786"><ele>789.0</ele><time>2026-04-25T13:54:36.843Z</time></trkpt><trkpt lat="44.4583059" lon="8.0395581"><ele>789.0</ele><time>2026-04-25T13:54:37.841Z</time></trkpt><trkpt lat="44.4583517" lon="8.0397442"><ele>789.0</ele><time>2026-04-25T13:54:38.844Z</time></trkpt><trkpt lat="44.4583812" lon="8.0399383"><ele>789.0</ele><time>2026-04-25T13:54:39.846Z</time></trkpt><trkpt lat="44.4583956" lon="8.0401378"><ele>786.75</ele><time>2026-04-25T13:54:40.845Z</time></trkpt><trkpt lat="44.4583947" lon="8.0403385"><ele>784.5</ele><time>2026-04-25T13:54:41.854Z</time></trkpt><trkpt lat="44.4583751" lon="8.04054"><ele>782.25</ele><time>2026-04-25T13:54:42.848Z</time></trkpt><trkpt lat="44.4583498" lon="8.0407395"><ele>780.0</ele><time>2026-04-25T13:54:43.844Z</time></trkpt><trkpt lat="44.4583275" lon="8.0409396"><ele>779.25</ele><time>2026-04-25T13:54:44.844Z</time></trkpt><trkpt lat="44.4582926" lon="8.041133"><ele>778.5</ele><time>2026-04-25T13:54:45.839Z</time></trkpt><trkpt lat="44.4582392" lon="8.0413169"><ele>777.75</ele><time>2026-04-25T13:54:46.84Z</time></trkpt><trkpt lat="44.4581653" lon="8.0414966"><ele>777.0</ele><time>2026-04-25T13:54:47.846Z</time></trkpt><trkpt lat="44.4580885" lon="8.0416707"><ele>776.25</ele><time>2026-04-25T13:54:48.844Z</time></trkpt><trkpt lat="44.4580101" lon="8.0418297"><ele>775.5</ele><time>2026-04-25T13:54:49.853Z</time></trkpt><trkpt lat="44.4579204" lon="8.0419809"><ele>774.75</ele><time>2026-04-25T13:54:50.849Z</time></trkpt><trkpt lat="44.4578261" lon="8.0421188"><ele>774.0</ele><time>2026-04-25T13:54:51.845Z</time></trkpt><trkpt lat="44.4577247" lon="8.0422475"><ele>772.25</ele><time>2026-04-25T13:54:52.847Z</time></trkpt><trkpt lat="44.4576195" lon="8.0423685"><ele>770.5</ele><time>2026-04-25T13:54:53.839Z</time></trkpt><trkpt lat="44.4575118" lon="8.042492"><ele>768.75</ele><time>2026-04-25T13:54:54.846Z</time></trkpt><trkpt lat="44.4574098" lon="8.0426131"><ele>767.0</ele><time>2026-04-25T13:54:55.852Z</time></trkpt><trkpt lat="44.4573128" lon="8.0427362"><ele>767.0</ele><time>2026-04-25T13:54:56.842Z</time></trkpt><trkpt lat="44.457219" lon="8.0428649"><ele>767.0</ele><time>2026-04-25T13:54:57.837Z</time></trkpt><trkpt lat="44.4571275" lon="8.0430132"><ele>767.0</ele><time>2026-04-25T13:54:58.837Z</time></trkpt><trkpt lat="44.457049" lon="8.0432063"><ele>767.0</ele><time>2026-04-25T13:54:59.845Z</time></trkpt><trkpt lat="44.4569837" lon="8.0434266"><ele>765.3333333333333</ele><time>2026-04-25T13:55:00.841Z</time></trkpt><trkpt lat="44.456918" lon="8.0436728"><ele>763.6666666666666</ele><time>2026-04-25T13:55:01.845Z</time></trkpt><trkpt lat="44.4568431" lon="8.0439223"><ele>762.0</ele><time>2026-04-25T13:55:02.839Z</time></trkpt><trkpt lat="44.4567432" lon="8.044163"><ele>762.0</ele><time>2026-04-25T13:55:03.848Z</time></trkpt><trkpt lat="44.4566201" lon="8.0443969"><ele>762.0</ele><time>2026-04-25T13:55:04.84Z</time></trkpt><trkpt lat="44.4564923" lon="8.0446383"><ele>762.0</ele><time>2026-04-25T13:55:05.845Z</time></trkpt><trkpt lat="44.4563644" lon="8.0448798"><ele>758.0</ele><time>2026-04-25T13:55:06.84Z</time></trkpt><trkpt lat="44.4562384" lon="8.0451178"><ele>754.0</ele><time>2026-04-25T13:55:07.839Z</time></trkpt><trkpt lat="44.4561149" lon="8.0453566"><ele>750.0</ele><time>2026-04-25T13:55:08.841Z</time></trkpt><trkpt lat="44.4560014" lon="8.0455921"><ele>753.0</ele><time>2026-04-25T13:55:09.837Z</time></trkpt><trkpt lat="44.4558971" lon="8.045822"><ele>756.0</ele><time>2026-04-25T13:55:10.85Z</time></trkpt><trkpt lat="44.4557871" lon="8.046033"><ele>759.0</ele><time>2026-04-25T13:55:11.846Z</time></trkpt><trkpt lat="44.4556605" lon="8.0462148"><ele>759.0</ele><time>2026-04-25T13:55:12.848Z</time></trkpt><trkpt lat="44.455517" lon="8.0463565"><ele>759.0</ele><time>2026-04-25T13:55:13.845Z</time></trkpt><trkpt lat="44.4553754" lon="8.0464651"><ele>759.0</ele><time>2026-04-25T13:55:14.853Z</time></trkpt><trkpt lat="44.4552481" lon="8.0465736"><ele>759.0</ele><time>2026-04-25T13:55:15.85Z</time></trkpt><trkpt lat="44.4551415" lon="8.046731"><ele>759.0</ele><time>2026-04-25T13:55:16.844Z</time></trkpt><trkpt lat="44.4550691" lon="8.0469264"><ele>759.0</ele><time>2026-04-25T13:55:17.837Z</time></trkpt><trkpt lat="44.4550133" lon="8.047152"><ele>759.0</ele><time>2026-04-25T13:55:18.841Z</time></trkpt><trkpt lat="44.4549737" lon="8.0473954"><ele>759.0</ele><time>2026-04-25T13:55:19.842Z</time></trkpt><trkpt lat="44.4549178" lon="8.0476566"><ele>759.0</ele><time>2026-04-25T13:55:20.848Z</time></trkpt><trkpt lat="44.4548493" lon="8.0479208"><ele>761.0</ele><time>2026-04-25T13:55:21.854Z</time></trkpt><trkpt lat="44.4547707" lon="8.0481714"><ele>763.0</ele><time>2026-04-25T13:55:22.838Z</time></trkpt><trkpt lat="44.454674" lon="8.0484161"><ele>765.0</ele><time>2026-04-25T13:55:23.846Z</time></trkpt><trkpt lat="44.4545633" lon="8.04865"><ele>764.6666666666666</ele><time>2026-04-25T13:55:24.843Z</time></trkpt><trkpt lat="44.4544593" lon="8.0488882"><ele>764.3333333333333</ele><time>2026-04-25T13:55:25.845Z</time></trkpt><trkpt lat="44.4543683" lon="8.049125"><ele>764.0</ele><time>2026-04-25T13:55:26.84Z</time></trkpt><trkpt lat="44.4542837" lon="8.0493516"><ele>764.0</ele><time>2026-04-25T13:55:27.844Z</time></trkpt><trkpt lat="44.4542043" lon="8.0495605"><ele>764.0</ele><time>2026-04-25T13:55:28.855Z</time></trkpt><trkpt lat="44.4541316" lon="8.0497616"><ele>764.0</ele><time>2026-04-25T13:55:29.848Z</time></trkpt><trkpt lat="44.4540567" lon="8.0499535"><ele>762.3333333333333</ele><time>2026-04-25T13:55:30.837Z</time></trkpt><trkpt lat="44.4539682" lon="8.0501337"><ele>760.6666666666666</ele><time>2026-04-25T13:55:31.846Z</time></trkpt><trkpt lat="44.4538657" lon="8.0503034"><ele>759.0</ele><time>2026-04-25T13:55:32.846Z</time></trkpt><trkpt lat="44.4537437" lon="8.0504566"><ele>759.0</ele><time>2026-04-25T13:55:33.85Z</time></trkpt><trkpt lat="44.4536005" lon="8.0505889"><ele>759.0</ele><time>2026-04-25T13:55:34.84Z</time></trkpt><trkpt lat="44.4534472" lon="8.0507076"><ele>759.0</ele><time>2026-04-25T13:55:35.84Z</time></trkpt><trkpt lat="44.4532895" lon="8.0508105"><ele>761.3333333333334</ele><time>2026-04-25T13:55:36.844Z</time></trkpt><trkpt lat="44.4531229" lon="8.0508805"><ele>763.6666666666667</ele><time>2026-04-25T13:55:37.852Z</time></trkpt><trkpt lat="44.4529584" lon="8.0509146"><ele>766.0</ele><time>2026-04-25T13:55:38.849Z</time></trkpt><trkpt lat="44.4527935" lon="8.0509247"><ele>766.0</ele><time>2026-04-25T13:55:39.845Z</time></trkpt><trkpt lat="44.4526377" lon="8.050935"><ele>766.0</ele><time>2026-04-25T13:55:40.851Z</time></trkpt><trkpt lat="44.4524777" lon="8.0509695"><ele>766.0</ele><time>2026-04-25T13:55:41.849Z</time></trkpt><trkpt lat="44.4523321" lon="8.0510291"><ele>766.0</ele><time>2026-04-25T13:55:42.846Z</time></trkpt><trkpt lat="44.4522015" lon="8.0511171"><ele>766.0</ele><time>2026-04-25T13:55:43.85Z</time></trkpt><trkpt lat="44.4520853" lon="8.0512472"><ele>766.0</ele><time>2026-04-25T13:55:44.847Z</time></trkpt><trkpt lat="44.4519847" lon="8.0514008"><ele>766.0</ele><time>2026-04-25T13:55:45.848Z</time></trkpt><trkpt lat="44.4519112" lon="8.0516148"><ele>763.3333333333334</ele><time>2026-04-25T13:55:46.844Z</time></trkpt><trkpt lat="44.451856" lon="8.0518513"><ele>760.6666666666666</ele><time>2026-04-25T13:55:47.85Z</time></trkpt><trkpt lat="44.4517898" lon="8.0520889"><ele>758.0</ele><time>2026-04-25T13:55:48.846Z</time></trkpt><trkpt lat="44.4517116" lon="8.0523292"><ele>761.3333333333333</ele><time>2026-04-25T13:55:49.844Z</time></trkpt><trkpt lat="44.4516143" lon="8.0525681"><ele>764.6666666666666</ele><time>2026-04-25T13:55:50.844Z</time></trkpt><trkpt lat="44.4515059" lon="8.0527891"><ele>768.0</ele><time>2026-04-25T13:55:51.85Z</time></trkpt><trkpt lat="44.4513971" lon="8.0529979"><ele>768.0</ele><time>2026-04-25T13:55:52.836Z</time></trkpt><trkpt lat="44.451296" lon="8.0531998"><ele>768.0</ele><time>2026-04-25T13:55:53.849Z</time></trkpt><trkpt lat="44.4512061" lon="8.0534161"><ele>768.0</ele><time>2026-04-25T13:55:54.85Z</time></trkpt><trkpt lat="44.4511454" lon="8.0536568"><ele>763.3333333333334</ele><time>2026-04-25T13:55:55.845Z</time></trkpt><trkpt lat="44.4511082" lon="8.0539141"><ele>758.6666666666667</ele><time>2026-04-25T13:55:56.845Z</time></trkpt><trkpt lat="44.4510719" lon="8.0541742"><ele>754.0</ele><time>2026-04-25T13:55:57.847Z</time></trkpt><trkpt lat="44.451021" lon="8.0544231"><ele>754.0</ele><time>2026-04-25T13:55:58.84Z</time></trkpt><trkpt lat="44.4509537" lon="8.0546609"><ele>754.0</ele><time>2026-04-25T13:55:59.852Z</time></trkpt><trkpt lat="44.4508752" lon="8.0548838"><ele>754.0</ele><time>2026-04-25T13:56:00.836Z</time></trkpt><trkpt lat="44.4507766" lon="8.0550943"><ele>755.3333333333334</ele><time>2026-04-25T13:56:01.852Z</time></trkpt><trkpt lat="44.4506656" lon="8.0552898"><ele>756.6666666666666</ele><time>2026-04-25T13:56:02.851Z</time></trkpt><trkpt lat="44.4505406" lon="8.0554651"><ele>758.0</ele><time>2026-04-25T13:56:03.849Z</time></trkpt><trkpt lat="44.4504067" lon="8.0556228"><ele>758.6666666666666</ele><time>2026-04-25T13:56:04.851Z</time></trkpt><trkpt lat="44.450261" lon="8.055761"><ele>759.3333333333334</ele><time>2026-04-25T13:56:05.845Z</time></trkpt><trkpt lat="44.4501004" lon="8.0558728"><ele>760.0</ele><time>2026-04-25T13:56:06.843Z</time></trkpt><trkpt lat="44.4499352" lon="8.0559716"><ele>760.0</ele><time>2026-04-25T13:56:07.848Z</time></trkpt><trkpt lat="44.4497746" lon="8.0560659"><ele>760.0</ele><time>2026-04-25T13:56:08.852Z</time></trkpt><trkpt lat="44.4496182" lon="8.0561522"><ele>760.0</ele><time>2026-04-25T13:56:09.839Z</time></trkpt><trkpt lat="44.4494636" lon="8.0562327"><ele>759.0</ele><time>2026-04-25T13:56:10.838Z</time></trkpt><trkpt lat="44.4493115" lon="8.0563057"><ele>758.0</ele><time>2026-04-25T13:56:11.844Z</time></trkpt><trkpt lat="44.4491586" lon="8.0563548"><ele>757.0</ele><time>2026-04-25T13:56:12.845Z</time></trkpt><trkpt lat="44.4490073" lon="8.0564012"><ele>757.0</ele><time>2026-04-25T13:56:13.837Z</time></trkpt><trkpt lat="44.4488613" lon="8.0564659"><ele>757.0</ele><time>2026-04-25T13:56:14.839Z</time></trkpt><trkpt lat="44.4487171" lon="8.0565547"><ele>757.0</ele><time>2026-04-25T13:56:15.844Z</time></trkpt><trkpt lat="44.4485772" lon="8.0566486"><ele>760.6666666666667</ele><time>2026-04-25T13:56:16.84Z</time></trkpt><trkpt lat="44.4484398" lon="8.0567618"><ele>764.3333333333334</ele><time>2026-04-25T13:56:17.838Z</time></trkpt><trkpt lat="44.448313" lon="8.056885"><ele>768.0</ele><time>2026-04-25T13:56:18.843Z</time></trkpt><trkpt lat="44.4482007" lon="8.0570023"><ele>768.0</ele><time>2026-04-25T13:56:19.845Z</time></trkpt><trkpt lat="44.4480937" lon="8.0571289"><ele>768.0</ele><time>2026-04-25T13:56:20.841Z</time></trkpt><trkpt lat="44.4479923" lon="8.0572609"><ele>768.0</ele><time>2026-04-25T13:56:21.842Z</time></trkpt><trkpt lat="44.447887" lon="8.0573931"><ele>768.0</ele><time>2026-04-25T13:56:22.845Z</time></trkpt><trkpt lat="44.4477851" lon="8.057529"><ele>770.5</ele><time>2026-04-25T13:56:23.839Z</time></trkpt><trkpt lat="44.4476799" lon="8.0576542"><ele>773.0</ele><time>2026-04-25T13:56:24.838Z</time></trkpt><trkpt lat="44.4475744" lon="8.057768"><ele>775.5</ele><time>2026-04-25T13:56:25.843Z</time></trkpt><trkpt lat="44.4474777" lon="8.0578687"><ele>778.0</ele><time>2026-04-25T13:56:26.851Z</time></trkpt><trkpt lat="44.4473854" lon="8.057966"><ele>778.0</ele><time>2026-04-25T13:56:27.841Z</time></trkpt><trkpt lat="44.4473071" lon="8.0580488"><ele>778.0</ele><time>2026-04-25T13:56:28.842Z</time></trkpt><trkpt lat="44.4472322" lon="8.0581241"><ele>778.0</ele><time>2026-04-25T13:56:29.848Z</time></trkpt><trkpt lat="44.4471463" lon="8.0582026"><ele>778.0</ele><time>2026-04-25T13:56:30.839Z</time></trkpt><trkpt lat="44.4470629" lon="8.0582789"><ele>778.0</ele><time>2026-04-25T13:56:31.85Z</time></trkpt><trkpt lat="44.4469801" lon="8.05837"><ele>780.4</ele><time>2026-04-25T13:56:32.846Z</time></trkpt><trkpt lat="44.4468996" lon="8.0584749"><ele>782.8</ele><time>2026-04-25T13:56:33.853Z</time></trkpt><trkpt lat="44.4468277" lon="8.0586018"><ele>785.2</ele><time>2026-04-25T13:56:34.854Z</time></trkpt><trkpt lat="44.4467747" lon="8.0587395"><ele>787.6</ele><time>2026-04-25T13:56:35.851Z</time></trkpt><trkpt lat="44.4467374" lon="8.0588793"><ele>790.0</ele><time>2026-04-25T13:56:36.843Z</time></trkpt><trkpt lat="44.4467212" lon="8.0590203"><ele>790.5</ele><time>2026-04-25T13:56:37.844Z</time></trkpt><trkpt lat="44.4467139" lon="8.059163"><ele>791.0</ele><time>2026-04-25T13:56:38.852Z</time></trkpt><trkpt lat="44.4467158" lon="8.0593162"><ele>791.5</ele><time>2026-04-25T13:56:39.851Z</time></trkpt><trkpt lat="44.4467258" lon="8.059481"><ele>792.0</ele><time>2026-04-25T13:56:40.851Z</time></trkpt><trkpt lat="44.4467401" lon="8.0596577"><ele>792.0</ele><time>2026-04-25T13:56:41.849Z</time></trkpt><trkpt lat="44.4467581" lon="8.0598445"><ele>792.0</ele><time>2026-04-25T13:56:42.838Z</time></trkpt><trkpt lat="44.4467779" lon="8.0600367"><ele>792.0</ele><time>2026-04-25T13:56:43.845Z</time></trkpt><trkpt lat="44.4468021" lon="8.0602236"><ele>792.0</ele><time>2026-04-25T13:56:44.848Z</time></trkpt><trkpt lat="44.4468377" lon="8.0604058"><ele>790.75</ele><time>2026-04-25T13:56:45.838Z</time></trkpt><trkpt lat="44.446891" lon="8.0605823"><ele>789.5</ele><time>2026-04-25T13:56:46.85Z</time></trkpt><trkpt lat="44.4469626" lon="8.0607497"><ele>788.25</ele><time>2026-04-25T13:56:47.85Z</time></trkpt><trkpt lat="44.4470446" lon="8.0609069"><ele>787.0</ele><time>2026-04-25T13:56:48.85Z</time></trkpt><trkpt lat="44.4471228" lon="8.0610571"><ele>786.5</ele><time>2026-04-25T13:56:49.847Z</time></trkpt><trkpt lat="44.4471776" lon="8.0612156"><ele>786.0</ele><time>2026-04-25T13:56:50.854Z</time></trkpt><trkpt lat="44.4472056" lon="8.0613914"><ele>785.5</ele><time>2026-04-25T13:56:51.85Z</time></trkpt><trkpt lat="44.4472072" lon="8.0615779"><ele>785.0</ele><time>2026-04-25T13:56:52.847Z</time></trkpt><trkpt lat="44.4471968" lon="8.0617884"><ele>785.0</ele><time>2026-04-25T13:56:53.839Z</time></trkpt><trkpt lat="44.4471847" lon="8.0619908"><ele>785.0</ele><time>2026-04-25T13:56:54.843Z</time></trkpt><trkpt lat="44.4471717" lon="8.0621898"><ele>785.0</ele><time>2026-04-25T13:56:55.854Z</time></trkpt><trkpt lat="44.4471608" lon="8.0623888"><ele>785.0</ele><time>2026-04-25T13:56:56.852Z</time></trkpt><trkpt lat="44.4471458" lon="8.0625866"><ele>784.5</ele><time>2026-04-25T13:56:57.846Z</time></trkpt><trkpt lat="44.4471353" lon="8.0627869"><ele>784.0</ele><time>2026-04-25T13:56:58.851Z</time></trkpt><trkpt lat="44.4471246" lon="8.0629928"><ele>783.5</ele><time>2026-04-25T13:56:59.854Z</time></trkpt><trkpt lat="44.4471137" lon="8.0631968"><ele>783.0</ele><time>2026-04-25T13:57:00.844Z</time></trkpt><trkpt lat="44.447098" lon="8.0634038"><ele>780.25</ele><time>2026-04-25T13:57:01.834Z</time></trkpt><trkpt lat="44.447087" lon="8.0636104"><ele>777.5</ele><time>2026-04-25T13:57:02.849Z</time></trkpt><trkpt lat="44.4470729" lon="8.0638081"><ele>774.75</ele><time>2026-04-25T13:57:03.85Z</time></trkpt><trkpt lat="44.447062" lon="8.0639968"><ele>772.0</ele><time>2026-04-25T13:57:04.849Z</time></trkpt><trkpt lat="44.4470472" lon="8.0641838"><ele>772.0</ele><time>2026-04-25T13:57:05.837Z</time></trkpt><trkpt lat="44.4470184" lon="8.0643632"><ele>772.0</ele><time>2026-04-25T13:57:06.852Z</time></trkpt><trkpt lat="44.4469706" lon="8.06453"><ele>772.0</ele><time>2026-04-25T13:57:07.847Z</time></trkpt><trkpt lat="44.4469027" lon="8.0646818"><ele>772.0</ele><time>2026-04-25T13:57:08.847Z</time></trkpt><trkpt lat="44.4468312" lon="8.0648274"><ele>773.75</ele><time>2026-04-25T13:57:09.846Z</time></trkpt><trkpt lat="44.4467648" lon="8.0649759"><ele>775.5</ele><time>2026-04-25T13:57:10.85Z</time></trkpt><trkpt lat="44.4467062" lon="8.0651309"><ele>777.25</ele><time>2026-04-25T13:57:11.847Z</time></trkpt><trkpt lat="44.4466615" lon="8.0652984"><ele>779.0</ele><time>2026-04-25T13:57:12.844Z</time></trkpt><trkpt lat="44.4466304" lon="8.0654751"><ele>779.0</ele><time>2026-04-25T13:57:13.849Z</time></trkpt><trkpt lat="44.4466157" lon="8.0656605"><ele>779.0</ele><time>2026-04-25T13:57:14.84Z</time></trkpt><trkpt lat="44.446612" lon="8.0658558"><ele>779.0</ele><time>2026-04-25T13:57:15.846Z</time></trkpt><trkpt lat="44.4466124" lon="8.0660602"><ele>779.0</ele><time>2026-04-25T13:57:16.848Z</time></trkpt><trkpt lat="44.4466144" lon="8.0662706"><ele>778.5</ele><time>2026-04-25T13:57:17.841Z</time></trkpt><trkpt lat="44.4466183" lon="8.066484"><ele>778.0</ele><time>2026-04-25T13:57:18.848Z</time></trkpt><trkpt lat="44.446624" lon="8.0666932"><ele>777.5</ele><time>2026-04-25T13:57:19.846Z</time></trkpt><trkpt lat="44.4466302" lon="8.0668946"><ele>777.0</ele><time>2026-04-25T13:57:20.852Z</time></trkpt><trkpt lat="44.4466226" lon="8.0671029"><ele>777.0</ele><time>2026-04-25T13:57:21.854Z</time></trkpt><trkpt lat="44.4465917" lon="8.0673116"><ele>777.0</ele><time>2026-04-25T13:57:22.849Z</time></trkpt><trkpt lat="44.4465445" lon="8.0675051"><ele>777.0</ele><time>2026-04-25T13:57:23.844Z</time></trkpt><trkpt lat="44.4464864" lon="8.0676779"><ele>777.0</ele><time>2026-04-25T13:57:24.858Z</time></trkpt><trkpt lat="44.4464259" lon="8.067845"><ele>778.0</ele><time>2026-04-25T13:57:25.838Z</time></trkpt><trkpt lat="44.4463633" lon="8.068002"><ele>779.0</ele><time>2026-04-25T13:57:26.848Z</time></trkpt><trkpt lat="44.446302" lon="8.0681495"><ele>780.0</ele><time>2026-04-25T13:57:27.847Z</time></trkpt><trkpt lat="44.4462497" lon="8.0683051"><ele>781.0</ele><time>2026-04-25T13:57:28.854Z</time></trkpt><trkpt lat="44.4462208" lon="8.0684833"><ele>777.6666666666666</ele><time>2026-04-25T13:57:29.849Z</time></trkpt><trkpt lat="44.4462079" lon="8.0686754"><ele>774.3333333333333</ele><time>2026-04-25T13:57:30.85Z</time></trkpt><trkpt lat="44.4462149" lon="8.0688907"><ele>771.0</ele><time>2026-04-25T13:57:31.848Z</time></trkpt><trkpt lat="44.4462417" lon="8.0691277"><ele>771.0</ele><time>2026-04-25T13:57:32.848Z</time></trkpt><trkpt lat="44.4462787" lon="8.0694008"><ele>771.0</ele><time>2026-04-25T13:57:33.838Z</time></trkpt><trkpt lat="44.446315" lon="8.0696817"><ele>771.0</ele><time>2026-04-25T13:57:34.852Z</time></trkpt><trkpt lat="44.4463496" lon="8.0699699"><ele>774.6666666666667</ele><time>2026-04-25T13:57:35.841Z</time></trkpt><trkpt lat="44.4463829" lon="8.0702451"><ele>778.3333333333334</ele><time>2026-04-25T13:57:36.849Z</time></trkpt><trkpt lat="44.4464233" lon="8.0705182"><ele>782.0</ele><time>2026-04-25T13:57:37.844Z</time></trkpt><trkpt lat="44.4464742" lon="8.0708104"><ele>782.0</ele><time>2026-04-25T13:57:38.854Z</time></trkpt><trkpt lat="44.4465243" lon="8.0711204"><ele>782.0</ele><time>2026-04-25T13:57:39.851Z</time></trkpt><trkpt lat="44.4465696" lon="8.0714403"><ele>780.0</ele><time>2026-04-25T13:57:40.847Z</time></trkpt><trkpt lat="44.4466216" lon="8.0717582"><ele>778.0</ele><time>2026-04-25T13:57:41.855Z</time></trkpt><trkpt lat="44.4466846" lon="8.0720662"><ele>778.0</ele><time>2026-04-25T13:57:42.854Z</time></trkpt><trkpt lat="44.4467554" lon="8.072365"><ele>778.0</ele><time>2026-04-25T13:57:43.837Z</time></trkpt><trkpt lat="44.446821" lon="8.0726672"><ele>776.5</ele><time>2026-04-25T13:57:44.846Z</time></trkpt><trkpt lat="44.446873" lon="8.0729858"><ele>775.0</ele><time>2026-04-25T13:57:45.85Z</time></trkpt><trkpt lat="44.4469159" lon="8.0733092"><ele>772.6666666666666</ele><time>2026-04-25T13:57:46.854Z</time></trkpt><trkpt lat="44.4469571" lon="8.0736284"><ele>770.3333333333333</ele><time>2026-04-25T13:57:47.851Z</time></trkpt><trkpt lat="44.4469969" lon="8.0739281"><ele>768.0</ele><time>2026-04-25T13:57:48.842Z</time></trkpt><trkpt lat="44.4470319" lon="8.0742153"><ele>767.3333333333334</ele><time>2026-04-25T13:57:49.842Z</time></trkpt><trkpt lat="44.4470647" lon="8.074486"><ele>766.6666666666667</ele><time>2026-04-25T13:57:50.848Z</time></trkpt><trkpt lat="44.4470804" lon="8.074742"><ele>766.0</ele><time>2026-04-25T13:57:51.843Z</time></trkpt><trkpt lat="44.4470638" lon="8.074992"><ele>766.0</ele><time>2026-04-25T13:57:52.844Z</time></trkpt><trkpt lat="44.4470044" lon="8.075228"><ele>766.0</ele><time>2026-04-25T13:57:53.846Z</time></trkpt><trkpt lat="44.4469133" lon="8.0754443"><ele>766.0</ele><time>2026-04-25T13:57:54.838Z</time></trkpt><trkpt lat="44.4468085" lon="8.0756345"><ele>769.0</ele><time>2026-04-25T13:57:55.851Z</time></trkpt><trkpt lat="44.4467153" lon="8.0758325"><ele>772.0</ele><time>2026-04-25T13:57:56.847Z</time></trkpt><trkpt lat="44.446637" lon="8.0760434"><ele>775.0</ele><time>2026-04-25T13:57:57.835Z</time></trkpt><trkpt lat="44.4465753" lon="8.0762719"><ele>775.0</ele><time>2026-04-25T13:57:58.845Z</time></trkpt><trkpt lat="44.4465616" lon="8.0765248"><ele>775.0</ele><time>2026-04-25T13:57:59.845Z</time></trkpt><trkpt lat="44.446525" lon="8.0767874"><ele>775.0</ele><time>2026-04-25T13:58:00.844Z</time></trkpt><trkpt lat="44.4464783" lon="8.077052"><ele>777.6666666666666</ele><time>2026-04-25T13:58:01.85Z</time></trkpt><trkpt lat="44.4464361" lon="8.0773293"><ele>780.3333333333333</ele><time>2026-04-25T13:58:02.846Z</time></trkpt><trkpt lat="44.4464074" lon="8.0776225"><ele>783.0</ele><time>2026-04-25T13:58:03.85Z</time></trkpt><trkpt lat="44.4463873" lon="8.0779211"><ele>786.0</ele><time>2026-04-25T13:58:04.846Z</time></trkpt><trkpt lat="44.4463722" lon="8.0782071"><ele>789.0</ele><time>2026-04-25T13:58:05.836Z</time></trkpt><trkpt lat="44.4463552" lon="8.0784747"><ele>792.0</ele><time>2026-04-25T13:58:06.838Z</time></trkpt><trkpt lat="44.4463213" lon="8.0787264"><ele>784.0</ele><time>2026-04-25T13:58:07.847Z</time></trkpt><trkpt lat="44.4462634" lon="8.0789753"><ele>776.0</ele><time>2026-04-25T13:58:08.839Z</time></trkpt><trkpt lat="44.4461794" lon="8.079211"><ele>768.0</ele><time>2026-04-25T13:58:09.836Z</time></trkpt><trkpt lat="44.4460875" lon="8.0794535"><ele>768.0</ele><time>2026-04-25T13:58:10.844Z</time></trkpt><trkpt lat="44.4459895" lon="8.0797056"><ele>768.0</ele><time>2026-04-25T13:58:11.847Z</time></trkpt><trkpt lat="44.4458896" lon="8.07996"><ele>768.0</ele><time>2026-04-25T13:58:12.843Z</time></trkpt><trkpt lat="44.4457817" lon="8.0802153"><ele>765.6666666666666</ele><time>2026-04-25T13:58:13.84Z</time></trkpt><trkpt lat="44.4456746" lon="8.0804656"><ele>763.3333333333333</ele><time>2026-04-25T13:58:14.843Z</time></trkpt><trkpt lat="44.4455633" lon="8.0807162"><ele>761.0</ele><time>2026-04-25T13:58:15.845Z</time></trkpt><trkpt lat="44.4454595" lon="8.0809592"><ele>761.0</ele><time>2026-04-25T13:58:16.849Z</time></trkpt><trkpt lat="44.4453643" lon="8.08118"><ele>761.0</ele><time>2026-04-25T13:58:17.853Z</time></trkpt><trkpt lat="44.4452782" lon="8.0813927"><ele>761.0</ele><time>2026-04-25T13:58:18.848Z</time></trkpt><trkpt lat="44.4452061" lon="8.0816068"><ele>763.6666666666666</ele><time>2026-04-25T13:58:19.849Z</time></trkpt><trkpt lat="44.4451498" lon="8.08184"><ele>766.3333333333333</ele><time>2026-04-25T13:58:20.841Z</time></trkpt><trkpt lat="44.4451088" lon="8.0820868"><ele>769.0</ele><time>2026-04-25T13:58:21.841Z</time></trkpt><trkpt lat="44.4450683" lon="8.0823439"><ele>770.6666666666666</ele><time>2026-04-25T13:58:22.841Z</time></trkpt><trkpt lat="44.4450468" lon="8.0826179"><ele>772.3333333333333</ele><time>2026-04-25T13:58:23.849Z</time></trkpt><trkpt lat="44.445023" lon="8.082883"><ele>774.0</ele><time>2026-04-25T13:58:24.846Z</time></trkpt><trkpt lat="44.4450016" lon="8.0831366"><ele>775.0</ele><time>2026-04-25T13:58:25.855Z</time></trkpt><trkpt lat="44.4449825" lon="8.0833799"><ele>776.0</ele><time>2026-04-25T13:58:26.846Z</time></trkpt><trkpt lat="44.4449648" lon="8.0836087"><ele>777.0</ele><time>2026-04-25T13:58:27.851Z</time></trkpt><trkpt lat="44.4449411" lon="8.0838238"><ele>777.0</ele><time>2026-04-25T13:58:28.84Z</time></trkpt><trkpt lat="44.4448892" lon="8.0840143"><ele>777.0</ele><time>2026-04-25T13:58:29.841Z</time></trkpt><trkpt lat="44.4448056" lon="8.084183"><ele>777.0</ele><time>2026-04-25T13:58:30.845Z</time></trkpt><trkpt lat="44.4446843" lon="8.0843202"><ele>777.0</ele><time>2026-04-25T13:58:31.848Z</time></trkpt><trkpt lat="44.4445441" lon="8.0844519"><ele>776.3333333333333</ele><time>2026-04-25T13:58:32.843Z</time></trkpt><trkpt lat="44.4444125" lon="8.0846107"><ele>775.6666666666666</ele><time>2026-04-25T13:58:33.849Z</time></trkpt><trkpt lat="44.4442867" lon="8.0847908"><ele>775.0</ele><time>2026-04-25T13:58:34.851Z</time></trkpt><trkpt lat="44.444161" lon="8.0849693"><ele>775.0</ele><time>2026-04-25T13:58:35.848Z</time></trkpt><trkpt lat="44.4440422" lon="8.0851306"><ele>775.0</ele><time>2026-04-25T13:58:36.839Z</time></trkpt><trkpt lat="44.4439207" lon="8.0852601"><ele>775.0</ele><time>2026-04-25T13:58:37.841Z</time></trkpt><trkpt lat="44.4437829" lon="8.0853362"><ele>770.0</ele><time>2026-04-25T13:58:38.845Z</time></trkpt><trkpt lat="44.4436273" lon="8.0853709"><ele>765.0</ele><time>2026-04-25T13:58:39.842Z</time></trkpt><trkpt lat="44.4434577" lon="8.0853914"><ele>760.0</ele><time>2026-04-25T13:58:40.838Z</time></trkpt><trkpt lat="44.4432794" lon="8.0854048"><ele>760.0</ele><time>2026-04-25T13:58:41.854Z</time></trkpt><trkpt lat="44.4430941" lon="8.0854274"><ele>760.0</ele><time>2026-04-25T13:58:42.853Z</time></trkpt><trkpt lat="44.4428983" lon="8.0854773"><ele>760.0</ele><time>2026-04-25T13:58:43.847Z</time></trkpt><trkpt lat="44.4426935" lon="8.085556"><ele>759.0</ele><time>2026-04-25T13:58:44.836Z</time></trkpt><trkpt lat="44.4424919" lon="8.0856556"><ele>758.0</ele><time>2026-04-25T13:58:45.848Z</time></trkpt><trkpt lat="44.4422979" lon="8.0857428"><ele>757.0</ele><time>2026-04-25T13:58:46.849Z</time></trkpt><trkpt lat="44.4421192" lon="8.0858204"><ele>757.0</ele><time>2026-04-25T13:58:47.841Z</time></trkpt><trkpt lat="44.4419698" lon="8.0858967"><ele>757.0</ele><time>2026-04-25T13:58:48.845Z</time></trkpt><trkpt lat="44.4418373" lon="8.0860092"><ele>757.0</ele><time>2026-04-25T13:58:49.846Z</time></trkpt><trkpt lat="44.4417364" lon="8.0861683"><ele>757.0</ele><time>2026-04-25T13:58:50.854Z</time></trkpt><trkpt lat="44.4416491" lon="8.0863708"><ele>757.0</ele><time>2026-04-25T13:58:51.849Z</time></trkpt><trkpt lat="44.4415618" lon="8.0865916"><ele>757.0</ele><time>2026-04-25T13:58:52.839Z</time></trkpt><trkpt lat="44.4414722" lon="8.0868208"><ele>760.3333333333334</ele><time>2026-04-25T13:58:53.853Z</time></trkpt><trkpt lat="44.4413793" lon="8.0870693"><ele>763.6666666666666</ele><time>2026-04-25T13:58:54.842Z</time></trkpt><trkpt lat="44.4412915" lon="8.0873342"><ele>767.0</ele><time>2026-04-25T13:58:55.841Z</time></trkpt><trkpt lat="44.4411899" lon="8.0876041"><ele>756.5</ele><time>2026-04-25T13:58:56.841Z</time></trkpt><trkpt lat="44.4410853" lon="8.0878799"><ele>746.0</ele><time>2026-04-25T13:58:57.85Z</time></trkpt><trkpt lat="44.4410007" lon="8.0881816"><ele>749.0</ele><time>2026-04-25T13:58:58.843Z</time></trkpt><trkpt lat="44.4409205" lon="8.0884995"><ele>752.0</ele><time>2026-04-25T13:58:59.852Z</time></trkpt><trkpt lat="44.4408245" lon="8.088805"><ele>753.3333333333333</ele><time>2026-04-25T13:59:00.839Z</time></trkpt><trkpt lat="44.440738" lon="8.0890969"><ele>754.6666666666666</ele><time>2026-04-25T13:59:01.837Z</time></trkpt><trkpt lat="44.4406521" lon="8.08937"><ele>756.0</ele><time>2026-04-25T13:59:02.843Z</time></trkpt><trkpt lat="44.4405697" lon="8.0896203"><ele>756.0</ele><time>2026-04-25T13:59:03.854Z</time></trkpt><trkpt lat="44.4404842" lon="8.0898435"><ele>756.0</ele><time>2026-04-25T13:59:04.841Z</time></trkpt><trkpt lat="44.440395" lon="8.0900435"><ele>756.0</ele><time>2026-04-25T13:59:05.85Z</time></trkpt><trkpt lat="44.4403032" lon="8.0902128"><ele>755.25</ele><time>2026-04-25T13:59:06.846Z</time></trkpt><trkpt lat="44.4402098" lon="8.090361"><ele>754.5</ele><time>2026-04-25T13:59:07.85Z</time></trkpt><trkpt lat="44.4401296" lon="8.0904941"><ele>753.75</ele><time>2026-04-25T13:59:08.843Z</time></trkpt><trkpt lat="44.4400622" lon="8.0906333"><ele>753.0</ele><time>2026-04-25T13:59:09.842Z</time></trkpt><trkpt lat="44.4400114" lon="8.0907926"><ele>753.0</ele><time>2026-04-25T13:59:10.841Z</time></trkpt><trkpt lat="44.4399832" lon="8.090964"><ele>753.0</ele><time>2026-04-25T13:59:11.85Z</time></trkpt><trkpt lat="44.4399707" lon="8.091136"><ele>753.0</ele><time>2026-04-25T13:59:12.84Z</time></trkpt><trkpt lat="44.4399646" lon="8.0913031"><ele>753.0</ele><time>2026-04-25T13:59:13.846Z</time></trkpt><trkpt lat="44.4399592" lon="8.0914719"><ele>751.75</ele><time>2026-04-25T13:59:14.843Z</time></trkpt><trkpt lat="44.4399527" lon="8.0916438"><ele>750.5</ele><time>2026-04-25T13:59:15.851Z</time></trkpt><trkpt lat="44.4399477" lon="8.0918203"><ele>749.25</ele><time>2026-04-25T13:59:16.843Z</time></trkpt><trkpt lat="44.4399464" lon="8.0919916"><ele>748.0</ele><time>2026-04-25T13:59:17.842Z</time></trkpt><trkpt lat="44.4399359" lon="8.0921529"><ele>748.0</ele><time>2026-04-25T13:59:18.85Z</time></trkpt><trkpt lat="44.439914" lon="8.0923092"><ele>748.0</ele><time>2026-04-25T13:59:19.841Z</time></trkpt><trkpt lat="44.4398756" lon="8.0924605"><ele>748.0</ele><time>2026-04-25T13:59:20.846Z</time></trkpt><trkpt lat="44.439824" lon="8.0926113"><ele>748.0</ele><time>2026-04-25T13:59:21.842Z</time></trkpt><trkpt lat="44.4397577" lon="8.0927538"><ele>747.5</ele><time>2026-04-25T13:59:22.848Z</time></trkpt><trkpt lat="44.4396867" lon="8.092896"><ele>747.0</ele><time>2026-04-25T13:59:23.847Z</time></trkpt><trkpt lat="44.4396159" lon="8.0930353"><ele>746.5</ele><time>2026-04-25T13:59:24.841Z</time></trkpt><trkpt lat="44.4395441" lon="8.0931698"><ele>746.0</ele><time>2026-04-25T13:59:25.841Z</time></trkpt><trkpt lat="44.4394671" lon="8.0933027"><ele>743.75</ele><time>2026-04-25T13:59:26.85Z</time></trkpt><trkpt lat="44.4393796" lon="8.0934285"><ele>741.5</ele><time>2026-04-25T13:59:27.841Z</time></trkpt><trkpt lat="44.4392815" lon="8.0935418"><ele>739.25</ele><time>2026-04-25T13:59:28.839Z</time></trkpt><trkpt lat="44.4391758" lon="8.093657"><ele>737.0</ele><time>2026-04-25T13:59:29.838Z</time></trkpt><trkpt lat="44.4390646" lon="8.0937779"><ele>737.0</ele><time>2026-04-25T13:59:30.847Z</time></trkpt><trkpt lat="44.4389483" lon="8.0939065"><ele>737.0</ele><time>2026-04-25T13:59:31.843Z</time></trkpt><trkpt lat="44.4388314" lon="8.0940334"><ele>737.0</ele><time>2026-04-25T13:59:32.845Z</time></trkpt><trkpt lat="44.4387171" lon="8.0941603"><ele>737.0</ele><time>2026-04-25T13:59:33.841Z</time></trkpt><trkpt lat="44.4386045" lon="8.0942865"><ele>737.25</ele><time>2026-04-25T13:59:34.843Z</time></trkpt><trkpt lat="44.4384919" lon="8.0944048"><ele>737.5</ele><time>2026-04-25T13:59:35.841Z</time></trkpt><trkpt lat="44.4383744" lon="8.0944988"><ele>737.75</ele><time>2026-04-25T13:59:36.844Z</time></trkpt><trkpt lat="44.4382513" lon="8.0945646"><ele>738.0</ele><time>2026-04-25T13:59:37.846Z</time></trkpt><trkpt lat="44.4381192" lon="8.0946016"><ele>738.0</ele><time>2026-04-25T13:59:38.851Z</time></trkpt><trkpt lat="44.4379822" lon="8.09461"><ele>738.0</ele><time>2026-04-25T13:59:39.845Z</time></trkpt><trkpt lat="44.4378355" lon="8.0946056"><ele>738.0</ele><time>2026-04-25T13:59:40.853Z</time></trkpt><trkpt lat="44.4376896" lon="8.0945965"><ele>738.0</ele><time>2026-04-25T13:59:41.843Z</time></trkpt><trkpt lat="44.4375468" lon="8.0945916"><ele>736.25</ele><time>2026-04-25T13:59:42.842Z</time></trkpt><trkpt lat="44.4374069" lon="8.0945825"><ele>734.5</ele><time>2026-04-25T13:59:43.88Z</time></trkpt><trkpt lat="44.4372695" lon="8.0945688"><ele>732.75</ele><time>2026-04-25T13:59:44.848Z</time></trkpt><trkpt lat="44.4371341" lon="8.094555"><ele>731.0</ele><time>2026-04-25T13:59:45.846Z</time></trkpt><trkpt lat="44.4370014" lon="8.0945404"><ele>730.75</ele><time>2026-04-25T13:59:46.848Z</time></trkpt><trkpt lat="44.4368753" lon="8.0945183"><ele>730.5</ele><time>2026-04-25T13:59:47.854Z</time></trkpt><trkpt lat="44.4367586" lon="8.0944909"><ele>730.25</ele><time>2026-04-25T13:59:48.851Z</time></trkpt><trkpt lat="44.4366452" lon="8.0944479"><ele>730.0</ele><time>2026-04-25T13:59:49.847Z</time></trkpt><trkpt lat="44.436538" lon="8.0944086"><ele>730.0</ele><time>2026-04-25T13:59:50.843Z</time></trkpt><trkpt lat="44.4364324" lon="8.0943787"><ele>730.0</ele><time>2026-04-25T13:59:51.837Z</time></trkpt><trkpt lat="44.4363354" lon="8.0943598"><ele>730.0</ele><time>2026-04-25T13:59:52.85Z</time></trkpt><trkpt lat="44.4362451" lon="8.0943699"><ele>730.0</ele><time>2026-04-25T13:59:53.851Z</time></trkpt><trkpt lat="44.4361617" lon="8.0944083"><ele>730.0</ele><time>2026-04-25T13:59:54.849Z</time></trkpt><trkpt lat="44.4360752" lon="8.0944765"><ele>729.0</ele><time>2026-04-25T13:59:55.846Z</time></trkpt><trkpt lat="44.4359896" lon="8.0945783"><ele>728.0</ele><time>2026-04-25T13:59:56.851Z</time></trkpt><trkpt lat="44.4359141" lon="8.0946909"><ele>727.0</ele><time>2026-04-25T13:59:57.845Z</time></trkpt><trkpt lat="44.4358409" lon="8.0948144"><ele>726.0</ele><time>2026-04-25T13:59:58.841Z</time></trkpt><trkpt lat="44.435779" lon="8.0949503"><ele>728.5</ele><time>2026-04-25T13:59:59.846Z</time></trkpt><trkpt lat="44.4357153" lon="8.0950844"><ele>731.0</ele><time>2026-04-25T14:00:00.85Z</time></trkpt><trkpt lat="44.435653" lon="8.0952195"><ele>733.5</ele><time>2026-04-25T14:00:01.851Z</time></trkpt><trkpt lat="44.435578" lon="8.0953472"><ele>736.0</ele><time>2026-04-25T14:00:02.842Z</time></trkpt><trkpt lat="44.4354855" lon="8.095456"><ele>732.0</ele><time>2026-04-25T14:00:03.85Z</time></trkpt><trkpt lat="44.4353769" lon="8.0955392"><ele>728.0</ele><time>2026-04-25T14:00:04.852Z</time></trkpt><trkpt lat="44.4352571" lon="8.0955977"><ele>724.0</ele><time>2026-04-25T14:00:05.842Z</time></trkpt><trkpt lat="44.4351357" lon="8.0956374"><ele>720.0</ele><time>2026-04-25T14:00:06.847Z</time></trkpt><trkpt lat="44.4350095" lon="8.0956753"><ele>720.0</ele><time>2026-04-25T14:00:07.848Z</time></trkpt><trkpt lat="44.4348863" lon="8.095727"><ele>720.0</ele><time>2026-04-25T14:00:08.855Z</time></trkpt><trkpt lat="44.4347585" lon="8.0958139"><ele>720.0</ele><time>2026-04-25T14:00:09.85Z</time></trkpt><trkpt lat="44.4346465" lon="8.0959279"><ele>720.0</ele><time>2026-04-25T14:00:10.846Z</time></trkpt><trkpt lat="44.4345436" lon="8.0960796"><ele>720.0</ele><time>2026-04-25T14:00:11.851Z</time></trkpt><trkpt lat="44.4344485" lon="8.096268"><ele>720.0</ele><time>2026-04-25T14:00:12.856Z</time></trkpt><trkpt lat="44.4343487" lon="8.0964911"><ele>720.0</ele><time>2026-04-25T14:00:13.847Z</time></trkpt><trkpt lat="44.4342196" lon="8.0967303"><ele>723.6666666666666</ele><time>2026-04-25T14:00:14.846Z</time></trkpt><trkpt lat="44.4340912" lon="8.0969585"><ele>727.3333333333333</ele><time>2026-04-25T14:00:15.846Z</time></trkpt><trkpt lat="44.4339694" lon="8.0971787"><ele>731.0</ele><time>2026-04-25T14:00:16.854Z</time></trkpt><trkpt lat="44.4338479" lon="8.0973741"><ele>729.0</ele><time>2026-04-25T14:00:17.851Z</time></trkpt><trkpt lat="44.4337152" lon="8.0975289"><ele>727.0</ele><time>2026-04-25T14:00:18.846Z</time></trkpt><trkpt lat="44.4335616" lon="8.0976463"><ele>725.0</ele><time>2026-04-25T14:00:19.856Z</time></trkpt><trkpt lat="44.4333931" lon="8.0977342"><ele>725.0</ele><time>2026-04-25T14:00:20.85Z</time></trkpt><trkpt lat="44.433216" lon="8.0978011"><ele>725.0</ele><time>2026-04-25T14:00:21.852Z</time></trkpt><trkpt lat="44.433033" lon="8.0978419"><ele>725.0</ele><time>2026-04-25T14:00:22.851Z</time></trkpt><trkpt lat="44.4328438" lon="8.0978348"><ele>724.0</ele><time>2026-04-25T14:00:23.846Z</time></trkpt><trkpt lat="44.4326691" lon="8.0977881"><ele>723.0</ele><time>2026-04-25T14:00:24.844Z</time></trkpt><trkpt lat="44.4325019" lon="8.0977463"><ele>722.0</ele><time>2026-04-25T14:00:25.855Z</time></trkpt><trkpt lat="44.4323357" lon="8.0977482"><ele>722.0</ele><time>2026-04-25T14:00:26.854Z</time></trkpt><trkpt lat="44.4321706" lon="8.0977843"><ele>722.0</ele><time>2026-04-25T14:00:27.852Z</time></trkpt><trkpt lat="44.4319928" lon="8.0979475"><ele>722.0</ele><time>2026-04-25T14:00:28.845Z</time></trkpt><trkpt lat="44.4318116" lon="8.0980909"><ele>722.6666666666666</ele><time>2026-04-25T14:00:29.844Z</time></trkpt><trkpt lat="44.4316276" lon="8.0982515"><ele>723.3333333333334</ele><time>2026-04-25T14:00:30.841Z</time></trkpt><trkpt lat="44.4314486" lon="8.0984135"><ele>724.0</ele><time>2026-04-25T14:00:31.851Z</time></trkpt><trkpt lat="44.4312775" lon="8.098566"><ele>724.0</ele><time>2026-04-25T14:00:32.841Z</time></trkpt><trkpt lat="44.4311079" lon="8.0986948"><ele>724.0</ele><time>2026-04-25T14:00:33.852Z</time></trkpt><trkpt lat="44.4309408" lon="8.0987748"><ele>724.0</ele><time>2026-04-25T14:00:34.853Z</time></trkpt><trkpt lat="44.4307654" lon="8.0988028"><ele>724.0</ele><time>2026-04-25T14:00:35.852Z</time></trkpt><trkpt lat="44.4305796" lon="8.0987804"><ele>724.0</ele><time>2026-04-25T14:00:36.842Z</time></trkpt><trkpt lat="44.430391" lon="8.0987241"><ele>724.0</ele><time>2026-04-25T14:00:37.842Z</time></trkpt><trkpt lat="44.4301992" lon="8.0986904"><ele>725.3333333333334</ele><time>2026-04-25T14:00:38.851Z</time></trkpt><trkpt lat="44.4300127" lon="8.098684"><ele>726.6666666666666</ele><time>2026-04-25T14:00:39.848Z</time></trkpt><trkpt lat="44.4298372" lon="8.098713"><ele>728.0</ele><time>2026-04-25T14:00:40.846Z</time></trkpt><trkpt lat="44.4296702" lon="8.0987702"><ele>727.6666666666666</ele><time>2026-04-25T14:00:41.854Z</time></trkpt><trkpt lat="44.4295106" lon="8.0987978"><ele>727.3333333333334</ele><time>2026-04-25T14:00:42.85Z</time></trkpt><trkpt lat="44.4293448" lon="8.0987909"><ele>727.0</ele><time>2026-04-25T14:00:43.855Z</time></trkpt><trkpt lat="44.4291807" lon="8.0987299"><ele>727.0</ele><time>2026-04-25T14:00:44.845Z</time></trkpt><trkpt lat="44.4290155" lon="8.0986202"><ele>727.0</ele><time>2026-04-25T14:00:45.835Z</time></trkpt><trkpt lat="44.428847" lon="8.0984883"><ele>727.0</ele><time>2026-04-25T14:00:46.85Z</time></trkpt><trkpt lat="44.4286806" lon="8.0983314"><ele>727.3333333333334</ele><time>2026-04-25T14:00:47.846Z</time></trkpt><trkpt lat="44.428527" lon="8.0981456"><ele>727.6666666666666</ele><time>2026-04-25T14:00:48.849Z</time></trkpt><trkpt lat="44.4283817" lon="8.0979541"><ele>728.0</ele><time>2026-04-25T14:00:49.846Z</time></trkpt><trkpt lat="44.4282364" lon="8.097768"><ele>728.0</ele><time>2026-04-25T14:00:50.85Z</time></trkpt><trkpt lat="44.4280913" lon="8.0975876"><ele>728.0</ele><time>2026-04-25T14:00:51.855Z</time></trkpt><trkpt lat="44.4279323" lon="8.0974242"><ele>728.0</ele><time>2026-04-25T14:00:52.846Z</time></trkpt><trkpt lat="44.4277583" lon="8.0972933"><ele>728.0</ele><time>2026-04-25T14:00:53.843Z</time></trkpt><trkpt lat="44.4275712" lon="8.0971925"><ele>728.0</ele><time>2026-04-25T14:00:54.852Z</time></trkpt><trkpt lat="44.4273591" lon="8.0971409"><ele>728.0</ele><time>2026-04-25T14:00:55.855Z</time></trkpt><trkpt lat="44.4271422" lon="8.0971034"><ele>730.0</ele><time>2026-04-25T14:00:56.845Z</time></trkpt><trkpt lat="44.4269111" lon="8.0970689"><ele>732.0</ele><time>2026-04-25T14:00:57.847Z</time></trkpt><trkpt lat="44.4266851" lon="8.0970269"><ele>732.0</ele><time>2026-04-25T14:00:58.852Z</time></trkpt><trkpt lat="44.4264757" lon="8.096975"><ele>732.0</ele><time>2026-04-25T14:00:59.841Z</time></trkpt><trkpt lat="44.4262744" lon="8.0968878"><ele>732.0</ele><time>2026-04-25T14:01:00.839Z</time></trkpt><trkpt lat="44.4260968" lon="8.0967822"><ele>732.6666666666666</ele><time>2026-04-25T14:01:01.836Z</time></trkpt><trkpt lat="44.42595" lon="8.0966665"><ele>733.3333333333333</ele><time>2026-04-25T14:01:02.85Z</time></trkpt><trkpt lat="44.425816" lon="8.0965589"><ele>734.0</ele><time>2026-04-25T14:01:03.861Z</time></trkpt><trkpt lat="44.4256953" lon="8.0964567"><ele>734.2</ele><time>2026-04-25T14:01:04.845Z</time></trkpt><trkpt lat="44.4255887" lon="8.0963576"><ele>734.4000000000001</ele><time>2026-04-25T14:01:05.849Z</time></trkpt><trkpt lat="44.4254984" lon="8.0962534"><ele>734.6</ele><time>2026-04-25T14:01:06.842Z</time></trkpt><trkpt lat="44.4254302" lon="8.0961454"><ele>734.8</ele><time>2026-04-25T14:01:07.845Z</time></trkpt><trkpt lat="44.4253694" lon="8.0960485"><ele>735.0</ele><time>2026-04-25T14:01:08.848Z</time></trkpt><trkpt lat="44.4252861" lon="8.0959834"><ele>734.5</ele><time>2026-04-25T14:01:09.839Z</time></trkpt><trkpt lat="44.4251809" lon="8.0959401"><ele>734.0</ele><time>2026-04-25T14:01:10.849Z</time></trkpt><trkpt lat="44.4250665" lon="8.0958964"><ele>733.5</ele><time>2026-04-25T14:01:11.837Z</time></trkpt><trkpt lat="44.4249429" lon="8.0958395"><ele>733.0</ele><time>2026-04-25T14:01:12.853Z</time></trkpt><trkpt lat="44.4248201" lon="8.0957815"><ele>731.75</ele><time>2026-04-25T14:01:13.85Z</time></trkpt><trkpt lat="44.4247008" lon="8.0957245"><ele>730.5</ele><time>2026-04-25T14:01:14.849Z</time></trkpt><trkpt lat="44.4245859" lon="8.0956712"><ele>729.25</ele><time>2026-04-25T14:01:15.845Z</time></trkpt><trkpt lat="44.4244769" lon="8.0956153"><ele>728.0</ele><time>2026-04-25T14:01:16.847Z</time></trkpt><trkpt lat="44.4243715" lon="8.0955552"><ele>728.0</ele><time>2026-04-25T14:01:17.843Z</time></trkpt><trkpt lat="44.4242758" lon="8.0954905"><ele>728.0</ele><time>2026-04-25T14:01:18.838Z</time></trkpt><trkpt lat="44.4241858" lon="8.0954284"><ele>728.0</ele><time>2026-04-25T14:01:19.841Z</time></trkpt><trkpt lat="44.4241026" lon="8.0953589"><ele>728.0</ele><time>2026-04-25T14:01:20.855Z</time></trkpt><trkpt lat="44.4240122" lon="8.0952897"><ele>728.0</ele><time>2026-04-25T14:01:21.852Z</time></trkpt><trkpt lat="44.4239208" lon="8.0952248"><ele>728.0</ele><time>2026-04-25T14:01:22.839Z</time></trkpt><trkpt lat="44.4238263" lon="8.0951483"><ele>728.0</ele><time>2026-04-25T14:01:23.837Z</time></trkpt><trkpt lat="44.423722" lon="8.0950592"><ele>728.0</ele><time>2026-04-25T14:01:24.846Z</time></trkpt><trkpt lat="44.4236135" lon="8.0949599"><ele>728.0</ele><time>2026-04-25T14:01:25.843Z</time></trkpt><trkpt lat="44.423502" lon="8.0948475"><ele>727.75</ele><time>2026-04-25T14:01:26.847Z</time></trkpt><trkpt lat="44.4234016" lon="8.0947198"><ele>727.5</ele><time>2026-04-25T14:01:27.85Z</time></trkpt><trkpt lat="44.4233052" lon="8.0945776"><ele>727.25</ele><time>2026-04-25T14:01:28.85Z</time></trkpt><trkpt lat="44.4232068" lon="8.0944251"><ele>727.0</ele><time>2026-04-25T14:01:29.847Z</time></trkpt><trkpt lat="44.4231135" lon="8.0942639"><ele>727.0</ele><time>2026-04-25T14:01:30.853Z</time></trkpt><trkpt lat="44.4230185" lon="8.094107"><ele>727.0</ele><time>2026-04-25T14:01:31.855Z</time></trkpt><trkpt lat="44.4229159" lon="8.0939426"><ele>727.0</ele><time>2026-04-25T14:01:32.842Z</time></trkpt><trkpt lat="44.4228061" lon="8.0937892"><ele>726.6666666666667</ele><time>2026-04-25T14:01:33.84Z</time></trkpt><trkpt lat="44.4226742" lon="8.0936673"><ele>726.3333333333334</ele><time>2026-04-25T14:01:34.847Z</time></trkpt><trkpt lat="44.4225122" lon="8.09358"><ele>726.0</ele><time>2026-04-25T14:01:35.84Z</time></trkpt><trkpt lat="44.4223271" lon="8.0935195"><ele>727.6666666666666</ele><time>2026-04-25T14:01:36.849Z</time></trkpt><trkpt lat="44.4221352" lon="8.0934692"><ele>729.3333333333333</ele><time>2026-04-25T14:01:37.847Z</time></trkpt><trkpt lat="44.4219532" lon="8.0934227"><ele>731.0</ele><time>2026-04-25T14:01:38.849Z</time></trkpt><trkpt lat="44.4217872" lon="8.0933711"><ele>731.0</ele><time>2026-04-25T14:01:39.85Z</time></trkpt><trkpt lat="44.4216286" lon="8.0932676"><ele>731.0</ele><time>2026-04-25T14:01:40.841Z</time></trkpt><trkpt lat="44.4214921" lon="8.093122"><ele>731.0</ele><time>2026-04-25T14:01:41.845Z</time></trkpt><trkpt lat="44.4213801" lon="8.0929301"><ele>729.6666666666666</ele><time>2026-04-25T14:01:42.841Z</time></trkpt><trkpt lat="44.4213018" lon="8.0927114"><ele>728.3333333333334</ele><time>2026-04-25T14:01:43.841Z</time></trkpt><trkpt lat="44.4212585" lon="8.0924948"><ele>727.0</ele><time>2026-04-25T14:01:44.845Z</time></trkpt><trkpt lat="44.4212209" lon="8.092294"><ele>727.0</ele><time>2026-04-25T14:01:45.841Z</time></trkpt><trkpt lat="44.4211682" lon="8.0921037"><ele>727.0</ele><time>2026-04-25T14:01:46.844Z</time></trkpt><trkpt lat="44.4210917" lon="8.0919364"><ele>727.0</ele><time>2026-04-25T14:01:47.853Z</time></trkpt><trkpt lat="44.4209616" lon="8.0918321"><ele>727.0</ele><time>2026-04-25T14:01:48.844Z</time></trkpt><trkpt lat="44.4208355" lon="8.0917544"><ele>727.0</ele><time>2026-04-25T14:01:49.841Z</time></trkpt><trkpt lat="44.4206992" lon="8.0917129"><ele>727.0</ele><time>2026-04-25T14:01:50.93Z</time></trkpt><trkpt lat="44.4205081" lon="8.0918793"><ele>727.0</ele><time>2026-04-25T14:01:51.848Z</time></trkpt><trkpt lat="44.4203262" lon="8.0919492"><ele>724.3333333333334</ele><time>2026-04-25T14:01:52.852Z</time></trkpt><trkpt lat="44.4201343" lon="8.0920395"><ele>721.6666666666666</ele><time>2026-04-25T14:01:53.84Z</time></trkpt><trkpt lat="44.4199472" lon="8.0921236"><ele>719.0</ele><time>2026-04-25T14:01:54.845Z</time></trkpt><trkpt lat="44.419764" lon="8.0921998"><ele>719.0</ele><time>2026-04-25T14:01:55.85Z</time></trkpt><trkpt lat="44.4195915" lon="8.0922295"><ele>719.0</ele><time>2026-04-25T14:01:56.844Z</time></trkpt><trkpt lat="44.4194042" lon="8.0922123"><ele>719.0</ele><time>2026-04-25T14:01:57.843Z</time></trkpt><trkpt lat="44.4192092" lon="8.0921516"><ele>719.0</ele><time>2026-04-25T14:01:58.839Z</time></trkpt><trkpt lat="44.4190183" lon="8.092067"><ele>719.0</ele><time>2026-04-25T14:01:59.839Z</time></trkpt><trkpt lat="44.4188455" lon="8.0919521"><ele>719.0</ele><time>2026-04-25T14:02:00.841Z</time></trkpt><trkpt lat="44.418681" lon="8.0917863"><ele>720.3333333333333</ele><time>2026-04-25T14:02:01.841Z</time></trkpt><trkpt lat="44.418528" lon="8.0915826"><ele>721.6666666666666</ele><time>2026-04-25T14:02:02.837Z</time></trkpt><trkpt lat="44.418394" lon="8.0913773"><ele>723.0</ele><time>2026-04-25T14:02:03.844Z</time></trkpt><trkpt lat="44.4182817" lon="8.0911646"><ele>723.0</ele><time>2026-04-25T14:02:04.845Z</time></trkpt><trkpt lat="44.4181918" lon="8.0909501"><ele>723.0</ele><time>2026-04-25T14:02:05.838Z</time></trkpt><trkpt lat="44.4181466" lon="8.0907213"><ele>723.0</ele><time>2026-04-25T14:02:06.837Z</time></trkpt><trkpt lat="44.4181376" lon="8.0904695"><ele>721.6666666666666</ele><time>2026-04-25T14:02:07.848Z</time></trkpt><trkpt lat="44.4181453" lon="8.0902167"><ele>720.3333333333333</ele><time>2026-04-25T14:02:08.846Z</time></trkpt><trkpt lat="44.4181351" lon="8.0899829"><ele>719.0</ele><time>2026-04-25T14:02:09.857Z</time></trkpt><trkpt lat="44.4181048" lon="8.0897635"><ele>716.3333333333333</ele><time>2026-04-25T14:02:10.85Z</time></trkpt><trkpt lat="44.418042" lon="8.0895645"><ele>713.6666666666666</ele><time>2026-04-25T14:02:11.847Z</time></trkpt><trkpt lat="44.417932" lon="8.0893982"><ele>711.0</ele><time>2026-04-25T14:02:12.84Z</time></trkpt><trkpt lat="44.4177886" lon="8.0892633"><ele>712.0</ele><time>2026-04-25T14:02:13.838Z</time></trkpt><trkpt lat="44.4176431" lon="8.0891077"><ele>713.0</ele><time>2026-04-25T14:02:14.837Z</time></trkpt><trkpt lat="44.4175152" lon="8.0889153"><ele>714.0</ele><time>2026-04-25T14:02:15.836Z</time></trkpt><trkpt lat="44.4173925" lon="8.0887234"><ele>714.0</ele><time>2026-04-25T14:02:16.85Z</time></trkpt><trkpt lat="44.4172732" lon="8.0885701"><ele>714.0</ele><time>2026-04-25T14:02:17.849Z</time></trkpt><trkpt lat="44.4171484" lon="8.08844"><ele>714.0</ele><time>2026-04-25T14:02:18.847Z</time></trkpt><trkpt lat="44.4170107" lon="8.0883553"><ele>714.5</ele><time>2026-04-25T14:02:19.846Z</time></trkpt><trkpt lat="44.4168724" lon="8.0883415"><ele>715.0</ele><time>2026-04-25T14:02:20.845Z</time></trkpt><trkpt lat="44.4167385" lon="8.0884005"><ele>715.5</ele><time>2026-04-25T14:02:21.839Z</time></trkpt><trkpt lat="44.4166142" lon="8.0884762"><ele>716.0</ele><time>2026-04-25T14:02:22.841Z</time></trkpt><trkpt lat="44.4164853" lon="8.0886031"><ele>716.0</ele><time>2026-04-25T14:02:23.836Z</time></trkpt><trkpt lat="44.4163119" lon="8.0887882"><ele>716.0</ele><time>2026-04-25T14:02:24.843Z</time></trkpt><trkpt lat="44.4161518" lon="8.0889442"><ele>716.0</ele><time>2026-04-25T14:02:25.842Z</time></trkpt><trkpt lat="44.4160066" lon="8.0891209"><ele>716.0</ele><time>2026-04-25T14:02:26.838Z</time></trkpt><trkpt lat="44.4158631" lon="8.0893139"><ele>716.0</ele><time>2026-04-25T14:02:27.845Z</time></trkpt><trkpt lat="44.4156921" lon="8.0894376"><ele>716.0</ele><time>2026-04-25T14:02:28.842Z</time></trkpt><trkpt lat="44.4154965" lon="8.0895401"><ele>710.6666666666666</ele><time>2026-04-25T14:02:29.846Z</time></trkpt><trkpt lat="44.4153009" lon="8.089616"><ele>705.3333333333334</ele><time>2026-04-25T14:02:30.836Z</time></trkpt><trkpt lat="44.4151141" lon="8.0896601"><ele>700.0</ele><time>2026-04-25T14:02:31.845Z</time></trkpt><trkpt lat="44.4149422" lon="8.0896993"><ele>700.0</ele><time>2026-04-25T14:02:32.84Z</time></trkpt><trkpt lat="44.4147709" lon="8.0897813"><ele>700.0</ele><time>2026-04-25T14:02:33.846Z</time></trkpt><trkpt lat="44.414624" lon="8.0898985"><ele>700.0</ele><time>2026-04-25T14:02:34.846Z</time></trkpt><trkpt lat="44.4144932" lon="8.0900749"><ele>702.0</ele><time>2026-04-25T14:02:35.843Z</time></trkpt><trkpt lat="44.414353" lon="8.0902573"><ele>704.0</ele><time>2026-04-25T14:02:36.844Z</time></trkpt><trkpt lat="44.4141889" lon="8.0904067"><ele>706.0</ele><time>2026-04-25T14:02:37.845Z</time></trkpt><trkpt lat="44.4140101" lon="8.0905135"><ele>706.0</ele><time>2026-04-25T14:02:38.846Z</time></trkpt><trkpt lat="44.4138282" lon="8.0906219"><ele>706.0</ele><time>2026-04-25T14:02:39.846Z</time></trkpt><trkpt lat="44.4136498" lon="8.0907318"><ele>706.0</ele><time>2026-04-25T14:02:40.847Z</time></trkpt><trkpt lat="44.4134777" lon="8.0908816"><ele>707.6666666666667</ele><time>2026-04-25T14:02:41.84Z</time></trkpt><trkpt lat="44.4133207" lon="8.0910624"><ele>709.3333333333334</ele><time>2026-04-25T14:02:42.842Z</time></trkpt><trkpt lat="44.4131698" lon="8.0912485"><ele>711.0</ele><time>2026-04-25T14:02:43.842Z</time></trkpt><trkpt lat="44.4130065" lon="8.0914168"><ele>710.6666666666666</ele><time>2026-04-25T14:02:44.838Z</time></trkpt><trkpt lat="44.4128272" lon="8.0915433"><ele>710.3333333333333</ele><time>2026-04-25T14:02:45.848Z</time></trkpt><trkpt lat="44.412628" lon="8.0916254"><ele>710.0</ele><time>2026-04-25T14:02:46.839Z</time></trkpt><trkpt lat="44.4124234" lon="8.0916996"><ele>710.0</ele><time>2026-04-25T14:02:47.841Z</time></trkpt><trkpt lat="44.4122366" lon="8.0917854"><ele>710.0</ele><time>2026-04-25T14:02:48.836Z</time></trkpt><trkpt lat="44.4120718" lon="8.091882"><ele>710.0</ele><time>2026-04-25T14:02:49.839Z</time></trkpt><trkpt lat="44.4119249" lon="8.091996"><ele>708.6666666666666</ele><time>2026-04-25T14:02:50.852Z</time></trkpt><trkpt lat="44.4117992" lon="8.0921301"><ele>707.3333333333334</ele><time>2026-04-25T14:02:51.853Z</time></trkpt><trkpt lat="44.4116963" lon="8.0923043"><ele>706.0</ele><time>2026-04-25T14:02:52.844Z</time></trkpt><trkpt lat="44.4116152" lon="8.0925265"><ele>706.0</ele><time>2026-04-25T14:02:53.832Z</time></trkpt><trkpt lat="44.4115545" lon="8.0927729"><ele>706.0</ele><time>2026-04-25T14:02:54.838Z</time></trkpt><trkpt lat="44.4114764" lon="8.0930379"><ele>706.0</ele><time>2026-04-25T14:02:55.844Z</time></trkpt><trkpt lat="44.4113737" lon="8.0933056"><ele>699.0</ele><time>2026-04-25T14:02:56.837Z</time></trkpt><trkpt lat="44.4112491" lon="8.093576"><ele>692.0</ele><time>2026-04-25T14:02:57.842Z</time></trkpt><trkpt lat="44.4111124" lon="8.0938422"><ele>696.0</ele><time>2026-04-25T14:02:58.843Z</time></trkpt><trkpt lat="44.4109703" lon="8.0941028"><ele>700.0</ele><time>2026-04-25T14:02:59.841Z</time></trkpt><trkpt lat="44.4108275" lon="8.0943866"><ele>700.0</ele><time>2026-04-25T14:03:00.835Z</time></trkpt><trkpt lat="44.4106851" lon="8.0946596"><ele>700.0</ele><time>2026-04-25T14:03:01.838Z</time></trkpt><trkpt lat="44.4105439" lon="8.0949304"><ele>701.0</ele><time>2026-04-25T14:03:02.842Z</time></trkpt><trkpt lat="44.4104085" lon="8.0951959"><ele>702.0</ele><time>2026-04-25T14:03:03.841Z</time></trkpt><trkpt lat="44.4102829" lon="8.0954609"><ele>702.0</ele><time>2026-04-25T14:03:04.837Z</time></trkpt><trkpt lat="44.4101709" lon="8.0957375"><ele>702.0</ele><time>2026-04-25T14:03:05.84Z</time></trkpt><trkpt lat="44.4100831" lon="8.0960117"><ele>702.0</ele><time>2026-04-25T14:03:06.837Z</time></trkpt><trkpt lat="44.4100065" lon="8.096282"><ele>705.6666666666666</ele><time>2026-04-25T14:03:07.85Z</time></trkpt><trkpt lat="44.4099502" lon="8.0965524"><ele>709.3333333333333</ele><time>2026-04-25T14:03:08.836Z</time></trkpt><trkpt lat="44.4099212" lon="8.0968259"><ele>713.0</ele><time>2026-04-25T14:03:09.847Z</time></trkpt><trkpt lat="44.4099362" lon="8.0970913"><ele>715.6666666666666</ele><time>2026-04-25T14:03:10.838Z</time></trkpt><trkpt lat="44.4099774" lon="8.0973376"><ele>718.3333333333334</ele><time>2026-04-25T14:03:11.847Z</time></trkpt><trkpt lat="44.4100505" lon="8.0975986"><ele>721.0</ele><time>2026-04-25T14:03:12.835Z</time></trkpt><trkpt lat="44.4101331" lon="8.0978494"><ele>722.0</ele><time>2026-04-25T14:03:13.852Z</time></trkpt><trkpt lat="44.4102227" lon="8.0980966"><ele>723.0</ele><time>2026-04-25T14:03:14.851Z</time></trkpt><trkpt lat="44.410319" lon="8.0983412"><ele>724.0</ele><time>2026-04-25T14:03:15.839Z</time></trkpt><trkpt lat="44.410418" lon="8.098574"><ele>725.0</ele><time>2026-04-25T14:03:16.852Z</time></trkpt><trkpt lat="44.4105105" lon="8.0987941"><ele>726.0</ele><time>2026-04-25T14:03:17.839Z</time></trkpt><trkpt lat="44.4105744" lon="8.099024"><ele>727.0</ele><time>2026-04-25T14:03:18.837Z</time></trkpt><trkpt lat="44.4106001" lon="8.0992543"><ele>727.0</ele><time>2026-04-25T14:03:19.847Z</time></trkpt><trkpt lat="44.410589" lon="8.0994658"><ele>727.0</ele><time>2026-04-25T14:03:20.843Z</time></trkpt><trkpt lat="44.4105392" lon="8.0996708"><ele>727.0</ele><time>2026-04-25T14:03:21.838Z</time></trkpt><trkpt lat="44.4104723" lon="8.0998762"><ele>721.6666666666667</ele><time>2026-04-25T14:03:22.845Z</time></trkpt><trkpt lat="44.4104033" lon="8.1000858"><ele>716.3333333333334</ele><time>2026-04-25T14:03:23.85Z</time></trkpt><trkpt lat="44.4103358" lon="8.1003036"><ele>711.0</ele><time>2026-04-25T14:03:24.844Z</time></trkpt><trkpt lat="44.4102624" lon="8.1005176"><ele>711.0</ele><time>2026-04-25T14:03:25.836Z</time></trkpt><trkpt lat="44.410183" lon="8.1007212"><ele>711.0</ele><time>2026-04-25T14:03:26.844Z</time></trkpt><trkpt lat="44.4100917" lon="8.1009124"><ele>711.0</ele><time>2026-04-25T14:03:27.848Z</time></trkpt><trkpt lat="44.4099921" lon="8.1010995"><ele>714.6666666666666</ele><time>2026-04-25T14:03:28.839Z</time></trkpt><trkpt lat="44.4098982" lon="8.1013001"><ele>718.3333333333333</ele><time>2026-04-25T14:03:29.845Z</time></trkpt><trkpt lat="44.4098217" lon="8.1015298"><ele>722.0</ele><time>2026-04-25T14:03:30.847Z</time></trkpt><trkpt lat="44.4097611" lon="8.1017677"><ele>722.3333333333333</ele><time>2026-04-25T14:03:31.848Z</time></trkpt><trkpt lat="44.4097171" lon="8.1020045"><ele>722.6666666666666</ele><time>2026-04-25T14:03:32.843Z</time></trkpt><trkpt lat="44.4096766" lon="8.1022331"><ele>723.0</ele><time>2026-04-25T14:03:33.841Z</time></trkpt><trkpt lat="44.409638" lon="8.1024474"><ele>719.25</ele><time>2026-04-25T14:03:34.842Z</time></trkpt><trkpt lat="44.4096058" lon="8.1026517"><ele>715.5</ele><time>2026-04-25T14:03:35.85Z</time></trkpt><trkpt lat="44.4095854" lon="8.1028411"><ele>711.75</ele><time>2026-04-25T14:03:36.847Z</time></trkpt><trkpt lat="44.4095696" lon="8.1030058"><ele>708.0</ele><time>2026-04-25T14:03:37.85Z</time></trkpt><trkpt lat="44.4095488" lon="8.1031624"><ele>708.5999999999999</ele><time>2026-04-25T14:03:38.844Z</time></trkpt><trkpt lat="44.4095272" lon="8.1033019"><ele>709.1999999999999</ele><time>2026-04-25T14:03:39.854Z</time></trkpt><trkpt lat="44.4095013" lon="8.1034391"><ele>709.8</ele><time>2026-04-25T14:03:40.847Z</time></trkpt><trkpt lat="44.4094777" lon="8.1035804"><ele>710.4</ele><time>2026-04-25T14:03:41.84Z</time></trkpt><trkpt lat="44.4094543" lon="8.1037331"><ele>711.0</ele><time>2026-04-25T14:03:42.843Z</time></trkpt><trkpt lat="44.4094425" lon="8.1038945"><ele>711.0</ele><time>2026-04-25T14:03:43.842Z</time></trkpt><trkpt lat="44.4094382" lon="8.1040613"><ele>711.0</ele><time>2026-04-25T14:03:44.846Z</time></trkpt><trkpt lat="44.4094343" lon="8.1042266"><ele>711.0</ele><time>2026-04-25T14:03:45.845Z</time></trkpt><trkpt lat="44.4094214" lon="8.1043899"><ele>711.0</ele><time>2026-04-25T14:03:46.852Z</time></trkpt><trkpt lat="44.4093983" lon="8.1045487"><ele>712.25</ele><time>2026-04-25T14:03:47.85Z</time></trkpt><trkpt lat="44.4093712" lon="8.1047092"><ele>713.5</ele><time>2026-04-25T14:03:48.837Z</time></trkpt><trkpt lat="44.4093319" lon="8.1048536"><ele>714.75</ele><time>2026-04-25T14:03:49.837Z</time></trkpt><trkpt lat="44.409273" lon="8.104994"><ele>716.0</ele><time>2026-04-25T14:03:50.842Z</time></trkpt><trkpt lat="44.4091979" lon="8.1051217"><ele>717.0</ele><time>2026-04-25T14:03:51.839Z</time></trkpt><trkpt lat="44.4091275" lon="8.1052613"><ele>718.0</ele><time>2026-04-25T14:03:52.837Z</time></trkpt><trkpt lat="44.4090728" lon="8.105407"><ele>719.0</ele><time>2026-04-25T14:03:53.837Z</time></trkpt><trkpt lat="44.4090168" lon="8.1055513"><ele>720.0</ele><time>2026-04-25T14:03:54.849Z</time></trkpt><trkpt lat="44.4089404" lon="8.1056844"><ele>718.25</ele><time>2026-04-25T14:03:55.841Z</time></trkpt><trkpt lat="44.4088538" lon="8.1058047"><ele>716.5</ele><time>2026-04-25T14:03:56.85Z</time></trkpt><trkpt lat="44.4087515" lon="8.1058891"><ele>714.75</ele><time>2026-04-25T14:03:57.846Z</time></trkpt><trkpt lat="44.4086291" lon="8.10597"><ele>713.0</ele><time>2026-04-25T14:03:58.838Z</time></trkpt><trkpt lat="44.4085068" lon="8.1060159"><ele>713.0</ele><time>2026-04-25T14:03:59.849Z</time></trkpt><trkpt lat="44.4083852" lon="8.1060822"><ele>713.0</ele><time>2026-04-25T14:04:00.841Z</time></trkpt><trkpt lat="44.4082739" lon="8.1061729"><ele>713.0</ele><time>2026-04-25T14:04:01.847Z</time></trkpt><trkpt lat="44.4081722" lon="8.1062906"><ele>713.0</ele><time>2026-04-25T14:04:02.845Z</time></trkpt><trkpt lat="44.4080795" lon="8.106424"><ele>712.25</ele><time>2026-04-25T14:04:03.849Z</time></trkpt><trkpt lat="44.4079852" lon="8.1065526"><ele>711.5</ele><time>2026-04-25T14:04:04.85Z</time></trkpt><trkpt lat="44.4078891" lon="8.10667"><ele>710.75</ele><time>2026-04-25T14:04:05.846Z</time></trkpt><trkpt lat="44.4077864" lon="8.1067689"><ele>710.0</ele><time>2026-04-25T14:04:06.84Z</time></trkpt><trkpt lat="44.4076782" lon="8.1068571"><ele>710.0</ele><time>2026-04-25T14:04:07.847Z</time></trkpt><trkpt lat="44.4075583" lon="8.1069262"><ele>710.0</ele><time>2026-04-25T14:04:08.844Z</time></trkpt><trkpt lat="44.4074413" lon="8.1069942"><ele>710.0</ele><time>2026-04-25T14:04:09.845Z</time></trkpt><trkpt lat="44.4073229" lon="8.1070675"><ele>710.0</ele><time>2026-04-25T14:04:10.845Z</time></trkpt><trkpt lat="44.4071999" lon="8.1071561"><ele>710.3333333333333</ele><time>2026-04-25T14:04:11.85Z</time></trkpt><trkpt lat="44.4070693" lon="8.1072702"><ele>710.6666666666666</ele><time>2026-04-25T14:04:12.856Z</time></trkpt><trkpt lat="44.4069381" lon="8.1074227"><ele>711.0</ele><time>2026-04-25T14:04:13.836Z</time></trkpt><trkpt lat="44.406809" lon="8.1076192"><ele>711.0</ele><time>2026-04-25T14:04:14.844Z</time></trkpt><trkpt lat="44.4066786" lon="8.1078474"><ele>711.0</ele><time>2026-04-25T14:04:15.841Z</time></trkpt><trkpt lat="44.406548" lon="8.1080893"><ele>711.0</ele><time>2026-04-25T14:04:16.853Z</time></trkpt><trkpt lat="44.4063871" lon="8.108366"><ele>706.0</ele><time>2026-04-25T14:04:17.84Z</time></trkpt><trkpt lat="44.4062073" lon="8.108616"><ele>701.0</ele><time>2026-04-25T14:04:18.84Z</time></trkpt><trkpt lat="44.4060241" lon="8.1088535"><ele>706.5</ele><time>2026-04-25T14:04:19.851Z</time></trkpt><trkpt lat="44.4058463" lon="8.1090779"><ele>712.0</ele><time>2026-04-25T14:04:20.844Z</time></trkpt><trkpt lat="44.4056698" lon="8.1092918"><ele>712.0</ele><time>2026-04-25T14:04:21.842Z</time></trkpt><trkpt lat="44.4055132" lon="8.1094808"><ele>712.0</ele><time>2026-04-25T14:04:22.837Z</time></trkpt><trkpt lat="44.4053659" lon="8.1096568"><ele>712.0</ele><time>2026-04-25T14:04:23.845Z</time></trkpt><trkpt lat="44.4052262" lon="8.1098551"><ele>710.6666666666667</ele><time>2026-04-25T14:04:24.856Z</time></trkpt><trkpt lat="44.4051099" lon="8.1100885"><ele>709.3333333333334</ele><time>2026-04-25T14:04:25.85Z</time></trkpt><trkpt lat="44.4050098" lon="8.1103387"><ele>708.0</ele><time>2026-04-25T14:04:26.849Z</time></trkpt><trkpt lat="44.4049083" lon="8.1106028"><ele>709.6666666666666</ele><time>2026-04-25T14:04:27.846Z</time></trkpt><trkpt lat="44.4047952" lon="8.110859"><ele>711.3333333333333</ele><time>2026-04-25T14:04:28.842Z</time></trkpt><trkpt lat="44.4046654" lon="8.1111102"><ele>713.0</ele><time>2026-04-25T14:04:29.844Z</time></trkpt><trkpt lat="44.4045253" lon="8.1113531"><ele>709.6666666666666</ele><time>2026-04-25T14:04:30.837Z</time></trkpt><trkpt lat="44.4043879" lon="8.1115913"><ele>706.3333333333334</ele><time>2026-04-25T14:04:31.847Z</time></trkpt><trkpt lat="44.4042517" lon="8.1118279"><ele>703.0</ele><time>2026-04-25T14:04:32.848Z</time></trkpt><trkpt lat="44.4041138" lon="8.1120479"><ele>703.0</ele><time>2026-04-25T14:04:33.847Z</time></trkpt><trkpt lat="44.4039765" lon="8.1122508"><ele>703.0</ele><time>2026-04-25T14:04:34.846Z</time></trkpt><trkpt lat="44.4038418" lon="8.1124295"><ele>703.0</ele><time>2026-04-25T14:04:35.846Z</time></trkpt><trkpt lat="44.4037245" lon="8.1126107"><ele>702.3333333333334</ele><time>2026-04-25T14:04:36.844Z</time></trkpt><trkpt lat="44.4036312" lon="8.1128375"><ele>701.6666666666666</ele><time>2026-04-25T14:04:37.846Z</time></trkpt><trkpt lat="44.403563" lon="8.1130916"><ele>701.0</ele><time>2026-04-25T14:04:38.837Z</time></trkpt><trkpt lat="44.4035039" lon="8.1133795"><ele>701.0</ele><time>2026-04-25T14:04:39.85Z</time></trkpt><trkpt lat="44.4034507" lon="8.1136863"><ele>701.0</ele><time>2026-04-25T14:04:40.846Z</time></trkpt><trkpt lat="44.4034115" lon="8.1140013"><ele>700.3333333333333</ele><time>2026-04-25T14:04:41.849Z</time></trkpt><trkpt lat="44.4033843" lon="8.1143085"><ele>699.6666666666666</ele><time>2026-04-25T14:04:42.85Z</time></trkpt><trkpt lat="44.4033583" lon="8.1145886"><ele>699.0</ele><time>2026-04-25T14:04:43.848Z</time></trkpt><trkpt lat="44.4033216" lon="8.1148467"><ele>699.0</ele><time>2026-04-25T14:04:44.839Z</time></trkpt><trkpt lat="44.4032641" lon="8.1150847"><ele>699.0</ele><time>2026-04-25T14:04:45.846Z</time></trkpt><trkpt lat="44.403173" lon="8.1153015"><ele>699.0</ele><time>2026-04-25T14:04:46.842Z</time></trkpt><trkpt lat="44.4030498" lon="8.115484"><ele>698.3333333333334</ele><time>2026-04-25T14:04:47.839Z</time></trkpt><trkpt lat="44.4029103" lon="8.1156463"><ele>697.6666666666667</ele><time>2026-04-25T14:04:48.845Z</time></trkpt><trkpt lat="44.4027707" lon="8.1158269"><ele>697.0</ele><time>2026-04-25T14:04:49.846Z</time></trkpt><trkpt lat="44.4026415" lon="8.1160219"><ele>697.0</ele><time>2026-04-25T14:04:50.839Z</time></trkpt><trkpt lat="44.4025253" lon="8.1162373"><ele>697.0</ele><time>2026-04-25T14:04:51.838Z</time></trkpt><trkpt lat="44.4024085" lon="8.1164565"><ele>697.0</ele><time>2026-04-25T14:04:52.839Z</time></trkpt><trkpt lat="44.4022802" lon="8.1166569"><ele>696.3333333333334</ele><time>2026-04-25T14:04:53.835Z</time></trkpt><trkpt lat="44.402148" lon="8.1168316"><ele>695.6666666666666</ele><time>2026-04-25T14:04:54.841Z</time></trkpt><trkpt lat="44.4020256" lon="8.1169978"><ele>695.0</ele><time>2026-04-25T14:04:55.845Z</time></trkpt><trkpt lat="44.4019036" lon="8.1171411"><ele>695.0</ele><time>2026-04-25T14:04:56.844Z</time></trkpt><trkpt lat="44.4017761" lon="8.1172492"><ele>695.0</ele><time>2026-04-25T14:04:57.837Z</time></trkpt><trkpt lat="44.4016487" lon="8.1173209"><ele>695.0</ele><time>2026-04-25T14:04:58.847Z</time></trkpt><trkpt lat="44.4015285" lon="8.1173867"><ele>695.0</ele><time>2026-04-25T14:04:59.848Z</time></trkpt><trkpt lat="44.4014268" lon="8.1174982"><ele>698.0</ele><time>2026-04-25T14:05:00.846Z</time></trkpt><trkpt lat="44.4013257" lon="8.1176284"><ele>701.0</ele><time>2026-04-25T14:05:01.838Z</time></trkpt><trkpt lat="44.4012017" lon="8.1177423"><ele>704.0</ele><time>2026-04-25T14:05:02.838Z</time></trkpt><trkpt lat="44.4010711" lon="8.1178683"><ele>707.0</ele><time>2026-04-25T14:05:03.843Z</time></trkpt><trkpt lat="44.4009318" lon="8.1180171"><ele>707.0</ele><time>2026-04-25T14:05:04.844Z</time></trkpt><trkpt lat="44.4007927" lon="8.1182124"><ele>707.0</ele><time>2026-04-25T14:05:05.84Z</time></trkpt><trkpt lat="44.4006553" lon="8.1184282"><ele>707.0</ele><time>2026-04-25T14:05:06.92Z</time></trkpt><trkpt lat="44.4005284" lon="8.1186755"><ele>710.5</ele><time>2026-04-25T14:05:07.842Z</time></trkpt><trkpt lat="44.4004189" lon="8.1189548"><ele>714.0</ele><time>2026-04-25T14:05:08.841Z</time></trkpt><trkpt lat="44.4003254" lon="8.1192587"><ele>715.0</ele><time>2026-04-25T14:05:09.841Z</time></trkpt><trkpt lat="44.4002485" lon="8.1195754"><ele>716.0</ele><time>2026-04-25T14:05:10.845Z</time></trkpt><trkpt lat="44.4001863" lon="8.1198957"><ele>714.6666666666666</ele><time>2026-04-25T14:05:11.843Z</time></trkpt><trkpt lat="44.4001325" lon="8.1201953"><ele>713.3333333333334</ele><time>2026-04-25T14:05:12.837Z</time></trkpt><trkpt lat="44.400067" lon="8.1204621"><ele>712.0</ele><time>2026-04-25T14:05:13.842Z</time></trkpt><trkpt lat="44.3999815" lon="8.120697"><ele>712.0</ele><time>2026-04-25T14:05:14.849Z</time></trkpt><trkpt lat="44.3998769" lon="8.1209082"><ele>712.0</ele><time>2026-04-25T14:05:15.849Z</time></trkpt><trkpt lat="44.3997486" lon="8.1211051"><ele>712.0</ele><time>2026-04-25T14:05:16.842Z</time></trkpt><trkpt lat="44.3996165" lon="8.1213085"><ele>712.0</ele><time>2026-04-25T14:05:17.839Z</time></trkpt><trkpt lat="44.3994805" lon="8.1215138"><ele>712.0</ele><time>2026-04-25T14:05:18.849Z</time></trkpt><trkpt lat="44.3993312" lon="8.1217105"><ele>712.0</ele><time>2026-04-25T14:05:19.851Z</time></trkpt><trkpt lat="44.399163" lon="8.1218945"><ele>710.6666666666667</ele><time>2026-04-25T14:05:20.843Z</time></trkpt><trkpt lat="44.3989818" lon="8.1220703"><ele>709.3333333333334</ele><time>2026-04-25T14:05:21.848Z</time></trkpt><trkpt lat="44.3987986" lon="8.1222353"><ele>708.0</ele><time>2026-04-25T14:05:22.849Z</time></trkpt><trkpt lat="44.39862" lon="8.1224017"><ele>705.3333333333334</ele><time>2026-04-25T14:05:23.85Z</time></trkpt><trkpt lat="44.3984471" lon="8.1225628"><ele>702.6666666666667</ele><time>2026-04-25T14:05:24.843Z</time></trkpt><trkpt lat="44.3982846" lon="8.1227085"><ele>700.0</ele><time>2026-04-25T14:05:25.836Z</time></trkpt><trkpt lat="44.3981385" lon="8.1228374"><ele>697.0</ele><time>2026-04-25T14:05:26.85Z</time></trkpt><trkpt lat="44.3979999" lon="8.1229632"><ele>694.0</ele><time>2026-04-25T14:05:27.846Z</time></trkpt><trkpt lat="44.3978811" lon="8.1230973"><ele>691.0</ele><time>2026-04-25T14:05:28.843Z</time></trkpt><trkpt lat="44.3977847" lon="8.1232538"><ele>691.0</ele><time>2026-04-25T14:05:29.845Z</time></trkpt><trkpt lat="44.3977181" lon="8.1234443"><ele>691.0</ele><time>2026-04-25T14:05:30.849Z</time></trkpt><trkpt lat="44.3976921" lon="8.1236756"><ele>691.0</ele><time>2026-04-25T14:05:31.851Z</time></trkpt><trkpt lat="44.3976958" lon="8.1238956"><ele>690.0</ele><time>2026-04-25T14:05:32.844Z</time></trkpt><trkpt lat="44.3976971" lon="8.1241197"><ele>689.0</ele><time>2026-04-25T14:05:33.838Z</time></trkpt><trkpt lat="44.3976545" lon="8.1243409"><ele>688.0</ele><time>2026-04-25T14:05:34.85Z</time></trkpt><trkpt lat="44.3975794" lon="8.1245447"><ele>688.0</ele><time>2026-04-25T14:05:35.84Z</time></trkpt><trkpt lat="44.3974686" lon="8.1247171"><ele>688.0</ele><time>2026-04-25T14:05:36.847Z</time></trkpt><trkpt lat="44.3973198" lon="8.1248616"><ele>688.0</ele><time>2026-04-25T14:05:37.847Z</time></trkpt><trkpt lat="44.3971685" lon="8.1250001"><ele>686.0</ele><time>2026-04-25T14:05:38.855Z</time></trkpt><trkpt lat="44.3970128" lon="8.1251356"><ele>684.0</ele><time>2026-04-25T14:05:39.841Z</time></trkpt><trkpt lat="44.3968572" lon="8.1252677"><ele>682.0</ele><time>2026-04-25T14:05:40.846Z</time></trkpt><trkpt lat="44.3967105" lon="8.1253952"><ele>682.0</ele><time>2026-04-25T14:05:41.847Z</time></trkpt><trkpt lat="44.3965885" lon="8.1255558"><ele>682.0</ele><time>2026-04-25T14:05:42.841Z</time></trkpt><trkpt lat="44.3964792" lon="8.1257455"><ele>682.0</ele><time>2026-04-25T14:05:43.841Z</time></trkpt><trkpt lat="44.3964005" lon="8.1259787"><ele>681.6666666666667</ele><time>2026-04-25T14:05:44.852Z</time></trkpt><trkpt lat="44.3963424" lon="8.1262309"><ele>681.3333333333334</ele><time>2026-04-25T14:05:45.842Z</time></trkpt><trkpt lat="44.3963058" lon="8.1265058"><ele>681.0</ele><time>2026-04-25T14:05:46.846Z</time></trkpt><trkpt lat="44.3962672" lon="8.1267815"><ele>681.0</ele><time>2026-04-25T14:05:47.85Z</time></trkpt><trkpt lat="44.3962114" lon="8.1270518"><ele>681.0</ele><time>2026-04-25T14:05:48.851Z</time></trkpt><trkpt lat="44.3961276" lon="8.1273103"><ele>681.0</ele><time>2026-04-25T14:05:49.847Z</time></trkpt><trkpt lat="44.39602" lon="8.1275489"><ele>680.0</ele><time>2026-04-25T14:05:50.836Z</time></trkpt><trkpt lat="44.3958887" lon="8.127778"><ele>679.0</ele><time>2026-04-25T14:05:51.84Z</time></trkpt><trkpt lat="44.395727" lon="8.1279855"><ele>678.0</ele><time>2026-04-25T14:05:52.841Z</time></trkpt><trkpt lat="44.3955342" lon="8.1281657"><ele>672.5</ele><time>2026-04-25T14:05:53.841Z</time></trkpt><trkpt lat="44.395326" lon="8.1283199"><ele>667.0</ele><time>2026-04-25T14:05:54.838Z</time></trkpt><trkpt lat="44.3950976" lon="8.1284541"><ele>667.0</ele><time>2026-04-25T14:05:55.854Z</time></trkpt><trkpt lat="44.3948656" lon="8.1285662"><ele>667.0</ele><time>2026-04-25T14:05:56.841Z</time></trkpt><trkpt lat="44.3946373" lon="8.1286493"><ele>668.0</ele><time>2026-04-25T14:05:57.839Z</time></trkpt><trkpt lat="44.3944271" lon="8.128677"><ele>669.0</ele><time>2026-04-25T14:05:58.837Z</time></trkpt><trkpt lat="44.3942276" lon="8.128695"><ele>670.0</ele><time>2026-04-25T14:05:59.84Z</time></trkpt><trkpt lat="44.3940441" lon="8.128741"><ele>670.0</ele><time>2026-04-25T14:06:00.851Z</time></trkpt><trkpt lat="44.3938604" lon="8.1288365"><ele>670.0</ele><time>2026-04-25T14:06:01.843Z</time></trkpt><trkpt lat="44.3936829" lon="8.128961"><ele>670.0</ele><time>2026-04-25T14:06:02.838Z</time></trkpt><trkpt lat="44.3935103" lon="8.1291026"><ele>672.0</ele><time>2026-04-25T14:06:03.843Z</time></trkpt><trkpt lat="44.3933556" lon="8.1292752"><ele>674.0</ele><time>2026-04-25T14:06:04.845Z</time></trkpt><trkpt lat="44.3932081" lon="8.1294895"><ele>676.0</ele><time>2026-04-25T14:06:05.839Z</time></trkpt><trkpt lat="44.3930541" lon="8.1296924"><ele>673.6666666666667</ele><time>2026-04-25T14:06:06.849Z</time></trkpt><trkpt lat="44.3928874" lon="8.1298747"><ele>671.3333333333334</ele><time>2026-04-25T14:06:07.847Z</time></trkpt><trkpt lat="44.3927085" lon="8.1300427"><ele>669.0</ele><time>2026-04-25T14:06:08.844Z</time></trkpt><trkpt lat="44.3925299" lon="8.1301941"><ele>674.6666666666666</ele><time>2026-04-25T14:06:09.841Z</time></trkpt><trkpt lat="44.3923479" lon="8.1303057"><ele>680.3333333333333</ele><time>2026-04-25T14:06:10.848Z</time></trkpt><trkpt lat="44.3921602" lon="8.1303945"><ele>686.0</ele><time>2026-04-25T14:06:11.846Z</time></trkpt><trkpt lat="44.3920027" lon="8.1303851"><ele>688.3333333333333</ele><time>2026-04-25T14:06:12.854Z</time></trkpt><trkpt lat="44.391828" lon="8.1303645"><ele>690.6666666666666</ele><time>2026-04-25T14:06:13.844Z</time></trkpt><trkpt lat="44.3916617" lon="8.1302821"><ele>693.0</ele><time>2026-04-25T14:06:14.837Z</time></trkpt><trkpt lat="44.3915065" lon="8.1301811"><ele>693.0</ele><time>2026-04-25T14:06:15.845Z</time></trkpt><trkpt lat="44.3913682" lon="8.130091"><ele>693.0</ele><time>2026-04-25T14:06:16.839Z</time></trkpt><trkpt lat="44.3912303" lon="8.1300283"><ele>693.0</ele><time>2026-04-25T14:06:17.849Z</time></trkpt><trkpt lat="44.391087" lon="8.1300192"><ele>693.0</ele><time>2026-04-25T14:06:18.845Z</time></trkpt><trkpt lat="44.3909548" lon="8.1300462"><ele>694.3333333333334</ele><time>2026-04-25T14:06:19.848Z</time></trkpt><trkpt lat="44.3908209" lon="8.1301605"><ele>695.6666666666667</ele><time>2026-04-25T14:06:20.848Z</time></trkpt><trkpt lat="44.3907219" lon="8.1303105"><ele>697.0</ele><time>2026-04-25T14:06:21.847Z</time></trkpt><trkpt lat="44.3906395" lon="8.1304818"><ele>697.0</ele><time>2026-04-25T14:06:22.835Z</time></trkpt><trkpt lat="44.3905482" lon="8.1306724"><ele>697.0</ele><time>2026-04-25T14:06:23.851Z</time></trkpt><trkpt lat="44.3904195" lon="8.130833"><ele>697.0</ele><time>2026-04-25T14:06:24.844Z</time></trkpt><trkpt lat="44.390274" lon="8.1310007"><ele>698.3333333333334</ele><time>2026-04-25T14:06:25.846Z</time></trkpt><trkpt lat="44.3901213" lon="8.1311756"><ele>699.6666666666666</ele><time>2026-04-25T14:06:26.845Z</time></trkpt><trkpt lat="44.389962" lon="8.1313509"><ele>701.0</ele><time>2026-04-25T14:06:27.85Z</time></trkpt><trkpt lat="44.3897862" lon="8.1315096"><ele>703.3333333333333</ele><time>2026-04-25T14:06:28.837Z</time></trkpt><trkpt lat="44.3895921" lon="8.1316413"><ele>705.6666666666666</ele><time>2026-04-25T14:06:29.842Z</time></trkpt><trkpt lat="44.3893872" lon="8.1317497"><ele>708.0</ele><time>2026-04-25T14:06:30.844Z</time></trkpt><trkpt lat="44.389174" lon="8.1318538"><ele>708.0</ele><time>2026-04-25T14:06:31.84Z</time></trkpt><trkpt lat="44.3889683" lon="8.1319597"><ele>708.0</ele><time>2026-04-25T14:06:32.834Z</time></trkpt><trkpt lat="44.3887817" lon="8.1320623"><ele>708.0</ele><time>2026-04-25T14:06:33.849Z</time></trkpt><trkpt lat="44.3886065" lon="8.1321478"><ele>711.0</ele><time>2026-04-25T14:06:34.85Z</time></trkpt><trkpt lat="44.388436" lon="8.1321938"><ele>714.0</ele><time>2026-04-25T14:06:35.85Z</time></trkpt><trkpt lat="44.3882736" lon="8.1321782"><ele>717.0</ele><time>2026-04-25T14:06:36.844Z</time></trkpt><trkpt lat="44.3881087" lon="8.1321175"><ele>718.0</ele><time>2026-04-25T14:06:37.848Z</time></trkpt><trkpt lat="44.3879368" lon="8.1320395"><ele>719.0</ele><time>2026-04-25T14:06:38.849Z</time></trkpt><trkpt lat="44.3877519" lon="8.1319666"><ele>720.0</ele><time>2026-04-25T14:06:39.85Z</time></trkpt><trkpt lat="44.3875627" lon="8.1319002"><ele>720.0</ele><time>2026-04-25T14:06:40.846Z</time></trkpt><trkpt lat="44.3873668" lon="8.1318552"><ele>720.0</ele><time>2026-04-25T14:06:41.85Z</time></trkpt><trkpt lat="44.3871671" lon="8.1318148"><ele>720.0</ele><time>2026-04-25T14:06:42.85Z</time></trkpt><trkpt lat="44.3869761" lon="8.1317796"><ele>719.0</ele><time>2026-04-25T14:06:43.838Z</time></trkpt><trkpt lat="44.3868064" lon="8.1317012"><ele>718.0</ele><time>2026-04-25T14:06:44.842Z</time></trkpt><trkpt lat="44.3866376" lon="8.1315944"><ele>717.0</ele><time>2026-04-25T14:06:45.84Z</time></trkpt><trkpt lat="44.3864818" lon="8.1314595"><ele>718.3333333333334</ele><time>2026-04-25T14:06:46.839Z</time></trkpt><trkpt lat="44.3863171" lon="8.131351"><ele>719.6666666666667</ele><time>2026-04-25T14:06:47.846Z</time></trkpt><trkpt lat="44.3861424" lon="8.1312663"><ele>721.0</ele><time>2026-04-25T14:06:48.844Z</time></trkpt><trkpt lat="44.3859714" lon="8.1312134"><ele>721.0</ele><time>2026-04-25T14:06:49.84Z</time></trkpt><trkpt lat="44.3857796" lon="8.1312573"><ele>721.0</ele><time>2026-04-25T14:06:50.838Z</time></trkpt><trkpt lat="44.3855986" lon="8.1312534"><ele>721.0</ele><time>2026-04-25T14:06:51.852Z</time></trkpt><trkpt lat="44.3854167" lon="8.1312631"><ele>724.3333333333334</ele><time>2026-04-25T14:06:52.843Z</time></trkpt><trkpt lat="44.3852356" lon="8.1312801"><ele>727.6666666666666</ele><time>2026-04-25T14:06:53.838Z</time></trkpt><trkpt lat="44.385053" lon="8.1313106"><ele>731.0</ele><time>2026-04-25T14:06:54.844Z</time></trkpt><trkpt lat="44.3848677" lon="8.1313472"><ele>731.0</ele><time>2026-04-25T14:06:55.848Z</time></trkpt><trkpt lat="44.3846799" lon="8.131384"><ele>731.0</ele><time>2026-04-25T14:06:56.844Z</time></trkpt><trkpt lat="44.3844869" lon="8.131422"><ele>731.0</ele><time>2026-04-25T14:06:57.841Z</time></trkpt><trkpt lat="44.3842968" lon="8.1314592"><ele>730.3333333333333</ele><time>2026-04-25T14:06:58.851Z</time></trkpt><trkpt lat="44.3841143" lon="8.1315104"><ele>729.6666666666666</ele><time>2026-04-25T14:06:59.854Z</time></trkpt><trkpt lat="44.3839402" lon="8.1315824"><ele>729.0</ele><time>2026-04-25T14:07:00.842Z</time></trkpt><trkpt lat="44.3837781" lon="8.1316745"><ele>729.0</ele><time>2026-04-25T14:07:01.836Z</time></trkpt><trkpt lat="44.3836242" lon="8.1317536"><ele>729.0</ele><time>2026-04-25T14:07:02.841Z</time></trkpt><trkpt lat="44.3834774" lon="8.1318195"><ele>729.0</ele><time>2026-04-25T14:07:03.846Z</time></trkpt><trkpt lat="44.3833416" lon="8.1318695"><ele>729.0</ele><time>2026-04-25T14:07:04.84Z</time></trkpt><trkpt lat="44.3832159" lon="8.1319171"><ele>729.0</ele><time>2026-04-25T14:07:05.843Z</time></trkpt><trkpt lat="44.3830975" lon="8.1319809"><ele>729.0</ele><time>2026-04-25T14:07:06.851Z</time></trkpt><trkpt lat="44.3829959" lon="8.1320543"><ele>729.0</ele><time>2026-04-25T14:07:07.849Z</time></trkpt><trkpt lat="44.3829037" lon="8.1321363"><ele>729.0</ele><time>2026-04-25T14:07:08.844Z</time></trkpt><trkpt lat="44.3828143" lon="8.1322163"><ele>729.0</ele><time>2026-04-25T14:07:09.843Z</time></trkpt><trkpt lat="44.3827353" lon="8.1322895"><ele>729.0</ele><time>2026-04-25T14:07:10.839Z</time></trkpt><trkpt lat="44.3826603" lon="8.1323731"><ele>729.0</ele><time>2026-04-25T14:07:11.846Z</time></trkpt><trkpt lat="44.3825937" lon="8.1324579"><ele>729.0</ele><time>2026-04-25T14:07:12.844Z</time></trkpt><trkpt lat="44.3825233" lon="8.1325458"><ele>729.0</ele><time>2026-04-25T14:07:13.847Z</time></trkpt><trkpt lat="44.3824485" lon="8.1326573"><ele>729.0</ele><time>2026-04-25T14:07:14.847Z</time></trkpt><trkpt lat="44.3823851" lon="8.1327857"><ele>729.0</ele><time>2026-04-25T14:07:15.843Z</time></trkpt><trkpt lat="44.3823159" lon="8.132919"><ele>729.0</ele><time>2026-04-25T14:07:16.847Z</time></trkpt><trkpt lat="44.3822395" lon="8.1330421"><ele>727.75</ele><time>2026-04-25T14:07:17.841Z</time></trkpt><trkpt lat="44.3821589" lon="8.1331665"><ele>726.5</ele><time>2026-04-25T14:07:18.839Z</time></trkpt><trkpt lat="44.3820699" lon="8.1333019"><ele>725.25</ele><time>2026-04-25T14:07:19.847Z</time></trkpt><trkpt lat="44.3819808" lon="8.1334282"><ele>724.0</ele><time>2026-04-25T14:07:20.845Z</time></trkpt><trkpt lat="44.3818903" lon="8.1335629"><ele>724.0</ele><time>2026-04-25T14:07:21.848Z</time></trkpt><trkpt lat="44.381802" lon="8.1336961"><ele>724.0</ele><time>2026-04-25T14:07:22.85Z</time></trkpt><trkpt lat="44.3817114" lon="8.133826"><ele>724.0</ele><time>2026-04-25T14:07:23.844Z</time></trkpt><trkpt lat="44.381609" lon="8.1339364"><ele>724.0</ele><time>2026-04-25T14:07:24.849Z</time></trkpt><trkpt lat="44.3815088" lon="8.1340252"><ele>723.75</ele><time>2026-04-25T14:07:25.842Z</time></trkpt><trkpt lat="44.3814078" lon="8.1341231"><ele>723.5</ele><time>2026-04-25T14:07:26.838Z</time></trkpt><trkpt lat="44.3813063" lon="8.134213"><ele>723.25</ele><time>2026-04-25T14:07:27.839Z</time></trkpt><trkpt lat="44.3812086" lon="8.1343064"><ele>723.0</ele><time>2026-04-25T14:07:28.847Z</time></trkpt><trkpt lat="44.3811105" lon="8.1344108"><ele>723.0</ele><time>2026-04-25T14:07:29.846Z</time></trkpt><trkpt lat="44.3810158" lon="8.1345112"><ele>723.0</ele><time>2026-04-25T14:07:30.856Z</time></trkpt><trkpt lat="44.3809238" lon="8.1346307"><ele>723.0</ele><time>2026-04-25T14:07:31.853Z</time></trkpt><trkpt lat="44.3808465" lon="8.1347696"><ele>723.0</ele><time>2026-04-25T14:07:32.842Z</time></trkpt><trkpt lat="44.380786" lon="8.134924"><ele>725.5</ele><time>2026-04-25T14:07:33.841Z</time></trkpt><trkpt lat="44.3807333" lon="8.135073"><ele>728.0</ele><time>2026-04-25T14:07:34.844Z</time></trkpt><trkpt lat="44.38069" lon="8.1352415"><ele>730.5</ele><time>2026-04-25T14:07:35.845Z</time></trkpt><trkpt lat="44.3806625" lon="8.1354174"><ele>733.0</ele><time>2026-04-25T14:07:36.849Z</time></trkpt><trkpt lat="44.3806516" lon="8.1356045"><ele>735.0</ele><time>2026-04-25T14:07:37.839Z</time></trkpt><trkpt lat="44.3806457" lon="8.1357942"><ele>737.0</ele><time>2026-04-25T14:07:38.852Z</time></trkpt><trkpt lat="44.3806358" lon="8.1359841"><ele>739.0</ele><time>2026-04-25T14:07:39.847Z</time></trkpt><trkpt lat="44.3806232" lon="8.1361724"><ele>741.0</ele><time>2026-04-25T14:07:40.847Z</time></trkpt><trkpt lat="44.380598" lon="8.1363564"><ele>741.0</ele><time>2026-04-25T14:07:41.853Z</time></trkpt><trkpt lat="44.3805569" lon="8.1365318"><ele>741.0</ele><time>2026-04-25T14:07:42.849Z</time></trkpt><trkpt lat="44.3805122" lon="8.1367142"><ele>741.0</ele><time>2026-04-25T14:07:43.839Z</time></trkpt><trkpt lat="44.3804429" lon="8.1368882"><ele>741.0</ele><time>2026-04-25T14:07:44.847Z</time></trkpt><trkpt lat="44.3803705" lon="8.1370649"><ele>738.0</ele><time>2026-04-25T14:07:45.848Z</time></trkpt><trkpt lat="44.3803" lon="8.1372633"><ele>735.0</ele><time>2026-04-25T14:07:46.845Z</time></trkpt><trkpt lat="44.3802445" lon="8.1374816"><ele>732.0</ele><time>2026-04-25T14:07:47.852Z</time></trkpt><trkpt lat="44.3801898" lon="8.1376981"><ele>732.0</ele><time>2026-04-25T14:07:48.851Z</time></trkpt><trkpt lat="44.3801239" lon="8.1378997"><ele>732.0</ele><time>2026-04-25T14:07:49.848Z</time></trkpt><trkpt lat="44.3800452" lon="8.1380805"><ele>732.0</ele><time>2026-04-25T14:07:50.837Z</time></trkpt><trkpt lat="44.3799453" lon="8.1382365"><ele>731.3333333333334</ele><time>2026-04-25T14:07:51.844Z</time></trkpt><trkpt lat="44.3798183" lon="8.1383646"><ele>730.6666666666667</ele><time>2026-04-25T14:07:52.848Z</time></trkpt><trkpt lat="44.3796764" lon="8.1384631"><ele>730.0</ele><time>2026-04-25T14:07:53.846Z</time></trkpt><trkpt lat="44.3795214" lon="8.1385215"><ele>730.0</ele><time>2026-04-25T14:07:54.85Z</time></trkpt><trkpt lat="44.3793724" lon="8.1385838"><ele>730.0</ele><time>2026-04-25T14:07:55.845Z</time></trkpt><trkpt lat="44.3792377" lon="8.1386625"><ele>730.0</ele><time>2026-04-25T14:07:56.854Z</time></trkpt><trkpt lat="44.3791243" lon="8.1387655"><ele>730.0</ele><time>2026-04-25T14:07:57.848Z</time></trkpt><trkpt lat="44.3790207" lon="8.1389165"><ele>728.3333333333334</ele><time>2026-04-25T14:07:58.839Z</time></trkpt><trkpt lat="44.3789287" lon="8.139078"><ele>726.6666666666666</ele><time>2026-04-25T14:07:59.837Z</time></trkpt><trkpt lat="44.3788489" lon="8.1392696"><ele>725.0</ele><time>2026-04-25T14:08:00.85Z</time></trkpt><trkpt lat="44.3787807" lon="8.1394766"><ele>725.0</ele><time>2026-04-25T14:08:01.85Z</time></trkpt><trkpt lat="44.3787296" lon="8.1396965"><ele>725.0</ele><time>2026-04-25T14:08:02.837Z</time></trkpt><trkpt lat="44.3786939" lon="8.1399265"><ele>725.0</ele><time>2026-04-25T14:08:03.844Z</time></trkpt><trkpt lat="44.3786613" lon="8.1401594"><ele>726.6666666666666</ele><time>2026-04-25T14:08:04.849Z</time></trkpt><trkpt lat="44.3786207" lon="8.1403791"><ele>728.3333333333334</ele><time>2026-04-25T14:08:05.846Z</time></trkpt><trkpt lat="44.3785655" lon="8.1405823"><ele>730.0</ele><time>2026-04-25T14:08:06.838Z</time></trkpt><trkpt lat="44.3785043" lon="8.1407721"><ele>732.25</ele><time>2026-04-25T14:08:07.838Z</time></trkpt><trkpt lat="44.378427" lon="8.1409496"><ele>734.5</ele><time>2026-04-25T14:08:08.85Z</time></trkpt><trkpt lat="44.3783482" lon="8.1411042"><ele>736.75</ele><time>2026-04-25T14:08:09.853Z</time></trkpt><trkpt lat="44.3782771" lon="8.1412336"><ele>739.0</ele><time>2026-04-25T14:08:10.847Z</time></trkpt><trkpt lat="44.3782084" lon="8.1413392"><ele>739.0</ele><time>2026-04-25T14:08:11.847Z</time></trkpt><trkpt lat="44.3781346" lon="8.1414144"><ele>739.0</ele><time>2026-04-25T14:08:12.845Z</time></trkpt><trkpt lat="44.3780403" lon="8.1414513"><ele>739.0</ele><time>2026-04-25T14:08:13.837Z</time></trkpt><trkpt lat="44.3779524" lon="8.14147"><ele>739.0</ele><time>2026-04-25T14:08:14.85Z</time></trkpt><trkpt lat="44.3778577" lon="8.1414931"><ele>739.0</ele><time>2026-04-25T14:08:15.846Z</time></trkpt><trkpt lat="44.377749" lon="8.1415092"><ele>737.8000000000001</ele><time>2026-04-25T14:08:16.838Z</time></trkpt><trkpt lat="44.3776336" lon="8.1415136"><ele>736.6</ele><time>2026-04-25T14:08:17.839Z</time></trkpt><trkpt lat="44.377521" lon="8.1415278"><ele>735.4</ele><time>2026-04-25T14:08:18.85Z</time></trkpt><trkpt lat="44.3774085" lon="8.1415303"><ele>734.2</ele><time>2026-04-25T14:08:19.846Z</time></trkpt><trkpt lat="44.3773064" lon="8.1415095"><ele>733.0</ele><time>2026-04-25T14:08:20.842Z</time></trkpt><trkpt lat="44.3771934" lon="8.1414655"><ele>733.25</ele><time>2026-04-25T14:08:21.84Z</time></trkpt><trkpt lat="44.3770728" lon="8.1414136"><ele>733.5</ele><time>2026-04-25T14:08:22.848Z</time></trkpt><trkpt lat="44.3769455" lon="8.1413485"><ele>733.75</ele><time>2026-04-25T14:08:23.845Z</time></trkpt><trkpt lat="44.3768159" lon="8.1412729"><ele>734.0</ele><time>2026-04-25T14:08:24.842Z</time></trkpt><trkpt lat="44.3766806" lon="8.1411968"><ele>734.0</ele><time>2026-04-25T14:08:25.848Z</time></trkpt><trkpt lat="44.3765468" lon="8.1411126"><ele>734.0</ele><time>2026-04-25T14:08:26.846Z</time></trkpt><trkpt lat="44.3764089" lon="8.1410308"><ele>734.0</ele><time>2026-04-25T14:08:27.849Z</time></trkpt><trkpt lat="44.3762821" lon="8.1409484"><ele>734.0</ele><time>2026-04-25T14:08:28.847Z</time></trkpt><trkpt lat="44.3761593" lon="8.1408479"><ele>734.0</ele><time>2026-04-25T14:08:29.835Z</time></trkpt><trkpt lat="44.3760439" lon="8.140734"><ele>734.0</ele><time>2026-04-25T14:08:30.847Z</time></trkpt><trkpt lat="44.3759329" lon="8.1406237"><ele>734.0</ele><time>2026-04-25T14:08:31.849Z</time></trkpt><trkpt lat="44.3758305" lon="8.1405197"><ele>734.0</ele><time>2026-04-25T14:08:32.844Z</time></trkpt><trkpt lat="44.3757345" lon="8.1404231"><ele>733.8000000000001</ele><time>2026-04-25T14:08:33.856Z</time></trkpt><trkpt lat="44.3756417" lon="8.1403318"><ele>733.6</ele><time>2026-04-25T14:08:34.853Z</time></trkpt><trkpt lat="44.3755572" lon="8.1402462"><ele>733.4</ele><time>2026-04-25T14:08:35.855Z</time></trkpt><trkpt lat="44.3754775" lon="8.1401682"><ele>733.2</ele><time>2026-04-25T14:08:36.848Z</time></trkpt><trkpt lat="44.3754017" lon="8.1400932"><ele>733.0</ele><time>2026-04-25T14:08:37.839Z</time></trkpt><trkpt lat="44.375328" lon="8.1400227"><ele>732.6666666666667</ele><time>2026-04-25T14:08:38.846Z</time></trkpt><trkpt lat="44.3752651" lon="8.1399602"><ele>732.3333333333334</ele><time>2026-04-25T14:08:39.847Z</time></trkpt><trkpt lat="44.3752169" lon="8.1399018"><ele>732.0</ele><time>2026-04-25T14:08:40.843Z</time></trkpt><trkpt lat="44.3751424" lon="8.139786"><ele>731.6666666666666</ele><time>2026-04-25T14:08:42.847Z</time></trkpt><trkpt lat="44.3751076" lon="8.1396896"><ele>731.3333333333333</ele><time>2026-04-25T14:08:44.839Z</time></trkpt><trkpt lat="44.3750796" lon="8.1395745"><ele>731.0</ele><time>2026-04-25T14:08:50.847Z</time></trkpt><trkpt lat="44.3750307" lon="8.139497"><ele>731.3333333333333</ele><time>2026-04-25T14:08:52.85Z</time></trkpt><trkpt lat="44.3749546" lon="8.1395699"><ele>731.6666666666666</ele><time>2026-04-25T14:08:54.883Z</time></trkpt><trkpt lat="44.3749185" lon="8.1396451"><ele>732.0</ele><time>2026-04-25T14:08:55.85Z</time></trkpt><trkpt lat="44.37488" lon="8.1397231"><ele>732.3333333333334</ele><time>2026-04-25T14:08:56.844Z</time></trkpt><trkpt lat="44.3748377" lon="8.1397935"><ele>732.6666666666667</ele><time>2026-04-25T14:08:57.852Z</time></trkpt><trkpt lat="44.3747569" lon="8.1398781"><ele>733.0</ele><time>2026-04-25T14:08:59.846Z</time></trkpt><trkpt lat="44.3746743" lon="8.1398991"><ele>732.9999999999999</ele><time>2026-04-25T14:09:01.839Z</time></trkpt><trkpt lat="44.3745835" lon="8.1398976"><ele>733.0</ele><time>2026-04-25T14:09:03.851Z</time></trkpt><trkpt lat="44.3745083" lon="8.1399293"><ele>733.0</ele><time>2026-04-25T14:09:06.853Z</time></trkpt><trkpt lat="44.374573" lon="8.1399026"><ele>733.0</ele><time>2026-04-25T14:11:59.903Z</time></trkpt><trkpt lat="44.3746473" lon="8.1398925"><ele>733.0</ele><time>2026-04-25T14:12:05.916Z</time></trkpt><trkpt lat="44.3747149" lon="8.1398713"><ele>732.9999999999999</ele><time>2026-04-25T14:12:10.903Z</time></trkpt><trkpt lat="44.3747597" lon="8.1398078"><ele>733.0</ele><time>2026-04-25T14:12:16.896Z</time></trkpt><trkpt lat="44.3747849" lon="8.13972"><ele>727.0</ele><time>2026-04-25T14:12:31.895Z</time></trkpt><trkpt lat="44.3747538" lon="8.1398018"><ele>727.0</ele><time>2026-04-25T14:14:53.883Z</time></trkpt><trkpt lat="44.3747232" lon="8.1398855"><ele>731.0</ele><time>2026-04-25T14:14:59.883Z</time></trkpt><trkpt lat="44.3746854" lon="8.1399697"><ele>733.0</ele><time>2026-04-25T14:15:05.896Z</time></trkpt><trkpt lat="44.3746173" lon="8.1399233"><ele>733.0</ele><time>2026-04-25T14:15:12.88Z</time></trkpt><trkpt lat="44.3745527" lon="8.1399293"><ele>733.0</ele><time>2026-04-25T14:15:17.889Z</time></trkpt></trkseg></trk></gpx>